<?xml version="1.0" encoding="UTF-8" standalone="no" ?>
<gpx xmlns="http://www.topografix.com/GPX/1/1" xmlns:xsi="http://www.w3.org/2001/XMLSchema-instance" xsi:schemaLocation="http://www.topografix.com/GPX/1/1 http://www.topografix.com/GPX/1/1/gpx.xsd" version="1.1" creator="VisuGPX - https://www.visugpx.com">
  <metadata>
    <name>Charbonnière - Col de Fontrijolle - Marcy</name>
    <desc><![CDATA[Très très boueux, au printemps ça doit être vraiment sympa comme enchaînement ! !]]></desc>
  </metadata>
  <trk>
    <name><![CDATA[TracÃ© actuel: 08 DEC 2012 12:53]]></name>
    <trkseg>
      <trkpt lat="45.78527" lon="4.73428">
        <ele>212</ele>
        <time>2012-12-08T11:53:08Z</time>
      </trkpt>
      <trkpt lat="45.78527" lon="4.73428">
        <ele>212</ele>
        <time>2012-12-08T11:53:09Z</time>
      </trkpt>
      <trkpt lat="45.78526" lon="4.73428">
        <ele>224</ele>
        <time>2012-12-08T11:53:12Z</time>
      </trkpt>
      <trkpt lat="45.78526" lon="4.73428">
        <ele>224</ele>
        <time>2012-12-08T11:53:13Z</time>
      </trkpt>
      <trkpt lat="45.78525" lon="4.73429">
        <ele>224</ele>
        <time>2012-12-08T11:53:20Z</time>
      </trkpt>
      <trkpt lat="45.78526" lon="4.73441">
        <ele>223</ele>
        <time>2012-12-08T11:53:26Z</time>
      </trkpt>
      <trkpt lat="45.78527" lon="4.73442">
        <ele>223</ele>
        <time>2012-12-08T11:53:27Z</time>
      </trkpt>
      <trkpt lat="45.78532" lon="4.73449">
        <ele>223</ele>
        <time>2012-12-08T11:53:31Z</time>
      </trkpt>
      <trkpt lat="45.7853" lon="4.73462">
        <ele>223</ele>
        <time>2012-12-08T11:53:37Z</time>
      </trkpt>
      <trkpt lat="45.78529" lon="4.73484">
        <ele>222</ele>
        <time>2012-12-08T11:53:44Z</time>
      </trkpt>
      <trkpt lat="45.78517" lon="4.73516">
        <ele>222</ele>
        <time>2012-12-08T11:53:54Z</time>
      </trkpt>
      <trkpt lat="45.78507" lon="4.73541">
        <ele>222</ele>
        <time>2012-12-08T11:54:02Z</time>
      </trkpt>
      <trkpt lat="45.78505" lon="4.73549">
        <ele>222</ele>
        <time>2012-12-08T11:54:04Z</time>
      </trkpt>
      <trkpt lat="45.78485" lon="4.73563">
        <ele>224</ele>
        <time>2012-12-08T11:54:13Z</time>
      </trkpt>
      <trkpt lat="45.78468" lon="4.7357">
        <ele>225</ele>
        <time>2012-12-08T11:54:20Z</time>
      </trkpt>
      <trkpt lat="45.78453" lon="4.73575">
        <ele>226</ele>
        <time>2012-12-08T11:54:27Z</time>
      </trkpt>
      <trkpt lat="45.78443" lon="4.73574">
        <ele>226</ele>
        <time>2012-12-08T11:54:33Z</time>
      </trkpt>
      <trkpt lat="45.78436" lon="4.73576">
        <ele>226</ele>
        <time>2012-12-08T11:54:37Z</time>
      </trkpt>
      <trkpt lat="45.78411" lon="4.73578">
        <ele>227</ele>
        <time>2012-12-08T11:54:48Z</time>
      </trkpt>
      <trkpt lat="45.78392" lon="4.73584">
        <ele>227</ele>
        <time>2012-12-08T11:54:55Z</time>
      </trkpt>
      <trkpt lat="45.78369" lon="4.73586">
        <ele>227</ele>
        <time>2012-12-08T11:55:01Z</time>
      </trkpt>
      <trkpt lat="45.78353" lon="4.73588">
        <ele>227</ele>
        <time>2012-12-08T11:55:08Z</time>
      </trkpt>
      <trkpt lat="45.78329" lon="4.7359">
        <ele>227</ele>
        <time>2012-12-08T11:55:16Z</time>
      </trkpt>
      <trkpt lat="45.78313" lon="4.73591">
        <ele>227</ele>
        <time>2012-12-08T11:55:22Z</time>
      </trkpt>
      <trkpt lat="45.78305" lon="4.73596">
        <ele>227</ele>
        <time>2012-12-08T11:55:27Z</time>
      </trkpt>
      <trkpt lat="45.78303" lon="4.73596">
        <ele>227</ele>
        <time>2012-12-08T11:55:37Z</time>
      </trkpt>
      <trkpt lat="45.783" lon="4.73599">
        <ele>227</ele>
        <time>2012-12-08T11:55:47Z</time>
      </trkpt>
      <trkpt lat="45.78296" lon="4.73602">
        <ele>227</ele>
        <time>2012-12-08T11:55:50Z</time>
      </trkpt>
      <trkpt lat="45.78282" lon="4.73611">
        <ele>227</ele>
        <time>2012-12-08T11:55:57Z</time>
      </trkpt>
      <trkpt lat="45.78269" lon="4.73624">
        <ele>227</ele>
        <time>2012-12-08T11:56:02Z</time>
      </trkpt>
      <trkpt lat="45.78246" lon="4.73645">
        <ele>225</ele>
        <time>2012-12-08T11:56:09Z</time>
      </trkpt>
      <trkpt lat="45.78241" lon="4.73648">
        <ele>224</ele>
        <time>2012-12-08T11:56:11Z</time>
      </trkpt>
      <trkpt lat="45.78231" lon="4.73691">
        <ele>224</ele>
        <time>2012-12-08T11:56:19Z</time>
      </trkpt>
      <trkpt lat="45.78213" lon="4.73737">
        <ele>222</ele>
        <time>2012-12-08T11:56:27Z</time>
      </trkpt>
      <trkpt lat="45.78193" lon="4.73784">
        <ele>222</ele>
        <time>2012-12-08T11:56:35Z</time>
      </trkpt>
      <trkpt lat="45.7817" lon="4.73843">
        <ele>221</ele>
        <time>2012-12-08T11:56:45Z</time>
      </trkpt>
      <trkpt lat="45.78159" lon="4.73888">
        <ele>221</ele>
        <time>2012-12-08T11:56:52Z</time>
      </trkpt>
      <trkpt lat="45.78145" lon="4.73939">
        <ele>221</ele>
        <time>2012-12-08T11:57:00Z</time>
      </trkpt>
      <trkpt lat="45.78142" lon="4.73945">
        <ele>220</ele>
        <time>2012-12-08T11:57:01Z</time>
      </trkpt>
      <trkpt lat="45.78139" lon="4.7395">
        <ele>221</ele>
        <time>2012-12-08T11:57:02Z</time>
      </trkpt>
      <trkpt lat="45.78127" lon="4.73963">
        <ele>220</ele>
        <time>2012-12-08T11:57:05Z</time>
      </trkpt>
      <trkpt lat="45.78122" lon="4.73967">
        <ele>221</ele>
        <time>2012-12-08T11:57:06Z</time>
      </trkpt>
      <trkpt lat="45.78118" lon="4.73971">
        <ele>221</ele>
        <time>2012-12-08T11:57:07Z</time>
      </trkpt>
      <trkpt lat="45.78113" lon="4.73975">
        <ele>220</ele>
        <time>2012-12-08T11:57:08Z</time>
      </trkpt>
      <trkpt lat="45.78108" lon="4.73979">
        <ele>220</ele>
        <time>2012-12-08T11:57:09Z</time>
      </trkpt>
      <trkpt lat="45.78104" lon="4.73982">
        <ele>220</ele>
        <time>2012-12-08T11:57:10Z</time>
      </trkpt>
      <trkpt lat="45.7806" lon="4.74012">
        <ele>220</ele>
        <time>2012-12-08T11:57:19Z</time>
      </trkpt>
      <trkpt lat="45.78015" lon="4.74039">
        <ele>219</ele>
        <time>2012-12-08T11:57:28Z</time>
      </trkpt>
      <trkpt lat="45.77977" lon="4.74071">
        <ele>220</ele>
        <time>2012-12-08T11:57:36Z</time>
      </trkpt>
      <trkpt lat="45.77931" lon="4.74113">
        <ele>219</ele>
        <time>2012-12-08T11:57:46Z</time>
      </trkpt>
      <trkpt lat="45.77894" lon="4.74153">
        <ele>219</ele>
        <time>2012-12-08T11:57:55Z</time>
      </trkpt>
      <trkpt lat="45.7788" lon="4.74172">
        <ele>220</ele>
        <time>2012-12-08T11:57:59Z</time>
      </trkpt>
      <trkpt lat="45.77878" lon="4.74177">
        <ele>220</ele>
        <time>2012-12-08T11:58:00Z</time>
      </trkpt>
      <trkpt lat="45.77875" lon="4.74181">
        <ele>220</ele>
        <time>2012-12-08T11:58:01Z</time>
      </trkpt>
      <trkpt lat="45.77873" lon="4.74183">
        <ele>220</ele>
        <time>2012-12-08T11:58:02Z</time>
      </trkpt>
      <trkpt lat="45.7787" lon="4.74186">
        <ele>220</ele>
        <time>2012-12-08T11:58:03Z</time>
      </trkpt>
      <trkpt lat="45.77868" lon="4.74188">
        <ele>220</ele>
        <time>2012-12-08T11:58:04Z</time>
      </trkpt>
      <trkpt lat="45.77867" lon="4.74191">
        <ele>220</ele>
        <time>2012-12-08T11:58:05Z</time>
      </trkpt>
      <trkpt lat="45.77868" lon="4.74196">
        <ele>219</ele>
        <time>2012-12-08T11:58:06Z</time>
      </trkpt>
      <trkpt lat="45.77871" lon="4.74201">
        <ele>220</ele>
        <time>2012-12-08T11:58:07Z</time>
      </trkpt>
      <trkpt lat="45.77874" lon="4.74206">
        <ele>220</ele>
        <time>2012-12-08T11:58:08Z</time>
      </trkpt>
      <trkpt lat="45.77878" lon="4.7421">
        <ele>220</ele>
        <time>2012-12-08T11:58:09Z</time>
      </trkpt>
      <trkpt lat="45.77885" lon="4.74217">
        <ele>220</ele>
        <time>2012-12-08T11:58:11Z</time>
      </trkpt>
      <trkpt lat="45.77888" lon="4.74222">
        <ele>221</ele>
        <time>2012-12-08T11:58:12Z</time>
      </trkpt>
      <trkpt lat="45.7789" lon="4.74227">
        <ele>222</ele>
        <time>2012-12-08T11:58:13Z</time>
      </trkpt>
      <trkpt lat="45.7789" lon="4.74232">
        <ele>222</ele>
        <time>2012-12-08T11:58:14Z</time>
      </trkpt>
      <trkpt lat="45.77891" lon="4.74237">
        <ele>223</ele>
        <time>2012-12-08T11:58:15Z</time>
      </trkpt>
      <trkpt lat="45.77892" lon="4.74242">
        <ele>223</ele>
        <time>2012-12-08T11:58:16Z</time>
      </trkpt>
      <trkpt lat="45.77892" lon="4.74247">
        <ele>223</ele>
        <time>2012-12-08T11:58:17Z</time>
      </trkpt>
      <trkpt lat="45.77893" lon="4.74252">
        <ele>224</ele>
        <time>2012-12-08T11:58:18Z</time>
      </trkpt>
      <trkpt lat="45.77893" lon="4.74302">
        <ele>227</ele>
        <time>2012-12-08T11:58:28Z</time>
      </trkpt>
      <trkpt lat="45.77876" lon="4.74331">
        <ele>227</ele>
        <time>2012-12-08T11:58:36Z</time>
      </trkpt>
      <trkpt lat="45.77849" lon="4.74358">
        <ele>229</ele>
        <time>2012-12-08T11:58:47Z</time>
      </trkpt>
      <trkpt lat="45.7783" lon="4.7438">
        <ele>231</ele>
        <time>2012-12-08T11:58:57Z</time>
      </trkpt>
      <trkpt lat="45.77817" lon="4.74411">
        <ele>233</ele>
        <time>2012-12-08T11:59:08Z</time>
      </trkpt>
      <trkpt lat="45.77801" lon="4.74442">
        <ele>235</ele>
        <time>2012-12-08T11:59:19Z</time>
      </trkpt>
      <trkpt lat="45.77785" lon="4.74467">
        <ele>238</ele>
        <time>2012-12-08T11:59:29Z</time>
      </trkpt>
      <trkpt lat="45.7778" lon="4.74489">
        <ele>239</ele>
        <time>2012-12-08T11:59:36Z</time>
      </trkpt>
      <trkpt lat="45.77776" lon="4.74501">
        <ele>240</ele>
        <time>2012-12-08T11:59:40Z</time>
      </trkpt>
      <trkpt lat="45.77771" lon="4.74535">
        <ele>242</ele>
        <time>2012-12-08T11:59:50Z</time>
      </trkpt>
      <trkpt lat="45.77768" lon="4.74566">
        <ele>243</ele>
        <time>2012-12-08T11:59:59Z</time>
      </trkpt>
      <trkpt lat="45.7776" lon="4.74595">
        <ele>245</ele>
        <time>2012-12-08T12:00:09Z</time>
      </trkpt>
      <trkpt lat="45.77747" lon="4.74629">
        <ele>247</ele>
        <time>2012-12-08T12:00:20Z</time>
      </trkpt>
      <trkpt lat="45.77736" lon="4.74655">
        <ele>248</ele>
        <time>2012-12-08T12:00:29Z</time>
      </trkpt>
      <trkpt lat="45.77723" lon="4.74682">
        <ele>251</ele>
        <time>2012-12-08T12:00:39Z</time>
      </trkpt>
      <trkpt lat="45.77717" lon="4.74698">
        <ele>252</ele>
        <time>2012-12-08T12:00:45Z</time>
      </trkpt>
      <trkpt lat="45.77707" lon="4.74722">
        <ele>255</ele>
        <time>2012-12-08T12:00:54Z</time>
      </trkpt>
      <trkpt lat="45.77697" lon="4.7475">
        <ele>257</ele>
        <time>2012-12-08T12:01:04Z</time>
      </trkpt>
      <trkpt lat="45.77684" lon="4.74782">
        <ele>260</ele>
        <time>2012-12-08T12:01:15Z</time>
      </trkpt>
      <trkpt lat="45.77673" lon="4.74817">
        <ele>261</ele>
        <time>2012-12-08T12:01:25Z</time>
      </trkpt>
      <trkpt lat="45.77664" lon="4.74855">
        <ele>260</ele>
        <time>2012-12-08T12:01:34Z</time>
      </trkpt>
      <trkpt lat="45.77654" lon="4.74893">
        <ele>260</ele>
        <time>2012-12-08T12:01:42Z</time>
      </trkpt>
      <trkpt lat="45.77636" lon="4.7493">
        <ele>261</ele>
        <time>2012-12-08T12:01:51Z</time>
      </trkpt>
      <trkpt lat="45.77617" lon="4.74962">
        <ele>262</ele>
        <time>2012-12-08T12:02:00Z</time>
      </trkpt>
      <trkpt lat="45.77601" lon="4.75002">
        <ele>264</ele>
        <time>2012-12-08T12:02:11Z</time>
      </trkpt>
      <trkpt lat="45.77601" lon="4.7502">
        <ele>265</ele>
        <time>2012-12-08T12:02:16Z</time>
      </trkpt>
      <trkpt lat="45.77599" lon="4.75048">
        <ele>266</ele>
        <time>2012-12-08T12:02:24Z</time>
      </trkpt>
      <trkpt lat="45.77594" lon="4.75089">
        <ele>266</ele>
        <time>2012-12-08T12:02:34Z</time>
      </trkpt>
      <trkpt lat="45.77591" lon="4.75125">
        <ele>265</ele>
        <time>2012-12-08T12:02:42Z</time>
      </trkpt>
      <trkpt lat="45.77586" lon="4.75152">
        <ele>266</ele>
        <time>2012-12-08T12:02:49Z</time>
      </trkpt>
      <trkpt lat="45.77583" lon="4.75192">
        <ele>265</ele>
        <time>2012-12-08T12:02:58Z</time>
      </trkpt>
      <trkpt lat="45.77577" lon="4.75213">
        <ele>265</ele>
        <time>2012-12-08T12:03:04Z</time>
      </trkpt>
      <trkpt lat="45.77581" lon="4.75238">
        <ele>264</ele>
        <time>2012-12-08T12:03:10Z</time>
      </trkpt>
      <trkpt lat="45.77592" lon="4.75278">
        <ele>264</ele>
        <time>2012-12-08T12:03:18Z</time>
      </trkpt>
      <trkpt lat="45.77594" lon="4.75284">
        <ele>263</ele>
        <time>2012-12-08T12:03:19Z</time>
      </trkpt>
      <trkpt lat="45.776" lon="4.75295">
        <ele>262</ele>
        <time>2012-12-08T12:03:21Z</time>
      </trkpt>
      <trkpt lat="45.77603" lon="4.753">
        <ele>262</ele>
        <time>2012-12-08T12:03:22Z</time>
      </trkpt>
      <trkpt lat="45.77607" lon="4.75305">
        <ele>262</ele>
        <time>2012-12-08T12:03:23Z</time>
      </trkpt>
      <trkpt lat="45.77625" lon="4.75326">
        <ele>258</ele>
        <time>2012-12-08T12:03:27Z</time>
      </trkpt>
      <trkpt lat="45.77642" lon="4.75342">
        <ele>257</ele>
        <time>2012-12-08T12:03:30Z</time>
      </trkpt>
      <trkpt lat="45.77648" lon="4.75347">
        <ele>255</ele>
        <time>2012-12-08T12:03:31Z</time>
      </trkpt>
      <trkpt lat="45.77655" lon="4.75351">
        <ele>255</ele>
        <time>2012-12-08T12:03:32Z</time>
      </trkpt>
      <trkpt lat="45.77662" lon="4.75352">
        <ele>254</ele>
        <time>2012-12-08T12:03:33Z</time>
      </trkpt>
      <trkpt lat="45.77692" lon="4.75346">
        <ele>250</ele>
        <time>2012-12-08T12:03:37Z</time>
      </trkpt>
      <trkpt lat="45.77698" lon="4.75346">
        <ele>249</ele>
        <time>2012-12-08T12:03:38Z</time>
      </trkpt>
      <trkpt lat="45.77705" lon="4.75347">
        <ele>248</ele>
        <time>2012-12-08T12:03:39Z</time>
      </trkpt>
      <trkpt lat="45.7771" lon="4.7535">
        <ele>247</ele>
        <time>2012-12-08T12:03:40Z</time>
      </trkpt>
      <trkpt lat="45.77714" lon="4.75354">
        <ele>246</ele>
        <time>2012-12-08T12:03:41Z</time>
      </trkpt>
      <trkpt lat="45.77717" lon="4.75361">
        <ele>245</ele>
        <time>2012-12-08T12:03:42Z</time>
      </trkpt>
      <trkpt lat="45.77719" lon="4.7537">
        <ele>244</ele>
        <time>2012-12-08T12:03:43Z</time>
      </trkpt>
      <trkpt lat="45.7772" lon="4.7538">
        <ele>243</ele>
        <time>2012-12-08T12:03:44Z</time>
      </trkpt>
      <trkpt lat="45.77719" lon="4.7539">
        <ele>243</ele>
        <time>2012-12-08T12:03:45Z</time>
      </trkpt>
      <trkpt lat="45.77718" lon="4.75409">
        <ele>242</ele>
        <time>2012-12-08T12:03:47Z</time>
      </trkpt>
      <trkpt lat="45.77717" lon="4.75416">
        <ele>241</ele>
        <time>2012-12-08T12:03:48Z</time>
      </trkpt>
      <trkpt lat="45.77717" lon="4.75422">
        <ele>241</ele>
        <time>2012-12-08T12:03:49Z</time>
      </trkpt>
      <trkpt lat="45.77718" lon="4.75428">
        <ele>241</ele>
        <time>2012-12-08T12:03:50Z</time>
      </trkpt>
      <trkpt lat="45.7772" lon="4.75431">
        <ele>240</ele>
        <time>2012-12-08T12:03:51Z</time>
      </trkpt>
      <trkpt lat="45.77724" lon="4.75435">
        <ele>241</ele>
        <time>2012-12-08T12:03:52Z</time>
      </trkpt>
      <trkpt lat="45.77729" lon="4.75439">
        <ele>239</ele>
        <time>2012-12-08T12:03:53Z</time>
      </trkpt>
      <trkpt lat="45.77734" lon="4.75443">
        <ele>239</ele>
        <time>2012-12-08T12:03:54Z</time>
      </trkpt>
      <trkpt lat="45.77754" lon="4.75455">
        <ele>236</ele>
        <time>2012-12-08T12:03:57Z</time>
      </trkpt>
      <trkpt lat="45.77778" lon="4.75471">
        <ele>231</ele>
        <time>2012-12-08T12:04:00Z</time>
      </trkpt>
      <trkpt lat="45.77797" lon="4.75482">
        <ele>228</ele>
        <time>2012-12-08T12:04:02Z</time>
      </trkpt>
      <trkpt lat="45.77828" lon="4.75494">
        <ele>225</ele>
        <time>2012-12-08T12:04:06Z</time>
      </trkpt>
      <trkpt lat="45.77839" lon="4.75497">
        <ele>224</ele>
        <time>2012-12-08T12:04:08Z</time>
      </trkpt>
      <trkpt lat="45.77867" lon="4.75505">
        <ele>222</ele>
        <time>2012-12-08T12:04:15Z</time>
      </trkpt>
      <trkpt lat="45.77879" lon="4.755">
        <ele>223</ele>
        <time>2012-12-08T12:04:22Z</time>
      </trkpt>
      <trkpt lat="45.77883" lon="4.75499">
        <ele>224</ele>
        <time>2012-12-08T12:04:29Z</time>
      </trkpt>
      <trkpt lat="45.77885" lon="4.75499">
        <ele>224</ele>
        <time>2012-12-08T12:04:34Z</time>
      </trkpt>
      <trkpt lat="45.77888" lon="4.75501">
        <ele>224</ele>
        <time>2012-12-08T12:04:41Z</time>
      </trkpt>
      <trkpt lat="45.77895" lon="4.75495">
        <ele>225</ele>
        <time>2012-12-08T12:04:48Z</time>
      </trkpt>
      <trkpt lat="45.77902" lon="4.75494">
        <ele>226</ele>
        <time>2012-12-08T12:04:53Z</time>
      </trkpt>
      <trkpt lat="45.77907" lon="4.75493">
        <ele>227</ele>
        <time>2012-12-08T12:04:57Z</time>
      </trkpt>
      <trkpt lat="45.77914" lon="4.75495">
        <ele>228</ele>
        <time>2012-12-08T12:05:01Z</time>
      </trkpt>
      <trkpt lat="45.77915" lon="4.75495">
        <ele>228</ele>
        <time>2012-12-08T12:05:02Z</time>
      </trkpt>
      <trkpt lat="45.77927" lon="4.75502">
        <ele>227</ele>
        <time>2012-12-08T12:05:09Z</time>
      </trkpt>
      <trkpt lat="45.77945" lon="4.75512">
        <ele>227</ele>
        <time>2012-12-08T12:05:16Z</time>
      </trkpt>
      <trkpt lat="45.77964" lon="4.75522">
        <ele>225</ele>
        <time>2012-12-08T12:05:23Z</time>
      </trkpt>
      <trkpt lat="45.77988" lon="4.75531">
        <ele>226</ele>
        <time>2012-12-08T12:05:30Z</time>
      </trkpt>
      <trkpt lat="45.78004" lon="4.75541">
        <ele>225</ele>
        <time>2012-12-08T12:05:36Z</time>
      </trkpt>
      <trkpt lat="45.7803" lon="4.75556">
        <ele>225</ele>
        <time>2012-12-08T12:05:45Z</time>
      </trkpt>
      <trkpt lat="45.78049" lon="4.75562">
        <ele>225</ele>
        <time>2012-12-08T12:05:52Z</time>
      </trkpt>
      <trkpt lat="45.78063" lon="4.75562">
        <ele>225</ele>
        <time>2012-12-08T12:05:58Z</time>
      </trkpt>
      <trkpt lat="45.78086" lon="4.75563">
        <ele>226</ele>
        <time>2012-12-08T12:06:05Z</time>
      </trkpt>
      <trkpt lat="45.78097" lon="4.75558">
        <ele>226</ele>
        <time>2012-12-08T12:06:10Z</time>
      </trkpt>
      <trkpt lat="45.78111" lon="4.75552">
        <ele>227</ele>
        <time>2012-12-08T12:06:15Z</time>
      </trkpt>
      <trkpt lat="45.78132" lon="4.75552">
        <ele>227</ele>
        <time>2012-12-08T12:06:23Z</time>
      </trkpt>
      <trkpt lat="45.78151" lon="4.75555">
        <ele>227</ele>
        <time>2012-12-08T12:06:30Z</time>
      </trkpt>
      <trkpt lat="45.78166" lon="4.75553">
        <ele>227</ele>
        <time>2012-12-08T12:06:36Z</time>
      </trkpt>
      <trkpt lat="45.78173" lon="4.75548">
        <ele>229</ele>
        <time>2012-12-08T12:06:40Z</time>
      </trkpt>
      <trkpt lat="45.78174" lon="4.75545">
        <ele>229</ele>
        <time>2012-12-08T12:06:41Z</time>
      </trkpt>
      <trkpt lat="45.78176" lon="4.75543">
        <ele>230</ele>
        <time>2012-12-08T12:06:42Z</time>
      </trkpt>
      <trkpt lat="45.78178" lon="4.75541">
        <ele>229</ele>
        <time>2012-12-08T12:06:43Z</time>
      </trkpt>
      <trkpt lat="45.78179" lon="4.75539">
        <ele>231</ele>
        <time>2012-12-08T12:06:44Z</time>
      </trkpt>
      <trkpt lat="45.78181" lon="4.75538">
        <ele>232</ele>
        <time>2012-12-08T12:06:45Z</time>
      </trkpt>
      <trkpt lat="45.78183" lon="4.75537">
        <ele>232</ele>
        <time>2012-12-08T12:06:46Z</time>
      </trkpt>
      <trkpt lat="45.78184" lon="4.75537">
        <ele>232</ele>
        <time>2012-12-08T12:06:47Z</time>
      </trkpt>
      <trkpt lat="45.78186" lon="4.75536">
        <ele>233</ele>
        <time>2012-12-08T12:06:48Z</time>
      </trkpt>
      <trkpt lat="45.78192" lon="4.75534">
        <ele>235</ele>
        <time>2012-12-08T12:06:52Z</time>
      </trkpt>
      <trkpt lat="45.78202" lon="4.75526">
        <ele>237</ele>
        <time>2012-12-08T12:06:59Z</time>
      </trkpt>
      <trkpt lat="45.78205" lon="4.75524">
        <ele>238</ele>
        <time>2012-12-08T12:07:01Z</time>
      </trkpt>
      <trkpt lat="45.78207" lon="4.75522">
        <ele>238</ele>
        <time>2012-12-08T12:07:02Z</time>
      </trkpt>
      <trkpt lat="45.78209" lon="4.75521">
        <ele>238</ele>
        <time>2012-12-08T12:07:03Z</time>
      </trkpt>
      <trkpt lat="45.7821" lon="4.75519">
        <ele>239</ele>
        <time>2012-12-08T12:07:04Z</time>
      </trkpt>
      <trkpt lat="45.78212" lon="4.75518">
        <ele>239</ele>
        <time>2012-12-08T12:07:05Z</time>
      </trkpt>
      <trkpt lat="45.78215" lon="4.75513">
        <ele>239</ele>
        <time>2012-12-08T12:07:11Z</time>
      </trkpt>
      <trkpt lat="45.78215" lon="4.75511">
        <ele>239</ele>
        <time>2012-12-08T12:07:24Z</time>
      </trkpt>
      <trkpt lat="45.78215" lon="4.75508">
        <ele>239</ele>
        <time>2012-12-08T12:07:37Z</time>
      </trkpt>
      <trkpt lat="45.78217" lon="4.75505">
        <ele>239</ele>
        <time>2012-12-08T12:07:54Z</time>
      </trkpt>
      <trkpt lat="45.78218" lon="4.75504">
        <ele>239</ele>
        <time>2012-12-08T12:08:08Z</time>
      </trkpt>
      <trkpt lat="45.78216" lon="4.75506">
        <ele>240</ele>
        <time>2012-12-08T12:08:27Z</time>
      </trkpt>
      <trkpt lat="45.78219" lon="4.75504">
        <ele>240</ele>
        <time>2012-12-08T12:08:36Z</time>
      </trkpt>
      <trkpt lat="45.78231" lon="4.75491">
        <ele>242</ele>
        <time>2012-12-08T12:08:44Z</time>
      </trkpt>
      <trkpt lat="45.78245" lon="4.75484">
        <ele>241</ele>
        <time>2012-12-08T12:08:51Z</time>
      </trkpt>
      <trkpt lat="45.78261" lon="4.75479">
        <ele>240</ele>
        <time>2012-12-08T12:08:58Z</time>
      </trkpt>
      <trkpt lat="45.78269" lon="4.75472">
        <ele>239</ele>
        <time>2012-12-08T12:09:03Z</time>
      </trkpt>
      <trkpt lat="45.78271" lon="4.75471">
        <ele>240</ele>
        <time>2012-12-08T12:09:04Z</time>
      </trkpt>
      <trkpt lat="45.78273" lon="4.75469">
        <ele>239</ele>
        <time>2012-12-08T12:09:05Z</time>
      </trkpt>
      <trkpt lat="45.78288" lon="4.75463">
        <ele>239</ele>
        <time>2012-12-08T12:09:12Z</time>
      </trkpt>
      <trkpt lat="45.78307" lon="4.75456">
        <ele>239</ele>
        <time>2012-12-08T12:09:20Z</time>
      </trkpt>
      <trkpt lat="45.7832" lon="4.75454">
        <ele>237</ele>
        <time>2012-12-08T12:09:27Z</time>
      </trkpt>
      <trkpt lat="45.78325" lon="4.75457">
        <ele>237</ele>
        <time>2012-12-08T12:09:31Z</time>
      </trkpt>
      <trkpt lat="45.78327" lon="4.75458">
        <ele>236</ele>
        <time>2012-12-08T12:09:32Z</time>
      </trkpt>
      <trkpt lat="45.78328" lon="4.75459">
        <ele>236</ele>
        <time>2012-12-08T12:09:33Z</time>
      </trkpt>
      <trkpt lat="45.7833" lon="4.7546">
        <ele>235</ele>
        <time>2012-12-08T12:09:34Z</time>
      </trkpt>
      <trkpt lat="45.78332" lon="4.75461">
        <ele>234</ele>
        <time>2012-12-08T12:09:36Z</time>
      </trkpt>
      <trkpt lat="45.78333" lon="4.75462">
        <ele>234</ele>
        <time>2012-12-08T12:09:37Z</time>
      </trkpt>
      <trkpt lat="45.78335" lon="4.75463">
        <ele>233</ele>
        <time>2012-12-08T12:09:38Z</time>
      </trkpt>
      <trkpt lat="45.78336" lon="4.75465">
        <ele>233</ele>
        <time>2012-12-08T12:09:39Z</time>
      </trkpt>
      <trkpt lat="45.78338" lon="4.75466">
        <ele>232</ele>
        <time>2012-12-08T12:09:40Z</time>
      </trkpt>
      <trkpt lat="45.7834" lon="4.75467">
        <ele>232</ele>
        <time>2012-12-08T12:09:41Z</time>
      </trkpt>
      <trkpt lat="45.78341" lon="4.75467">
        <ele>231</ele>
        <time>2012-12-08T12:09:42Z</time>
      </trkpt>
      <trkpt lat="45.78345" lon="4.75469">
        <ele>232</ele>
        <time>2012-12-08T12:09:49Z</time>
      </trkpt>
      <trkpt lat="45.78348" lon="4.75468">
        <ele>233</ele>
        <time>2012-12-08T12:09:58Z</time>
      </trkpt>
      <trkpt lat="45.78349" lon="4.75468">
        <ele>232</ele>
        <time>2012-12-08T12:10:08Z</time>
      </trkpt>
      <trkpt lat="45.78351" lon="4.75469">
        <ele>232</ele>
        <time>2012-12-08T12:10:17Z</time>
      </trkpt>
      <trkpt lat="45.78354" lon="4.75468">
        <ele>231</ele>
        <time>2012-12-08T12:10:25Z</time>
      </trkpt>
      <trkpt lat="45.78355" lon="4.75467">
        <ele>232</ele>
        <time>2012-12-08T12:10:26Z</time>
      </trkpt>
      <trkpt lat="45.78355" lon="4.75465">
        <ele>231</ele>
        <time>2012-12-08T12:10:27Z</time>
      </trkpt>
      <trkpt lat="45.78356" lon="4.75464">
        <ele>232</ele>
        <time>2012-12-08T12:10:28Z</time>
      </trkpt>
      <trkpt lat="45.78356" lon="4.75462">
        <ele>232</ele>
        <time>2012-12-08T12:10:29Z</time>
      </trkpt>
      <trkpt lat="45.78357" lon="4.75461">
        <ele>232</ele>
        <time>2012-12-08T12:10:30Z</time>
      </trkpt>
      <trkpt lat="45.78358" lon="4.75459">
        <ele>232</ele>
        <time>2012-12-08T12:10:31Z</time>
      </trkpt>
      <trkpt lat="45.78359" lon="4.75458">
        <ele>232</ele>
        <time>2012-12-08T12:10:32Z</time>
      </trkpt>
      <trkpt lat="45.7836" lon="4.75457">
        <ele>232</ele>
        <time>2012-12-08T12:10:33Z</time>
      </trkpt>
      <trkpt lat="45.78361" lon="4.75456">
        <ele>232</ele>
        <time>2012-12-08T12:10:34Z</time>
      </trkpt>
      <trkpt lat="45.78363" lon="4.75454">
        <ele>232</ele>
        <time>2012-12-08T12:10:35Z</time>
      </trkpt>
      <trkpt lat="45.78364" lon="4.75453">
        <ele>232</ele>
        <time>2012-12-08T12:10:36Z</time>
      </trkpt>
      <trkpt lat="45.78366" lon="4.75451">
        <ele>232</ele>
        <time>2012-12-08T12:10:37Z</time>
      </trkpt>
      <trkpt lat="45.78367" lon="4.75449">
        <ele>232</ele>
        <time>2012-12-08T12:10:38Z</time>
      </trkpt>
      <trkpt lat="45.78377" lon="4.75433">
        <ele>233</ele>
        <time>2012-12-08T12:10:45Z</time>
      </trkpt>
      <trkpt lat="45.78387" lon="4.7542">
        <ele>233</ele>
        <time>2012-12-08T12:10:52Z</time>
      </trkpt>
      <trkpt lat="45.78393" lon="4.75414">
        <ele>234</ele>
        <time>2012-12-08T12:10:58Z</time>
      </trkpt>
      <trkpt lat="45.78393" lon="4.75413">
        <ele>233</ele>
        <time>2012-12-08T12:11:13Z</time>
      </trkpt>
      <trkpt lat="45.78394" lon="4.75412">
        <ele>233</ele>
        <time>2012-12-08T12:11:29Z</time>
      </trkpt>
      <trkpt lat="45.78392" lon="4.75411">
        <ele>234</ele>
        <time>2012-12-08T12:11:42Z</time>
      </trkpt>
      <trkpt lat="45.78393" lon="4.75411">
        <ele>234</ele>
        <time>2012-12-08T12:11:54Z</time>
      </trkpt>
      <trkpt lat="45.78394" lon="4.75414">
        <ele>234</ele>
        <time>2012-12-08T12:11:57Z</time>
      </trkpt>
      <trkpt lat="45.78394" lon="4.75416">
        <ele>234</ele>
        <time>2012-12-08T12:11:58Z</time>
      </trkpt>
      <trkpt lat="45.7839" lon="4.7542">
        <ele>234</ele>
        <time>2012-12-08T12:12:00Z</time>
      </trkpt>
      <trkpt lat="45.78388" lon="4.75422">
        <ele>233</ele>
        <time>2012-12-08T12:12:01Z</time>
      </trkpt>
      <trkpt lat="45.78385" lon="4.75425">
        <ele>234</ele>
        <time>2012-12-08T12:12:02Z</time>
      </trkpt>
      <trkpt lat="45.78383" lon="4.75428">
        <ele>234</ele>
        <time>2012-12-08T12:12:03Z</time>
      </trkpt>
      <trkpt lat="45.78366" lon="4.75452">
        <ele>233</ele>
        <time>2012-12-08T12:12:11Z</time>
      </trkpt>
      <trkpt lat="45.78353" lon="4.75479">
        <ele>233</ele>
        <time>2012-12-08T12:12:18Z</time>
      </trkpt>
      <trkpt lat="45.78347" lon="4.75516">
        <ele>233</ele>
        <time>2012-12-08T12:12:25Z</time>
      </trkpt>
      <trkpt lat="45.78347" lon="4.75522">
        <ele>233</ele>
        <time>2012-12-08T12:12:26Z</time>
      </trkpt>
      <trkpt lat="45.78348" lon="4.75526">
        <ele>233</ele>
        <time>2012-12-08T12:12:27Z</time>
      </trkpt>
      <trkpt lat="45.78352" lon="4.75527">
        <ele>233</ele>
        <time>2012-12-08T12:12:28Z</time>
      </trkpt>
      <trkpt lat="45.78356" lon="4.75527">
        <ele>233</ele>
        <time>2012-12-08T12:12:29Z</time>
      </trkpt>
      <trkpt lat="45.78375" lon="4.75527">
        <ele>232</ele>
        <time>2012-12-08T12:12:34Z</time>
      </trkpt>
      <trkpt lat="45.78398" lon="4.75529">
        <ele>232</ele>
        <time>2012-12-08T12:12:41Z</time>
      </trkpt>
      <trkpt lat="45.78416" lon="4.75529">
        <ele>232</ele>
        <time>2012-12-08T12:12:47Z</time>
      </trkpt>
      <trkpt lat="45.78432" lon="4.75525">
        <ele>233</ele>
        <time>2012-12-08T12:12:53Z</time>
      </trkpt>
      <trkpt lat="45.78453" lon="4.75516">
        <ele>234</ele>
        <time>2012-12-08T12:13:01Z</time>
      </trkpt>
      <trkpt lat="45.78468" lon="4.75512">
        <ele>235</ele>
        <time>2012-12-08T12:13:07Z</time>
      </trkpt>
      <trkpt lat="45.78486" lon="4.75512">
        <ele>237</ele>
        <time>2012-12-08T12:13:16Z</time>
      </trkpt>
      <trkpt lat="45.78502" lon="4.7552">
        <ele>239</ele>
        <time>2012-12-08T12:13:23Z</time>
      </trkpt>
      <trkpt lat="45.78516" lon="4.75523">
        <ele>240</ele>
        <time>2012-12-08T12:13:29Z</time>
      </trkpt>
      <trkpt lat="45.78529" lon="4.75527">
        <ele>241</ele>
        <time>2012-12-08T12:13:35Z</time>
      </trkpt>
      <trkpt lat="45.78545" lon="4.75529">
        <ele>242</ele>
        <time>2012-12-08T12:13:42Z</time>
      </trkpt>
      <trkpt lat="45.78566" lon="4.75527">
        <ele>243</ele>
        <time>2012-12-08T12:13:51Z</time>
      </trkpt>
      <trkpt lat="45.78588" lon="4.75514">
        <ele>245</ele>
        <time>2012-12-08T12:14:01Z</time>
      </trkpt>
      <trkpt lat="45.78594" lon="4.75512">
        <ele>246</ele>
        <time>2012-12-08T12:14:04Z</time>
      </trkpt>
      <trkpt lat="45.78596" lon="4.75511">
        <ele>246</ele>
        <time>2012-12-08T12:14:05Z</time>
      </trkpt>
      <trkpt lat="45.78599" lon="4.7551">
        <ele>246</ele>
        <time>2012-12-08T12:14:06Z</time>
      </trkpt>
      <trkpt lat="45.78615" lon="4.75506">
        <ele>247</ele>
        <time>2012-12-08T12:14:13Z</time>
      </trkpt>
      <trkpt lat="45.78633" lon="4.755">
        <ele>249</ele>
        <time>2012-12-08T12:14:21Z</time>
      </trkpt>
      <trkpt lat="45.78647" lon="4.75497">
        <ele>251</ele>
        <time>2012-12-08T12:14:28Z</time>
      </trkpt>
      <trkpt lat="45.78663" lon="4.75493">
        <ele>252</ele>
        <time>2012-12-08T12:14:35Z</time>
      </trkpt>
      <trkpt lat="45.78674" lon="4.7549">
        <ele>253</ele>
        <time>2012-12-08T12:14:40Z</time>
      </trkpt>
      <trkpt lat="45.78676" lon="4.7549">
        <ele>254</ele>
        <time>2012-12-08T12:14:41Z</time>
      </trkpt>
      <trkpt lat="45.78678" lon="4.7549">
        <ele>254</ele>
        <time>2012-12-08T12:14:42Z</time>
      </trkpt>
      <trkpt lat="45.78694" lon="4.75485">
        <ele>255</ele>
        <time>2012-12-08T12:14:49Z</time>
      </trkpt>
      <trkpt lat="45.78708" lon="4.7548">
        <ele>257</ele>
        <time>2012-12-08T12:14:56Z</time>
      </trkpt>
      <trkpt lat="45.7872" lon="4.75476">
        <ele>258</ele>
        <time>2012-12-08T12:15:03Z</time>
      </trkpt>
      <trkpt lat="45.78721" lon="4.75475">
        <ele>258</ele>
        <time>2012-12-08T12:15:04Z</time>
      </trkpt>
      <trkpt lat="45.78723" lon="4.75475">
        <ele>259</ele>
        <time>2012-12-08T12:15:05Z</time>
      </trkpt>
      <trkpt lat="45.78724" lon="4.75473">
        <ele>258</ele>
        <time>2012-12-08T12:15:06Z</time>
      </trkpt>
      <trkpt lat="45.78726" lon="4.75473">
        <ele>259</ele>
        <time>2012-12-08T12:15:07Z</time>
      </trkpt>
      <trkpt lat="45.78728" lon="4.75472">
        <ele>259</ele>
        <time>2012-12-08T12:15:08Z</time>
      </trkpt>
      <trkpt lat="45.7873" lon="4.75471">
        <ele>259</ele>
        <time>2012-12-08T12:15:09Z</time>
      </trkpt>
      <trkpt lat="45.78742" lon="4.75467">
        <ele>260</ele>
        <time>2012-12-08T12:15:16Z</time>
      </trkpt>
      <trkpt lat="45.78758" lon="4.75461">
        <ele>262</ele>
        <time>2012-12-08T12:15:25Z</time>
      </trkpt>
      <trkpt lat="45.78772" lon="4.75459">
        <ele>264</ele>
        <time>2012-12-08T12:15:32Z</time>
      </trkpt>
      <trkpt lat="45.78791" lon="4.7546">
        <ele>265</ele>
        <time>2012-12-08T12:15:42Z</time>
      </trkpt>
      <trkpt lat="45.78793" lon="4.75458">
        <ele>265</ele>
        <time>2012-12-08T12:15:43Z</time>
      </trkpt>
      <trkpt lat="45.78794" lon="4.75456">
        <ele>265</ele>
        <time>2012-12-08T12:15:44Z</time>
      </trkpt>
      <trkpt lat="45.78796" lon="4.75454">
        <ele>265</ele>
        <time>2012-12-08T12:15:45Z</time>
      </trkpt>
      <trkpt lat="45.78797" lon="4.75452">
        <ele>265</ele>
        <time>2012-12-08T12:15:46Z</time>
      </trkpt>
      <trkpt lat="45.78798" lon="4.75449">
        <ele>265</ele>
        <time>2012-12-08T12:15:47Z</time>
      </trkpt>
      <trkpt lat="45.7881" lon="4.75437">
        <ele>266</ele>
        <time>2012-12-08T12:15:55Z</time>
      </trkpt>
      <trkpt lat="45.78822" lon="4.75446">
        <ele>267</ele>
        <time>2012-12-08T12:16:02Z</time>
      </trkpt>
      <trkpt lat="45.78836" lon="4.75452">
        <ele>269</ele>
        <time>2012-12-08T12:16:10Z</time>
      </trkpt>
      <trkpt lat="45.78846" lon="4.75453">
        <ele>270</ele>
        <time>2012-12-08T12:16:16Z</time>
      </trkpt>
      <trkpt lat="45.78848" lon="4.75453">
        <ele>269</ele>
        <time>2012-12-08T12:16:17Z</time>
      </trkpt>
      <trkpt lat="45.78849" lon="4.75453">
        <ele>270</ele>
        <time>2012-12-08T12:16:18Z</time>
      </trkpt>
      <trkpt lat="45.78851" lon="4.75454">
        <ele>270</ele>
        <time>2012-12-08T12:16:19Z</time>
      </trkpt>
      <trkpt lat="45.78853" lon="4.75454">
        <ele>270</ele>
        <time>2012-12-08T12:16:20Z</time>
      </trkpt>
      <trkpt lat="45.78868" lon="4.75453">
        <ele>272</ele>
        <time>2012-12-08T12:16:28Z</time>
      </trkpt>
      <trkpt lat="45.7887" lon="4.75454">
        <ele>272</ele>
        <time>2012-12-08T12:16:29Z</time>
      </trkpt>
      <trkpt lat="45.78872" lon="4.75455">
        <ele>272</ele>
        <time>2012-12-08T12:16:30Z</time>
      </trkpt>
      <trkpt lat="45.78885" lon="4.75455">
        <ele>274</ele>
        <time>2012-12-08T12:16:38Z</time>
      </trkpt>
      <trkpt lat="45.78887" lon="4.75456">
        <ele>274</ele>
        <time>2012-12-08T12:16:39Z</time>
      </trkpt>
      <trkpt lat="45.78888" lon="4.75457">
        <ele>275</ele>
        <time>2012-12-08T12:16:40Z</time>
      </trkpt>
      <trkpt lat="45.7889" lon="4.75457">
        <ele>275</ele>
        <time>2012-12-08T12:16:41Z</time>
      </trkpt>
      <trkpt lat="45.78891" lon="4.75457">
        <ele>275</ele>
        <time>2012-12-08T12:16:42Z</time>
      </trkpt>
      <trkpt lat="45.78899" lon="4.7546">
        <ele>277</ele>
        <time>2012-12-08T12:16:47Z</time>
      </trkpt>
      <trkpt lat="45.78911" lon="4.75468">
        <ele>278</ele>
        <time>2012-12-08T12:16:55Z</time>
      </trkpt>
      <trkpt lat="45.78922" lon="4.75474">
        <ele>280</ele>
        <time>2012-12-08T12:17:03Z</time>
      </trkpt>
      <trkpt lat="45.78926" lon="4.75477">
        <ele>282</ele>
        <time>2012-12-08T12:17:06Z</time>
      </trkpt>
      <trkpt lat="45.78935" lon="4.75482">
        <ele>283</ele>
        <time>2012-12-08T12:17:13Z</time>
      </trkpt>
      <trkpt lat="45.78939" lon="4.75485">
        <ele>283</ele>
        <time>2012-12-08T12:17:16Z</time>
      </trkpt>
      <trkpt lat="45.78941" lon="4.75485">
        <ele>284</ele>
        <time>2012-12-08T12:17:17Z</time>
      </trkpt>
      <trkpt lat="45.78943" lon="4.75485">
        <ele>284</ele>
        <time>2012-12-08T12:17:18Z</time>
      </trkpt>
      <trkpt lat="45.78944" lon="4.75485">
        <ele>284</ele>
        <time>2012-12-08T12:17:19Z</time>
      </trkpt>
      <trkpt lat="45.78946" lon="4.75486">
        <ele>285</ele>
        <time>2012-12-08T12:17:20Z</time>
      </trkpt>
      <trkpt lat="45.78947" lon="4.75486">
        <ele>285</ele>
        <time>2012-12-08T12:17:21Z</time>
      </trkpt>
      <trkpt lat="45.78957" lon="4.75487">
        <ele>286</ele>
        <time>2012-12-08T12:17:27Z</time>
      </trkpt>
      <trkpt lat="45.78958" lon="4.75487">
        <ele>286</ele>
        <time>2012-12-08T12:17:28Z</time>
      </trkpt>
      <trkpt lat="45.78975" lon="4.75485">
        <ele>287</ele>
        <time>2012-12-08T12:17:38Z</time>
      </trkpt>
      <trkpt lat="45.78992" lon="4.75484">
        <ele>288</ele>
        <time>2012-12-08T12:17:47Z</time>
      </trkpt>
      <trkpt lat="45.79002" lon="4.75487">
        <ele>289</ele>
        <time>2012-12-08T12:17:53Z</time>
      </trkpt>
      <trkpt lat="45.79015" lon="4.75492">
        <ele>291</ele>
        <time>2012-12-08T12:18:01Z</time>
      </trkpt>
      <trkpt lat="45.79018" lon="4.75493">
        <ele>291</ele>
        <time>2012-12-08T12:18:03Z</time>
      </trkpt>
      <trkpt lat="45.7902" lon="4.75494">
        <ele>292</ele>
        <time>2012-12-08T12:18:04Z</time>
      </trkpt>
      <trkpt lat="45.79037" lon="4.75497">
        <ele>293</ele>
        <time>2012-12-08T12:18:13Z</time>
      </trkpt>
      <trkpt lat="45.79052" lon="4.755">
        <ele>294</ele>
        <time>2012-12-08T12:18:21Z</time>
      </trkpt>
      <trkpt lat="45.79078" lon="4.75507">
        <ele>295</ele>
        <time>2012-12-08T12:18:32Z</time>
      </trkpt>
      <trkpt lat="45.79094" lon="4.75512">
        <ele>295</ele>
        <time>2012-12-08T12:18:40Z</time>
      </trkpt>
      <trkpt lat="45.79113" lon="4.75519">
        <ele>295</ele>
        <time>2012-12-08T12:18:48Z</time>
      </trkpt>
      <trkpt lat="45.79129" lon="4.7553">
        <ele>296</ele>
        <time>2012-12-08T12:18:56Z</time>
      </trkpt>
      <trkpt lat="45.79145" lon="4.75541">
        <ele>295</ele>
        <time>2012-12-08T12:19:03Z</time>
      </trkpt>
      <trkpt lat="45.79162" lon="4.75554">
        <ele>296</ele>
        <time>2012-12-08T12:19:10Z</time>
      </trkpt>
      <trkpt lat="45.79182" lon="4.75567">
        <ele>296</ele>
        <time>2012-12-08T12:19:17Z</time>
      </trkpt>
      <trkpt lat="45.79204" lon="4.7557">
        <ele>296</ele>
        <time>2012-12-08T12:19:25Z</time>
      </trkpt>
      <trkpt lat="45.79221" lon="4.75572">
        <ele>296</ele>
        <time>2012-12-08T12:19:31Z</time>
      </trkpt>
      <trkpt lat="45.79235" lon="4.75572">
        <ele>296</ele>
        <time>2012-12-08T12:19:36Z</time>
      </trkpt>
      <trkpt lat="45.79255" lon="4.75571">
        <ele>296</ele>
        <time>2012-12-08T12:19:43Z</time>
      </trkpt>
      <trkpt lat="45.7927" lon="4.7558">
        <ele>295</ele>
        <time>2012-12-08T12:19:48Z</time>
      </trkpt>
      <trkpt lat="45.79287" lon="4.75586">
        <ele>296</ele>
        <time>2012-12-08T12:19:55Z</time>
      </trkpt>
      <trkpt lat="45.79302" lon="4.75588">
        <ele>296</ele>
        <time>2012-12-08T12:20:01Z</time>
      </trkpt>
      <trkpt lat="45.79307" lon="4.7559">
        <ele>296</ele>
        <time>2012-12-08T12:20:03Z</time>
      </trkpt>
      <trkpt lat="45.79308" lon="4.75591">
        <ele>296</ele>
        <time>2012-12-08T12:20:04Z</time>
      </trkpt>
      <trkpt lat="45.7931" lon="4.75593">
        <ele>296</ele>
        <time>2012-12-08T12:20:05Z</time>
      </trkpt>
      <trkpt lat="45.79312" lon="4.75594">
        <ele>297</ele>
        <time>2012-12-08T12:20:06Z</time>
      </trkpt>
      <trkpt lat="45.79313" lon="4.75597">
        <ele>296</ele>
        <time>2012-12-08T12:20:08Z</time>
      </trkpt>
      <trkpt lat="45.79313" lon="4.75599">
        <ele>297</ele>
        <time>2012-12-08T12:20:09Z</time>
      </trkpt>
      <trkpt lat="45.79314" lon="4.75603">
        <ele>297</ele>
        <time>2012-12-08T12:20:10Z</time>
      </trkpt>
      <trkpt lat="45.79314" lon="4.75607">
        <ele>297</ele>
        <time>2012-12-08T12:20:11Z</time>
      </trkpt>
      <trkpt lat="45.79314" lon="4.7561">
        <ele>297</ele>
        <time>2012-12-08T12:20:12Z</time>
      </trkpt>
      <trkpt lat="45.79313" lon="4.75613">
        <ele>296</ele>
        <time>2012-12-08T12:20:13Z</time>
      </trkpt>
      <trkpt lat="45.79313" lon="4.75616">
        <ele>296</ele>
        <time>2012-12-08T12:20:14Z</time>
      </trkpt>
      <trkpt lat="45.79312" lon="4.75619">
        <ele>297</ele>
        <time>2012-12-08T12:20:15Z</time>
      </trkpt>
      <trkpt lat="45.7931" lon="4.75627">
        <ele>295</ele>
        <time>2012-12-08T12:20:17Z</time>
      </trkpt>
      <trkpt lat="45.79311" lon="4.7563">
        <ele>296</ele>
        <time>2012-12-08T12:20:18Z</time>
      </trkpt>
      <trkpt lat="45.79311" lon="4.75633">
        <ele>296</ele>
        <time>2012-12-08T12:20:19Z</time>
      </trkpt>
      <trkpt lat="45.79312" lon="4.75656">
        <ele>294</ele>
        <time>2012-12-08T12:20:26Z</time>
      </trkpt>
      <trkpt lat="45.79309" lon="4.75685">
        <ele>292</ele>
        <time>2012-12-08T12:20:31Z</time>
      </trkpt>
      <trkpt lat="45.793" lon="4.7574">
        <ele>292</ele>
        <time>2012-12-08T12:20:39Z</time>
      </trkpt>
      <trkpt lat="45.79293" lon="4.75781">
        <ele>293</ele>
        <time>2012-12-08T12:20:47Z</time>
      </trkpt>
      <trkpt lat="45.79292" lon="4.75784">
        <ele>292</ele>
        <time>2012-12-08T12:20:48Z</time>
      </trkpt>
      <trkpt lat="45.7929" lon="4.758">
        <ele>290</ele>
        <time>2012-12-08T12:20:53Z</time>
      </trkpt>
      <trkpt lat="45.79292" lon="4.75804">
        <ele>290</ele>
        <time>2012-12-08T12:20:54Z</time>
      </trkpt>
      <trkpt lat="45.79294" lon="4.75809">
        <ele>289</ele>
        <time>2012-12-08T12:20:55Z</time>
      </trkpt>
      <trkpt lat="45.79297" lon="4.75814">
        <ele>289</ele>
        <time>2012-12-08T12:20:56Z</time>
      </trkpt>
      <trkpt lat="45.79301" lon="4.75819">
        <ele>289</ele>
        <time>2012-12-08T12:20:57Z</time>
      </trkpt>
      <trkpt lat="45.79307" lon="4.75828">
        <ele>288</ele>
        <time>2012-12-08T12:20:59Z</time>
      </trkpt>
      <trkpt lat="45.7931" lon="4.75832">
        <ele>288</ele>
        <time>2012-12-08T12:21:00Z</time>
      </trkpt>
      <trkpt lat="45.79312" lon="4.75835">
        <ele>286</ele>
        <time>2012-12-08T12:21:01Z</time>
      </trkpt>
      <trkpt lat="45.7932" lon="4.75842">
        <ele>285</ele>
        <time>2012-12-08T12:21:03Z</time>
      </trkpt>
      <trkpt lat="45.79327" lon="4.75849">
        <ele>283</ele>
        <time>2012-12-08T12:21:05Z</time>
      </trkpt>
      <trkpt lat="45.79354" lon="4.75876">
        <ele>282</ele>
        <time>2012-12-08T12:21:11Z</time>
      </trkpt>
      <trkpt lat="45.79377" lon="4.75891">
        <ele>281</ele>
        <time>2012-12-08T12:21:17Z</time>
      </trkpt>
      <trkpt lat="45.7938" lon="4.75891">
        <ele>281</ele>
        <time>2012-12-08T12:21:18Z</time>
      </trkpt>
      <trkpt lat="45.79382" lon="4.75892">
        <ele>281</ele>
        <time>2012-12-08T12:21:19Z</time>
      </trkpt>
      <trkpt lat="45.79385" lon="4.75893">
        <ele>281</ele>
        <time>2012-12-08T12:21:20Z</time>
      </trkpt>
      <trkpt lat="45.79388" lon="4.75895">
        <ele>281</ele>
        <time>2012-12-08T12:21:21Z</time>
      </trkpt>
      <trkpt lat="45.7939" lon="4.75895">
        <ele>281</ele>
        <time>2012-12-08T12:21:22Z</time>
      </trkpt>
      <trkpt lat="45.79404" lon="4.75898">
        <ele>281</ele>
        <time>2012-12-08T12:21:27Z</time>
      </trkpt>
      <trkpt lat="45.79425" lon="4.75906">
        <ele>281</ele>
        <time>2012-12-08T12:21:34Z</time>
      </trkpt>
      <trkpt lat="45.79444" lon="4.75914">
        <ele>281</ele>
        <time>2012-12-08T12:21:41Z</time>
      </trkpt>
      <trkpt lat="45.79462" lon="4.75916">
        <ele>282</ele>
        <time>2012-12-08T12:21:48Z</time>
      </trkpt>
      <trkpt lat="45.79482" lon="4.7592">
        <ele>283</ele>
        <time>2012-12-08T12:21:55Z</time>
      </trkpt>
      <trkpt lat="45.79502" lon="4.75922">
        <ele>284</ele>
        <time>2012-12-08T12:22:03Z</time>
      </trkpt>
      <trkpt lat="45.79518" lon="4.75924">
        <ele>285</ele>
        <time>2012-12-08T12:22:09Z</time>
      </trkpt>
      <trkpt lat="45.79536" lon="4.75924">
        <ele>286</ele>
        <time>2012-12-08T12:22:17Z</time>
      </trkpt>
      <trkpt lat="45.79554" lon="4.75916">
        <ele>288</ele>
        <time>2012-12-08T12:22:24Z</time>
      </trkpt>
      <trkpt lat="45.79568" lon="4.75915">
        <ele>289</ele>
        <time>2012-12-08T12:22:29Z</time>
      </trkpt>
      <trkpt lat="45.79586" lon="4.75916">
        <ele>289</ele>
        <time>2012-12-08T12:22:35Z</time>
      </trkpt>
      <trkpt lat="45.79601" lon="4.75917">
        <ele>289</ele>
        <time>2012-12-08T12:22:40Z</time>
      </trkpt>
      <trkpt lat="45.79613" lon="4.75917">
        <ele>289</ele>
        <time>2012-12-08T12:22:44Z</time>
      </trkpt>
      <trkpt lat="45.79631" lon="4.75917">
        <ele>289</ele>
        <time>2012-12-08T12:22:50Z</time>
      </trkpt>
      <trkpt lat="45.79639" lon="4.75914">
        <ele>288</ele>
        <time>2012-12-08T12:22:53Z</time>
      </trkpt>
      <trkpt lat="45.79641" lon="4.75911">
        <ele>289</ele>
        <time>2012-12-08T12:22:54Z</time>
      </trkpt>
      <trkpt lat="45.79644" lon="4.75905">
        <ele>289</ele>
        <time>2012-12-08T12:22:56Z</time>
      </trkpt>
      <trkpt lat="45.79645" lon="4.75902">
        <ele>289</ele>
        <time>2012-12-08T12:22:57Z</time>
      </trkpt>
      <trkpt lat="45.79645" lon="4.75898">
        <ele>289</ele>
        <time>2012-12-08T12:22:58Z</time>
      </trkpt>
      <trkpt lat="45.79644" lon="4.75895">
        <ele>289</ele>
        <time>2012-12-08T12:22:59Z</time>
      </trkpt>
      <trkpt lat="45.79643" lon="4.75891">
        <ele>290</ele>
        <time>2012-12-08T12:23:00Z</time>
      </trkpt>
      <trkpt lat="45.79643" lon="4.75887">
        <ele>290</ele>
        <time>2012-12-08T12:23:01Z</time>
      </trkpt>
      <trkpt lat="45.7964" lon="4.75868">
        <ele>292</ele>
        <time>2012-12-08T12:23:06Z</time>
      </trkpt>
      <trkpt lat="45.7964" lon="4.75866">
        <ele>292</ele>
        <time>2012-12-08T12:23:07Z</time>
      </trkpt>
      <trkpt lat="45.7964" lon="4.75863">
        <ele>292</ele>
        <time>2012-12-08T12:23:08Z</time>
      </trkpt>
      <trkpt lat="45.79639" lon="4.75834">
        <ele>294</ele>
        <time>2012-12-08T12:23:15Z</time>
      </trkpt>
      <trkpt lat="45.79633" lon="4.75796">
        <ele>295</ele>
        <time>2012-12-08T12:23:24Z</time>
      </trkpt>
      <trkpt lat="45.7963" lon="4.75768">
        <ele>294</ele>
        <time>2012-12-08T12:23:32Z</time>
      </trkpt>
      <trkpt lat="45.79632" lon="4.75764">
        <ele>294</ele>
        <time>2012-12-08T12:23:34Z</time>
      </trkpt>
      <trkpt lat="45.79634" lon="4.75763">
        <ele>295</ele>
        <time>2012-12-08T12:23:35Z</time>
      </trkpt>
      <trkpt lat="45.79635" lon="4.75763">
        <ele>294</ele>
        <time>2012-12-08T12:23:36Z</time>
      </trkpt>
      <trkpt lat="45.79636" lon="4.75764">
        <ele>294</ele>
        <time>2012-12-08T12:23:43Z</time>
      </trkpt>
      <trkpt lat="45.79636" lon="4.75764">
        <ele>294</ele>
        <time>2012-12-08T12:23:56Z</time>
      </trkpt>
      <trkpt lat="45.79635" lon="4.75764">
        <ele>294</ele>
        <time>2012-12-08T12:24:09Z</time>
      </trkpt>
      <trkpt lat="45.79637" lon="4.75765">
        <ele>294</ele>
        <time>2012-12-08T12:24:24Z</time>
      </trkpt>
      <trkpt lat="45.79637" lon="4.75764">
        <ele>294</ele>
        <time>2012-12-08T12:24:36Z</time>
      </trkpt>
      <trkpt lat="45.79639" lon="4.75764">
        <ele>294</ele>
        <time>2012-12-08T12:24:42Z</time>
      </trkpt>
      <trkpt lat="45.7964" lon="4.75764">
        <ele>294</ele>
        <time>2012-12-08T12:24:43Z</time>
      </trkpt>
      <trkpt lat="45.79659" lon="4.7576">
        <ele>293</ele>
        <time>2012-12-08T12:24:51Z</time>
      </trkpt>
      <trkpt lat="45.79671" lon="4.75754">
        <ele>292</ele>
        <time>2012-12-08T12:24:57Z</time>
      </trkpt>
      <trkpt lat="45.79673" lon="4.7575">
        <ele>292</ele>
        <time>2012-12-08T12:25:02Z</time>
      </trkpt>
      <trkpt lat="45.7969" lon="4.75747">
        <ele>292</ele>
        <time>2012-12-08T12:25:08Z</time>
      </trkpt>
      <trkpt lat="45.79708" lon="4.75737">
        <ele>291</ele>
        <time>2012-12-08T12:25:14Z</time>
      </trkpt>
      <trkpt lat="45.7971" lon="4.75733">
        <ele>291</ele>
        <time>2012-12-08T12:25:15Z</time>
      </trkpt>
      <trkpt lat="45.79711" lon="4.75728">
        <ele>291</ele>
        <time>2012-12-08T12:25:16Z</time>
      </trkpt>
      <trkpt lat="45.79712" lon="4.75724">
        <ele>291</ele>
        <time>2012-12-08T12:25:17Z</time>
      </trkpt>
      <trkpt lat="45.79711" lon="4.75719">
        <ele>290</ele>
        <time>2012-12-08T12:25:18Z</time>
      </trkpt>
      <trkpt lat="45.7971" lon="4.75715">
        <ele>290</ele>
        <time>2012-12-08T12:25:19Z</time>
      </trkpt>
      <trkpt lat="45.79709" lon="4.75712">
        <ele>290</ele>
        <time>2012-12-08T12:25:20Z</time>
      </trkpt>
      <trkpt lat="45.79708" lon="4.75708">
        <ele>290</ele>
        <time>2012-12-08T12:25:21Z</time>
      </trkpt>
      <trkpt lat="45.79707" lon="4.75705">
        <ele>291</ele>
        <time>2012-12-08T12:25:22Z</time>
      </trkpt>
      <trkpt lat="45.79706" lon="4.75701">
        <ele>290</ele>
        <time>2012-12-08T12:25:23Z</time>
      </trkpt>
      <trkpt lat="45.79705" lon="4.75696">
        <ele>291</ele>
        <time>2012-12-08T12:25:24Z</time>
      </trkpt>
      <trkpt lat="45.79704" lon="4.75692">
        <ele>290</ele>
        <time>2012-12-08T12:25:25Z</time>
      </trkpt>
      <trkpt lat="45.79697" lon="4.75651">
        <ele>290</ele>
        <time>2012-12-08T12:25:34Z</time>
      </trkpt>
      <trkpt lat="45.79707" lon="4.75614">
        <ele>289</ele>
        <time>2012-12-08T12:25:41Z</time>
      </trkpt>
      <trkpt lat="45.79726" lon="4.75592">
        <ele>290</ele>
        <time>2012-12-08T12:25:48Z</time>
      </trkpt>
      <trkpt lat="45.79755" lon="4.75579">
        <ele>292</ele>
        <time>2012-12-08T12:25:57Z</time>
      </trkpt>
      <trkpt lat="45.79778" lon="4.75572">
        <ele>293</ele>
        <time>2012-12-08T12:26:04Z</time>
      </trkpt>
      <trkpt lat="45.79806" lon="4.75554">
        <ele>294</ele>
        <time>2012-12-08T12:26:13Z</time>
      </trkpt>
      <trkpt lat="45.79844" lon="4.7553">
        <ele>295</ele>
        <time>2012-12-08T12:26:25Z</time>
      </trkpt>
      <trkpt lat="45.79852" lon="4.75512">
        <ele>296</ele>
        <time>2012-12-08T12:26:30Z</time>
      </trkpt>
      <trkpt lat="45.7985" lon="4.75475">
        <ele>295</ele>
        <time>2012-12-08T12:26:37Z</time>
      </trkpt>
      <trkpt lat="45.7986" lon="4.75437">
        <ele>295</ele>
        <time>2012-12-08T12:26:44Z</time>
      </trkpt>
      <trkpt lat="45.79863" lon="4.75426">
        <ele>296</ele>
        <time>2012-12-08T12:26:46Z</time>
      </trkpt>
      <trkpt lat="45.79863" lon="4.7542">
        <ele>295</ele>
        <time>2012-12-08T12:26:47Z</time>
      </trkpt>
      <trkpt lat="45.79864" lon="4.75408">
        <ele>296</ele>
        <time>2012-12-08T12:26:49Z</time>
      </trkpt>
      <trkpt lat="45.79864" lon="4.75402">
        <ele>295</ele>
        <time>2012-12-08T12:26:50Z</time>
      </trkpt>
      <trkpt lat="45.79856" lon="4.75345">
        <ele>296</ele>
        <time>2012-12-08T12:27:00Z</time>
      </trkpt>
      <trkpt lat="45.7985" lon="4.75293">
        <ele>298</ele>
        <time>2012-12-08T12:27:10Z</time>
      </trkpt>
      <trkpt lat="45.79852" lon="4.75288">
        <ele>297</ele>
        <time>2012-12-08T12:27:11Z</time>
      </trkpt>
      <trkpt lat="45.79855" lon="4.75285">
        <ele>298</ele>
        <time>2012-12-08T12:27:12Z</time>
      </trkpt>
      <trkpt lat="45.79858" lon="4.75283">
        <ele>298</ele>
        <time>2012-12-08T12:27:13Z</time>
      </trkpt>
      <trkpt lat="45.79862" lon="4.75282">
        <ele>298</ele>
        <time>2012-12-08T12:27:14Z</time>
      </trkpt>
      <trkpt lat="45.79866" lon="4.75281">
        <ele>298</ele>
        <time>2012-12-08T12:27:15Z</time>
      </trkpt>
      <trkpt lat="45.7987" lon="4.75281">
        <ele>298</ele>
        <time>2012-12-08T12:27:16Z</time>
      </trkpt>
      <trkpt lat="45.79912" lon="4.75284">
        <ele>298</ele>
        <time>2012-12-08T12:27:26Z</time>
      </trkpt>
      <trkpt lat="45.79949" lon="4.75291">
        <ele>298</ele>
        <time>2012-12-08T12:27:35Z</time>
      </trkpt>
      <trkpt lat="45.79997" lon="4.75298">
        <ele>298</ele>
        <time>2012-12-08T12:27:47Z</time>
      </trkpt>
      <trkpt lat="45.80041" lon="4.75313">
        <ele>299</ele>
        <time>2012-12-08T12:27:58Z</time>
      </trkpt>
      <trkpt lat="45.80072" lon="4.75339">
        <ele>300</ele>
        <time>2012-12-08T12:28:07Z</time>
      </trkpt>
      <trkpt lat="45.80102" lon="4.75357">
        <ele>300</ele>
        <time>2012-12-08T12:28:15Z</time>
      </trkpt>
      <trkpt lat="45.80106" lon="4.75357">
        <ele>300</ele>
        <time>2012-12-08T12:28:16Z</time>
      </trkpt>
      <trkpt lat="45.8011" lon="4.75357">
        <ele>300</ele>
        <time>2012-12-08T12:28:17Z</time>
      </trkpt>
      <trkpt lat="45.80114" lon="4.75356">
        <ele>300</ele>
        <time>2012-12-08T12:28:18Z</time>
      </trkpt>
      <trkpt lat="45.80118" lon="4.75355">
        <ele>301</ele>
        <time>2012-12-08T12:28:19Z</time>
      </trkpt>
      <trkpt lat="45.80122" lon="4.75353">
        <ele>300</ele>
        <time>2012-12-08T12:28:20Z</time>
      </trkpt>
      <trkpt lat="45.80161" lon="4.7534">
        <ele>301</ele>
        <time>2012-12-08T12:28:30Z</time>
      </trkpt>
      <trkpt lat="45.80201" lon="4.75332">
        <ele>302</ele>
        <time>2012-12-08T12:28:40Z</time>
      </trkpt>
      <trkpt lat="45.80233" lon="4.75327">
        <ele>303</ele>
        <time>2012-12-08T12:28:49Z</time>
      </trkpt>
      <trkpt lat="45.80268" lon="4.75328">
        <ele>304</ele>
        <time>2012-12-08T12:28:59Z</time>
      </trkpt>
      <trkpt lat="45.80277" lon="4.75337">
        <ele>304</ele>
        <time>2012-12-08T12:29:03Z</time>
      </trkpt>
      <trkpt lat="45.8028" lon="4.75335">
        <ele>305</ele>
        <time>2012-12-08T12:29:04Z</time>
      </trkpt>
      <trkpt lat="45.80282" lon="4.75331">
        <ele>305</ele>
        <time>2012-12-08T12:29:05Z</time>
      </trkpt>
      <trkpt lat="45.80301" lon="4.75286">
        <ele>306</ele>
        <time>2012-12-08T12:29:16Z</time>
      </trkpt>
      <trkpt lat="45.80323" lon="4.7524">
        <ele>307</ele>
        <time>2012-12-08T12:29:27Z</time>
      </trkpt>
      <trkpt lat="45.80344" lon="4.75207">
        <ele>308</ele>
        <time>2012-12-08T12:29:36Z</time>
      </trkpt>
      <trkpt lat="45.80367" lon="4.75178">
        <ele>309</ele>
        <time>2012-12-08T12:29:45Z</time>
      </trkpt>
      <trkpt lat="45.80388" lon="4.75136">
        <ele>308</ele>
        <time>2012-12-08T12:29:54Z</time>
      </trkpt>
      <trkpt lat="45.80394" lon="4.7512">
        <ele>307</ele>
        <time>2012-12-08T12:29:57Z</time>
      </trkpt>
      <trkpt lat="45.80393" lon="4.75114">
        <ele>307</ele>
        <time>2012-12-08T12:29:58Z</time>
      </trkpt>
      <trkpt lat="45.80391" lon="4.7511">
        <ele>307</ele>
        <time>2012-12-08T12:29:59Z</time>
      </trkpt>
      <trkpt lat="45.80379" lon="4.75095">
        <ele>305</ele>
        <time>2012-12-08T12:30:02Z</time>
      </trkpt>
      <trkpt lat="45.80351" lon="4.75051">
        <ele>302</ele>
        <time>2012-12-08T12:30:08Z</time>
      </trkpt>
      <trkpt lat="45.80343" lon="4.75033">
        <ele>301</ele>
        <time>2012-12-08T12:30:10Z</time>
      </trkpt>
      <trkpt lat="45.80311" lon="4.74982">
        <ele>299</ele>
        <time>2012-12-08T12:30:16Z</time>
      </trkpt>
      <trkpt lat="45.80305" lon="4.74975">
        <ele>298</ele>
        <time>2012-12-08T12:30:17Z</time>
      </trkpt>
      <trkpt lat="45.80298" lon="4.74969">
        <ele>298</ele>
        <time>2012-12-08T12:30:18Z</time>
      </trkpt>
      <trkpt lat="45.80251" lon="4.74938">
        <ele>296</ele>
        <time>2012-12-08T12:30:25Z</time>
      </trkpt>
      <trkpt lat="45.80238" lon="4.7493">
        <ele>296</ele>
        <time>2012-12-08T12:30:27Z</time>
      </trkpt>
      <trkpt lat="45.80233" lon="4.74925">
        <ele>296</ele>
        <time>2012-12-08T12:30:28Z</time>
      </trkpt>
      <trkpt lat="45.80228" lon="4.74918">
        <ele>296</ele>
        <time>2012-12-08T12:30:29Z</time>
      </trkpt>
      <trkpt lat="45.80224" lon="4.74911">
        <ele>295</ele>
        <time>2012-12-08T12:30:30Z</time>
      </trkpt>
      <trkpt lat="45.8022" lon="4.74902">
        <ele>295</ele>
        <time>2012-12-08T12:30:31Z</time>
      </trkpt>
      <trkpt lat="45.80211" lon="4.74887">
        <ele>294</ele>
        <time>2012-12-08T12:30:33Z</time>
      </trkpt>
      <trkpt lat="45.80206" lon="4.74881">
        <ele>294</ele>
        <time>2012-12-08T12:30:34Z</time>
      </trkpt>
      <trkpt lat="45.802" lon="4.74877">
        <ele>293</ele>
        <time>2012-12-08T12:30:35Z</time>
      </trkpt>
      <trkpt lat="45.80193" lon="4.74872">
        <ele>293</ele>
        <time>2012-12-08T12:30:36Z</time>
      </trkpt>
      <trkpt lat="45.80153" lon="4.7485">
        <ele>290</ele>
        <time>2012-12-08T12:30:42Z</time>
      </trkpt>
      <trkpt lat="45.80146" lon="4.74846">
        <ele>290</ele>
        <time>2012-12-08T12:30:43Z</time>
      </trkpt>
      <trkpt lat="45.80122" lon="4.74834">
        <ele>287</ele>
        <time>2012-12-08T12:30:46Z</time>
      </trkpt>
      <trkpt lat="45.80113" lon="4.74831">
        <ele>287</ele>
        <time>2012-12-08T12:30:47Z</time>
      </trkpt>
      <trkpt lat="45.80104" lon="4.74828">
        <ele>286</ele>
        <time>2012-12-08T12:30:48Z</time>
      </trkpt>
      <trkpt lat="45.80073" lon="4.74821">
        <ele>282</ele>
        <time>2012-12-08T12:30:51Z</time>
      </trkpt>
      <trkpt lat="45.80053" lon="4.74817">
        <ele>281</ele>
        <time>2012-12-08T12:30:53Z</time>
      </trkpt>
      <trkpt lat="45.80026" lon="4.74817">
        <ele>278</ele>
        <time>2012-12-08T12:30:56Z</time>
      </trkpt>
      <trkpt lat="45.80017" lon="4.7482">
        <ele>277</ele>
        <time>2012-12-08T12:30:57Z</time>
      </trkpt>
      <trkpt lat="45.8001" lon="4.74824">
        <ele>276</ele>
        <time>2012-12-08T12:30:58Z</time>
      </trkpt>
      <trkpt lat="45.80003" lon="4.7483">
        <ele>276</ele>
        <time>2012-12-08T12:30:59Z</time>
      </trkpt>
      <trkpt lat="45.79997" lon="4.74836">
        <ele>274</ele>
        <time>2012-12-08T12:31:00Z</time>
      </trkpt>
      <trkpt lat="45.79992" lon="4.74842">
        <ele>273</ele>
        <time>2012-12-08T12:31:01Z</time>
      </trkpt>
      <trkpt lat="45.79988" lon="4.74847">
        <ele>272</ele>
        <time>2012-12-08T12:31:02Z</time>
      </trkpt>
      <trkpt lat="45.79985" lon="4.74852">
        <ele>272</ele>
        <time>2012-12-08T12:31:03Z</time>
      </trkpt>
      <trkpt lat="45.79982" lon="4.74854">
        <ele>271</ele>
        <time>2012-12-08T12:31:04Z</time>
      </trkpt>
      <trkpt lat="45.79979" lon="4.74854">
        <ele>270</ele>
        <time>2012-12-08T12:31:05Z</time>
      </trkpt>
      <trkpt lat="45.79977" lon="4.7485">
        <ele>269</ele>
        <time>2012-12-08T12:31:06Z</time>
      </trkpt>
      <trkpt lat="45.79978" lon="4.74845">
        <ele>269</ele>
        <time>2012-12-08T12:31:07Z</time>
      </trkpt>
      <trkpt lat="45.79981" lon="4.74839">
        <ele>269</ele>
        <time>2012-12-08T12:31:08Z</time>
      </trkpt>
      <trkpt lat="45.79985" lon="4.74832">
        <ele>268</ele>
        <time>2012-12-08T12:31:09Z</time>
      </trkpt>
      <trkpt lat="45.79989" lon="4.74825">
        <ele>267</ele>
        <time>2012-12-08T12:31:10Z</time>
      </trkpt>
      <trkpt lat="45.79992" lon="4.74816">
        <ele>267</ele>
        <time>2012-12-08T12:31:11Z</time>
      </trkpt>
      <trkpt lat="45.79994" lon="4.74805">
        <ele>266</ele>
        <time>2012-12-08T12:31:12Z</time>
      </trkpt>
      <trkpt lat="45.79995" lon="4.74794">
        <ele>265</ele>
        <time>2012-12-08T12:31:13Z</time>
      </trkpt>
      <trkpt lat="45.79994" lon="4.74782">
        <ele>264</ele>
        <time>2012-12-08T12:31:14Z</time>
      </trkpt>
      <trkpt lat="45.79991" lon="4.7477">
        <ele>264</ele>
        <time>2012-12-08T12:31:15Z</time>
      </trkpt>
      <trkpt lat="45.79986" lon="4.74759">
        <ele>263</ele>
        <time>2012-12-08T12:31:16Z</time>
      </trkpt>
      <trkpt lat="45.7998" lon="4.74749">
        <ele>262</ele>
        <time>2012-12-08T12:31:17Z</time>
      </trkpt>
      <trkpt lat="45.79974" lon="4.74741">
        <ele>262</ele>
        <time>2012-12-08T12:31:18Z</time>
      </trkpt>
      <trkpt lat="45.79968" lon="4.74733">
        <ele>261</ele>
        <time>2012-12-08T12:31:19Z</time>
      </trkpt>
      <trkpt lat="45.79947" lon="4.74708">
        <ele>262</ele>
        <time>2012-12-08T12:31:23Z</time>
      </trkpt>
      <trkpt lat="45.79944" lon="4.74703">
        <ele>262</ele>
        <time>2012-12-08T12:31:24Z</time>
      </trkpt>
      <trkpt lat="45.79942" lon="4.74698">
        <ele>262</ele>
        <time>2012-12-08T12:31:25Z</time>
      </trkpt>
      <trkpt lat="45.79938" lon="4.74687">
        <ele>264</ele>
        <time>2012-12-08T12:31:28Z</time>
      </trkpt>
      <trkpt lat="45.79931" lon="4.74668">
        <ele>265</ele>
        <time>2012-12-08T12:31:35Z</time>
      </trkpt>
      <trkpt lat="45.79923" lon="4.74653">
        <ele>267</ele>
        <time>2012-12-08T12:31:42Z</time>
      </trkpt>
      <trkpt lat="45.79919" lon="4.74648">
        <ele>268</ele>
        <time>2012-12-08T12:31:45Z</time>
      </trkpt>
      <trkpt lat="45.7991" lon="4.74637">
        <ele>270</ele>
        <time>2012-12-08T12:31:51Z</time>
      </trkpt>
      <trkpt lat="45.79895" lon="4.74623">
        <ele>272</ele>
        <time>2012-12-08T12:32:00Z</time>
      </trkpt>
      <trkpt lat="45.79877" lon="4.74612">
        <ele>275</ele>
        <time>2012-12-08T12:32:09Z</time>
      </trkpt>
      <trkpt lat="45.79872" lon="4.7461">
        <ele>275</ele>
        <time>2012-12-08T12:32:11Z</time>
      </trkpt>
      <trkpt lat="45.79866" lon="4.74608">
        <ele>276</ele>
        <time>2012-12-08T12:32:14Z</time>
      </trkpt>
      <trkpt lat="45.79864" lon="4.74607">
        <ele>276</ele>
        <time>2012-12-08T12:32:15Z</time>
      </trkpt>
      <trkpt lat="45.79846" lon="4.74601">
        <ele>278</ele>
        <time>2012-12-08T12:32:23Z</time>
      </trkpt>
      <trkpt lat="45.79828" lon="4.74599">
        <ele>280</ele>
        <time>2012-12-08T12:32:30Z</time>
      </trkpt>
      <trkpt lat="45.7981" lon="4.746">
        <ele>282</ele>
        <time>2012-12-08T12:32:37Z</time>
      </trkpt>
      <trkpt lat="45.79795" lon="4.74595">
        <ele>284</ele>
        <time>2012-12-08T12:32:43Z</time>
      </trkpt>
      <trkpt lat="45.7979" lon="4.74573">
        <ele>287</ele>
        <time>2012-12-08T12:32:50Z</time>
      </trkpt>
      <trkpt lat="45.79782" lon="4.74545">
        <ele>288</ele>
        <time>2012-12-08T12:32:59Z</time>
      </trkpt>
      <trkpt lat="45.79767" lon="4.7454">
        <ele>290</ele>
        <time>2012-12-08T12:33:06Z</time>
      </trkpt>
      <trkpt lat="45.79748" lon="4.74548">
        <ele>293</ele>
        <time>2012-12-08T12:33:14Z</time>
      </trkpt>
      <trkpt lat="45.79729" lon="4.74563">
        <ele>294</ele>
        <time>2012-12-08T12:33:24Z</time>
      </trkpt>
      <trkpt lat="45.79709" lon="4.74577">
        <ele>296</ele>
        <time>2012-12-08T12:33:33Z</time>
      </trkpt>
      <trkpt lat="45.7969" lon="4.74591">
        <ele>297</ele>
        <time>2012-12-08T12:33:42Z</time>
      </trkpt>
      <trkpt lat="45.79676" lon="4.74602">
        <ele>297</ele>
        <time>2012-12-08T12:33:50Z</time>
      </trkpt>
      <trkpt lat="45.79674" lon="4.74603">
        <ele>297</ele>
        <time>2012-12-08T12:34:02Z</time>
      </trkpt>
      <trkpt lat="45.79673" lon="4.74605">
        <ele>297</ele>
        <time>2012-12-08T12:34:18Z</time>
      </trkpt>
      <trkpt lat="45.79672" lon="4.74604">
        <ele>297</ele>
        <time>2012-12-08T12:34:33Z</time>
      </trkpt>
      <trkpt lat="45.79669" lon="4.74608">
        <ele>297</ele>
        <time>2012-12-08T12:34:40Z</time>
      </trkpt>
      <trkpt lat="45.79653" lon="4.74611">
        <ele>297</ele>
        <time>2012-12-08T12:34:48Z</time>
      </trkpt>
      <trkpt lat="45.79632" lon="4.74621">
        <ele>296</ele>
        <time>2012-12-08T12:34:57Z</time>
      </trkpt>
      <trkpt lat="45.79609" lon="4.74627">
        <ele>296</ele>
        <time>2012-12-08T12:35:07Z</time>
      </trkpt>
      <trkpt lat="45.79606" lon="4.74625">
        <ele>296</ele>
        <time>2012-12-08T12:35:08Z</time>
      </trkpt>
      <trkpt lat="45.79603" lon="4.74622">
        <ele>296</ele>
        <time>2012-12-08T12:35:09Z</time>
      </trkpt>
      <trkpt lat="45.79601" lon="4.74617">
        <ele>295</ele>
        <time>2012-12-08T12:35:10Z</time>
      </trkpt>
      <trkpt lat="45.796" lon="4.74612">
        <ele>296</ele>
        <time>2012-12-08T12:35:11Z</time>
      </trkpt>
      <trkpt lat="45.796" lon="4.74606">
        <ele>295</ele>
        <time>2012-12-08T12:35:12Z</time>
      </trkpt>
      <trkpt lat="45.79599" lon="4.746">
        <ele>295</ele>
        <time>2012-12-08T12:35:13Z</time>
      </trkpt>
      <trkpt lat="45.79597" lon="4.74552">
        <ele>296</ele>
        <time>2012-12-08T12:35:21Z</time>
      </trkpt>
      <trkpt lat="45.79585" lon="4.74481">
        <ele>295</ele>
        <time>2012-12-08T12:35:33Z</time>
      </trkpt>
      <trkpt lat="45.79569" lon="4.74414">
        <ele>296</ele>
        <time>2012-12-08T12:35:45Z</time>
      </trkpt>
      <trkpt lat="45.79556" lon="4.74367">
        <ele>296</ele>
        <time>2012-12-08T12:35:53Z</time>
      </trkpt>
      <trkpt lat="45.79537" lon="4.74305">
        <ele>297</ele>
        <time>2012-12-08T12:36:03Z</time>
      </trkpt>
      <trkpt lat="45.7952" lon="4.74253">
        <ele>298</ele>
        <time>2012-12-08T12:36:12Z</time>
      </trkpt>
      <trkpt lat="45.7951" lon="4.74225">
        <ele>297</ele>
        <time>2012-12-08T12:36:17Z</time>
      </trkpt>
      <trkpt lat="45.79495" lon="4.74187">
        <ele>298</ele>
        <time>2012-12-08T12:36:25Z</time>
      </trkpt>
      <trkpt lat="45.79482" lon="4.74153">
        <ele>297</ele>
        <time>2012-12-08T12:36:32Z</time>
      </trkpt>
      <trkpt lat="45.7947" lon="4.7412">
        <ele>298</ele>
        <time>2012-12-08T12:36:39Z</time>
      </trkpt>
      <trkpt lat="45.7945" lon="4.74077">
        <ele>296</ele>
        <time>2012-12-08T12:36:47Z</time>
      </trkpt>
      <trkpt lat="45.79433" lon="4.74024">
        <ele>294</ele>
        <time>2012-12-08T12:36:55Z</time>
      </trkpt>
      <trkpt lat="45.7942" lon="4.73973">
        <ele>293</ele>
        <time>2012-12-08T12:37:01Z</time>
      </trkpt>
      <trkpt lat="45.79402" lon="4.73904">
        <ele>289</ele>
        <time>2012-12-08T12:37:08Z</time>
      </trkpt>
      <trkpt lat="45.79388" lon="4.73852">
        <ele>287</ele>
        <time>2012-12-08T12:37:14Z</time>
      </trkpt>
      <trkpt lat="45.79376" lon="4.73805">
        <ele>284</ele>
        <time>2012-12-08T12:37:19Z</time>
      </trkpt>
      <trkpt lat="45.79363" lon="4.73769">
        <ele>281</ele>
        <time>2012-12-08T12:37:24Z</time>
      </trkpt>
      <trkpt lat="45.79347" lon="4.73742">
        <ele>280</ele>
        <time>2012-12-08T12:37:28Z</time>
      </trkpt>
      <trkpt lat="45.79318" lon="4.73698">
        <ele>277</ele>
        <time>2012-12-08T12:37:35Z</time>
      </trkpt>
      <trkpt lat="45.79295" lon="4.73667">
        <ele>274</ele>
        <time>2012-12-08T12:37:40Z</time>
      </trkpt>
      <trkpt lat="45.79284" lon="4.7365">
        <ele>273</ele>
        <time>2012-12-08T12:37:43Z</time>
      </trkpt>
      <trkpt lat="45.79282" lon="4.73647">
        <ele>273</ele>
        <time>2012-12-08T12:37:44Z</time>
      </trkpt>
      <trkpt lat="45.7928" lon="4.73643">
        <ele>273</ele>
        <time>2012-12-08T12:37:45Z</time>
      </trkpt>
      <trkpt lat="45.79279" lon="4.73641">
        <ele>272</ele>
        <time>2012-12-08T12:37:46Z</time>
      </trkpt>
      <trkpt lat="45.79279" lon="4.7364">
        <ele>272</ele>
        <time>2012-12-08T12:37:47Z</time>
      </trkpt>
      <trkpt lat="45.7928" lon="4.73638">
        <ele>271</ele>
        <time>2012-12-08T12:37:48Z</time>
      </trkpt>
      <trkpt lat="45.79281" lon="4.73637">
        <ele>271</ele>
        <time>2012-12-08T12:37:49Z</time>
      </trkpt>
      <trkpt lat="45.79283" lon="4.73633">
        <ele>269</ele>
        <time>2012-12-08T12:37:52Z</time>
      </trkpt>
      <trkpt lat="45.79285" lon="4.73627">
        <ele>269</ele>
        <time>2012-12-08T12:37:59Z</time>
      </trkpt>
      <trkpt lat="45.79286" lon="4.73625">
        <ele>268</ele>
        <time>2012-12-08T12:38:00Z</time>
      </trkpt>
      <trkpt lat="45.79286" lon="4.73622">
        <ele>269</ele>
        <time>2012-12-08T12:38:01Z</time>
      </trkpt>
      <trkpt lat="45.79288" lon="4.73609">
        <ele>268</ele>
        <time>2012-12-08T12:38:05Z</time>
      </trkpt>
      <trkpt lat="45.79284" lon="4.73594">
        <ele>266</ele>
        <time>2012-12-08T12:38:10Z</time>
      </trkpt>
      <trkpt lat="45.79282" lon="4.73587">
        <ele>264</ele>
        <time>2012-12-08T12:38:12Z</time>
      </trkpt>
      <trkpt lat="45.79279" lon="4.73579">
        <ele>263</ele>
        <time>2012-12-08T12:38:15Z</time>
      </trkpt>
      <trkpt lat="45.79268" lon="4.73561">
        <ele>260</ele>
        <time>2012-12-08T12:38:22Z</time>
      </trkpt>
      <trkpt lat="45.79267" lon="4.73559">
        <ele>260</ele>
        <time>2012-12-08T12:38:23Z</time>
      </trkpt>
      <trkpt lat="45.79266" lon="4.73555">
        <ele>260</ele>
        <time>2012-12-08T12:38:30Z</time>
      </trkpt>
      <trkpt lat="45.79263" lon="4.73555">
        <ele>260</ele>
        <time>2012-12-08T12:38:37Z</time>
      </trkpt>
      <trkpt lat="45.79264" lon="4.7355">
        <ele>260</ele>
        <time>2012-12-08T12:38:46Z</time>
      </trkpt>
      <trkpt lat="45.79261" lon="4.73549">
        <ele>260</ele>
        <time>2012-12-08T12:38:56Z</time>
      </trkpt>
      <trkpt lat="45.79261" lon="4.7355">
        <ele>260</ele>
        <time>2012-12-08T12:39:07Z</time>
      </trkpt>
      <trkpt lat="45.7926" lon="4.73547">
        <ele>260</ele>
        <time>2012-12-08T12:39:14Z</time>
      </trkpt>
      <trkpt lat="45.7926" lon="4.73545">
        <ele>260</ele>
        <time>2012-12-08T12:39:23Z</time>
      </trkpt>
      <trkpt lat="45.7926" lon="4.73544">
        <ele>259</ele>
        <time>2012-12-08T12:39:33Z</time>
      </trkpt>
      <trkpt lat="45.79258" lon="4.73544">
        <ele>259</ele>
        <time>2012-12-08T12:39:40Z</time>
      </trkpt>
      <trkpt lat="45.79253" lon="4.73538">
        <ele>258</ele>
        <time>2012-12-08T12:39:45Z</time>
      </trkpt>
      <trkpt lat="45.79249" lon="4.73536">
        <ele>257</ele>
        <time>2012-12-08T12:39:49Z</time>
      </trkpt>
      <trkpt lat="45.79249" lon="4.73525">
        <ele>257</ele>
        <time>2012-12-08T12:39:56Z</time>
      </trkpt>
      <trkpt lat="45.79247" lon="4.73514">
        <ele>256</ele>
        <time>2012-12-08T12:40:01Z</time>
      </trkpt>
      <trkpt lat="45.79244" lon="4.73507">
        <ele>256</ele>
        <time>2012-12-08T12:40:12Z</time>
      </trkpt>
      <trkpt lat="45.79242" lon="4.73505">
        <ele>256</ele>
        <time>2012-12-08T12:40:19Z</time>
      </trkpt>
      <trkpt lat="45.79237" lon="4.73502">
        <ele>255</ele>
        <time>2012-12-08T12:40:27Z</time>
      </trkpt>
      <trkpt lat="45.79232" lon="4.73505">
        <ele>256</ele>
        <time>2012-12-08T12:40:33Z</time>
      </trkpt>
      <trkpt lat="45.79227" lon="4.73508">
        <ele>255</ele>
        <time>2012-12-08T12:40:40Z</time>
      </trkpt>
      <trkpt lat="45.79224" lon="4.73511">
        <ele>256</ele>
        <time>2012-12-08T12:40:49Z</time>
      </trkpt>
      <trkpt lat="45.79218" lon="4.7351">
        <ele>256</ele>
        <time>2012-12-08T12:40:58Z</time>
      </trkpt>
      <trkpt lat="45.79215" lon="4.73507">
        <ele>256</ele>
        <time>2012-12-08T12:41:07Z</time>
      </trkpt>
      <trkpt lat="45.79212" lon="4.73501">
        <ele>256</ele>
        <time>2012-12-08T12:41:22Z</time>
      </trkpt>
      <trkpt lat="45.79207" lon="4.735">
        <ele>255</ele>
        <time>2012-12-08T12:41:31Z</time>
      </trkpt>
      <trkpt lat="45.79206" lon="4.735">
        <ele>255</ele>
        <time>2012-12-08T12:41:38Z</time>
      </trkpt>
      <trkpt lat="45.79206" lon="4.73495">
        <ele>255</ele>
        <time>2012-12-08T12:41:46Z</time>
      </trkpt>
      <trkpt lat="45.79207" lon="4.73498">
        <ele>255</ele>
        <time>2012-12-08T12:41:55Z</time>
      </trkpt>
      <trkpt lat="45.79203" lon="4.73497">
        <ele>255</ele>
        <time>2012-12-08T12:42:04Z</time>
      </trkpt>
      <trkpt lat="45.79201" lon="4.73497">
        <ele>255</ele>
        <time>2012-12-08T12:42:06Z</time>
      </trkpt>
      <trkpt lat="45.79196" lon="4.73496">
        <ele>255</ele>
        <time>2012-12-08T12:42:11Z</time>
      </trkpt>
      <trkpt lat="45.79192" lon="4.73494">
        <ele>255</ele>
        <time>2012-12-08T12:42:15Z</time>
      </trkpt>
      <trkpt lat="45.79185" lon="4.73485">
        <ele>254</ele>
        <time>2012-12-08T12:42:24Z</time>
      </trkpt>
      <trkpt lat="45.79181" lon="4.73481">
        <ele>254</ele>
        <time>2012-12-08T12:42:32Z</time>
      </trkpt>
      <trkpt lat="45.7918" lon="4.73474">
        <ele>255</ele>
        <time>2012-12-08T12:42:42Z</time>
      </trkpt>
      <trkpt lat="45.7918" lon="4.73469">
        <ele>254</ele>
        <time>2012-12-08T12:42:50Z</time>
      </trkpt>
      <trkpt lat="45.79181" lon="4.73466">
        <ele>253</ele>
        <time>2012-12-08T12:42:56Z</time>
      </trkpt>
      <trkpt lat="45.79181" lon="4.73466">
        <ele>255</ele>
        <time>2012-12-08T12:43:07Z</time>
      </trkpt>
      <trkpt lat="45.7918" lon="4.73466">
        <ele>257</ele>
        <time>2012-12-08T12:43:13Z</time>
      </trkpt>
      <trkpt lat="45.7918" lon="4.73461">
        <ele>258</ele>
        <time>2012-12-08T12:43:19Z</time>
      </trkpt>
      <trkpt lat="45.79184" lon="4.73458">
        <ele>260</ele>
        <time>2012-12-08T12:43:27Z</time>
      </trkpt>
      <trkpt lat="45.79185" lon="4.73449">
        <ele>263</ele>
        <time>2012-12-08T12:43:35Z</time>
      </trkpt>
      <trkpt lat="45.79188" lon="4.73448">
        <ele>263</ele>
        <time>2012-12-08T12:43:48Z</time>
      </trkpt>
      <trkpt lat="45.7919" lon="4.73447">
        <ele>263</ele>
        <time>2012-12-08T12:43:57Z</time>
      </trkpt>
      <trkpt lat="45.79192" lon="4.73445">
        <ele>263</ele>
        <time>2012-12-08T12:44:13Z</time>
      </trkpt>
      <trkpt lat="45.79195" lon="4.73441">
        <ele>263</ele>
        <time>2012-12-08T12:44:33Z</time>
      </trkpt>
      <trkpt lat="45.79189" lon="4.73448">
        <ele>263</ele>
        <time>2012-12-08T12:44:48Z</time>
      </trkpt>
      <trkpt lat="45.79188" lon="4.7345">
        <ele>264</ele>
        <time>2012-12-08T12:45:08Z</time>
      </trkpt>
      <trkpt lat="45.79188" lon="4.73451">
        <ele>263</ele>
        <time>2012-12-08T12:45:21Z</time>
      </trkpt>
      <trkpt lat="45.79186" lon="4.73447">
        <ele>263</ele>
        <time>2012-12-08T12:45:32Z</time>
      </trkpt>
      <trkpt lat="45.79185" lon="4.73444">
        <ele>264</ele>
        <time>2012-12-08T12:45:42Z</time>
      </trkpt>
      <trkpt lat="45.79182" lon="4.73438">
        <ele>264</ele>
        <time>2012-12-08T12:45:47Z</time>
      </trkpt>
      <trkpt lat="45.79174" lon="4.73433">
        <ele>265</ele>
        <time>2012-12-08T12:45:53Z</time>
      </trkpt>
      <trkpt lat="45.7917" lon="4.73429">
        <ele>265</ele>
        <time>2012-12-08T12:45:57Z</time>
      </trkpt>
      <trkpt lat="45.79165" lon="4.73425">
        <ele>265</ele>
        <time>2012-12-08T12:46:00Z</time>
      </trkpt>
      <trkpt lat="45.79153" lon="4.73411">
        <ele>268</ele>
        <time>2012-12-08T12:46:08Z</time>
      </trkpt>
      <trkpt lat="45.79146" lon="4.73403">
        <ele>268</ele>
        <time>2012-12-08T12:46:15Z</time>
      </trkpt>
      <trkpt lat="45.79149" lon="4.73398">
        <ele>268</ele>
        <time>2012-12-08T12:46:22Z</time>
      </trkpt>
      <trkpt lat="45.7915" lon="4.73397">
        <ele>268</ele>
        <time>2012-12-08T12:46:23Z</time>
      </trkpt>
      <trkpt lat="45.79159" lon="4.73397">
        <ele>269</ele>
        <time>2012-12-08T12:46:30Z</time>
      </trkpt>
      <trkpt lat="45.79159" lon="4.73393">
        <ele>269</ele>
        <time>2012-12-08T12:46:33Z</time>
      </trkpt>
      <trkpt lat="45.79169" lon="4.73377">
        <ele>267</ele>
        <time>2012-12-08T12:46:40Z</time>
      </trkpt>
      <trkpt lat="45.79175" lon="4.73368">
        <ele>264</ele>
        <time>2012-12-08T12:46:43Z</time>
      </trkpt>
      <trkpt lat="45.79176" lon="4.73365">
        <ele>264</ele>
        <time>2012-12-08T12:46:44Z</time>
      </trkpt>
      <trkpt lat="45.79177" lon="4.73361">
        <ele>263</ele>
        <time>2012-12-08T12:46:45Z</time>
      </trkpt>
      <trkpt lat="45.79179" lon="4.7336">
        <ele>263</ele>
        <time>2012-12-08T12:46:46Z</time>
      </trkpt>
      <trkpt lat="45.79182" lon="4.73358">
        <ele>262</ele>
        <time>2012-12-08T12:46:47Z</time>
      </trkpt>
      <trkpt lat="45.79184" lon="4.73355">
        <ele>261</ele>
        <time>2012-12-08T12:46:48Z</time>
      </trkpt>
      <trkpt lat="45.79187" lon="4.73353">
        <ele>261</ele>
        <time>2012-12-08T12:46:49Z</time>
      </trkpt>
      <trkpt lat="45.79191" lon="4.73351">
        <ele>261</ele>
        <time>2012-12-08T12:46:50Z</time>
      </trkpt>
      <trkpt lat="45.79194" lon="4.73348">
        <ele>261</ele>
        <time>2012-12-08T12:46:51Z</time>
      </trkpt>
      <trkpt lat="45.79196" lon="4.73345">
        <ele>259</ele>
        <time>2012-12-08T12:46:52Z</time>
      </trkpt>
      <trkpt lat="45.79198" lon="4.73343">
        <ele>259</ele>
        <time>2012-12-08T12:46:53Z</time>
      </trkpt>
      <trkpt lat="45.79206" lon="4.73331">
        <ele>257</ele>
        <time>2012-12-08T12:46:57Z</time>
      </trkpt>
      <trkpt lat="45.79214" lon="4.73324">
        <ele>256</ele>
        <time>2012-12-08T12:47:01Z</time>
      </trkpt>
      <trkpt lat="45.79215" lon="4.73321">
        <ele>256</ele>
        <time>2012-12-08T12:47:02Z</time>
      </trkpt>
      <trkpt lat="45.79215" lon="4.73318">
        <ele>256</ele>
        <time>2012-12-08T12:47:03Z</time>
      </trkpt>
      <trkpt lat="45.79216" lon="4.73316">
        <ele>255</ele>
        <time>2012-12-08T12:47:04Z</time>
      </trkpt>
      <trkpt lat="45.79218" lon="4.73312">
        <ele>255</ele>
        <time>2012-12-08T12:47:05Z</time>
      </trkpt>
      <trkpt lat="45.79219" lon="4.73308">
        <ele>254</ele>
        <time>2012-12-08T12:47:06Z</time>
      </trkpt>
      <trkpt lat="45.79221" lon="4.73304">
        <ele>253</ele>
        <time>2012-12-08T12:47:07Z</time>
      </trkpt>
      <trkpt lat="45.79224" lon="4.73299">
        <ele>251</ele>
        <time>2012-12-08T12:47:09Z</time>
      </trkpt>
      <trkpt lat="45.79226" lon="4.73298">
        <ele>251</ele>
        <time>2012-12-08T12:47:10Z</time>
      </trkpt>
      <trkpt lat="45.79229" lon="4.73295">
        <ele>252</ele>
        <time>2012-12-08T12:47:13Z</time>
      </trkpt>
      <trkpt lat="45.7923" lon="4.73294">
        <ele>252</ele>
        <time>2012-12-08T12:47:14Z</time>
      </trkpt>
      <trkpt lat="45.79243" lon="4.73281">
        <ele>251</ele>
        <time>2012-12-08T12:47:20Z</time>
      </trkpt>
      <trkpt lat="45.79249" lon="4.73272">
        <ele>251</ele>
        <time>2012-12-08T12:47:22Z</time>
      </trkpt>
      <trkpt lat="45.79252" lon="4.73271">
        <ele>251</ele>
        <time>2012-12-08T12:47:23Z</time>
      </trkpt>
      <trkpt lat="45.79255" lon="4.7327">
        <ele>251</ele>
        <time>2012-12-08T12:47:24Z</time>
      </trkpt>
      <trkpt lat="45.79257" lon="4.73269">
        <ele>250</ele>
        <time>2012-12-08T12:47:25Z</time>
      </trkpt>
      <trkpt lat="45.79259" lon="4.73268">
        <ele>252</ele>
        <time>2012-12-08T12:47:26Z</time>
      </trkpt>
      <trkpt lat="45.79271" lon="4.73264">
        <ele>251</ele>
        <time>2012-12-08T12:47:32Z</time>
      </trkpt>
      <trkpt lat="45.79278" lon="4.73259">
        <ele>251</ele>
        <time>2012-12-08T12:47:39Z</time>
      </trkpt>
      <trkpt lat="45.79281" lon="4.73259">
        <ele>251</ele>
        <time>2012-12-08T12:47:46Z</time>
      </trkpt>
      <trkpt lat="45.79284" lon="4.73259">
        <ele>251</ele>
        <time>2012-12-08T12:47:55Z</time>
      </trkpt>
      <trkpt lat="45.79288" lon="4.73258">
        <ele>250</ele>
        <time>2012-12-08T12:47:58Z</time>
      </trkpt>
      <trkpt lat="45.79289" lon="4.73257">
        <ele>251</ele>
        <time>2012-12-08T12:47:59Z</time>
      </trkpt>
      <trkpt lat="45.79292" lon="4.73257">
        <ele>251</ele>
        <time>2012-12-08T12:48:01Z</time>
      </trkpt>
      <trkpt lat="45.79294" lon="4.73258">
        <ele>251</ele>
        <time>2012-12-08T12:48:02Z</time>
      </trkpt>
      <trkpt lat="45.79301" lon="4.73259">
        <ele>252</ele>
        <time>2012-12-08T12:48:05Z</time>
      </trkpt>
      <trkpt lat="45.79303" lon="4.7326">
        <ele>252</ele>
        <time>2012-12-08T12:48:06Z</time>
      </trkpt>
      <trkpt lat="45.79314" lon="4.73263">
        <ele>252</ele>
        <time>2012-12-08T12:48:11Z</time>
      </trkpt>
      <trkpt lat="45.79324" lon="4.73262">
        <ele>252</ele>
        <time>2012-12-08T12:48:16Z</time>
      </trkpt>
      <trkpt lat="45.79338" lon="4.73258">
        <ele>252</ele>
        <time>2012-12-08T12:48:22Z</time>
      </trkpt>
      <trkpt lat="45.79343" lon="4.73255">
        <ele>252</ele>
        <time>2012-12-08T12:48:25Z</time>
      </trkpt>
      <trkpt lat="45.79344" lon="4.73253">
        <ele>252</ele>
        <time>2012-12-08T12:48:26Z</time>
      </trkpt>
      <trkpt lat="45.79345" lon="4.73252">
        <ele>252</ele>
        <time>2012-12-08T12:48:27Z</time>
      </trkpt>
      <trkpt lat="45.79347" lon="4.73252">
        <ele>252</ele>
        <time>2012-12-08T12:48:28Z</time>
      </trkpt>
      <trkpt lat="45.79351" lon="4.73252">
        <ele>252</ele>
        <time>2012-12-08T12:48:33Z</time>
      </trkpt>
      <trkpt lat="45.79356" lon="4.73254">
        <ele>252</ele>
        <time>2012-12-08T12:48:41Z</time>
      </trkpt>
      <trkpt lat="45.7936" lon="4.73254">
        <ele>252</ele>
        <time>2012-12-08T12:48:46Z</time>
      </trkpt>
      <trkpt lat="45.79363" lon="4.73251">
        <ele>252</ele>
        <time>2012-12-08T12:48:50Z</time>
      </trkpt>
      <trkpt lat="45.79365" lon="4.73249">
        <ele>252</ele>
        <time>2012-12-08T12:48:52Z</time>
      </trkpt>
      <trkpt lat="45.79367" lon="4.7325">
        <ele>252</ele>
        <time>2012-12-08T12:48:53Z</time>
      </trkpt>
      <trkpt lat="45.79369" lon="4.7325">
        <ele>251</ele>
        <time>2012-12-08T12:48:54Z</time>
      </trkpt>
      <trkpt lat="45.79373" lon="4.73251">
        <ele>250</ele>
        <time>2012-12-08T12:48:55Z</time>
      </trkpt>
      <trkpt lat="45.79377" lon="4.73251">
        <ele>250</ele>
        <time>2012-12-08T12:48:56Z</time>
      </trkpt>
      <trkpt lat="45.7938" lon="4.73251">
        <ele>250</ele>
        <time>2012-12-08T12:48:57Z</time>
      </trkpt>
      <trkpt lat="45.7939" lon="4.73253">
        <ele>250</ele>
        <time>2012-12-08T12:49:01Z</time>
      </trkpt>
      <trkpt lat="45.79399" lon="4.73255">
        <ele>251</ele>
        <time>2012-12-08T12:49:05Z</time>
      </trkpt>
      <trkpt lat="45.79401" lon="4.73252">
        <ele>251</ele>
        <time>2012-12-08T12:49:06Z</time>
      </trkpt>
      <trkpt lat="45.79404" lon="4.7325">
        <ele>251</ele>
        <time>2012-12-08T12:49:07Z</time>
      </trkpt>
      <trkpt lat="45.79406" lon="4.73248">
        <ele>250</ele>
        <time>2012-12-08T12:49:08Z</time>
      </trkpt>
      <trkpt lat="45.79409" lon="4.73246">
        <ele>250</ele>
        <time>2012-12-08T12:49:09Z</time>
      </trkpt>
      <trkpt lat="45.79411" lon="4.73244">
        <ele>250</ele>
        <time>2012-12-08T12:49:10Z</time>
      </trkpt>
      <trkpt lat="45.79421" lon="4.73237">
        <ele>251</ele>
        <time>2012-12-08T12:49:15Z</time>
      </trkpt>
      <trkpt lat="45.79423" lon="4.73234">
        <ele>250</ele>
        <time>2012-12-08T12:49:16Z</time>
      </trkpt>
      <trkpt lat="45.79425" lon="4.73232">
        <ele>251</ele>
        <time>2012-12-08T12:49:17Z</time>
      </trkpt>
      <trkpt lat="45.79438" lon="4.73224">
        <ele>251</ele>
        <time>2012-12-08T12:49:22Z</time>
      </trkpt>
      <trkpt lat="45.7944" lon="4.73221">
        <ele>251</ele>
        <time>2012-12-08T12:49:23Z</time>
      </trkpt>
      <trkpt lat="45.79446" lon="4.73214">
        <ele>252</ele>
        <time>2012-12-08T12:49:27Z</time>
      </trkpt>
      <trkpt lat="45.79458" lon="4.73205">
        <ele>251</ele>
        <time>2012-12-08T12:49:33Z</time>
      </trkpt>
      <trkpt lat="45.7947" lon="4.73195">
        <ele>251</ele>
        <time>2012-12-08T12:49:39Z</time>
      </trkpt>
      <trkpt lat="45.79485" lon="4.73192">
        <ele>253</ele>
        <time>2012-12-08T12:49:46Z</time>
      </trkpt>
      <trkpt lat="45.79488" lon="4.73191">
        <ele>253</ele>
        <time>2012-12-08T12:49:47Z</time>
      </trkpt>
      <trkpt lat="45.79495" lon="4.73188">
        <ele>253</ele>
        <time>2012-12-08T12:49:51Z</time>
      </trkpt>
      <trkpt lat="45.79511" lon="4.73175">
        <ele>253</ele>
        <time>2012-12-08T12:49:57Z</time>
      </trkpt>
      <trkpt lat="45.79519" lon="4.73162">
        <ele>253</ele>
        <time>2012-12-08T12:50:02Z</time>
      </trkpt>
      <trkpt lat="45.79531" lon="4.73139">
        <ele>253</ele>
        <time>2012-12-08T12:50:10Z</time>
      </trkpt>
      <trkpt lat="45.7954" lon="4.73131">
        <ele>254</ele>
        <time>2012-12-08T12:50:14Z</time>
      </trkpt>
      <trkpt lat="45.79553" lon="4.73114">
        <ele>256</ele>
        <time>2012-12-08T12:50:22Z</time>
      </trkpt>
      <trkpt lat="45.79563" lon="4.73104">
        <ele>256</ele>
        <time>2012-12-08T12:50:28Z</time>
      </trkpt>
      <trkpt lat="45.79565" lon="4.73102">
        <ele>256</ele>
        <time>2012-12-08T12:50:30Z</time>
      </trkpt>
      <trkpt lat="45.7958" lon="4.73097">
        <ele>256</ele>
        <time>2012-12-08T12:50:38Z</time>
      </trkpt>
      <trkpt lat="45.79593" lon="4.73093">
        <ele>257</ele>
        <time>2012-12-08T12:50:44Z</time>
      </trkpt>
      <trkpt lat="45.79605" lon="4.73089">
        <ele>256</ele>
        <time>2012-12-08T12:50:50Z</time>
      </trkpt>
      <trkpt lat="45.79617" lon="4.73085">
        <ele>255</ele>
        <time>2012-12-08T12:50:59Z</time>
      </trkpt>
      <trkpt lat="45.79619" lon="4.73085">
        <ele>255</ele>
        <time>2012-12-08T12:51:00Z</time>
      </trkpt>
      <trkpt lat="45.79623" lon="4.73088">
        <ele>255</ele>
        <time>2012-12-08T12:51:03Z</time>
      </trkpt>
      <trkpt lat="45.79628" lon="4.73084">
        <ele>255</ele>
        <time>2012-12-08T12:51:08Z</time>
      </trkpt>
      <trkpt lat="45.79633" lon="4.73083">
        <ele>257</ele>
        <time>2012-12-08T12:51:13Z</time>
      </trkpt>
      <trkpt lat="45.79638" lon="4.73083">
        <ele>259</ele>
        <time>2012-12-08T12:51:21Z</time>
      </trkpt>
      <trkpt lat="45.79641" lon="4.73084">
        <ele>259</ele>
        <time>2012-12-08T12:51:28Z</time>
      </trkpt>
      <trkpt lat="45.79645" lon="4.73079">
        <ele>259</ele>
        <time>2012-12-08T12:51:35Z</time>
      </trkpt>
      <trkpt lat="45.79656" lon="4.73068">
        <ele>259</ele>
        <time>2012-12-08T12:51:42Z</time>
      </trkpt>
      <trkpt lat="45.79666" lon="4.73055">
        <ele>260</ele>
        <time>2012-12-08T12:51:49Z</time>
      </trkpt>
      <trkpt lat="45.79677" lon="4.73043">
        <ele>262</ele>
        <time>2012-12-08T12:51:56Z</time>
      </trkpt>
      <trkpt lat="45.79686" lon="4.73031">
        <ele>262</ele>
        <time>2012-12-08T12:52:03Z</time>
      </trkpt>
      <trkpt lat="45.79694" lon="4.73022">
        <ele>263</ele>
        <time>2012-12-08T12:52:10Z</time>
      </trkpt>
      <trkpt lat="45.797" lon="4.73019">
        <ele>263</ele>
        <time>2012-12-08T12:52:14Z</time>
      </trkpt>
      <trkpt lat="45.79711" lon="4.73016">
        <ele>264</ele>
        <time>2012-12-08T12:52:22Z</time>
      </trkpt>
      <trkpt lat="45.79713" lon="4.73016">
        <ele>264</ele>
        <time>2012-12-08T12:52:24Z</time>
      </trkpt>
      <trkpt lat="45.7972" lon="4.73012">
        <ele>264</ele>
        <time>2012-12-08T12:52:29Z</time>
      </trkpt>
      <trkpt lat="45.79727" lon="4.73005">
        <ele>265</ele>
        <time>2012-12-08T12:52:34Z</time>
      </trkpt>
      <trkpt lat="45.79736" lon="4.72994">
        <ele>265</ele>
        <time>2012-12-08T12:52:40Z</time>
      </trkpt>
      <trkpt lat="45.79747" lon="4.72982">
        <ele>266</ele>
        <time>2012-12-08T12:52:47Z</time>
      </trkpt>
      <trkpt lat="45.7975" lon="4.72976">
        <ele>267</ele>
        <time>2012-12-08T12:52:52Z</time>
      </trkpt>
      <trkpt lat="45.79752" lon="4.72975">
        <ele>267</ele>
        <time>2012-12-08T12:52:53Z</time>
      </trkpt>
      <trkpt lat="45.79759" lon="4.72967">
        <ele>266</ele>
        <time>2012-12-08T12:52:58Z</time>
      </trkpt>
      <trkpt lat="45.79761" lon="4.72966">
        <ele>265</ele>
        <time>2012-12-08T12:53:00Z</time>
      </trkpt>
      <trkpt lat="45.79773" lon="4.72954">
        <ele>265</ele>
        <time>2012-12-08T12:53:07Z</time>
      </trkpt>
      <trkpt lat="45.79784" lon="4.72947">
        <ele>266</ele>
        <time>2012-12-08T12:53:13Z</time>
      </trkpt>
      <trkpt lat="45.79795" lon="4.72946">
        <ele>268</ele>
        <time>2012-12-08T12:53:18Z</time>
      </trkpt>
      <trkpt lat="45.79802" lon="4.72931">
        <ele>268</ele>
        <time>2012-12-08T12:53:24Z</time>
      </trkpt>
      <trkpt lat="45.79807" lon="4.72924">
        <ele>268</ele>
        <time>2012-12-08T12:53:27Z</time>
      </trkpt>
      <trkpt lat="45.7982" lon="4.72911">
        <ele>269</ele>
        <time>2012-12-08T12:53:35Z</time>
      </trkpt>
      <trkpt lat="45.79833" lon="4.72897">
        <ele>270</ele>
        <time>2012-12-08T12:53:42Z</time>
      </trkpt>
      <trkpt lat="45.79847" lon="4.72885">
        <ele>271</ele>
        <time>2012-12-08T12:53:49Z</time>
      </trkpt>
      <trkpt lat="45.79856" lon="4.72879">
        <ele>271</ele>
        <time>2012-12-08T12:53:55Z</time>
      </trkpt>
      <trkpt lat="45.79866" lon="4.72874">
        <ele>273</ele>
        <time>2012-12-08T12:54:03Z</time>
      </trkpt>
      <trkpt lat="45.79872" lon="4.72872">
        <ele>274</ele>
        <time>2012-12-08T12:54:07Z</time>
      </trkpt>
      <trkpt lat="45.79887" lon="4.72873">
        <ele>275</ele>
        <time>2012-12-08T12:54:15Z</time>
      </trkpt>
      <trkpt lat="45.79893" lon="4.72873">
        <ele>277</ele>
        <time>2012-12-08T12:54:19Z</time>
      </trkpt>
      <trkpt lat="45.79897" lon="4.72872">
        <ele>277</ele>
        <time>2012-12-08T12:54:22Z</time>
      </trkpt>
      <trkpt lat="45.79898" lon="4.72871">
        <ele>277</ele>
        <time>2012-12-08T12:54:23Z</time>
      </trkpt>
      <trkpt lat="45.799" lon="4.72871">
        <ele>277</ele>
        <time>2012-12-08T12:54:24Z</time>
      </trkpt>
      <trkpt lat="45.79901" lon="4.72871">
        <ele>277</ele>
        <time>2012-12-08T12:54:25Z</time>
      </trkpt>
      <trkpt lat="45.79903" lon="4.72871">
        <ele>277</ele>
        <time>2012-12-08T12:54:26Z</time>
      </trkpt>
      <trkpt lat="45.79909" lon="4.72872">
        <ele>278</ele>
        <time>2012-12-08T12:54:30Z</time>
      </trkpt>
      <trkpt lat="45.79911" lon="4.72871">
        <ele>279</ele>
        <time>2012-12-08T12:54:31Z</time>
      </trkpt>
      <trkpt lat="45.79913" lon="4.72871">
        <ele>279</ele>
        <time>2012-12-08T12:54:32Z</time>
      </trkpt>
      <trkpt lat="45.79915" lon="4.72872">
        <ele>279</ele>
        <time>2012-12-08T12:54:33Z</time>
      </trkpt>
      <trkpt lat="45.79926" lon="4.72874">
        <ele>280</ele>
        <time>2012-12-08T12:54:40Z</time>
      </trkpt>
      <trkpt lat="45.79929" lon="4.72875">
        <ele>280</ele>
        <time>2012-12-08T12:54:42Z</time>
      </trkpt>
      <trkpt lat="45.7993" lon="4.72875">
        <ele>281</ele>
        <time>2012-12-08T12:54:43Z</time>
      </trkpt>
      <trkpt lat="45.79932" lon="4.72875">
        <ele>281</ele>
        <time>2012-12-08T12:54:44Z</time>
      </trkpt>
      <trkpt lat="45.79934" lon="4.72874">
        <ele>281</ele>
        <time>2012-12-08T12:54:45Z</time>
      </trkpt>
      <trkpt lat="45.79935" lon="4.72874">
        <ele>281</ele>
        <time>2012-12-08T12:54:46Z</time>
      </trkpt>
      <trkpt lat="45.79938" lon="4.72874">
        <ele>282</ele>
        <time>2012-12-08T12:54:47Z</time>
      </trkpt>
      <trkpt lat="45.79947" lon="4.7288">
        <ele>284</ele>
        <time>2012-12-08T12:54:55Z</time>
      </trkpt>
      <trkpt lat="45.79948" lon="4.72881">
        <ele>284</ele>
        <time>2012-12-08T12:54:56Z</time>
      </trkpt>
      <trkpt lat="45.79949" lon="4.72882">
        <ele>284</ele>
        <time>2012-12-08T12:54:57Z</time>
      </trkpt>
      <trkpt lat="45.79955" lon="4.72883">
        <ele>285</ele>
        <time>2012-12-08T12:55:03Z</time>
      </trkpt>
      <trkpt lat="45.79959" lon="4.72886">
        <ele>285</ele>
        <time>2012-12-08T12:55:06Z</time>
      </trkpt>
      <trkpt lat="45.79962" lon="4.72887">
        <ele>285</ele>
        <time>2012-12-08T12:55:08Z</time>
      </trkpt>
      <trkpt lat="45.79963" lon="4.72888">
        <ele>285</ele>
        <time>2012-12-08T12:55:09Z</time>
      </trkpt>
      <trkpt lat="45.79965" lon="4.72889">
        <ele>285</ele>
        <time>2012-12-08T12:55:10Z</time>
      </trkpt>
      <trkpt lat="45.79976" lon="4.72897">
        <ele>287</ele>
        <time>2012-12-08T12:55:19Z</time>
      </trkpt>
      <trkpt lat="45.79985" lon="4.72906">
        <ele>288</ele>
        <time>2012-12-08T12:55:26Z</time>
      </trkpt>
      <trkpt lat="45.79991" lon="4.72917">
        <ele>290</ele>
        <time>2012-12-08T12:55:33Z</time>
      </trkpt>
      <trkpt lat="45.79993" lon="4.72923">
        <ele>291</ele>
        <time>2012-12-08T12:55:37Z</time>
      </trkpt>
      <trkpt lat="45.79993" lon="4.72925">
        <ele>291</ele>
        <time>2012-12-08T12:55:38Z</time>
      </trkpt>
      <trkpt lat="45.79993" lon="4.72927">
        <ele>291</ele>
        <time>2012-12-08T12:55:39Z</time>
      </trkpt>
      <trkpt lat="45.79996" lon="4.72931">
        <ele>292</ele>
        <time>2012-12-08T12:55:42Z</time>
      </trkpt>
      <trkpt lat="45.80004" lon="4.7294">
        <ele>293</ele>
        <time>2012-12-08T12:55:48Z</time>
      </trkpt>
      <trkpt lat="45.80008" lon="4.72946">
        <ele>294</ele>
        <time>2012-12-08T12:55:55Z</time>
      </trkpt>
      <trkpt lat="45.80012" lon="4.72949">
        <ele>293</ele>
        <time>2012-12-08T12:56:03Z</time>
      </trkpt>
      <trkpt lat="45.80014" lon="4.72953">
        <ele>294</ele>
        <time>2012-12-08T12:56:15Z</time>
      </trkpt>
      <trkpt lat="45.80018" lon="4.72955">
        <ele>293</ele>
        <time>2012-12-08T12:56:28Z</time>
      </trkpt>
      <trkpt lat="45.80019" lon="4.72955">
        <ele>293</ele>
        <time>2012-12-08T12:56:29Z</time>
      </trkpt>
      <trkpt lat="45.8002" lon="4.72955">
        <ele>293</ele>
        <time>2012-12-08T12:56:30Z</time>
      </trkpt>
      <trkpt lat="45.80022" lon="4.72955">
        <ele>293</ele>
        <time>2012-12-08T12:56:31Z</time>
      </trkpt>
      <trkpt lat="45.80023" lon="4.72955">
        <ele>293</ele>
        <time>2012-12-08T12:56:32Z</time>
      </trkpt>
      <trkpt lat="45.80025" lon="4.72955">
        <ele>294</ele>
        <time>2012-12-08T12:56:33Z</time>
      </trkpt>
      <trkpt lat="45.80026" lon="4.72955">
        <ele>294</ele>
        <time>2012-12-08T12:56:34Z</time>
      </trkpt>
      <trkpt lat="45.80037" lon="4.72956">
        <ele>294</ele>
        <time>2012-12-08T12:56:41Z</time>
      </trkpt>
      <trkpt lat="45.80039" lon="4.72955">
        <ele>294</ele>
        <time>2012-12-08T12:56:42Z</time>
      </trkpt>
      <trkpt lat="45.80041" lon="4.72954">
        <ele>294</ele>
        <time>2012-12-08T12:56:43Z</time>
      </trkpt>
      <trkpt lat="45.80043" lon="4.72955">
        <ele>295</ele>
        <time>2012-12-08T12:56:44Z</time>
      </trkpt>
      <trkpt lat="45.80045" lon="4.72955">
        <ele>294</ele>
        <time>2012-12-08T12:56:45Z</time>
      </trkpt>
      <trkpt lat="45.80046" lon="4.72956">
        <ele>295</ele>
        <time>2012-12-08T12:56:46Z</time>
      </trkpt>
      <trkpt lat="45.80048" lon="4.72957">
        <ele>295</ele>
        <time>2012-12-08T12:56:47Z</time>
      </trkpt>
      <trkpt lat="45.8005" lon="4.72958">
        <ele>294</ele>
        <time>2012-12-08T12:56:49Z</time>
      </trkpt>
      <trkpt lat="45.80052" lon="4.72959">
        <ele>295</ele>
        <time>2012-12-08T12:56:50Z</time>
      </trkpt>
      <trkpt lat="45.80053" lon="4.7296">
        <ele>295</ele>
        <time>2012-12-08T12:56:51Z</time>
      </trkpt>
      <trkpt lat="45.80056" lon="4.7296">
        <ele>295</ele>
        <time>2012-12-08T12:56:52Z</time>
      </trkpt>
      <trkpt lat="45.80058" lon="4.72961">
        <ele>295</ele>
        <time>2012-12-08T12:56:53Z</time>
      </trkpt>
      <trkpt lat="45.80059" lon="4.72961">
        <ele>295</ele>
        <time>2012-12-08T12:56:54Z</time>
      </trkpt>
      <trkpt lat="45.80061" lon="4.72962">
        <ele>295</ele>
        <time>2012-12-08T12:56:55Z</time>
      </trkpt>
      <trkpt lat="45.80063" lon="4.72963">
        <ele>295</ele>
        <time>2012-12-08T12:56:56Z</time>
      </trkpt>
      <trkpt lat="45.80065" lon="4.72963">
        <ele>295</ele>
        <time>2012-12-08T12:56:57Z</time>
      </trkpt>
      <trkpt lat="45.80067" lon="4.72963">
        <ele>296</ele>
        <time>2012-12-08T12:56:58Z</time>
      </trkpt>
      <trkpt lat="45.8007" lon="4.72962">
        <ele>296</ele>
        <time>2012-12-08T12:56:59Z</time>
      </trkpt>
      <trkpt lat="45.80072" lon="4.72962">
        <ele>296</ele>
        <time>2012-12-08T12:57:00Z</time>
      </trkpt>
      <trkpt lat="45.80073" lon="4.72961">
        <ele>295</ele>
        <time>2012-12-08T12:57:01Z</time>
      </trkpt>
      <trkpt lat="45.80088" lon="4.72956">
        <ele>297</ele>
        <time>2012-12-08T12:57:09Z</time>
      </trkpt>
      <trkpt lat="45.80096" lon="4.72951">
        <ele>297</ele>
        <time>2012-12-08T12:57:14Z</time>
      </trkpt>
      <trkpt lat="45.80102" lon="4.72948">
        <ele>297</ele>
        <time>2012-12-08T12:57:20Z</time>
      </trkpt>
      <trkpt lat="45.80108" lon="4.72939">
        <ele>297</ele>
        <time>2012-12-08T12:57:26Z</time>
      </trkpt>
      <trkpt lat="45.80109" lon="4.72943">
        <ele>297</ele>
        <time>2012-12-08T12:57:38Z</time>
      </trkpt>
      <trkpt lat="45.80102" lon="4.72966">
        <ele>297</ele>
        <time>2012-12-08T12:58:00Z</time>
      </trkpt>
      <trkpt lat="45.80097" lon="4.72975">
        <ele>297</ele>
        <time>2012-12-08T12:58:18Z</time>
      </trkpt>
      <trkpt lat="45.80097" lon="4.72971">
        <ele>298</ele>
        <time>2012-12-08T12:58:42Z</time>
      </trkpt>
      <trkpt lat="45.80094" lon="4.72972">
        <ele>298</ele>
        <time>2012-12-08T12:59:02Z</time>
      </trkpt>
      <trkpt lat="45.80096" lon="4.72968">
        <ele>298</ele>
        <time>2012-12-08T12:59:24Z</time>
      </trkpt>
      <trkpt lat="45.80092" lon="4.72965">
        <ele>298</ele>
        <time>2012-12-08T12:59:45Z</time>
      </trkpt>
      <trkpt lat="45.80093" lon="4.72964">
        <ele>298</ele>
        <time>2012-12-08T13:00:02Z</time>
      </trkpt>
      <trkpt lat="45.80096" lon="4.72964">
        <ele>298</ele>
        <time>2012-12-08T13:00:19Z</time>
      </trkpt>
      <trkpt lat="45.80099" lon="4.7296">
        <ele>298</ele>
        <time>2012-12-08T13:00:38Z</time>
      </trkpt>
      <trkpt lat="45.80102" lon="4.72957">
        <ele>297</ele>
        <time>2012-12-08T13:00:55Z</time>
      </trkpt>
      <trkpt lat="45.80101" lon="4.7296">
        <ele>298</ele>
        <time>2012-12-08T13:00:58Z</time>
      </trkpt>
      <trkpt lat="45.80101" lon="4.72961">
        <ele>297</ele>
        <time>2012-12-08T13:00:59Z</time>
      </trkpt>
      <trkpt lat="45.8011" lon="4.72957">
        <ele>297</ele>
        <time>2012-12-08T13:01:03Z</time>
      </trkpt>
      <trkpt lat="45.80112" lon="4.72959">
        <ele>298</ele>
        <time>2012-12-08T13:01:04Z</time>
      </trkpt>
      <trkpt lat="45.80113" lon="4.72961">
        <ele>298</ele>
        <time>2012-12-08T13:01:05Z</time>
      </trkpt>
      <trkpt lat="45.80115" lon="4.72964">
        <ele>298</ele>
        <time>2012-12-08T13:01:06Z</time>
      </trkpt>
      <trkpt lat="45.80118" lon="4.72966">
        <ele>298</ele>
        <time>2012-12-08T13:01:07Z</time>
      </trkpt>
      <trkpt lat="45.80121" lon="4.72968">
        <ele>299</ele>
        <time>2012-12-08T13:01:08Z</time>
      </trkpt>
      <trkpt lat="45.80139" lon="4.72976">
        <ele>299</ele>
        <time>2012-12-08T13:01:14Z</time>
      </trkpt>
      <trkpt lat="45.80159" lon="4.72987">
        <ele>301</ele>
        <time>2012-12-08T13:01:22Z</time>
      </trkpt>
      <trkpt lat="45.80179" lon="4.72996">
        <ele>301</ele>
        <time>2012-12-08T13:01:30Z</time>
      </trkpt>
      <trkpt lat="45.80213" lon="4.73011">
        <ele>303</ele>
        <time>2012-12-08T13:01:43Z</time>
      </trkpt>
      <trkpt lat="45.80233" lon="4.73012">
        <ele>304</ele>
        <time>2012-12-08T13:01:51Z</time>
      </trkpt>
      <trkpt lat="45.80259" lon="4.73009">
        <ele>305</ele>
        <time>2012-12-08T13:02:00Z</time>
      </trkpt>
      <trkpt lat="45.80278" lon="4.73004">
        <ele>306</ele>
        <time>2012-12-08T13:02:07Z</time>
      </trkpt>
      <trkpt lat="45.80296" lon="4.72998">
        <ele>307</ele>
        <time>2012-12-08T13:02:14Z</time>
      </trkpt>
      <trkpt lat="45.80317" lon="4.72985">
        <ele>307</ele>
        <time>2012-12-08T13:02:22Z</time>
      </trkpt>
      <trkpt lat="45.80335" lon="4.72975">
        <ele>308</ele>
        <time>2012-12-08T13:02:29Z</time>
      </trkpt>
      <trkpt lat="45.80353" lon="4.72963">
        <ele>308</ele>
        <time>2012-12-08T13:02:36Z</time>
      </trkpt>
      <trkpt lat="45.80373" lon="4.72951">
        <ele>310</ele>
        <time>2012-12-08T13:02:43Z</time>
      </trkpt>
      <trkpt lat="45.80393" lon="4.72937">
        <ele>311</ele>
        <time>2012-12-08T13:02:51Z</time>
      </trkpt>
      <trkpt lat="45.8042" lon="4.7292">
        <ele>313</ele>
        <time>2012-12-08T13:03:01Z</time>
      </trkpt>
      <trkpt lat="45.80448" lon="4.729">
        <ele>313</ele>
        <time>2012-12-08T13:03:11Z</time>
      </trkpt>
      <trkpt lat="45.80473" lon="4.72884">
        <ele>313</ele>
        <time>2012-12-08T13:03:19Z</time>
      </trkpt>
      <trkpt lat="45.80498" lon="4.72869">
        <ele>313</ele>
        <time>2012-12-08T13:03:27Z</time>
      </trkpt>
      <trkpt lat="45.8052" lon="4.72853">
        <ele>312</ele>
        <time>2012-12-08T13:03:35Z</time>
      </trkpt>
      <trkpt lat="45.80532" lon="4.7285">
        <ele>312</ele>
        <time>2012-12-08T13:03:41Z</time>
      </trkpt>
      <trkpt lat="45.80533" lon="4.72848">
        <ele>311</ele>
        <time>2012-12-08T13:03:42Z</time>
      </trkpt>
      <trkpt lat="45.80533" lon="4.72845">
        <ele>312</ele>
        <time>2012-12-08T13:03:43Z</time>
      </trkpt>
      <trkpt lat="45.80533" lon="4.72843">
        <ele>313</ele>
        <time>2012-12-08T13:03:44Z</time>
      </trkpt>
      <trkpt lat="45.80533" lon="4.72839">
        <ele>312</ele>
        <time>2012-12-08T13:03:45Z</time>
      </trkpt>
      <trkpt lat="45.80532" lon="4.72835">
        <ele>311</ele>
        <time>2012-12-08T13:03:46Z</time>
      </trkpt>
      <trkpt lat="45.80529" lon="4.7282">
        <ele>310</ele>
        <time>2012-12-08T13:03:49Z</time>
      </trkpt>
      <trkpt lat="45.80513" lon="4.7278">
        <ele>308</ele>
        <time>2012-12-08T13:03:55Z</time>
      </trkpt>
      <trkpt lat="45.80511" lon="4.72773">
        <ele>307</ele>
        <time>2012-12-08T13:03:56Z</time>
      </trkpt>
      <trkpt lat="45.80497" lon="4.72739">
        <ele>304</ele>
        <time>2012-12-08T13:04:02Z</time>
      </trkpt>
      <trkpt lat="45.80469" lon="4.72705">
        <ele>300</ele>
        <time>2012-12-08T13:04:07Z</time>
      </trkpt>
      <trkpt lat="45.80451" lon="4.72686">
        <ele>298</ele>
        <time>2012-12-08T13:04:10Z</time>
      </trkpt>
      <trkpt lat="45.80424" lon="4.72667">
        <ele>295</ele>
        <time>2012-12-08T13:04:14Z</time>
      </trkpt>
      <trkpt lat="45.80388" lon="4.72648">
        <ele>290</ele>
        <time>2012-12-08T13:04:19Z</time>
      </trkpt>
      <trkpt lat="45.80363" lon="4.72635">
        <ele>288</ele>
        <time>2012-12-08T13:04:23Z</time>
      </trkpt>
      <trkpt lat="45.80353" lon="4.72631">
        <ele>287</ele>
        <time>2012-12-08T13:04:25Z</time>
      </trkpt>
      <trkpt lat="45.80337" lon="4.72619">
        <ele>283</ele>
        <time>2012-12-08T13:04:30Z</time>
      </trkpt>
      <trkpt lat="45.80321" lon="4.72605">
        <ele>280</ele>
        <time>2012-12-08T13:04:36Z</time>
      </trkpt>
      <trkpt lat="45.80305" lon="4.72593">
        <ele>281</ele>
        <time>2012-12-08T13:04:42Z</time>
      </trkpt>
      <trkpt lat="45.80296" lon="4.72586">
        <ele>283</ele>
        <time>2012-12-08T13:04:49Z</time>
      </trkpt>
      <trkpt lat="45.80295" lon="4.72586">
        <ele>282</ele>
        <time>2012-12-08T13:04:50Z</time>
      </trkpt>
      <trkpt lat="45.80283" lon="4.72586">
        <ele>285</ele>
        <time>2012-12-08T13:04:57Z</time>
      </trkpt>
      <trkpt lat="45.80279" lon="4.72585">
        <ele>286</ele>
        <time>2012-12-08T13:05:01Z</time>
      </trkpt>
      <trkpt lat="45.80275" lon="4.72583">
        <ele>288</ele>
        <time>2012-12-08T13:05:03Z</time>
      </trkpt>
      <trkpt lat="45.80269" lon="4.72577">
        <ele>289</ele>
        <time>2012-12-08T13:05:08Z</time>
      </trkpt>
      <trkpt lat="45.8026" lon="4.72568">
        <ele>290</ele>
        <time>2012-12-08T13:05:14Z</time>
      </trkpt>
      <trkpt lat="45.80248" lon="4.72561">
        <ele>292</ele>
        <time>2012-12-08T13:05:23Z</time>
      </trkpt>
      <trkpt lat="45.80242" lon="4.72551">
        <ele>292</ele>
        <time>2012-12-08T13:05:31Z</time>
      </trkpt>
      <trkpt lat="45.8024" lon="4.72545">
        <ele>291</ele>
        <time>2012-12-08T13:05:39Z</time>
      </trkpt>
      <trkpt lat="45.80234" lon="4.72538">
        <ele>291</ele>
        <time>2012-12-08T13:05:45Z</time>
      </trkpt>
      <trkpt lat="45.80225" lon="4.72535">
        <ele>293</ele>
        <time>2012-12-08T13:05:52Z</time>
      </trkpt>
      <trkpt lat="45.80218" lon="4.72535">
        <ele>293</ele>
        <time>2012-12-08T13:05:57Z</time>
      </trkpt>
      <trkpt lat="45.80207" lon="4.72519">
        <ele>295</ele>
        <time>2012-12-08T13:06:05Z</time>
      </trkpt>
      <trkpt lat="45.80207" lon="4.72513">
        <ele>295</ele>
        <time>2012-12-08T13:06:08Z</time>
      </trkpt>
      <trkpt lat="45.80205" lon="4.72496">
        <ele>296</ele>
        <time>2012-12-08T13:06:16Z</time>
      </trkpt>
      <trkpt lat="45.80202" lon="4.72485">
        <ele>297</ele>
        <time>2012-12-08T13:06:20Z</time>
      </trkpt>
      <trkpt lat="45.802" lon="4.72469">
        <ele>297</ele>
        <time>2012-12-08T13:06:27Z</time>
      </trkpt>
      <trkpt lat="45.80201" lon="4.72455">
        <ele>297</ele>
        <time>2012-12-08T13:06:34Z</time>
      </trkpt>
      <trkpt lat="45.80203" lon="4.72447">
        <ele>298</ele>
        <time>2012-12-08T13:06:40Z</time>
      </trkpt>
      <trkpt lat="45.80204" lon="4.72439">
        <ele>298</ele>
        <time>2012-12-08T13:06:46Z</time>
      </trkpt>
      <trkpt lat="45.80204" lon="4.72434">
        <ele>300</ele>
        <time>2012-12-08T13:06:54Z</time>
      </trkpt>
      <trkpt lat="45.80202" lon="4.72431">
        <ele>301</ele>
        <time>2012-12-08T13:07:03Z</time>
      </trkpt>
      <trkpt lat="45.80203" lon="4.72428">
        <ele>300</ele>
        <time>2012-12-08T13:07:09Z</time>
      </trkpt>
      <trkpt lat="45.80206" lon="4.72425">
        <ele>300</ele>
        <time>2012-12-08T13:07:16Z</time>
      </trkpt>
      <trkpt lat="45.80213" lon="4.72418">
        <ele>300</ele>
        <time>2012-12-08T13:07:22Z</time>
      </trkpt>
      <trkpt lat="45.80227" lon="4.72406">
        <ele>300</ele>
        <time>2012-12-08T13:07:29Z</time>
      </trkpt>
      <trkpt lat="45.80248" lon="4.72395">
        <ele>300</ele>
        <time>2012-12-08T13:07:37Z</time>
      </trkpt>
      <trkpt lat="45.80271" lon="4.72383">
        <ele>301</ele>
        <time>2012-12-08T13:07:45Z</time>
      </trkpt>
      <trkpt lat="45.80299" lon="4.72371">
        <ele>301</ele>
        <time>2012-12-08T13:07:54Z</time>
      </trkpt>
      <trkpt lat="45.80328" lon="4.72356">
        <ele>301</ele>
        <time>2012-12-08T13:08:03Z</time>
      </trkpt>
      <trkpt lat="45.80355" lon="4.72342">
        <ele>302</ele>
        <time>2012-12-08T13:08:11Z</time>
      </trkpt>
      <trkpt lat="45.80384" lon="4.72329">
        <ele>303</ele>
        <time>2012-12-08T13:08:20Z</time>
      </trkpt>
      <trkpt lat="45.80406" lon="4.72318">
        <ele>303</ele>
        <time>2012-12-08T13:08:27Z</time>
      </trkpt>
      <trkpt lat="45.80442" lon="4.72301">
        <ele>304</ele>
        <time>2012-12-08T13:08:38Z</time>
      </trkpt>
      <trkpt lat="45.80461" lon="4.72285">
        <ele>304</ele>
        <time>2012-12-08T13:08:45Z</time>
      </trkpt>
      <trkpt lat="45.80476" lon="4.7227">
        <ele>304</ele>
        <time>2012-12-08T13:08:51Z</time>
      </trkpt>
      <trkpt lat="45.8049" lon="4.72253">
        <ele>305</ele>
        <time>2012-12-08T13:08:57Z</time>
      </trkpt>
      <trkpt lat="45.80506" lon="4.72221">
        <ele>306</ele>
        <time>2012-12-08T13:09:05Z</time>
      </trkpt>
      <trkpt lat="45.80523" lon="4.722">
        <ele>306</ele>
        <time>2012-12-08T13:09:12Z</time>
      </trkpt>
      <trkpt lat="45.80552" lon="4.72187">
        <ele>308</ele>
        <time>2012-12-08T13:09:21Z</time>
      </trkpt>
      <trkpt lat="45.8056" lon="4.72175">
        <ele>309</ele>
        <time>2012-12-08T13:09:25Z</time>
      </trkpt>
      <trkpt lat="45.8056" lon="4.72171">
        <ele>308</ele>
        <time>2012-12-08T13:09:26Z</time>
      </trkpt>
      <trkpt lat="45.80553" lon="4.72148">
        <ele>310</ele>
        <time>2012-12-08T13:09:32Z</time>
      </trkpt>
      <trkpt lat="45.80543" lon="4.72106">
        <ele>309</ele>
        <time>2012-12-08T13:09:41Z</time>
      </trkpt>
      <trkpt lat="45.80541" lon="4.72067">
        <ele>310</ele>
        <time>2012-12-08T13:09:49Z</time>
      </trkpt>
      <trkpt lat="45.80545" lon="4.72028">
        <ele>311</ele>
        <time>2012-12-08T13:09:58Z</time>
      </trkpt>
      <trkpt lat="45.80558" lon="4.72006">
        <ele>312</ele>
        <time>2012-12-08T13:10:05Z</time>
      </trkpt>
      <trkpt lat="45.80562" lon="4.72004">
        <ele>313</ele>
        <time>2012-12-08T13:10:07Z</time>
      </trkpt>
      <trkpt lat="45.80563" lon="4.72005">
        <ele>313</ele>
        <time>2012-12-08T13:10:08Z</time>
      </trkpt>
      <trkpt lat="45.80565" lon="4.72006">
        <ele>312</ele>
        <time>2012-12-08T13:10:09Z</time>
      </trkpt>
      <trkpt lat="45.80567" lon="4.72009">
        <ele>312</ele>
        <time>2012-12-08T13:10:15Z</time>
      </trkpt>
      <trkpt lat="45.80566" lon="4.72009">
        <ele>312</ele>
        <time>2012-12-08T13:10:27Z</time>
      </trkpt>
      <trkpt lat="45.80566" lon="4.72009">
        <ele>312</ele>
        <time>2012-12-08T13:10:35Z</time>
      </trkpt>
      <trkpt lat="45.80566" lon="4.72008">
        <ele>312</ele>
        <time>2012-12-08T13:10:45Z</time>
      </trkpt>
      <trkpt lat="45.80565" lon="4.72008">
        <ele>313</ele>
        <time>2012-12-08T13:11:04Z</time>
      </trkpt>
      <trkpt lat="45.80566" lon="4.72007">
        <ele>312</ele>
        <time>2012-12-08T13:11:19Z</time>
      </trkpt>
      <trkpt lat="45.80566" lon="4.72004">
        <ele>312</ele>
        <time>2012-12-08T13:11:33Z</time>
      </trkpt>
      <trkpt lat="45.8057" lon="4.72004">
        <ele>312</ele>
        <time>2012-12-08T13:11:38Z</time>
      </trkpt>
      <trkpt lat="45.80571" lon="4.72005">
        <ele>312</ele>
        <time>2012-12-08T13:11:39Z</time>
      </trkpt>
      <trkpt lat="45.80574" lon="4.72006">
        <ele>312</ele>
        <time>2012-12-08T13:11:40Z</time>
      </trkpt>
      <trkpt lat="45.80577" lon="4.72005">
        <ele>312</ele>
        <time>2012-12-08T13:11:41Z</time>
      </trkpt>
      <trkpt lat="45.8058" lon="4.72004">
        <ele>312</ele>
        <time>2012-12-08T13:11:42Z</time>
      </trkpt>
      <trkpt lat="45.80583" lon="4.72002">
        <ele>313</ele>
        <time>2012-12-08T13:11:43Z</time>
      </trkpt>
      <trkpt lat="45.80585" lon="4.71999">
        <ele>313</ele>
        <time>2012-12-08T13:11:44Z</time>
      </trkpt>
      <trkpt lat="45.80603" lon="4.71987">
        <ele>314</ele>
        <time>2012-12-08T13:11:50Z</time>
      </trkpt>
      <trkpt lat="45.80633" lon="4.71977">
        <ele>313</ele>
        <time>2012-12-08T13:11:59Z</time>
      </trkpt>
      <trkpt lat="45.80655" lon="4.71971">
        <ele>314</ele>
        <time>2012-12-08T13:12:06Z</time>
      </trkpt>
      <trkpt lat="45.80682" lon="4.71966">
        <ele>314</ele>
        <time>2012-12-08T13:12:14Z</time>
      </trkpt>
      <trkpt lat="45.80712" lon="4.71958">
        <ele>315</ele>
        <time>2012-12-08T13:12:23Z</time>
      </trkpt>
      <trkpt lat="45.80736" lon="4.7195">
        <ele>315</ele>
        <time>2012-12-08T13:12:30Z</time>
      </trkpt>
      <trkpt lat="45.80762" lon="4.71942">
        <ele>316</ele>
        <time>2012-12-08T13:12:38Z</time>
      </trkpt>
      <trkpt lat="45.80766" lon="4.71936">
        <ele>316</ele>
        <time>2012-12-08T13:12:40Z</time>
      </trkpt>
      <trkpt lat="45.80767" lon="4.71933">
        <ele>316</ele>
        <time>2012-12-08T13:12:41Z</time>
      </trkpt>
      <trkpt lat="45.80766" lon="4.71929">
        <ele>316</ele>
        <time>2012-12-08T13:12:42Z</time>
      </trkpt>
      <trkpt lat="45.80767" lon="4.71925">
        <ele>315</ele>
        <time>2012-12-08T13:12:43Z</time>
      </trkpt>
      <trkpt lat="45.80768" lon="4.71923">
        <ele>316</ele>
        <time>2012-12-08T13:12:44Z</time>
      </trkpt>
      <trkpt lat="45.80776" lon="4.7191">
        <ele>317</ele>
        <time>2012-12-08T13:12:48Z</time>
      </trkpt>
      <trkpt lat="45.80786" lon="4.71886">
        <ele>317</ele>
        <time>2012-12-08T13:12:54Z</time>
      </trkpt>
      <trkpt lat="45.80785" lon="4.71849">
        <ele>318</ele>
        <time>2012-12-08T13:13:02Z</time>
      </trkpt>
      <trkpt lat="45.80784" lon="4.71812">
        <ele>319</ele>
        <time>2012-12-08T13:13:10Z</time>
      </trkpt>
      <trkpt lat="45.80785" lon="4.71779">
        <ele>320</ele>
        <time>2012-12-08T13:13:17Z</time>
      </trkpt>
      <trkpt lat="45.80801" lon="4.71748">
        <ele>321</ele>
        <time>2012-12-08T13:13:26Z</time>
      </trkpt>
      <trkpt lat="45.80806" lon="4.71739">
        <ele>323</ele>
        <time>2012-12-08T13:13:29Z</time>
      </trkpt>
      <trkpt lat="45.80818" lon="4.7171">
        <ele>324</ele>
        <time>2012-12-08T13:13:37Z</time>
      </trkpt>
      <trkpt lat="45.80831" lon="4.71678">
        <ele>325</ele>
        <time>2012-12-08T13:13:46Z</time>
      </trkpt>
      <trkpt lat="45.80855" lon="4.7165">
        <ele>326</ele>
        <time>2012-12-08T13:13:57Z</time>
      </trkpt>
      <trkpt lat="45.80878" lon="4.71631">
        <ele>328</ele>
        <time>2012-12-08T13:14:06Z</time>
      </trkpt>
      <trkpt lat="45.80902" lon="4.71613">
        <ele>329</ele>
        <time>2012-12-08T13:14:15Z</time>
      </trkpt>
      <trkpt lat="45.80923" lon="4.71598">
        <ele>331</ele>
        <time>2012-12-08T13:14:23Z</time>
      </trkpt>
      <trkpt lat="45.80945" lon="4.71587">
        <ele>332</ele>
        <time>2012-12-08T13:14:31Z</time>
      </trkpt>
      <trkpt lat="45.80969" lon="4.71583">
        <ele>334</ele>
        <time>2012-12-08T13:14:40Z</time>
      </trkpt>
      <trkpt lat="45.80989" lon="4.71581">
        <ele>336</ele>
        <time>2012-12-08T13:14:48Z</time>
      </trkpt>
      <trkpt lat="45.81008" lon="4.71576">
        <ele>338</ele>
        <time>2012-12-08T13:14:56Z</time>
      </trkpt>
      <trkpt lat="45.81029" lon="4.71559">
        <ele>339</ele>
        <time>2012-12-08T13:15:05Z</time>
      </trkpt>
      <trkpt lat="45.81049" lon="4.71543">
        <ele>341</ele>
        <time>2012-12-08T13:15:14Z</time>
      </trkpt>
      <trkpt lat="45.81073" lon="4.71524">
        <ele>343</ele>
        <time>2012-12-08T13:15:24Z</time>
      </trkpt>
      <trkpt lat="45.81094" lon="4.71505">
        <ele>344</ele>
        <time>2012-12-08T13:15:34Z</time>
      </trkpt>
      <trkpt lat="45.81111" lon="4.7149">
        <ele>346</ele>
        <time>2012-12-08T13:15:42Z</time>
      </trkpt>
      <trkpt lat="45.81121" lon="4.71476">
        <ele>348</ele>
        <time>2012-12-08T13:15:48Z</time>
      </trkpt>
      <trkpt lat="45.81119" lon="4.71457">
        <ele>347</ele>
        <time>2012-12-08T13:15:54Z</time>
      </trkpt>
      <trkpt lat="45.81107" lon="4.71428">
        <ele>346</ele>
        <time>2012-12-08T13:16:00Z</time>
      </trkpt>
      <trkpt lat="45.81083" lon="4.71382">
        <ele>344</ele>
        <time>2012-12-08T13:16:07Z</time>
      </trkpt>
      <trkpt lat="45.81053" lon="4.71335">
        <ele>342</ele>
        <time>2012-12-08T13:16:14Z</time>
      </trkpt>
      <trkpt lat="45.81011" lon="4.71283">
        <ele>340</ele>
        <time>2012-12-08T13:16:23Z</time>
      </trkpt>
      <trkpt lat="45.81008" lon="4.71276">
        <ele>340</ele>
        <time>2012-12-08T13:16:24Z</time>
      </trkpt>
      <trkpt lat="45.81006" lon="4.71269">
        <ele>340</ele>
        <time>2012-12-08T13:16:25Z</time>
      </trkpt>
      <trkpt lat="45.80988" lon="4.71231">
        <ele>341</ele>
        <time>2012-12-08T13:16:32Z</time>
      </trkpt>
      <trkpt lat="45.80981" lon="4.71217">
        <ele>341</ele>
        <time>2012-12-08T13:16:35Z</time>
      </trkpt>
      <trkpt lat="45.80957" lon="4.71157">
        <ele>341</ele>
        <time>2012-12-08T13:16:46Z</time>
      </trkpt>
      <trkpt lat="45.80939" lon="4.71101">
        <ele>340</ele>
        <time>2012-12-08T13:16:56Z</time>
      </trkpt>
      <trkpt lat="45.80937" lon="4.71095">
        <ele>339</ele>
        <time>2012-12-08T13:16:57Z</time>
      </trkpt>
      <trkpt lat="45.80935" lon="4.71083">
        <ele>339</ele>
        <time>2012-12-08T13:16:59Z</time>
      </trkpt>
      <trkpt lat="45.80923" lon="4.71032">
        <ele>338</ele>
        <time>2012-12-08T13:17:07Z</time>
      </trkpt>
      <trkpt lat="45.8092" lon="4.71018">
        <ele>337</ele>
        <time>2012-12-08T13:17:09Z</time>
      </trkpt>
      <trkpt lat="45.8091" lon="4.70967">
        <ele>335</ele>
        <time>2012-12-08T13:17:15Z</time>
      </trkpt>
      <trkpt lat="45.80909" lon="4.70958">
        <ele>335</ele>
        <time>2012-12-08T13:17:16Z</time>
      </trkpt>
      <trkpt lat="45.80909" lon="4.70948">
        <ele>335</ele>
        <time>2012-12-08T13:17:17Z</time>
      </trkpt>
      <trkpt lat="45.80909" lon="4.70939">
        <ele>334</ele>
        <time>2012-12-08T13:17:18Z</time>
      </trkpt>
      <trkpt lat="45.8091" lon="4.70929">
        <ele>334</ele>
        <time>2012-12-08T13:17:19Z</time>
      </trkpt>
      <trkpt lat="45.80911" lon="4.7092">
        <ele>334</ele>
        <time>2012-12-08T13:17:20Z</time>
      </trkpt>
      <trkpt lat="45.80913" lon="4.70911">
        <ele>333</ele>
        <time>2012-12-08T13:17:21Z</time>
      </trkpt>
      <trkpt lat="45.80918" lon="4.70885">
        <ele>333</ele>
        <time>2012-12-08T13:17:24Z</time>
      </trkpt>
      <trkpt lat="45.8092" lon="4.70877">
        <ele>332</ele>
        <time>2012-12-08T13:17:25Z</time>
      </trkpt>
      <trkpt lat="45.80923" lon="4.7087">
        <ele>332</ele>
        <time>2012-12-08T13:17:26Z</time>
      </trkpt>
      <trkpt lat="45.80926" lon="4.70862">
        <ele>332</ele>
        <time>2012-12-08T13:17:27Z</time>
      </trkpt>
      <trkpt lat="45.8093" lon="4.70856">
        <ele>331</ele>
        <time>2012-12-08T13:17:28Z</time>
      </trkpt>
      <trkpt lat="45.80934" lon="4.70849">
        <ele>332</ele>
        <time>2012-12-08T13:17:29Z</time>
      </trkpt>
      <trkpt lat="45.80936" lon="4.7084">
        <ele>331</ele>
        <time>2012-12-08T13:17:30Z</time>
      </trkpt>
      <trkpt lat="45.80937" lon="4.7083">
        <ele>330</ele>
        <time>2012-12-08T13:17:31Z</time>
      </trkpt>
      <trkpt lat="45.80938" lon="4.7082">
        <ele>329</ele>
        <time>2012-12-08T13:17:32Z</time>
      </trkpt>
      <trkpt lat="45.80937" lon="4.70809">
        <ele>329</ele>
        <time>2012-12-08T13:17:33Z</time>
      </trkpt>
      <trkpt lat="45.8093" lon="4.70754">
        <ele>326</ele>
        <time>2012-12-08T13:17:38Z</time>
      </trkpt>
      <trkpt lat="45.80913" lon="4.70697">
        <ele>324</ele>
        <time>2012-12-08T13:17:44Z</time>
      </trkpt>
      <trkpt lat="45.80908" lon="4.70688">
        <ele>324</ele>
        <time>2012-12-08T13:17:45Z</time>
      </trkpt>
      <trkpt lat="45.80879" lon="4.70632">
        <ele>321</ele>
        <time>2012-12-08T13:17:51Z</time>
      </trkpt>
      <trkpt lat="45.80877" lon="4.70619">
        <ele>319</ele>
        <time>2012-12-08T13:17:52Z</time>
      </trkpt>
      <trkpt lat="45.80877" lon="4.70606">
        <ele>319</ele>
        <time>2012-12-08T13:17:53Z</time>
      </trkpt>
      <trkpt lat="45.80877" lon="4.70563">
        <ele>316</ele>
        <time>2012-12-08T13:17:56Z</time>
      </trkpt>
      <trkpt lat="45.80878" lon="4.70521">
        <ele>313</ele>
        <time>2012-12-08T13:17:59Z</time>
      </trkpt>
      <trkpt lat="45.80879" lon="4.70492">
        <ele>309</ele>
        <time>2012-12-08T13:18:01Z</time>
      </trkpt>
      <trkpt lat="45.8088" lon="4.70468">
        <ele>306</ele>
        <time>2012-12-08T13:18:03Z</time>
      </trkpt>
      <trkpt lat="45.80881" lon="4.70447">
        <ele>302</ele>
        <time>2012-12-08T13:18:05Z</time>
      </trkpt>
      <trkpt lat="45.8088" lon="4.70437">
        <ele>301</ele>
        <time>2012-12-08T13:18:06Z</time>
      </trkpt>
      <trkpt lat="45.80876" lon="4.70428">
        <ele>301</ele>
        <time>2012-12-08T13:18:07Z</time>
      </trkpt>
      <trkpt lat="45.80871" lon="4.70419">
        <ele>300</ele>
        <time>2012-12-08T13:18:08Z</time>
      </trkpt>
      <trkpt lat="45.80864" lon="4.7041">
        <ele>299</ele>
        <time>2012-12-08T13:18:09Z</time>
      </trkpt>
      <trkpt lat="45.80856" lon="4.70402">
        <ele>297</ele>
        <time>2012-12-08T13:18:10Z</time>
      </trkpt>
      <trkpt lat="45.80848" lon="4.70395">
        <ele>296</ele>
        <time>2012-12-08T13:18:11Z</time>
      </trkpt>
      <trkpt lat="45.80839" lon="4.7039">
        <ele>295</ele>
        <time>2012-12-08T13:18:12Z</time>
      </trkpt>
      <trkpt lat="45.8083" lon="4.70386">
        <ele>293</ele>
        <time>2012-12-08T13:18:13Z</time>
      </trkpt>
      <trkpt lat="45.80822" lon="4.70384">
        <ele>293</ele>
        <time>2012-12-08T13:18:14Z</time>
      </trkpt>
      <trkpt lat="45.80815" lon="4.70383">
        <ele>291</ele>
        <time>2012-12-08T13:18:15Z</time>
      </trkpt>
      <trkpt lat="45.80809" lon="4.70382">
        <ele>290</ele>
        <time>2012-12-08T13:18:16Z</time>
      </trkpt>
      <trkpt lat="45.80804" lon="4.7038">
        <ele>290</ele>
        <time>2012-12-08T13:18:17Z</time>
      </trkpt>
      <trkpt lat="45.80801" lon="4.70375">
        <ele>289</ele>
        <time>2012-12-08T13:18:18Z</time>
      </trkpt>
      <trkpt lat="45.808" lon="4.70367">
        <ele>288</ele>
        <time>2012-12-08T13:18:19Z</time>
      </trkpt>
      <trkpt lat="45.80802" lon="4.70359">
        <ele>287</ele>
        <time>2012-12-08T13:18:20Z</time>
      </trkpt>
      <trkpt lat="45.80806" lon="4.70353">
        <ele>286</ele>
        <time>2012-12-08T13:18:21Z</time>
      </trkpt>
      <trkpt lat="45.80811" lon="4.70349">
        <ele>285</ele>
        <time>2012-12-08T13:18:22Z</time>
      </trkpt>
      <trkpt lat="45.80814" lon="4.70344">
        <ele>284</ele>
        <time>2012-12-08T13:18:23Z</time>
      </trkpt>
      <trkpt lat="45.80817" lon="4.70337">
        <ele>284</ele>
        <time>2012-12-08T13:18:24Z</time>
      </trkpt>
      <trkpt lat="45.80819" lon="4.7033">
        <ele>283</ele>
        <time>2012-12-08T13:18:25Z</time>
      </trkpt>
      <trkpt lat="45.80819" lon="4.70324">
        <ele>282</ele>
        <time>2012-12-08T13:18:26Z</time>
      </trkpt>
      <trkpt lat="45.80817" lon="4.70318">
        <ele>282</ele>
        <time>2012-12-08T13:18:27Z</time>
      </trkpt>
      <trkpt lat="45.80814" lon="4.70315">
        <ele>282</ele>
        <time>2012-12-08T13:18:28Z</time>
      </trkpt>
      <trkpt lat="45.80811" lon="4.70312">
        <ele>282</ele>
        <time>2012-12-08T13:18:29Z</time>
      </trkpt>
      <trkpt lat="45.80807" lon="4.70308">
        <ele>282</ele>
        <time>2012-12-08T13:18:30Z</time>
      </trkpt>
      <trkpt lat="45.80803" lon="4.70303">
        <ele>282</ele>
        <time>2012-12-08T13:18:31Z</time>
      </trkpt>
      <trkpt lat="45.80802" lon="4.70295">
        <ele>281</ele>
        <time>2012-12-08T13:18:32Z</time>
      </trkpt>
      <trkpt lat="45.80802" lon="4.70288">
        <ele>281</ele>
        <time>2012-12-08T13:18:33Z</time>
      </trkpt>
      <trkpt lat="45.80802" lon="4.70281">
        <ele>281</ele>
        <time>2012-12-08T13:18:34Z</time>
      </trkpt>
      <trkpt lat="45.80802" lon="4.70275">
        <ele>281</ele>
        <time>2012-12-08T13:18:35Z</time>
      </trkpt>
      <trkpt lat="45.80804" lon="4.70262">
        <ele>280</ele>
        <time>2012-12-08T13:18:37Z</time>
      </trkpt>
      <trkpt lat="45.80805" lon="4.70255">
        <ele>281</ele>
        <time>2012-12-08T13:18:38Z</time>
      </trkpt>
      <trkpt lat="45.80813" lon="4.70214">
        <ele>281</ele>
        <time>2012-12-08T13:18:45Z</time>
      </trkpt>
      <trkpt lat="45.80814" lon="4.70207">
        <ele>281</ele>
        <time>2012-12-08T13:18:46Z</time>
      </trkpt>
      <trkpt lat="45.80814" lon="4.702">
        <ele>280</ele>
        <time>2012-12-08T13:18:47Z</time>
      </trkpt>
      <trkpt lat="45.80813" lon="4.70178">
        <ele>280</ele>
        <time>2012-12-08T13:18:50Z</time>
      </trkpt>
      <trkpt lat="45.80812" lon="4.70171">
        <ele>280</ele>
        <time>2012-12-08T13:18:51Z</time>
      </trkpt>
      <trkpt lat="45.80811" lon="4.70157">
        <ele>279</ele>
        <time>2012-12-08T13:18:53Z</time>
      </trkpt>
      <trkpt lat="45.8081" lon="4.70114">
        <ele>279</ele>
        <time>2012-12-08T13:19:00Z</time>
      </trkpt>
      <trkpt lat="45.8081" lon="4.70087">
        <ele>281</ele>
        <time>2012-12-08T13:19:07Z</time>
      </trkpt>
      <trkpt lat="45.80808" lon="4.70086">
        <ele>280</ele>
        <time>2012-12-08T13:19:08Z</time>
      </trkpt>
      <trkpt lat="45.80807" lon="4.70084">
        <ele>280</ele>
        <time>2012-12-08T13:19:09Z</time>
      </trkpt>
      <trkpt lat="45.80805" lon="4.70083">
        <ele>280</ele>
        <time>2012-12-08T13:19:10Z</time>
      </trkpt>
      <trkpt lat="45.80803" lon="4.70083">
        <ele>280</ele>
        <time>2012-12-08T13:19:11Z</time>
      </trkpt>
      <trkpt lat="45.80801" lon="4.70085">
        <ele>280</ele>
        <time>2012-12-08T13:19:12Z</time>
      </trkpt>
      <trkpt lat="45.80798" lon="4.70087">
        <ele>280</ele>
        <time>2012-12-08T13:19:13Z</time>
      </trkpt>
      <trkpt lat="45.80797" lon="4.70089">
        <ele>279</ele>
        <time>2012-12-08T13:19:14Z</time>
      </trkpt>
      <trkpt lat="45.80795" lon="4.70091">
        <ele>279</ele>
        <time>2012-12-08T13:19:15Z</time>
      </trkpt>
      <trkpt lat="45.80793" lon="4.70092">
        <ele>279</ele>
        <time>2012-12-08T13:19:20Z</time>
      </trkpt>
      <trkpt lat="45.80792" lon="4.70094">
        <ele>279</ele>
        <time>2012-12-08T13:19:35Z</time>
      </trkpt>
      <trkpt lat="45.80792" lon="4.70096">
        <ele>279</ele>
        <time>2012-12-08T13:19:52Z</time>
      </trkpt>
      <trkpt lat="45.8079" lon="4.70099">
        <ele>280</ele>
        <time>2012-12-08T13:20:02Z</time>
      </trkpt>
      <trkpt lat="45.80785" lon="4.70101">
        <ele>279</ele>
        <time>2012-12-08T13:20:14Z</time>
      </trkpt>
      <trkpt lat="45.80791" lon="4.70103">
        <ele>279</ele>
        <time>2012-12-08T13:20:30Z</time>
      </trkpt>
      <trkpt lat="45.80791" lon="4.70109">
        <ele>279</ele>
        <time>2012-12-08T13:20:46Z</time>
      </trkpt>
      <trkpt lat="45.80791" lon="4.7011">
        <ele>276</ele>
        <time>2012-12-08T13:20:56Z</time>
      </trkpt>
      <trkpt lat="45.80785" lon="4.70101">
        <ele>255</ele>
        <time>2012-12-08T13:21:33Z</time>
      </trkpt>
      <trkpt lat="45.80796" lon="4.7008">
        <ele>255</ele>
        <time>2012-12-08T13:21:34Z</time>
      </trkpt>
      <trkpt lat="45.80787" lon="4.70118">
        <ele>256</ele>
        <time>2012-12-08T13:21:51Z</time>
      </trkpt>
      <trkpt lat="45.80788" lon="4.70116">
        <ele>257</ele>
        <time>2012-12-08T13:22:09Z</time>
      </trkpt>
      <trkpt lat="45.80788" lon="4.70111">
        <ele>257</ele>
        <time>2012-12-08T13:22:20Z</time>
      </trkpt>
      <trkpt lat="45.80788" lon="4.70111">
        <ele>257</ele>
        <time>2012-12-08T13:22:21Z</time>
      </trkpt>
      <trkpt lat="45.80786" lon="4.70118">
        <ele>257</ele>
        <time>2012-12-08T13:22:27Z</time>
      </trkpt>
      <trkpt lat="45.80779" lon="4.70133">
        <ele>257</ele>
        <time>2012-12-08T13:22:34Z</time>
      </trkpt>
      <trkpt lat="45.80774" lon="4.70152">
        <ele>257</ele>
        <time>2012-12-08T13:22:40Z</time>
      </trkpt>
      <trkpt lat="45.80771" lon="4.70172">
        <ele>257</ele>
        <time>2012-12-08T13:22:46Z</time>
      </trkpt>
      <trkpt lat="45.80767" lon="4.70191">
        <ele>256</ele>
        <time>2012-12-08T13:22:53Z</time>
      </trkpt>
      <trkpt lat="45.80759" lon="4.70213">
        <ele>256</ele>
        <time>2012-12-08T13:22:59Z</time>
      </trkpt>
      <trkpt lat="45.80749" lon="4.70229">
        <ele>257</ele>
        <time>2012-12-08T13:23:05Z</time>
      </trkpt>
      <trkpt lat="45.80738" lon="4.70247">
        <ele>257</ele>
        <time>2012-12-08T13:23:11Z</time>
      </trkpt>
      <trkpt lat="45.80734" lon="4.70257">
        <ele>258</ele>
        <time>2012-12-08T13:23:17Z</time>
      </trkpt>
      <trkpt lat="45.80734" lon="4.70258">
        <ele>257</ele>
        <time>2012-12-08T13:23:27Z</time>
      </trkpt>
      <trkpt lat="45.80736" lon="4.70257">
        <ele>258</ele>
        <time>2012-12-08T13:23:38Z</time>
      </trkpt>
      <trkpt lat="45.80738" lon="4.70258">
        <ele>259</ele>
        <time>2012-12-08T13:23:50Z</time>
      </trkpt>
      <trkpt lat="45.80736" lon="4.70259">
        <ele>259</ele>
        <time>2012-12-08T13:23:57Z</time>
      </trkpt>
      <trkpt lat="45.80734" lon="4.70257">
        <ele>259</ele>
        <time>2012-12-08T13:24:08Z</time>
      </trkpt>
      <trkpt lat="45.80734" lon="4.70255">
        <ele>260</ele>
        <time>2012-12-08T13:24:20Z</time>
      </trkpt>
      <trkpt lat="45.80735" lon="4.70257">
        <ele>259</ele>
        <time>2012-12-08T13:24:34Z</time>
      </trkpt>
      <trkpt lat="45.80735" lon="4.70258">
        <ele>260</ele>
        <time>2012-12-08T13:24:45Z</time>
      </trkpt>
      <trkpt lat="45.80736" lon="4.70257">
        <ele>260</ele>
        <time>2012-12-08T13:24:59Z</time>
      </trkpt>
      <trkpt lat="45.80734" lon="4.70255">
        <ele>260</ele>
        <time>2012-12-08T13:25:13Z</time>
      </trkpt>
      <trkpt lat="45.80734" lon="4.70256">
        <ele>261</ele>
        <time>2012-12-08T13:25:26Z</time>
      </trkpt>
      <trkpt lat="45.80729" lon="4.70256">
        <ele>261</ele>
        <time>2012-12-08T13:25:39Z</time>
      </trkpt>
      <trkpt lat="45.80728" lon="4.70258">
        <ele>261</ele>
        <time>2012-12-08T13:25:48Z</time>
      </trkpt>
      <trkpt lat="45.80729" lon="4.70257">
        <ele>262</ele>
        <time>2012-12-08T13:26:02Z</time>
      </trkpt>
      <trkpt lat="45.80723" lon="4.70264">
        <ele>262</ele>
        <time>2012-12-08T13:26:11Z</time>
      </trkpt>
      <trkpt lat="45.80716" lon="4.70271">
        <ele>264</ele>
        <time>2012-12-08T13:26:18Z</time>
      </trkpt>
      <trkpt lat="45.8071" lon="4.7028">
        <ele>264</ele>
        <time>2012-12-08T13:26:24Z</time>
      </trkpt>
      <trkpt lat="45.80704" lon="4.70283">
        <ele>265</ele>
        <time>2012-12-08T13:26:30Z</time>
      </trkpt>
      <trkpt lat="45.80705" lon="4.70294">
        <ele>264</ele>
        <time>2012-12-08T13:26:36Z</time>
      </trkpt>
      <trkpt lat="45.80705" lon="4.70297">
        <ele>262</ele>
        <time>2012-12-08T13:26:38Z</time>
      </trkpt>
      <trkpt lat="45.80705" lon="4.70316">
        <ele>261</ele>
        <time>2012-12-08T13:26:45Z</time>
      </trkpt>
      <trkpt lat="45.807" lon="4.70328">
        <ele>262</ele>
        <time>2012-12-08T13:26:52Z</time>
      </trkpt>
      <trkpt lat="45.80699" lon="4.70328">
        <ele>262</ele>
        <time>2012-12-08T13:26:53Z</time>
      </trkpt>
      <trkpt lat="45.80692" lon="4.70334">
        <ele>264</ele>
        <time>2012-12-08T13:26:58Z</time>
      </trkpt>
      <trkpt lat="45.8068" lon="4.70344">
        <ele>267</ele>
        <time>2012-12-08T13:27:06Z</time>
      </trkpt>
      <trkpt lat="45.8067" lon="4.70355">
        <ele>267</ele>
        <time>2012-12-08T13:27:15Z</time>
      </trkpt>
      <trkpt lat="45.80667" lon="4.70358">
        <ele>267</ele>
        <time>2012-12-08T13:27:17Z</time>
      </trkpt>
      <trkpt lat="45.80659" lon="4.70368">
        <ele>269</ele>
        <time>2012-12-08T13:27:24Z</time>
      </trkpt>
      <trkpt lat="45.80648" lon="4.70379">
        <ele>271</ele>
        <time>2012-12-08T13:27:32Z</time>
      </trkpt>
      <trkpt lat="45.80642" lon="4.70387">
        <ele>271</ele>
        <time>2012-12-08T13:27:39Z</time>
      </trkpt>
      <trkpt lat="45.8064" lon="4.70392">
        <ele>272</ele>
        <time>2012-12-08T13:27:42Z</time>
      </trkpt>
      <trkpt lat="45.80636" lon="4.70402">
        <ele>272</ele>
        <time>2012-12-08T13:27:47Z</time>
      </trkpt>
      <trkpt lat="45.80623" lon="4.70413">
        <ele>273</ele>
        <time>2012-12-08T13:27:55Z</time>
      </trkpt>
      <trkpt lat="45.80618" lon="4.70417">
        <ele>273</ele>
        <time>2012-12-08T13:27:58Z</time>
      </trkpt>
      <trkpt lat="45.80613" lon="4.7042">
        <ele>273</ele>
        <time>2012-12-08T13:28:02Z</time>
      </trkpt>
      <trkpt lat="45.80603" lon="4.70437">
        <ele>273</ele>
        <time>2012-12-08T13:28:09Z</time>
      </trkpt>
      <trkpt lat="45.80603" lon="4.70443">
        <ele>273</ele>
        <time>2012-12-08T13:28:12Z</time>
      </trkpt>
      <trkpt lat="45.80607" lon="4.70453">
        <ele>274</ele>
        <time>2012-12-08T13:28:17Z</time>
      </trkpt>
      <trkpt lat="45.80617" lon="4.7047">
        <ele>273</ele>
        <time>2012-12-08T13:28:24Z</time>
      </trkpt>
      <trkpt lat="45.80619" lon="4.70485">
        <ele>272</ele>
        <time>2012-12-08T13:28:29Z</time>
      </trkpt>
      <trkpt lat="45.80612" lon="4.705">
        <ele>272</ele>
        <time>2012-12-08T13:28:35Z</time>
      </trkpt>
      <trkpt lat="45.80612" lon="4.70518">
        <ele>270</ele>
        <time>2012-12-08T13:28:40Z</time>
      </trkpt>
      <trkpt lat="45.80612" lon="4.70526">
        <ele>269</ele>
        <time>2012-12-08T13:28:42Z</time>
      </trkpt>
      <trkpt lat="45.80611" lon="4.7055">
        <ele>267</ele>
        <time>2012-12-08T13:28:48Z</time>
      </trkpt>
      <trkpt lat="45.80612" lon="4.70555">
        <ele>266</ele>
        <time>2012-12-08T13:28:50Z</time>
      </trkpt>
      <trkpt lat="45.80611" lon="4.70569">
        <ele>264</ele>
        <time>2012-12-08T13:28:54Z</time>
      </trkpt>
      <trkpt lat="45.80611" lon="4.70577">
        <ele>263</ele>
        <time>2012-12-08T13:28:56Z</time>
      </trkpt>
      <trkpt lat="45.80606" lon="4.70601">
        <ele>260</ele>
        <time>2012-12-08T13:29:02Z</time>
      </trkpt>
      <trkpt lat="45.80606" lon="4.70611">
        <ele>259</ele>
        <time>2012-12-08T13:29:05Z</time>
      </trkpt>
      <trkpt lat="45.80614" lon="4.7064">
        <ele>259</ele>
        <time>2012-12-08T13:29:13Z</time>
      </trkpt>
      <trkpt lat="45.80605" lon="4.70659">
        <ele>259</ele>
        <time>2012-12-08T13:29:21Z</time>
      </trkpt>
      <trkpt lat="45.80592" lon="4.70672">
        <ele>261</ele>
        <time>2012-12-08T13:29:29Z</time>
      </trkpt>
      <trkpt lat="45.80583" lon="4.7068">
        <ele>260</ele>
        <time>2012-12-08T13:29:35Z</time>
      </trkpt>
      <trkpt lat="45.80569" lon="4.70696">
        <ele>260</ele>
        <time>2012-12-08T13:29:42Z</time>
      </trkpt>
      <trkpt lat="45.80559" lon="4.70705">
        <ele>261</ele>
        <time>2012-12-08T13:29:47Z</time>
      </trkpt>
      <trkpt lat="45.80552" lon="4.70709">
        <ele>261</ele>
        <time>2012-12-08T13:29:51Z</time>
      </trkpt>
      <trkpt lat="45.80545" lon="4.70719">
        <ele>259</ele>
        <time>2012-12-08T13:29:55Z</time>
      </trkpt>
      <trkpt lat="45.8054" lon="4.70725">
        <ele>258</ele>
        <time>2012-12-08T13:29:59Z</time>
      </trkpt>
      <trkpt lat="45.80537" lon="4.70728">
        <ele>258</ele>
        <time>2012-12-08T13:30:01Z</time>
      </trkpt>
      <trkpt lat="45.80522" lon="4.70741">
        <ele>256</ele>
        <time>2012-12-08T13:30:08Z</time>
      </trkpt>
      <trkpt lat="45.80503" lon="4.70762">
        <ele>256</ele>
        <time>2012-12-08T13:30:17Z</time>
      </trkpt>
      <trkpt lat="45.80488" lon="4.70774">
        <ele>256</ele>
        <time>2012-12-08T13:30:23Z</time>
      </trkpt>
      <trkpt lat="45.80471" lon="4.70793">
        <ele>255</ele>
        <time>2012-12-08T13:30:29Z</time>
      </trkpt>
      <trkpt lat="45.8046" lon="4.70802">
        <ele>255</ele>
        <time>2012-12-08T13:30:33Z</time>
      </trkpt>
      <trkpt lat="45.80443" lon="4.70814">
        <ele>255</ele>
        <time>2012-12-08T13:30:39Z</time>
      </trkpt>
      <trkpt lat="45.80434" lon="4.70818">
        <ele>255</ele>
        <time>2012-12-08T13:30:44Z</time>
      </trkpt>
      <trkpt lat="45.80425" lon="4.70819">
        <ele>257</ele>
        <time>2012-12-08T13:30:51Z</time>
      </trkpt>
      <trkpt lat="45.80423" lon="4.70817">
        <ele>258</ele>
        <time>2012-12-08T13:30:58Z</time>
      </trkpt>
      <trkpt lat="45.80418" lon="4.70817">
        <ele>257</ele>
        <time>2012-12-08T13:31:05Z</time>
      </trkpt>
      <trkpt lat="45.80413" lon="4.70813">
        <ele>258</ele>
        <time>2012-12-08T13:31:22Z</time>
      </trkpt>
      <trkpt lat="45.80414" lon="4.70811">
        <ele>259</ele>
        <time>2012-12-08T13:31:32Z</time>
      </trkpt>
      <trkpt lat="45.80413" lon="4.70816">
        <ele>259</ele>
        <time>2012-12-08T13:31:43Z</time>
      </trkpt>
      <trkpt lat="45.80411" lon="4.70817">
        <ele>260</ele>
        <time>2012-12-08T13:31:51Z</time>
      </trkpt>
      <trkpt lat="45.80408" lon="4.70823">
        <ele>260</ele>
        <time>2012-12-08T13:32:00Z</time>
      </trkpt>
      <trkpt lat="45.80401" lon="4.70834">
        <ele>261</ele>
        <time>2012-12-08T13:32:07Z</time>
      </trkpt>
      <trkpt lat="45.80397" lon="4.70838">
        <ele>262</ele>
        <time>2012-12-08T13:32:10Z</time>
      </trkpt>
      <trkpt lat="45.80382" lon="4.70854">
        <ele>263</ele>
        <time>2012-12-08T13:32:20Z</time>
      </trkpt>
      <trkpt lat="45.80369" lon="4.7087">
        <ele>265</ele>
        <time>2012-12-08T13:32:28Z</time>
      </trkpt>
      <trkpt lat="45.8036" lon="4.70892">
        <ele>266</ele>
        <time>2012-12-08T13:32:36Z</time>
      </trkpt>
      <trkpt lat="45.8035" lon="4.70909">
        <ele>267</ele>
        <time>2012-12-08T13:32:43Z</time>
      </trkpt>
      <trkpt lat="45.80336" lon="4.70918">
        <ele>268</ele>
        <time>2012-12-08T13:32:50Z</time>
      </trkpt>
      <trkpt lat="45.80323" lon="4.7093">
        <ele>270</ele>
        <time>2012-12-08T13:32:55Z</time>
      </trkpt>
      <trkpt lat="45.80302" lon="4.7095">
        <ele>271</ele>
        <time>2012-12-08T13:33:04Z</time>
      </trkpt>
      <trkpt lat="45.80285" lon="4.70961">
        <ele>273</ele>
        <time>2012-12-08T13:33:11Z</time>
      </trkpt>
      <trkpt lat="45.80267" lon="4.70964">
        <ele>274</ele>
        <time>2012-12-08T13:33:19Z</time>
      </trkpt>
      <trkpt lat="45.80245" lon="4.70956">
        <ele>276</ele>
        <time>2012-12-08T13:33:28Z</time>
      </trkpt>
      <trkpt lat="45.8023" lon="4.70951">
        <ele>277</ele>
        <time>2012-12-08T13:33:33Z</time>
      </trkpt>
      <trkpt lat="45.80213" lon="4.70949">
        <ele>278</ele>
        <time>2012-12-08T13:33:40Z</time>
      </trkpt>
      <trkpt lat="45.80195" lon="4.70946">
        <ele>279</ele>
        <time>2012-12-08T13:33:47Z</time>
      </trkpt>
      <trkpt lat="45.8018" lon="4.70943">
        <ele>281</ele>
        <time>2012-12-08T13:33:54Z</time>
      </trkpt>
      <trkpt lat="45.80157" lon="4.70939">
        <ele>283</ele>
        <time>2012-12-08T13:34:04Z</time>
      </trkpt>
      <trkpt lat="45.80137" lon="4.70935">
        <ele>285</ele>
        <time>2012-12-08T13:34:14Z</time>
      </trkpt>
      <trkpt lat="45.80117" lon="4.70933">
        <ele>285</ele>
        <time>2012-12-08T13:34:23Z</time>
      </trkpt>
      <trkpt lat="45.80101" lon="4.70933">
        <ele>286</ele>
        <time>2012-12-08T13:34:30Z</time>
      </trkpt>
      <trkpt lat="45.80079" lon="4.7093">
        <ele>289</ele>
        <time>2012-12-08T13:34:41Z</time>
      </trkpt>
      <trkpt lat="45.80063" lon="4.70926">
        <ele>289</ele>
        <time>2012-12-08T13:34:49Z</time>
      </trkpt>
      <trkpt lat="45.8005" lon="4.70923">
        <ele>290</ele>
        <time>2012-12-08T13:34:55Z</time>
      </trkpt>
      <trkpt lat="45.80035" lon="4.70918">
        <ele>291</ele>
        <time>2012-12-08T13:35:02Z</time>
      </trkpt>
      <trkpt lat="45.80015" lon="4.70916">
        <ele>292</ele>
        <time>2012-12-08T13:35:09Z</time>
      </trkpt>
      <trkpt lat="45.79989" lon="4.70907">
        <ele>292</ele>
        <time>2012-12-08T13:35:19Z</time>
      </trkpt>
      <trkpt lat="45.79976" lon="4.70902">
        <ele>292</ele>
        <time>2012-12-08T13:35:25Z</time>
      </trkpt>
      <trkpt lat="45.79962" lon="4.70895">
        <ele>292</ele>
        <time>2012-12-08T13:35:31Z</time>
      </trkpt>
      <trkpt lat="45.79947" lon="4.70893">
        <ele>292</ele>
        <time>2012-12-08T13:35:37Z</time>
      </trkpt>
      <trkpt lat="45.79934" lon="4.7089">
        <ele>292</ele>
        <time>2012-12-08T13:35:42Z</time>
      </trkpt>
      <trkpt lat="45.79913" lon="4.70889">
        <ele>291</ele>
        <time>2012-12-08T13:35:49Z</time>
      </trkpt>
      <trkpt lat="45.79902" lon="4.70878">
        <ele>291</ele>
        <time>2012-12-08T13:35:54Z</time>
      </trkpt>
      <trkpt lat="45.79895" lon="4.70871">
        <ele>291</ele>
        <time>2012-12-08T13:35:56Z</time>
      </trkpt>
      <trkpt lat="45.79871" lon="4.70838">
        <ele>289</ele>
        <time>2012-12-08T13:36:02Z</time>
      </trkpt>
      <trkpt lat="45.79866" lon="4.70834">
        <ele>289</ele>
        <time>2012-12-08T13:36:03Z</time>
      </trkpt>
      <trkpt lat="45.79863" lon="4.7083">
        <ele>289</ele>
        <time>2012-12-08T13:36:04Z</time>
      </trkpt>
      <trkpt lat="45.79854" lon="4.70821">
        <ele>289</ele>
        <time>2012-12-08T13:36:08Z</time>
      </trkpt>
      <trkpt lat="45.79843" lon="4.70802">
        <ele>289</ele>
        <time>2012-12-08T13:36:14Z</time>
      </trkpt>
      <trkpt lat="45.7983" lon="4.70763">
        <ele>290</ele>
        <time>2012-12-08T13:36:22Z</time>
      </trkpt>
      <trkpt lat="45.79821" lon="4.70728">
        <ele>290</ele>
        <time>2012-12-08T13:36:29Z</time>
      </trkpt>
      <trkpt lat="45.79809" lon="4.70693">
        <ele>291</ele>
        <time>2012-12-08T13:36:36Z</time>
      </trkpt>
      <trkpt lat="45.79798" lon="4.70662">
        <ele>290</ele>
        <time>2012-12-08T13:36:42Z</time>
      </trkpt>
      <trkpt lat="45.79798" lon="4.70654">
        <ele>290</ele>
        <time>2012-12-08T13:36:44Z</time>
      </trkpt>
      <trkpt lat="45.79799" lon="4.7065">
        <ele>290</ele>
        <time>2012-12-08T13:36:45Z</time>
      </trkpt>
      <trkpt lat="45.79802" lon="4.70647">
        <ele>290</ele>
        <time>2012-12-08T13:36:46Z</time>
      </trkpt>
      <trkpt lat="45.79805" lon="4.70645">
        <ele>290</ele>
        <time>2012-12-08T13:36:47Z</time>
      </trkpt>
      <trkpt lat="45.79808" lon="4.70643">
        <ele>290</ele>
        <time>2012-12-08T13:36:48Z</time>
      </trkpt>
      <trkpt lat="45.79811" lon="4.70642">
        <ele>290</ele>
        <time>2012-12-08T13:36:49Z</time>
      </trkpt>
      <trkpt lat="45.79825" lon="4.7063">
        <ele>291</ele>
        <time>2012-12-08T13:36:55Z</time>
      </trkpt>
      <trkpt lat="45.79841" lon="4.70619">
        <ele>291</ele>
        <time>2012-12-08T13:37:00Z</time>
      </trkpt>
      <trkpt lat="45.79859" lon="4.70607">
        <ele>292</ele>
        <time>2012-12-08T13:37:06Z</time>
      </trkpt>
      <trkpt lat="45.79879" lon="4.70593">
        <ele>292</ele>
        <time>2012-12-08T13:37:13Z</time>
      </trkpt>
      <trkpt lat="45.79893" lon="4.70575">
        <ele>293</ele>
        <time>2012-12-08T13:37:19Z</time>
      </trkpt>
      <trkpt lat="45.79897" lon="4.70569">
        <ele>293</ele>
        <time>2012-12-08T13:37:21Z</time>
      </trkpt>
      <trkpt lat="45.79899" lon="4.70569">
        <ele>294</ele>
        <time>2012-12-08T13:37:22Z</time>
      </trkpt>
      <trkpt lat="45.79901" lon="4.70568">
        <ele>294</ele>
        <time>2012-12-08T13:37:23Z</time>
      </trkpt>
      <trkpt lat="45.79904" lon="4.70567">
        <ele>294</ele>
        <time>2012-12-08T13:37:24Z</time>
      </trkpt>
      <trkpt lat="45.79907" lon="4.70566">
        <ele>294</ele>
        <time>2012-12-08T13:37:25Z</time>
      </trkpt>
      <trkpt lat="45.79908" lon="4.70563">
        <ele>295</ele>
        <time>2012-12-08T13:37:26Z</time>
      </trkpt>
      <trkpt lat="45.7992" lon="4.70539">
        <ele>295</ele>
        <time>2012-12-08T13:37:32Z</time>
      </trkpt>
      <trkpt lat="45.79922" lon="4.70536">
        <ele>294</ele>
        <time>2012-12-08T13:37:33Z</time>
      </trkpt>
      <trkpt lat="45.79925" lon="4.70535">
        <ele>295</ele>
        <time>2012-12-08T13:37:34Z</time>
      </trkpt>
      <trkpt lat="45.79928" lon="4.70533">
        <ele>295</ele>
        <time>2012-12-08T13:37:35Z</time>
      </trkpt>
      <trkpt lat="45.79931" lon="4.70531">
        <ele>295</ele>
        <time>2012-12-08T13:37:36Z</time>
      </trkpt>
      <trkpt lat="45.79933" lon="4.70528">
        <ele>295</ele>
        <time>2012-12-08T13:37:37Z</time>
      </trkpt>
      <trkpt lat="45.79934" lon="4.70525">
        <ele>295</ele>
        <time>2012-12-08T13:37:38Z</time>
      </trkpt>
      <trkpt lat="45.79937" lon="4.70522">
        <ele>295</ele>
        <time>2012-12-08T13:37:39Z</time>
      </trkpt>
      <trkpt lat="45.79939" lon="4.70518">
        <ele>295</ele>
        <time>2012-12-08T13:37:40Z</time>
      </trkpt>
      <trkpt lat="45.79941" lon="4.70514">
        <ele>295</ele>
        <time>2012-12-08T13:37:41Z</time>
      </trkpt>
      <trkpt lat="45.79943" lon="4.7051">
        <ele>295</ele>
        <time>2012-12-08T13:37:42Z</time>
      </trkpt>
      <trkpt lat="45.7996" lon="4.70483">
        <ele>296</ele>
        <time>2012-12-08T13:37:49Z</time>
      </trkpt>
      <trkpt lat="45.79966" lon="4.70472">
        <ele>296</ele>
        <time>2012-12-08T13:37:52Z</time>
      </trkpt>
      <trkpt lat="45.79966" lon="4.70468">
        <ele>296</ele>
        <time>2012-12-08T13:37:53Z</time>
      </trkpt>
      <trkpt lat="45.79967" lon="4.70464">
        <ele>296</ele>
        <time>2012-12-08T13:37:54Z</time>
      </trkpt>
      <trkpt lat="45.79967" lon="4.7046">
        <ele>296</ele>
        <time>2012-12-08T13:37:55Z</time>
      </trkpt>
      <trkpt lat="45.79968" lon="4.70457">
        <ele>296</ele>
        <time>2012-12-08T13:37:56Z</time>
      </trkpt>
      <trkpt lat="45.79969" lon="4.70453">
        <ele>296</ele>
        <time>2012-12-08T13:37:57Z</time>
      </trkpt>
      <trkpt lat="45.79971" lon="4.70451">
        <ele>297</ele>
        <time>2012-12-08T13:37:58Z</time>
      </trkpt>
      <trkpt lat="45.79973" lon="4.70449">
        <ele>296</ele>
        <time>2012-12-08T13:37:59Z</time>
      </trkpt>
      <trkpt lat="45.79976" lon="4.70446">
        <ele>297</ele>
        <time>2012-12-08T13:38:00Z</time>
      </trkpt>
      <trkpt lat="45.79978" lon="4.70443">
        <ele>297</ele>
        <time>2012-12-08T13:38:01Z</time>
      </trkpt>
      <trkpt lat="45.7998" lon="4.7044">
        <ele>297</ele>
        <time>2012-12-08T13:38:02Z</time>
      </trkpt>
      <trkpt lat="45.79982" lon="4.70436">
        <ele>297</ele>
        <time>2012-12-08T13:38:03Z</time>
      </trkpt>
      <trkpt lat="45.79985" lon="4.70432">
        <ele>298</ele>
        <time>2012-12-08T13:38:04Z</time>
      </trkpt>
      <trkpt lat="45.79997" lon="4.70417">
        <ele>298</ele>
        <time>2012-12-08T13:38:09Z</time>
      </trkpt>
      <trkpt lat="45.80002" lon="4.7041">
        <ele>299</ele>
        <time>2012-12-08T13:38:11Z</time>
      </trkpt>
      <trkpt lat="45.80014" lon="4.70396">
        <ele>299</ele>
        <time>2012-12-08T13:38:17Z</time>
      </trkpt>
      <trkpt lat="45.80025" lon="4.70375">
        <ele>300</ele>
        <time>2012-12-08T13:38:23Z</time>
      </trkpt>
      <trkpt lat="45.8004" lon="4.70348">
        <ele>300</ele>
        <time>2012-12-08T13:38:31Z</time>
      </trkpt>
      <trkpt lat="45.80039" lon="4.70344">
        <ele>301</ele>
        <time>2012-12-08T13:38:32Z</time>
      </trkpt>
      <trkpt lat="45.8004" lon="4.7034">
        <ele>300</ele>
        <time>2012-12-08T13:38:33Z</time>
      </trkpt>
      <trkpt lat="45.80041" lon="4.70337">
        <ele>301</ele>
        <time>2012-12-08T13:38:34Z</time>
      </trkpt>
      <trkpt lat="45.80041" lon="4.70335">
        <ele>301</ele>
        <time>2012-12-08T13:38:35Z</time>
      </trkpt>
      <trkpt lat="45.80046" lon="4.70327">
        <ele>301</ele>
        <time>2012-12-08T13:38:37Z</time>
      </trkpt>
      <trkpt lat="45.80048" lon="4.70324">
        <ele>301</ele>
        <time>2012-12-08T13:38:38Z</time>
      </trkpt>
      <trkpt lat="45.80059" lon="4.70302">
        <ele>301</ele>
        <time>2012-12-08T13:38:44Z</time>
      </trkpt>
      <trkpt lat="45.80067" lon="4.70283">
        <ele>301</ele>
        <time>2012-12-08T13:38:49Z</time>
      </trkpt>
      <trkpt lat="45.80077" lon="4.70272">
        <ele>301</ele>
        <time>2012-12-08T13:38:53Z</time>
      </trkpt>
      <trkpt lat="45.80079" lon="4.7027">
        <ele>302</ele>
        <time>2012-12-08T13:38:54Z</time>
      </trkpt>
      <trkpt lat="45.80081" lon="4.70268">
        <ele>302</ele>
        <time>2012-12-08T13:38:55Z</time>
      </trkpt>
      <trkpt lat="45.80083" lon="4.70267">
        <ele>302</ele>
        <time>2012-12-08T13:38:56Z</time>
      </trkpt>
      <trkpt lat="45.80085" lon="4.70263">
        <ele>302</ele>
        <time>2012-12-08T13:38:57Z</time>
      </trkpt>
      <trkpt lat="45.80087" lon="4.70258">
        <ele>302</ele>
        <time>2012-12-08T13:38:58Z</time>
      </trkpt>
      <trkpt lat="45.8009" lon="4.70253">
        <ele>302</ele>
        <time>2012-12-08T13:38:59Z</time>
      </trkpt>
      <trkpt lat="45.80092" lon="4.70249">
        <ele>302</ele>
        <time>2012-12-08T13:39:00Z</time>
      </trkpt>
      <trkpt lat="45.80094" lon="4.70245">
        <ele>302</ele>
        <time>2012-12-08T13:39:01Z</time>
      </trkpt>
      <trkpt lat="45.80098" lon="4.70232">
        <ele>302</ele>
        <time>2012-12-08T13:39:04Z</time>
      </trkpt>
      <trkpt lat="45.80099" lon="4.70228">
        <ele>303</ele>
        <time>2012-12-08T13:39:05Z</time>
      </trkpt>
      <trkpt lat="45.80094" lon="4.70204">
        <ele>303</ele>
        <time>2012-12-08T13:39:11Z</time>
      </trkpt>
      <trkpt lat="45.80084" lon="4.70188">
        <ele>302</ele>
        <time>2012-12-08T13:39:17Z</time>
      </trkpt>
      <trkpt lat="45.80071" lon="4.7016">
        <ele>302</ele>
        <time>2012-12-08T13:39:25Z</time>
      </trkpt>
      <trkpt lat="45.80061" lon="4.70135">
        <ele>302</ele>
        <time>2012-12-08T13:39:32Z</time>
      </trkpt>
      <trkpt lat="45.80047" lon="4.70129">
        <ele>302</ele>
        <time>2012-12-08T13:39:37Z</time>
      </trkpt>
      <trkpt lat="45.80028" lon="4.70129">
        <ele>303</ele>
        <time>2012-12-08T13:39:43Z</time>
      </trkpt>
      <trkpt lat="45.80012" lon="4.7013">
        <ele>303</ele>
        <time>2012-12-08T13:39:48Z</time>
      </trkpt>
      <trkpt lat="45.79985" lon="4.70128">
        <ele>303</ele>
        <time>2012-12-08T13:39:55Z</time>
      </trkpt>
      <trkpt lat="45.79966" lon="4.7013">
        <ele>303</ele>
        <time>2012-12-08T13:40:00Z</time>
      </trkpt>
      <trkpt lat="45.79953" lon="4.70134">
        <ele>302</ele>
        <time>2012-12-08T13:40:05Z</time>
      </trkpt>
      <trkpt lat="45.79951" lon="4.70134">
        <ele>302</ele>
        <time>2012-12-08T13:40:06Z</time>
      </trkpt>
      <trkpt lat="45.79948" lon="4.70133">
        <ele>302</ele>
        <time>2012-12-08T13:40:07Z</time>
      </trkpt>
      <trkpt lat="45.79947" lon="4.70135">
        <ele>302</ele>
        <time>2012-12-08T13:40:08Z</time>
      </trkpt>
      <trkpt lat="45.79947" lon="4.70137">
        <ele>302</ele>
        <time>2012-12-08T13:40:09Z</time>
      </trkpt>
      <trkpt lat="45.79948" lon="4.70139">
        <ele>302</ele>
        <time>2012-12-08T13:40:10Z</time>
      </trkpt>
      <trkpt lat="45.79949" lon="4.70139">
        <ele>302</ele>
        <time>2012-12-08T13:40:12Z</time>
      </trkpt>
      <trkpt lat="45.7995" lon="4.70138">
        <ele>302</ele>
        <time>2012-12-08T13:40:13Z</time>
      </trkpt>
      <trkpt lat="45.79953" lon="4.70138">
        <ele>302</ele>
        <time>2012-12-08T13:40:16Z</time>
      </trkpt>
      <trkpt lat="45.79954" lon="4.70136">
        <ele>302</ele>
        <time>2012-12-08T13:40:18Z</time>
      </trkpt>
      <trkpt lat="45.79955" lon="4.70133">
        <ele>303</ele>
        <time>2012-12-08T13:40:20Z</time>
      </trkpt>
      <trkpt lat="45.79955" lon="4.70132">
        <ele>302</ele>
        <time>2012-12-08T13:40:21Z</time>
      </trkpt>
      <trkpt lat="45.79954" lon="4.7013">
        <ele>303</ele>
        <time>2012-12-08T13:40:22Z</time>
      </trkpt>
      <trkpt lat="45.79952" lon="4.70127">
        <ele>303</ele>
        <time>2012-12-08T13:40:23Z</time>
      </trkpt>
      <trkpt lat="45.79951" lon="4.70125">
        <ele>303</ele>
        <time>2012-12-08T13:40:24Z</time>
      </trkpt>
      <trkpt lat="45.79949" lon="4.70123">
        <ele>303</ele>
        <time>2012-12-08T13:40:25Z</time>
      </trkpt>
      <trkpt lat="45.79947" lon="4.70122">
        <ele>303</ele>
        <time>2012-12-08T13:40:26Z</time>
      </trkpt>
      <trkpt lat="45.79945" lon="4.7012">
        <ele>303</ele>
        <time>2012-12-08T13:40:27Z</time>
      </trkpt>
      <trkpt lat="45.79944" lon="4.70118">
        <ele>303</ele>
        <time>2012-12-08T13:40:28Z</time>
      </trkpt>
      <trkpt lat="45.79942" lon="4.70115">
        <ele>303</ele>
        <time>2012-12-08T13:40:29Z</time>
      </trkpt>
      <trkpt lat="45.79932" lon="4.70098">
        <ele>303</ele>
        <time>2012-12-08T13:40:36Z</time>
      </trkpt>
      <trkpt lat="45.79929" lon="4.70094">
        <ele>303</ele>
        <time>2012-12-08T13:40:38Z</time>
      </trkpt>
      <trkpt lat="45.79927" lon="4.70092">
        <ele>304</ele>
        <time>2012-12-08T13:40:39Z</time>
      </trkpt>
      <trkpt lat="45.79925" lon="4.7009">
        <ele>303</ele>
        <time>2012-12-08T13:40:40Z</time>
      </trkpt>
      <trkpt lat="45.79923" lon="4.70087">
        <ele>304</ele>
        <time>2012-12-08T13:40:41Z</time>
      </trkpt>
      <trkpt lat="45.79921" lon="4.70085">
        <ele>304</ele>
        <time>2012-12-08T13:40:42Z</time>
      </trkpt>
      <trkpt lat="45.79915" lon="4.70075">
        <ele>303</ele>
        <time>2012-12-08T13:40:46Z</time>
      </trkpt>
      <trkpt lat="45.79914" lon="4.70072">
        <ele>303</ele>
        <time>2012-12-08T13:40:47Z</time>
      </trkpt>
      <trkpt lat="45.79912" lon="4.70069">
        <ele>303</ele>
        <time>2012-12-08T13:40:48Z</time>
      </trkpt>
      <trkpt lat="45.79911" lon="4.70066">
        <ele>303</ele>
        <time>2012-12-08T13:40:49Z</time>
      </trkpt>
      <trkpt lat="45.7991" lon="4.70063">
        <ele>303</ele>
        <time>2012-12-08T13:40:50Z</time>
      </trkpt>
      <trkpt lat="45.79909" lon="4.7006">
        <ele>304</ele>
        <time>2012-12-08T13:40:51Z</time>
      </trkpt>
      <trkpt lat="45.79908" lon="4.70056">
        <ele>303</ele>
        <time>2012-12-08T13:40:52Z</time>
      </trkpt>
      <trkpt lat="45.79906" lon="4.70051">
        <ele>304</ele>
        <time>2012-12-08T13:40:54Z</time>
      </trkpt>
      <trkpt lat="45.79904" lon="4.70048">
        <ele>304</ele>
        <time>2012-12-08T13:40:55Z</time>
      </trkpt>
      <trkpt lat="45.79902" lon="4.70044">
        <ele>304</ele>
        <time>2012-12-08T13:40:57Z</time>
      </trkpt>
      <trkpt lat="45.79901" lon="4.70042">
        <ele>304</ele>
        <time>2012-12-08T13:40:58Z</time>
      </trkpt>
      <trkpt lat="45.79899" lon="4.70039">
        <ele>304</ele>
        <time>2012-12-08T13:40:59Z</time>
      </trkpt>
      <trkpt lat="45.79897" lon="4.70037">
        <ele>303</ele>
        <time>2012-12-08T13:41:00Z</time>
      </trkpt>
      <trkpt lat="45.79895" lon="4.70035">
        <ele>304</ele>
        <time>2012-12-08T13:41:01Z</time>
      </trkpt>
      <trkpt lat="45.79893" lon="4.70033">
        <ele>303</ele>
        <time>2012-12-08T13:41:02Z</time>
      </trkpt>
      <trkpt lat="45.79892" lon="4.7003">
        <ele>304</ele>
        <time>2012-12-08T13:41:03Z</time>
      </trkpt>
      <trkpt lat="45.79891" lon="4.70027">
        <ele>304</ele>
        <time>2012-12-08T13:41:04Z</time>
      </trkpt>
      <trkpt lat="45.79891" lon="4.70026">
        <ele>304</ele>
        <time>2012-12-08T13:41:05Z</time>
      </trkpt>
      <trkpt lat="45.79891" lon="4.70021">
        <ele>304</ele>
        <time>2012-12-08T13:41:07Z</time>
      </trkpt>
      <trkpt lat="45.7989" lon="4.70018">
        <ele>304</ele>
        <time>2012-12-08T13:41:08Z</time>
      </trkpt>
      <trkpt lat="45.79889" lon="4.70017">
        <ele>304</ele>
        <time>2012-12-08T13:41:09Z</time>
      </trkpt>
      <trkpt lat="45.79887" lon="4.70016">
        <ele>304</ele>
        <time>2012-12-08T13:41:11Z</time>
      </trkpt>
      <trkpt lat="45.79885" lon="4.70012">
        <ele>304</ele>
        <time>2012-12-08T13:41:14Z</time>
      </trkpt>
      <trkpt lat="45.79883" lon="4.7001">
        <ele>304</ele>
        <time>2012-12-08T13:41:15Z</time>
      </trkpt>
      <trkpt lat="45.79882" lon="4.70007">
        <ele>304</ele>
        <time>2012-12-08T13:41:16Z</time>
      </trkpt>
      <trkpt lat="45.79882" lon="4.70004">
        <ele>304</ele>
        <time>2012-12-08T13:41:17Z</time>
      </trkpt>
      <trkpt lat="45.79882" lon="4.70001">
        <ele>304</ele>
        <time>2012-12-08T13:41:18Z</time>
      </trkpt>
      <trkpt lat="45.79881" lon="4.69997">
        <ele>304</ele>
        <time>2012-12-08T13:41:19Z</time>
      </trkpt>
      <trkpt lat="45.79878" lon="4.69973">
        <ele>305</ele>
        <time>2012-12-08T13:41:25Z</time>
      </trkpt>
      <trkpt lat="45.79878" lon="4.69968">
        <ele>305</ele>
        <time>2012-12-08T13:41:26Z</time>
      </trkpt>
      <trkpt lat="45.79877" lon="4.69964">
        <ele>305</ele>
        <time>2012-12-08T13:41:27Z</time>
      </trkpt>
      <trkpt lat="45.79878" lon="4.69942">
        <ele>305</ele>
        <time>2012-12-08T13:41:34Z</time>
      </trkpt>
      <trkpt lat="45.79882" lon="4.69923">
        <ele>306</ele>
        <time>2012-12-08T13:41:40Z</time>
      </trkpt>
      <trkpt lat="45.79887" lon="4.69905">
        <ele>306</ele>
        <time>2012-12-08T13:41:46Z</time>
      </trkpt>
      <trkpt lat="45.79889" lon="4.69905">
        <ele>307</ele>
        <time>2012-12-08T13:41:47Z</time>
      </trkpt>
      <trkpt lat="45.79891" lon="4.69904">
        <ele>306</ele>
        <time>2012-12-08T13:41:48Z</time>
      </trkpt>
      <trkpt lat="45.79892" lon="4.69902">
        <ele>307</ele>
        <time>2012-12-08T13:41:49Z</time>
      </trkpt>
      <trkpt lat="45.79898" lon="4.69893">
        <ele>308</ele>
        <time>2012-12-08T13:41:53Z</time>
      </trkpt>
      <trkpt lat="45.79904" lon="4.69876">
        <ele>308</ele>
        <time>2012-12-08T13:42:00Z</time>
      </trkpt>
      <trkpt lat="45.79904" lon="4.69875">
        <ele>308</ele>
        <time>2012-12-08T13:42:01Z</time>
      </trkpt>
      <trkpt lat="45.799" lon="4.69867">
        <ele>309</ele>
        <time>2012-12-08T13:42:06Z</time>
      </trkpt>
      <trkpt lat="45.79901" lon="4.69863">
        <ele>308</ele>
        <time>2012-12-08T13:42:07Z</time>
      </trkpt>
      <trkpt lat="45.79902" lon="4.69859">
        <ele>309</ele>
        <time>2012-12-08T13:42:08Z</time>
      </trkpt>
      <trkpt lat="45.79906" lon="4.69832">
        <ele>309</ele>
        <time>2012-12-08T13:42:15Z</time>
      </trkpt>
      <trkpt lat="45.79908" lon="4.69814">
        <ele>310</ele>
        <time>2012-12-08T13:42:20Z</time>
      </trkpt>
      <trkpt lat="45.79909" lon="4.6981">
        <ele>310</ele>
        <time>2012-12-08T13:42:21Z</time>
      </trkpt>
      <trkpt lat="45.7991" lon="4.69806">
        <ele>310</ele>
        <time>2012-12-08T13:42:22Z</time>
      </trkpt>
      <trkpt lat="45.7991" lon="4.69803">
        <ele>310</ele>
        <time>2012-12-08T13:42:23Z</time>
      </trkpt>
      <trkpt lat="45.79911" lon="4.69799">
        <ele>310</ele>
        <time>2012-12-08T13:42:24Z</time>
      </trkpt>
      <trkpt lat="45.79913" lon="4.69777">
        <ele>311</ele>
        <time>2012-12-08T13:42:31Z</time>
      </trkpt>
      <trkpt lat="45.79916" lon="4.69755">
        <ele>311</ele>
        <time>2012-12-08T13:42:37Z</time>
      </trkpt>
      <trkpt lat="45.79915" lon="4.69723">
        <ele>312</ele>
        <time>2012-12-08T13:42:45Z</time>
      </trkpt>
      <trkpt lat="45.79923" lon="4.69695">
        <ele>312</ele>
        <time>2012-12-08T13:42:51Z</time>
      </trkpt>
      <trkpt lat="45.79923" lon="4.69652">
        <ele>313</ele>
        <time>2012-12-08T13:43:01Z</time>
      </trkpt>
      <trkpt lat="45.79926" lon="4.69622">
        <ele>314</ele>
        <time>2012-12-08T13:43:09Z</time>
      </trkpt>
      <trkpt lat="45.79929" lon="4.69594">
        <ele>314</ele>
        <time>2012-12-08T13:43:16Z</time>
      </trkpt>
      <trkpt lat="45.79934" lon="4.69556">
        <ele>315</ele>
        <time>2012-12-08T13:43:25Z</time>
      </trkpt>
      <trkpt lat="45.79938" lon="4.6953">
        <ele>316</ele>
        <time>2012-12-08T13:43:31Z</time>
      </trkpt>
      <trkpt lat="45.79942" lon="4.69484">
        <ele>317</ele>
        <time>2012-12-08T13:43:41Z</time>
      </trkpt>
      <trkpt lat="45.79945" lon="4.69439">
        <ele>317</ele>
        <time>2012-12-08T13:43:51Z</time>
      </trkpt>
      <trkpt lat="45.79936" lon="4.69422">
        <ele>317</ele>
        <time>2012-12-08T13:43:56Z</time>
      </trkpt>
      <trkpt lat="45.79912" lon="4.69406">
        <ele>318</ele>
        <time>2012-12-08T13:44:04Z</time>
      </trkpt>
      <trkpt lat="45.79882" lon="4.69371">
        <ele>319</ele>
        <time>2012-12-08T13:44:15Z</time>
      </trkpt>
      <trkpt lat="45.79858" lon="4.69334">
        <ele>321</ele>
        <time>2012-12-08T13:44:25Z</time>
      </trkpt>
      <trkpt lat="45.79838" lon="4.69299">
        <ele>322</ele>
        <time>2012-12-08T13:44:34Z</time>
      </trkpt>
      <trkpt lat="45.79823" lon="4.6927">
        <ele>323</ele>
        <time>2012-12-08T13:44:41Z</time>
      </trkpt>
      <trkpt lat="45.79806" lon="4.69239">
        <ele>325</ele>
        <time>2012-12-08T13:44:49Z</time>
      </trkpt>
      <trkpt lat="45.79789" lon="4.69207">
        <ele>325</ele>
        <time>2012-12-08T13:44:57Z</time>
      </trkpt>
      <trkpt lat="45.79771" lon="4.69186">
        <ele>326</ele>
        <time>2012-12-08T13:45:04Z</time>
      </trkpt>
      <trkpt lat="45.7975" lon="4.6917">
        <ele>326</ele>
        <time>2012-12-08T13:45:11Z</time>
      </trkpt>
      <trkpt lat="45.79741" lon="4.69168">
        <ele>326</ele>
        <time>2012-12-08T13:45:15Z</time>
      </trkpt>
      <trkpt lat="45.79734" lon="4.69168">
        <ele>326</ele>
        <time>2012-12-08T13:45:21Z</time>
      </trkpt>
      <trkpt lat="45.79734" lon="4.69168">
        <ele>326</ele>
        <time>2012-12-08T13:45:31Z</time>
      </trkpt>
      <trkpt lat="45.79734" lon="4.69168">
        <ele>327</ele>
        <time>2012-12-08T13:45:44Z</time>
      </trkpt>
      <trkpt lat="45.79733" lon="4.69166">
        <ele>327</ele>
        <time>2012-12-08T13:45:53Z</time>
      </trkpt>
      <trkpt lat="45.79733" lon="4.69167">
        <ele>327</ele>
        <time>2012-12-08T13:46:07Z</time>
      </trkpt>
      <trkpt lat="45.79733" lon="4.69168">
        <ele>326</ele>
        <time>2012-12-08T13:46:25Z</time>
      </trkpt>
      <trkpt lat="45.79733" lon="4.69169">
        <ele>327</ele>
        <time>2012-12-08T13:46:41Z</time>
      </trkpt>
      <trkpt lat="45.79733" lon="4.69168">
        <ele>326</ele>
        <time>2012-12-08T13:46:51Z</time>
      </trkpt>
      <trkpt lat="45.79734" lon="4.69167">
        <ele>326</ele>
        <time>2012-12-08T13:47:07Z</time>
      </trkpt>
      <trkpt lat="45.79733" lon="4.69167">
        <ele>326</ele>
        <time>2012-12-08T13:47:24Z</time>
      </trkpt>
      <trkpt lat="45.79733" lon="4.69169">
        <ele>326</ele>
        <time>2012-12-08T13:47:36Z</time>
      </trkpt>
      <trkpt lat="45.79733" lon="4.69167">
        <ele>327</ele>
        <time>2012-12-08T13:47:49Z</time>
      </trkpt>
      <trkpt lat="45.79733" lon="4.69166">
        <ele>327</ele>
        <time>2012-12-08T13:47:54Z</time>
      </trkpt>
      <trkpt lat="45.79732" lon="4.69164">
        <ele>327</ele>
        <time>2012-12-08T13:47:56Z</time>
      </trkpt>
      <trkpt lat="45.79733" lon="4.69162">
        <ele>327</ele>
        <time>2012-12-08T13:47:58Z</time>
      </trkpt>
      <trkpt lat="45.79735" lon="4.69166">
        <ele>327</ele>
        <time>2012-12-08T13:48:02Z</time>
      </trkpt>
      <trkpt lat="45.79734" lon="4.69164">
        <ele>327</ele>
        <time>2012-12-08T13:48:13Z</time>
      </trkpt>
      <trkpt lat="45.79734" lon="4.69165">
        <ele>326</ele>
        <time>2012-12-08T13:48:24Z</time>
      </trkpt>
      <trkpt lat="45.79735" lon="4.69164">
        <ele>327</ele>
        <time>2012-12-08T13:48:29Z</time>
      </trkpt>
      <trkpt lat="45.7972" lon="4.69154">
        <ele>326</ele>
        <time>2012-12-08T13:48:37Z</time>
      </trkpt>
      <trkpt lat="45.79707" lon="4.69143">
        <ele>326</ele>
        <time>2012-12-08T13:48:44Z</time>
      </trkpt>
      <trkpt lat="45.79691" lon="4.69132">
        <ele>326</ele>
        <time>2012-12-08T13:48:53Z</time>
      </trkpt>
      <trkpt lat="45.79676" lon="4.69123">
        <ele>326</ele>
        <time>2012-12-08T13:49:03Z</time>
      </trkpt>
      <trkpt lat="45.7967" lon="4.69119">
        <ele>325</ele>
        <time>2012-12-08T13:49:10Z</time>
      </trkpt>
      <trkpt lat="45.7967" lon="4.69117">
        <ele>326</ele>
        <time>2012-12-08T13:49:19Z</time>
      </trkpt>
      <trkpt lat="45.79663" lon="4.69113">
        <ele>326</ele>
        <time>2012-12-08T13:49:25Z</time>
      </trkpt>
      <trkpt lat="45.79649" lon="4.69103">
        <ele>326</ele>
        <time>2012-12-08T13:49:32Z</time>
      </trkpt>
      <trkpt lat="45.79638" lon="4.6909">
        <ele>326</ele>
        <time>2012-12-08T13:49:36Z</time>
      </trkpt>
      <trkpt lat="45.79611" lon="4.69048">
        <ele>325</ele>
        <time>2012-12-08T13:49:44Z</time>
      </trkpt>
      <trkpt lat="45.79607" lon="4.69043">
        <ele>325</ele>
        <time>2012-12-08T13:49:45Z</time>
      </trkpt>
      <trkpt lat="45.79603" lon="4.69039">
        <ele>325</ele>
        <time>2012-12-08T13:49:46Z</time>
      </trkpt>
      <trkpt lat="45.79574" lon="4.69022">
        <ele>327</ele>
        <time>2012-12-08T13:49:53Z</time>
      </trkpt>
      <trkpt lat="45.7956" lon="4.6902">
        <ele>328</ele>
        <time>2012-12-08T13:49:56Z</time>
      </trkpt>
      <trkpt lat="45.79512" lon="4.69016">
        <ele>331</ele>
        <time>2012-12-08T13:50:07Z</time>
      </trkpt>
      <trkpt lat="45.79476" lon="4.69007">
        <ele>333</ele>
        <time>2012-12-08T13:50:16Z</time>
      </trkpt>
      <trkpt lat="45.79472" lon="4.68988">
        <ele>334</ele>
        <time>2012-12-08T13:50:20Z</time>
      </trkpt>
      <trkpt lat="45.79474" lon="4.68932">
        <ele>335</ele>
        <time>2012-12-08T13:50:31Z</time>
      </trkpt>
      <trkpt lat="45.79478" lon="4.68889">
        <ele>336</ele>
        <time>2012-12-08T13:50:40Z</time>
      </trkpt>
      <trkpt lat="45.79482" lon="4.68866">
        <ele>338</ele>
        <time>2012-12-08T13:50:46Z</time>
      </trkpt>
      <trkpt lat="45.79482" lon="4.68844">
        <ele>337</ele>
        <time>2012-12-08T13:50:51Z</time>
      </trkpt>
      <trkpt lat="45.79482" lon="4.68809">
        <ele>338</ele>
        <time>2012-12-08T13:50:58Z</time>
      </trkpt>
      <trkpt lat="45.7949" lon="4.68757">
        <ele>339</ele>
        <time>2012-12-08T13:51:09Z</time>
      </trkpt>
      <trkpt lat="45.79508" lon="4.68716">
        <ele>339</ele>
        <time>2012-12-08T13:51:19Z</time>
      </trkpt>
      <trkpt lat="45.79528" lon="4.68675">
        <ele>341</ele>
        <time>2012-12-08T13:51:30Z</time>
      </trkpt>
      <trkpt lat="45.79543" lon="4.68644">
        <ele>342</ele>
        <time>2012-12-08T13:51:38Z</time>
      </trkpt>
      <trkpt lat="45.79561" lon="4.68608">
        <ele>344</ele>
        <time>2012-12-08T13:51:48Z</time>
      </trkpt>
      <trkpt lat="45.79568" lon="4.68594">
        <ele>345</ele>
        <time>2012-12-08T13:51:52Z</time>
      </trkpt>
      <trkpt lat="45.79575" lon="4.68573">
        <ele>347</ele>
        <time>2012-12-08T13:51:59Z</time>
      </trkpt>
      <trkpt lat="45.79582" lon="4.68546">
        <ele>349</ele>
        <time>2012-12-08T13:52:07Z</time>
      </trkpt>
      <trkpt lat="45.79591" lon="4.68519">
        <ele>350</ele>
        <time>2012-12-08T13:52:15Z</time>
      </trkpt>
      <trkpt lat="45.79603" lon="4.68488">
        <ele>351</ele>
        <time>2012-12-08T13:52:25Z</time>
      </trkpt>
      <trkpt lat="45.79615" lon="4.68456">
        <ele>353</ele>
        <time>2012-12-08T13:52:35Z</time>
      </trkpt>
      <trkpt lat="45.79625" lon="4.68427">
        <ele>355</ele>
        <time>2012-12-08T13:52:44Z</time>
      </trkpt>
      <trkpt lat="45.79637" lon="4.68396">
        <ele>357</ele>
        <time>2012-12-08T13:52:54Z</time>
      </trkpt>
      <trkpt lat="45.79648" lon="4.68368">
        <ele>358</ele>
        <time>2012-12-08T13:53:03Z</time>
      </trkpt>
      <trkpt lat="45.79657" lon="4.68335">
        <ele>361</ele>
        <time>2012-12-08T13:53:13Z</time>
      </trkpt>
      <trkpt lat="45.79662" lon="4.68304">
        <ele>361</ele>
        <time>2012-12-08T13:53:22Z</time>
      </trkpt>
      <trkpt lat="45.79665" lon="4.68272">
        <ele>364</ele>
        <time>2012-12-08T13:53:31Z</time>
      </trkpt>
      <trkpt lat="45.79668" lon="4.6824">
        <ele>366</ele>
        <time>2012-12-08T13:53:40Z</time>
      </trkpt>
      <trkpt lat="45.79673" lon="4.68208">
        <ele>369</ele>
        <time>2012-12-08T13:53:49Z</time>
      </trkpt>
      <trkpt lat="45.79677" lon="4.68181">
        <ele>371</ele>
        <time>2012-12-08T13:53:57Z</time>
      </trkpt>
      <trkpt lat="45.79676" lon="4.6815">
        <ele>373</ele>
        <time>2012-12-08T13:54:06Z</time>
      </trkpt>
      <trkpt lat="45.79673" lon="4.6812">
        <ele>373</ele>
        <time>2012-12-08T13:54:14Z</time>
      </trkpt>
      <trkpt lat="45.79668" lon="4.68082">
        <ele>374</ele>
        <time>2012-12-08T13:54:24Z</time>
      </trkpt>
      <trkpt lat="45.79661" lon="4.68035">
        <ele>374</ele>
        <time>2012-12-08T13:54:36Z</time>
      </trkpt>
      <trkpt lat="45.79655" lon="4.67998">
        <ele>375</ele>
        <time>2012-12-08T13:54:44Z</time>
      </trkpt>
      <trkpt lat="45.79646" lon="4.67965">
        <ele>374</ele>
        <time>2012-12-08T13:54:52Z</time>
      </trkpt>
      <trkpt lat="45.79632" lon="4.67928">
        <ele>375</ele>
        <time>2012-12-08T13:55:01Z</time>
      </trkpt>
      <trkpt lat="45.79617" lon="4.67885">
        <ele>375</ele>
        <time>2012-12-08T13:55:11Z</time>
      </trkpt>
      <trkpt lat="45.79603" lon="4.67842">
        <ele>376</ele>
        <time>2012-12-08T13:55:22Z</time>
      </trkpt>
      <trkpt lat="45.79587" lon="4.67798">
        <ele>377</ele>
        <time>2012-12-08T13:55:34Z</time>
      </trkpt>
      <trkpt lat="45.79578" lon="4.67765">
        <ele>378</ele>
        <time>2012-12-08T13:55:43Z</time>
      </trkpt>
      <trkpt lat="45.79572" lon="4.67747">
        <ele>381</ele>
        <time>2012-12-08T13:55:50Z</time>
      </trkpt>
      <trkpt lat="45.79569" lon="4.67737">
        <ele>381</ele>
        <time>2012-12-08T13:55:55Z</time>
      </trkpt>
      <trkpt lat="45.79568" lon="4.67735">
        <ele>382</ele>
        <time>2012-12-08T13:55:56Z</time>
      </trkpt>
      <trkpt lat="45.79568" lon="4.67733">
        <ele>382</ele>
        <time>2012-12-08T13:55:57Z</time>
      </trkpt>
      <trkpt lat="45.79567" lon="4.6773">
        <ele>382</ele>
        <time>2012-12-08T13:55:58Z</time>
      </trkpt>
      <trkpt lat="45.79567" lon="4.67728">
        <ele>382</ele>
        <time>2012-12-08T13:55:59Z</time>
      </trkpt>
      <trkpt lat="45.79566" lon="4.67725">
        <ele>382</ele>
        <time>2012-12-08T13:56:00Z</time>
      </trkpt>
      <trkpt lat="45.79565" lon="4.67723">
        <ele>382</ele>
        <time>2012-12-08T13:56:01Z</time>
      </trkpt>
      <trkpt lat="45.79552" lon="4.677">
        <ele>385</ele>
        <time>2012-12-08T13:56:12Z</time>
      </trkpt>
      <trkpt lat="45.79543" lon="4.67684">
        <ele>386</ele>
        <time>2012-12-08T13:56:21Z</time>
      </trkpt>
      <trkpt lat="45.79538" lon="4.67667">
        <ele>388</ele>
        <time>2012-12-08T13:56:29Z</time>
      </trkpt>
      <trkpt lat="45.79537" lon="4.67664">
        <ele>388</ele>
        <time>2012-12-08T13:56:31Z</time>
      </trkpt>
      <trkpt lat="45.7953" lon="4.67648">
        <ele>389</ele>
        <time>2012-12-08T13:56:39Z</time>
      </trkpt>
      <trkpt lat="45.79525" lon="4.67632">
        <ele>390</ele>
        <time>2012-12-08T13:56:47Z</time>
      </trkpt>
      <trkpt lat="45.79522" lon="4.67619">
        <ele>391</ele>
        <time>2012-12-08T13:56:53Z</time>
      </trkpt>
      <trkpt lat="45.79517" lon="4.67601">
        <ele>393</ele>
        <time>2012-12-08T13:57:01Z</time>
      </trkpt>
      <trkpt lat="45.79514" lon="4.67591">
        <ele>394</ele>
        <time>2012-12-08T13:57:07Z</time>
      </trkpt>
      <trkpt lat="45.79512" lon="4.67578">
        <ele>395</ele>
        <time>2012-12-08T13:57:13Z</time>
      </trkpt>
      <trkpt lat="45.79511" lon="4.67574">
        <ele>396</ele>
        <time>2012-12-08T13:57:15Z</time>
      </trkpt>
      <trkpt lat="45.79508" lon="4.67556">
        <ele>397</ele>
        <time>2012-12-08T13:57:23Z</time>
      </trkpt>
      <trkpt lat="45.79508" lon="4.67554">
        <ele>397</ele>
        <time>2012-12-08T13:57:24Z</time>
      </trkpt>
      <trkpt lat="45.79508" lon="4.67552">
        <ele>398</ele>
        <time>2012-12-08T13:57:25Z</time>
      </trkpt>
      <trkpt lat="45.79508" lon="4.6755">
        <ele>398</ele>
        <time>2012-12-08T13:57:26Z</time>
      </trkpt>
      <trkpt lat="45.79509" lon="4.67548">
        <ele>398</ele>
        <time>2012-12-08T13:57:27Z</time>
      </trkpt>
      <trkpt lat="45.79509" lon="4.67546">
        <ele>398</ele>
        <time>2012-12-08T13:57:28Z</time>
      </trkpt>
      <trkpt lat="45.79508" lon="4.67544">
        <ele>398</ele>
        <time>2012-12-08T13:57:29Z</time>
      </trkpt>
      <trkpt lat="45.79508" lon="4.67543">
        <ele>399</ele>
        <time>2012-12-08T13:57:30Z</time>
      </trkpt>
      <trkpt lat="45.79508" lon="4.6754">
        <ele>398</ele>
        <time>2012-12-08T13:57:31Z</time>
      </trkpt>
      <trkpt lat="45.79507" lon="4.67536">
        <ele>399</ele>
        <time>2012-12-08T13:57:33Z</time>
      </trkpt>
      <trkpt lat="45.79507" lon="4.67534">
        <ele>399</ele>
        <time>2012-12-08T13:57:34Z</time>
      </trkpt>
      <trkpt lat="45.79506" lon="4.67531">
        <ele>399</ele>
        <time>2012-12-08T13:57:35Z</time>
      </trkpt>
      <trkpt lat="45.79506" lon="4.67529">
        <ele>399</ele>
        <time>2012-12-08T13:57:36Z</time>
      </trkpt>
      <trkpt lat="45.79505" lon="4.67527">
        <ele>399</ele>
        <time>2012-12-08T13:57:37Z</time>
      </trkpt>
      <trkpt lat="45.79505" lon="4.67525">
        <ele>399</ele>
        <time>2012-12-08T13:57:38Z</time>
      </trkpt>
      <trkpt lat="45.79504" lon="4.67509">
        <ele>401</ele>
        <time>2012-12-08T13:57:45Z</time>
      </trkpt>
      <trkpt lat="45.79502" lon="4.67495">
        <ele>402</ele>
        <time>2012-12-08T13:57:52Z</time>
      </trkpt>
      <trkpt lat="45.79501" lon="4.6749">
        <ele>402</ele>
        <time>2012-12-08T13:57:55Z</time>
      </trkpt>
      <trkpt lat="45.795" lon="4.67488">
        <ele>402</ele>
        <time>2012-12-08T13:57:56Z</time>
      </trkpt>
      <trkpt lat="45.795" lon="4.67487">
        <ele>403</ele>
        <time>2012-12-08T13:57:57Z</time>
      </trkpt>
      <trkpt lat="45.79499" lon="4.6747">
        <ele>404</ele>
        <time>2012-12-08T13:58:06Z</time>
      </trkpt>
      <trkpt lat="45.79499" lon="4.67464">
        <ele>404</ele>
        <time>2012-12-08T13:58:09Z</time>
      </trkpt>
      <trkpt lat="45.79499" lon="4.67462">
        <ele>404</ele>
        <time>2012-12-08T13:58:10Z</time>
      </trkpt>
      <trkpt lat="45.79499" lon="4.67461">
        <ele>403</ele>
        <time>2012-12-08T13:58:11Z</time>
      </trkpt>
      <trkpt lat="45.79498" lon="4.67459">
        <ele>403</ele>
        <time>2012-12-08T13:58:12Z</time>
      </trkpt>
      <trkpt lat="45.79497" lon="4.67457">
        <ele>404</ele>
        <time>2012-12-08T13:58:13Z</time>
      </trkpt>
      <trkpt lat="45.79497" lon="4.67455">
        <ele>404</ele>
        <time>2012-12-08T13:58:14Z</time>
      </trkpt>
      <trkpt lat="45.79497" lon="4.67433">
        <ele>406</ele>
        <time>2012-12-08T13:58:24Z</time>
      </trkpt>
      <trkpt lat="45.795" lon="4.67415">
        <ele>408</ele>
        <time>2012-12-08T13:58:32Z</time>
      </trkpt>
      <trkpt lat="45.795" lon="4.67409">
        <ele>409</ele>
        <time>2012-12-08T13:58:35Z</time>
      </trkpt>
      <trkpt lat="45.795" lon="4.67407">
        <ele>409</ele>
        <time>2012-12-08T13:58:36Z</time>
      </trkpt>
      <trkpt lat="45.79501" lon="4.67405">
        <ele>409</ele>
        <time>2012-12-08T13:58:37Z</time>
      </trkpt>
      <trkpt lat="45.79501" lon="4.67403">
        <ele>410</ele>
        <time>2012-12-08T13:58:38Z</time>
      </trkpt>
      <trkpt lat="45.79502" lon="4.674">
        <ele>409</ele>
        <time>2012-12-08T13:58:39Z</time>
      </trkpt>
      <trkpt lat="45.79503" lon="4.67398">
        <ele>410</ele>
        <time>2012-12-08T13:58:40Z</time>
      </trkpt>
      <trkpt lat="45.79504" lon="4.67395">
        <ele>410</ele>
        <time>2012-12-08T13:58:41Z</time>
      </trkpt>
      <trkpt lat="45.79505" lon="4.67393">
        <ele>410</ele>
        <time>2012-12-08T13:58:42Z</time>
      </trkpt>
      <trkpt lat="45.7951" lon="4.67384">
        <ele>411</ele>
        <time>2012-12-08T13:58:47Z</time>
      </trkpt>
      <trkpt lat="45.79513" lon="4.6737">
        <ele>412</ele>
        <time>2012-12-08T13:58:54Z</time>
      </trkpt>
      <trkpt lat="45.79514" lon="4.67368">
        <ele>411</ele>
        <time>2012-12-08T13:58:55Z</time>
      </trkpt>
      <trkpt lat="45.79514" lon="4.67366">
        <ele>411</ele>
        <time>2012-12-08T13:58:56Z</time>
      </trkpt>
      <trkpt lat="45.79516" lon="4.67348">
        <ele>413</ele>
        <time>2012-12-08T13:59:03Z</time>
      </trkpt>
      <trkpt lat="45.79516" lon="4.67332">
        <ele>415</ele>
        <time>2012-12-08T13:59:10Z</time>
      </trkpt>
      <trkpt lat="45.79516" lon="4.67329">
        <ele>415</ele>
        <time>2012-12-08T13:59:11Z</time>
      </trkpt>
      <trkpt lat="45.79517" lon="4.67327">
        <ele>415</ele>
        <time>2012-12-08T13:59:12Z</time>
      </trkpt>
      <trkpt lat="45.79518" lon="4.67325">
        <ele>415</ele>
        <time>2012-12-08T13:59:13Z</time>
      </trkpt>
      <trkpt lat="45.79518" lon="4.67324">
        <ele>415</ele>
        <time>2012-12-08T13:59:14Z</time>
      </trkpt>
      <trkpt lat="45.79519" lon="4.67322">
        <ele>415</ele>
        <time>2012-12-08T13:59:15Z</time>
      </trkpt>
      <trkpt lat="45.7952" lon="4.67321">
        <ele>415</ele>
        <time>2012-12-08T13:59:16Z</time>
      </trkpt>
      <trkpt lat="45.79524" lon="4.67307">
        <ele>415</ele>
        <time>2012-12-08T13:59:22Z</time>
      </trkpt>
      <trkpt lat="45.79529" lon="4.67293">
        <ele>417</ele>
        <time>2012-12-08T13:59:29Z</time>
      </trkpt>
      <trkpt lat="45.79535" lon="4.67285">
        <ele>417</ele>
        <time>2012-12-08T13:59:34Z</time>
      </trkpt>
      <trkpt lat="45.79536" lon="4.67283">
        <ele>417</ele>
        <time>2012-12-08T13:59:35Z</time>
      </trkpt>
      <trkpt lat="45.79537" lon="4.67281">
        <ele>418</ele>
        <time>2012-12-08T13:59:36Z</time>
      </trkpt>
      <trkpt lat="45.79538" lon="4.67279">
        <ele>418</ele>
        <time>2012-12-08T13:59:37Z</time>
      </trkpt>
      <trkpt lat="45.79539" lon="4.67277">
        <ele>418</ele>
        <time>2012-12-08T13:59:38Z</time>
      </trkpt>
      <trkpt lat="45.7954" lon="4.67275">
        <ele>418</ele>
        <time>2012-12-08T13:59:39Z</time>
      </trkpt>
      <trkpt lat="45.79541" lon="4.67273">
        <ele>418</ele>
        <time>2012-12-08T13:59:40Z</time>
      </trkpt>
      <trkpt lat="45.79542" lon="4.67271">
        <ele>418</ele>
        <time>2012-12-08T13:59:41Z</time>
      </trkpt>
      <trkpt lat="45.79543" lon="4.67268">
        <ele>418</ele>
        <time>2012-12-08T13:59:42Z</time>
      </trkpt>
      <trkpt lat="45.79543" lon="4.67266">
        <ele>419</ele>
        <time>2012-12-08T13:59:43Z</time>
      </trkpt>
      <trkpt lat="45.79544" lon="4.67264">
        <ele>419</ele>
        <time>2012-12-08T13:59:44Z</time>
      </trkpt>
      <trkpt lat="45.79545" lon="4.67261">
        <ele>419</ele>
        <time>2012-12-08T13:59:45Z</time>
      </trkpt>
      <trkpt lat="45.79551" lon="4.67245">
        <ele>420</ele>
        <time>2012-12-08T13:59:53Z</time>
      </trkpt>
      <trkpt lat="45.79554" lon="4.67238">
        <ele>420</ele>
        <time>2012-12-08T13:59:57Z</time>
      </trkpt>
      <trkpt lat="45.79555" lon="4.67236">
        <ele>421</ele>
        <time>2012-12-08T13:59:58Z</time>
      </trkpt>
      <trkpt lat="45.79556" lon="4.67234">
        <ele>421</ele>
        <time>2012-12-08T13:59:59Z</time>
      </trkpt>
      <trkpt lat="45.79557" lon="4.67232">
        <ele>421</ele>
        <time>2012-12-08T14:00:00Z</time>
      </trkpt>
      <trkpt lat="45.79559" lon="4.67231">
        <ele>421</ele>
        <time>2012-12-08T14:00:01Z</time>
      </trkpt>
      <trkpt lat="45.7956" lon="4.67229">
        <ele>422</ele>
        <time>2012-12-08T14:00:02Z</time>
      </trkpt>
      <trkpt lat="45.79561" lon="4.67227">
        <ele>421</ele>
        <time>2012-12-08T14:00:03Z</time>
      </trkpt>
      <trkpt lat="45.7957" lon="4.67218">
        <ele>423</ele>
        <time>2012-12-08T14:00:10Z</time>
      </trkpt>
      <trkpt lat="45.79571" lon="4.67217">
        <ele>424</ele>
        <time>2012-12-08T14:00:11Z</time>
      </trkpt>
      <trkpt lat="45.79573" lon="4.67213">
        <ele>424</ele>
        <time>2012-12-08T14:00:13Z</time>
      </trkpt>
      <trkpt lat="45.79574" lon="4.67212">
        <ele>424</ele>
        <time>2012-12-08T14:00:14Z</time>
      </trkpt>
      <trkpt lat="45.79578" lon="4.67205">
        <ele>424</ele>
        <time>2012-12-08T14:00:18Z</time>
      </trkpt>
      <trkpt lat="45.79583" lon="4.67195">
        <ele>426</ele>
        <time>2012-12-08T14:00:23Z</time>
      </trkpt>
      <trkpt lat="45.79586" lon="4.67191">
        <ele>425</ele>
        <time>2012-12-08T14:00:25Z</time>
      </trkpt>
      <trkpt lat="45.79587" lon="4.67188">
        <ele>426</ele>
        <time>2012-12-08T14:00:26Z</time>
      </trkpt>
      <trkpt lat="45.79588" lon="4.67185">
        <ele>426</ele>
        <time>2012-12-08T14:00:27Z</time>
      </trkpt>
      <trkpt lat="45.79588" lon="4.67183">
        <ele>426</ele>
        <time>2012-12-08T14:00:28Z</time>
      </trkpt>
      <trkpt lat="45.79589" lon="4.67181">
        <ele>426</ele>
        <time>2012-12-08T14:00:29Z</time>
      </trkpt>
      <trkpt lat="45.7959" lon="4.67179">
        <ele>426</ele>
        <time>2012-12-08T14:00:30Z</time>
      </trkpt>
      <trkpt lat="45.7959" lon="4.67177">
        <ele>426</ele>
        <time>2012-12-08T14:00:31Z</time>
      </trkpt>
      <trkpt lat="45.7959" lon="4.67174">
        <ele>426</ele>
        <time>2012-12-08T14:00:32Z</time>
      </trkpt>
      <trkpt lat="45.79592" lon="4.67157">
        <ele>429</ele>
        <time>2012-12-08T14:00:40Z</time>
      </trkpt>
      <trkpt lat="45.79594" lon="4.67148">
        <ele>429</ele>
        <time>2012-12-08T14:00:44Z</time>
      </trkpt>
      <trkpt lat="45.79594" lon="4.67145">
        <ele>429</ele>
        <time>2012-12-08T14:00:45Z</time>
      </trkpt>
      <trkpt lat="45.79594" lon="4.67143">
        <ele>429</ele>
        <time>2012-12-08T14:00:46Z</time>
      </trkpt>
      <trkpt lat="45.79594" lon="4.67141">
        <ele>430</ele>
        <time>2012-12-08T14:00:47Z</time>
      </trkpt>
      <trkpt lat="45.79594" lon="4.67139">
        <ele>430</ele>
        <time>2012-12-08T14:00:48Z</time>
      </trkpt>
      <trkpt lat="45.79597" lon="4.67116">
        <ele>431</ele>
        <time>2012-12-08T14:00:57Z</time>
      </trkpt>
      <trkpt lat="45.79599" lon="4.67104">
        <ele>432</ele>
        <time>2012-12-08T14:01:04Z</time>
      </trkpt>
      <trkpt lat="45.796" lon="4.67105">
        <ele>432</ele>
        <time>2012-12-08T14:01:13Z</time>
      </trkpt>
      <trkpt lat="45.79599" lon="4.67109">
        <ele>432</ele>
        <time>2012-12-08T14:01:26Z</time>
      </trkpt>
      <trkpt lat="45.79598" lon="4.67107">
        <ele>432</ele>
        <time>2012-12-08T14:01:42Z</time>
      </trkpt>
      <trkpt lat="45.79595" lon="4.67104">
        <ele>432</ele>
        <time>2012-12-08T14:02:01Z</time>
      </trkpt>
      <trkpt lat="45.79593" lon="4.67103">
        <ele>432</ele>
        <time>2012-12-08T14:02:15Z</time>
      </trkpt>
      <trkpt lat="45.79593" lon="4.67104">
        <ele>432</ele>
        <time>2012-12-08T14:02:33Z</time>
      </trkpt>
      <trkpt lat="45.79592" lon="4.67106">
        <ele>433</ele>
        <time>2012-12-08T14:02:47Z</time>
      </trkpt>
      <trkpt lat="45.79594" lon="4.67106">
        <ele>432</ele>
        <time>2012-12-08T14:03:02Z</time>
      </trkpt>
      <trkpt lat="45.79596" lon="4.67107">
        <ele>432</ele>
        <time>2012-12-08T14:03:20Z</time>
      </trkpt>
      <trkpt lat="45.79597" lon="4.67112">
        <ele>433</ele>
        <time>2012-12-08T14:03:37Z</time>
      </trkpt>
      <trkpt lat="45.79597" lon="4.67112">
        <ele>433</ele>
        <time>2012-12-08T14:03:48Z</time>
      </trkpt>
      <trkpt lat="45.79595" lon="4.67113">
        <ele>433</ele>
        <time>2012-12-08T14:04:08Z</time>
      </trkpt>
      <trkpt lat="45.79597" lon="4.67111">
        <ele>433</ele>
        <time>2012-12-08T14:04:24Z</time>
      </trkpt>
      <trkpt lat="45.79597" lon="4.67106">
        <ele>433</ele>
        <time>2012-12-08T14:04:37Z</time>
      </trkpt>
      <trkpt lat="45.79597" lon="4.67104">
        <ele>433</ele>
        <time>2012-12-08T14:04:51Z</time>
      </trkpt>
      <trkpt lat="45.79598" lon="4.671">
        <ele>434</ele>
        <time>2012-12-08T14:04:54Z</time>
      </trkpt>
      <trkpt lat="45.79598" lon="4.67097">
        <ele>433</ele>
        <time>2012-12-08T14:04:55Z</time>
      </trkpt>
      <trkpt lat="45.79599" lon="4.67094">
        <ele>433</ele>
        <time>2012-12-08T14:04:56Z</time>
      </trkpt>
      <trkpt lat="45.796" lon="4.67092">
        <ele>433</ele>
        <time>2012-12-08T14:04:57Z</time>
      </trkpt>
      <trkpt lat="45.796" lon="4.6709">
        <ele>432</ele>
        <time>2012-12-08T14:04:58Z</time>
      </trkpt>
      <trkpt lat="45.79601" lon="4.67087">
        <ele>432</ele>
        <time>2012-12-08T14:04:59Z</time>
      </trkpt>
      <trkpt lat="45.79602" lon="4.67083">
        <ele>433</ele>
        <time>2012-12-08T14:05:00Z</time>
      </trkpt>
      <trkpt lat="45.79606" lon="4.67057">
        <ele>432</ele>
        <time>2012-12-08T14:05:06Z</time>
      </trkpt>
      <trkpt lat="45.79607" lon="4.67028">
        <ele>431</ele>
        <time>2012-12-08T14:05:12Z</time>
      </trkpt>
      <trkpt lat="45.79603" lon="4.67006">
        <ele>431</ele>
        <time>2012-12-08T14:05:18Z</time>
      </trkpt>
      <trkpt lat="45.79598" lon="4.66974">
        <ele>431</ele>
        <time>2012-12-08T14:05:25Z</time>
      </trkpt>
      <trkpt lat="45.79597" lon="4.66942">
        <ele>429</ele>
        <time>2012-12-08T14:05:30Z</time>
      </trkpt>
      <trkpt lat="45.79598" lon="4.66927">
        <ele>428</ele>
        <time>2012-12-08T14:05:32Z</time>
      </trkpt>
      <trkpt lat="45.79597" lon="4.66903">
        <ele>427</ele>
        <time>2012-12-08T14:05:35Z</time>
      </trkpt>
      <trkpt lat="45.79597" lon="4.66895">
        <ele>426</ele>
        <time>2012-12-08T14:05:36Z</time>
      </trkpt>
      <trkpt lat="45.79597" lon="4.66845">
        <ele>424</ele>
        <time>2012-12-08T14:05:42Z</time>
      </trkpt>
      <trkpt lat="45.79596" lon="4.66813">
        <ele>422</ele>
        <time>2012-12-08T14:05:46Z</time>
      </trkpt>
      <trkpt lat="45.79597" lon="4.66806">
        <ele>422</ele>
        <time>2012-12-08T14:05:47Z</time>
      </trkpt>
      <trkpt lat="45.79598" lon="4.66793">
        <ele>421</ele>
        <time>2012-12-08T14:05:49Z</time>
      </trkpt>
      <trkpt lat="45.79597" lon="4.66787">
        <ele>421</ele>
        <time>2012-12-08T14:05:50Z</time>
      </trkpt>
      <trkpt lat="45.79597" lon="4.6678">
        <ele>421</ele>
        <time>2012-12-08T14:05:51Z</time>
      </trkpt>
      <trkpt lat="45.79595" lon="4.6675">
        <ele>419</ele>
        <time>2012-12-08T14:05:56Z</time>
      </trkpt>
      <trkpt lat="45.79587" lon="4.66726">
        <ele>417</ele>
        <time>2012-12-08T14:06:01Z</time>
      </trkpt>
      <trkpt lat="45.79576" lon="4.66707">
        <ele>416</ele>
        <time>2012-12-08T14:06:07Z</time>
      </trkpt>
      <trkpt lat="45.79571" lon="4.66683">
        <ele>415</ele>
        <time>2012-12-08T14:06:14Z</time>
      </trkpt>
      <trkpt lat="45.79567" lon="4.66662">
        <ele>414</ele>
        <time>2012-12-08T14:06:20Z</time>
      </trkpt>
      <trkpt lat="45.79566" lon="4.66656">
        <ele>413</ele>
        <time>2012-12-08T14:06:22Z</time>
      </trkpt>
      <trkpt lat="45.79566" lon="4.66652">
        <ele>413</ele>
        <time>2012-12-08T14:06:23Z</time>
      </trkpt>
      <trkpt lat="45.79567" lon="4.66648">
        <ele>413</ele>
        <time>2012-12-08T14:06:24Z</time>
      </trkpt>
      <trkpt lat="45.79568" lon="4.66646">
        <ele>413</ele>
        <time>2012-12-08T14:06:25Z</time>
      </trkpt>
      <trkpt lat="45.79568" lon="4.66644">
        <ele>413</ele>
        <time>2012-12-08T14:06:26Z</time>
      </trkpt>
      <trkpt lat="45.79569" lon="4.66642">
        <ele>413</ele>
        <time>2012-12-08T14:06:27Z</time>
      </trkpt>
      <trkpt lat="45.7957" lon="4.66641">
        <ele>413</ele>
        <time>2012-12-08T14:06:28Z</time>
      </trkpt>
      <trkpt lat="45.7957" lon="4.66639">
        <ele>413</ele>
        <time>2012-12-08T14:06:29Z</time>
      </trkpt>
      <trkpt lat="45.79572" lon="4.66636">
        <ele>413</ele>
        <time>2012-12-08T14:06:35Z</time>
      </trkpt>
      <trkpt lat="45.79576" lon="4.66628">
        <ele>414</ele>
        <time>2012-12-08T14:06:45Z</time>
      </trkpt>
      <trkpt lat="45.79577" lon="4.66627">
        <ele>414</ele>
        <time>2012-12-08T14:06:46Z</time>
      </trkpt>
      <trkpt lat="45.79578" lon="4.66625">
        <ele>414</ele>
        <time>2012-12-08T14:06:47Z</time>
      </trkpt>
      <trkpt lat="45.79579" lon="4.66624">
        <ele>415</ele>
        <time>2012-12-08T14:06:48Z</time>
      </trkpt>
      <trkpt lat="45.79581" lon="4.66622">
        <ele>415</ele>
        <time>2012-12-08T14:06:49Z</time>
      </trkpt>
      <trkpt lat="45.79582" lon="4.66619">
        <ele>416</ele>
        <time>2012-12-08T14:06:50Z</time>
      </trkpt>
      <trkpt lat="45.79584" lon="4.66616">
        <ele>417</ele>
        <time>2012-12-08T14:06:52Z</time>
      </trkpt>
      <trkpt lat="45.79586" lon="4.66614">
        <ele>417</ele>
        <time>2012-12-08T14:06:55Z</time>
      </trkpt>
      <trkpt lat="45.79588" lon="4.66613">
        <ele>418</ele>
        <time>2012-12-08T14:06:56Z</time>
      </trkpt>
      <trkpt lat="45.7959" lon="4.66612">
        <ele>418</ele>
        <time>2012-12-08T14:06:57Z</time>
      </trkpt>
      <trkpt lat="45.79592" lon="4.66612">
        <ele>418</ele>
        <time>2012-12-08T14:06:58Z</time>
      </trkpt>
      <trkpt lat="45.79594" lon="4.66611">
        <ele>418</ele>
        <time>2012-12-08T14:06:59Z</time>
      </trkpt>
      <trkpt lat="45.79597" lon="4.6661">
        <ele>419</ele>
        <time>2012-12-08T14:07:00Z</time>
      </trkpt>
      <trkpt lat="45.79599" lon="4.66609">
        <ele>419</ele>
        <time>2012-12-08T14:07:01Z</time>
      </trkpt>
      <trkpt lat="45.79601" lon="4.66608">
        <ele>420</ele>
        <time>2012-12-08T14:07:02Z</time>
      </trkpt>
      <trkpt lat="45.79603" lon="4.66607">
        <ele>420</ele>
        <time>2012-12-08T14:07:03Z</time>
      </trkpt>
      <trkpt lat="45.79605" lon="4.66605">
        <ele>420</ele>
        <time>2012-12-08T14:07:04Z</time>
      </trkpt>
      <trkpt lat="45.79608" lon="4.66603">
        <ele>420</ele>
        <time>2012-12-08T14:07:06Z</time>
      </trkpt>
      <trkpt lat="45.7961" lon="4.66601">
        <ele>421</ele>
        <time>2012-12-08T14:07:07Z</time>
      </trkpt>
      <trkpt lat="45.79612" lon="4.666">
        <ele>421</ele>
        <time>2012-12-08T14:07:08Z</time>
      </trkpt>
      <trkpt lat="45.79614" lon="4.66599">
        <ele>421</ele>
        <time>2012-12-08T14:07:09Z</time>
      </trkpt>
      <trkpt lat="45.79616" lon="4.66598">
        <ele>420</ele>
        <time>2012-12-08T14:07:10Z</time>
      </trkpt>
      <trkpt lat="45.7962" lon="4.66595">
        <ele>420</ele>
        <time>2012-12-08T14:07:13Z</time>
      </trkpt>
      <trkpt lat="45.79626" lon="4.66582">
        <ele>421</ele>
        <time>2012-12-08T14:07:19Z</time>
      </trkpt>
      <trkpt lat="45.79626" lon="4.66579">
        <ele>421</ele>
        <time>2012-12-08T14:07:20Z</time>
      </trkpt>
      <trkpt lat="45.79631" lon="4.6657">
        <ele>422</ele>
        <time>2012-12-08T14:07:26Z</time>
      </trkpt>
      <trkpt lat="45.79633" lon="4.66569">
        <ele>422</ele>
        <time>2012-12-08T14:07:28Z</time>
      </trkpt>
      <trkpt lat="45.79641" lon="4.66554">
        <ele>421</ele>
        <time>2012-12-08T14:07:36Z</time>
      </trkpt>
      <trkpt lat="45.79643" lon="4.66549">
        <ele>421</ele>
        <time>2012-12-08T14:07:39Z</time>
      </trkpt>
      <trkpt lat="45.79653" lon="4.66535">
        <ele>420</ele>
        <time>2012-12-08T14:07:48Z</time>
      </trkpt>
      <trkpt lat="45.79656" lon="4.6653">
        <ele>419</ele>
        <time>2012-12-08T14:07:51Z</time>
      </trkpt>
      <trkpt lat="45.79664" lon="4.66509">
        <ele>420</ele>
        <time>2012-12-08T14:07:59Z</time>
      </trkpt>
      <trkpt lat="45.79672" lon="4.66493">
        <ele>419</ele>
        <time>2012-12-08T14:08:06Z</time>
      </trkpt>
      <trkpt lat="45.79673" lon="4.66491">
        <ele>419</ele>
        <time>2012-12-08T14:08:07Z</time>
      </trkpt>
      <trkpt lat="45.79674" lon="4.66489">
        <ele>420</ele>
        <time>2012-12-08T14:08:08Z</time>
      </trkpt>
      <trkpt lat="45.79675" lon="4.66487">
        <ele>420</ele>
        <time>2012-12-08T14:08:09Z</time>
      </trkpt>
      <trkpt lat="45.79677" lon="4.66483">
        <ele>419</ele>
        <time>2012-12-08T14:08:11Z</time>
      </trkpt>
      <trkpt lat="45.79678" lon="4.6648">
        <ele>419</ele>
        <time>2012-12-08T14:08:12Z</time>
      </trkpt>
      <trkpt lat="45.79678" lon="4.66478">
        <ele>419</ele>
        <time>2012-12-08T14:08:13Z</time>
      </trkpt>
      <trkpt lat="45.79679" lon="4.66476">
        <ele>419</ele>
        <time>2012-12-08T14:08:14Z</time>
      </trkpt>
      <trkpt lat="45.79681" lon="4.66474">
        <ele>419</ele>
        <time>2012-12-08T14:08:16Z</time>
      </trkpt>
      <trkpt lat="45.79684" lon="4.66471">
        <ele>419</ele>
        <time>2012-12-08T14:08:18Z</time>
      </trkpt>
      <trkpt lat="45.79685" lon="4.66468">
        <ele>419</ele>
        <time>2012-12-08T14:08:19Z</time>
      </trkpt>
      <trkpt lat="45.79686" lon="4.66465">
        <ele>418</ele>
        <time>2012-12-08T14:08:20Z</time>
      </trkpt>
      <trkpt lat="45.79687" lon="4.66462">
        <ele>419</ele>
        <time>2012-12-08T14:08:21Z</time>
      </trkpt>
      <trkpt lat="45.79688" lon="4.6646">
        <ele>419</ele>
        <time>2012-12-08T14:08:22Z</time>
      </trkpt>
      <trkpt lat="45.79691" lon="4.6645">
        <ele>419</ele>
        <time>2012-12-08T14:08:26Z</time>
      </trkpt>
      <trkpt lat="45.79693" lon="4.66445">
        <ele>418</ele>
        <time>2012-12-08T14:08:29Z</time>
      </trkpt>
      <trkpt lat="45.79694" lon="4.66443">
        <ele>419</ele>
        <time>2012-12-08T14:08:30Z</time>
      </trkpt>
      <trkpt lat="45.79695" lon="4.66441">
        <ele>419</ele>
        <time>2012-12-08T14:08:31Z</time>
      </trkpt>
      <trkpt lat="45.79696" lon="4.66438">
        <ele>419</ele>
        <time>2012-12-08T14:08:32Z</time>
      </trkpt>
      <trkpt lat="45.79698" lon="4.66436">
        <ele>419</ele>
        <time>2012-12-08T14:08:33Z</time>
      </trkpt>
      <trkpt lat="45.79699" lon="4.66435">
        <ele>419</ele>
        <time>2012-12-08T14:08:34Z</time>
      </trkpt>
      <trkpt lat="45.797" lon="4.66433">
        <ele>419</ele>
        <time>2012-12-08T14:08:35Z</time>
      </trkpt>
      <trkpt lat="45.79701" lon="4.66431">
        <ele>419</ele>
        <time>2012-12-08T14:08:36Z</time>
      </trkpt>
      <trkpt lat="45.79705" lon="4.66425">
        <ele>419</ele>
        <time>2012-12-08T14:08:42Z</time>
      </trkpt>
      <trkpt lat="45.79712" lon="4.6642">
        <ele>419</ele>
        <time>2012-12-08T14:08:47Z</time>
      </trkpt>
      <trkpt lat="45.79724" lon="4.66403">
        <ele>420</ele>
        <time>2012-12-08T14:08:54Z</time>
      </trkpt>
      <trkpt lat="45.79731" lon="4.66392">
        <ele>420</ele>
        <time>2012-12-08T14:08:59Z</time>
      </trkpt>
      <trkpt lat="45.79733" lon="4.6639">
        <ele>420</ele>
        <time>2012-12-08T14:09:00Z</time>
      </trkpt>
      <trkpt lat="45.79734" lon="4.66388">
        <ele>420</ele>
        <time>2012-12-08T14:09:01Z</time>
      </trkpt>
      <trkpt lat="45.79745" lon="4.66379">
        <ele>422</ele>
        <time>2012-12-08T14:09:08Z</time>
      </trkpt>
      <trkpt lat="45.79754" lon="4.66366">
        <ele>422</ele>
        <time>2012-12-08T14:09:15Z</time>
      </trkpt>
      <trkpt lat="45.79763" lon="4.66353">
        <ele>424</ele>
        <time>2012-12-08T14:09:21Z</time>
      </trkpt>
      <trkpt lat="45.79764" lon="4.6635">
        <ele>424</ele>
        <time>2012-12-08T14:09:22Z</time>
      </trkpt>
      <trkpt lat="45.79765" lon="4.66347">
        <ele>424</ele>
        <time>2012-12-08T14:09:23Z</time>
      </trkpt>
      <trkpt lat="45.79766" lon="4.66345">
        <ele>424</ele>
        <time>2012-12-08T14:09:24Z</time>
      </trkpt>
      <trkpt lat="45.79766" lon="4.66342">
        <ele>424</ele>
        <time>2012-12-08T14:09:25Z</time>
      </trkpt>
      <trkpt lat="45.79768" lon="4.66339">
        <ele>424</ele>
        <time>2012-12-08T14:09:26Z</time>
      </trkpt>
      <trkpt lat="45.79776" lon="4.66317">
        <ele>424</ele>
        <time>2012-12-08T14:09:34Z</time>
      </trkpt>
      <trkpt lat="45.79784" lon="4.66294">
        <ele>425</ele>
        <time>2012-12-08T14:09:42Z</time>
      </trkpt>
      <trkpt lat="45.79793" lon="4.66272">
        <ele>424</ele>
        <time>2012-12-08T14:09:50Z</time>
      </trkpt>
      <trkpt lat="45.798" lon="4.66255">
        <ele>425</ele>
        <time>2012-12-08T14:09:56Z</time>
      </trkpt>
      <trkpt lat="45.79809" lon="4.66234">
        <ele>426</ele>
        <time>2012-12-08T14:10:02Z</time>
      </trkpt>
      <trkpt lat="45.79812" lon="4.66226">
        <ele>426</ele>
        <time>2012-12-08T14:10:04Z</time>
      </trkpt>
      <trkpt lat="45.79828" lon="4.66207">
        <ele>427</ele>
        <time>2012-12-08T14:10:12Z</time>
      </trkpt>
      <trkpt lat="45.79846" lon="4.66187">
        <ele>427</ele>
        <time>2012-12-08T14:10:20Z</time>
      </trkpt>
      <trkpt lat="45.79857" lon="4.66177">
        <ele>426</ele>
        <time>2012-12-08T14:10:27Z</time>
      </trkpt>
      <trkpt lat="45.79858" lon="4.66174">
        <ele>426</ele>
        <time>2012-12-08T14:10:28Z</time>
      </trkpt>
      <trkpt lat="45.79859" lon="4.66171">
        <ele>426</ele>
        <time>2012-12-08T14:10:29Z</time>
      </trkpt>
      <trkpt lat="45.79859" lon="4.66168">
        <ele>427</ele>
        <time>2012-12-08T14:10:30Z</time>
      </trkpt>
      <trkpt lat="45.7986" lon="4.66164">
        <ele>427</ele>
        <time>2012-12-08T14:10:31Z</time>
      </trkpt>
      <trkpt lat="45.7986" lon="4.6616">
        <ele>427</ele>
        <time>2012-12-08T14:10:32Z</time>
      </trkpt>
      <trkpt lat="45.79861" lon="4.66156">
        <ele>427</ele>
        <time>2012-12-08T14:10:33Z</time>
      </trkpt>
      <trkpt lat="45.79869" lon="4.66127">
        <ele>428</ele>
        <time>2012-12-08T14:10:41Z</time>
      </trkpt>
      <trkpt lat="45.79871" lon="4.6612">
        <ele>428</ele>
        <time>2012-12-08T14:10:43Z</time>
      </trkpt>
      <trkpt lat="45.79872" lon="4.66117">
        <ele>429</ele>
        <time>2012-12-08T14:10:44Z</time>
      </trkpt>
      <trkpt lat="45.79873" lon="4.66113">
        <ele>429</ele>
        <time>2012-12-08T14:10:45Z</time>
      </trkpt>
      <trkpt lat="45.79879" lon="4.66081">
        <ele>430</ele>
        <time>2012-12-08T14:10:53Z</time>
      </trkpt>
      <trkpt lat="45.79887" lon="4.66046">
        <ele>430</ele>
        <time>2012-12-08T14:11:02Z</time>
      </trkpt>
      <trkpt lat="45.79898" lon="4.66003">
        <ele>431</ele>
        <time>2012-12-08T14:11:12Z</time>
      </trkpt>
      <trkpt lat="45.79911" lon="4.65963">
        <ele>431</ele>
        <time>2012-12-08T14:11:21Z</time>
      </trkpt>
      <trkpt lat="45.79926" lon="4.65926">
        <ele>432</ele>
        <time>2012-12-08T14:11:30Z</time>
      </trkpt>
      <trkpt lat="45.79947" lon="4.65896">
        <ele>433</ele>
        <time>2012-12-08T14:11:40Z</time>
      </trkpt>
      <trkpt lat="45.79961" lon="4.65871">
        <ele>435</ele>
        <time>2012-12-08T14:11:49Z</time>
      </trkpt>
      <trkpt lat="45.79967" lon="4.65836">
        <ele>437</ele>
        <time>2012-12-08T14:11:59Z</time>
      </trkpt>
      <trkpt lat="45.7997" lon="4.65807">
        <ele>438</ele>
        <time>2012-12-08T14:12:07Z</time>
      </trkpt>
      <trkpt lat="45.79975" lon="4.65782">
        <ele>438</ele>
        <time>2012-12-08T14:12:15Z</time>
      </trkpt>
      <trkpt lat="45.79977" lon="4.65763">
        <ele>440</ele>
        <time>2012-12-08T14:12:21Z</time>
      </trkpt>
      <trkpt lat="45.79976" lon="4.65761">
        <ele>440</ele>
        <time>2012-12-08T14:12:22Z</time>
      </trkpt>
      <trkpt lat="45.79973" lon="4.65758">
        <ele>440</ele>
        <time>2012-12-08T14:12:23Z</time>
      </trkpt>
      <trkpt lat="45.79971" lon="4.65757">
        <ele>440</ele>
        <time>2012-12-08T14:12:24Z</time>
      </trkpt>
      <trkpt lat="45.79969" lon="4.65757">
        <ele>440</ele>
        <time>2012-12-08T14:12:25Z</time>
      </trkpt>
      <trkpt lat="45.79966" lon="4.65756">
        <ele>440</ele>
        <time>2012-12-08T14:12:26Z</time>
      </trkpt>
      <trkpt lat="45.79964" lon="4.65755">
        <ele>441</ele>
        <time>2012-12-08T14:12:27Z</time>
      </trkpt>
      <trkpt lat="45.79961" lon="4.65755">
        <ele>441</ele>
        <time>2012-12-08T14:12:28Z</time>
      </trkpt>
      <trkpt lat="45.79959" lon="4.65754">
        <ele>441</ele>
        <time>2012-12-08T14:12:29Z</time>
      </trkpt>
      <trkpt lat="45.79956" lon="4.65754">
        <ele>442</ele>
        <time>2012-12-08T14:12:30Z</time>
      </trkpt>
      <trkpt lat="45.7993" lon="4.65751">
        <ele>442</ele>
        <time>2012-12-08T14:12:40Z</time>
      </trkpt>
      <trkpt lat="45.79904" lon="4.65752">
        <ele>441</ele>
        <time>2012-12-08T14:12:49Z</time>
      </trkpt>
      <trkpt lat="45.79874" lon="4.65757">
        <ele>442</ele>
        <time>2012-12-08T14:12:58Z</time>
      </trkpt>
      <trkpt lat="45.79844" lon="4.65761">
        <ele>441</ele>
        <time>2012-12-08T14:13:07Z</time>
      </trkpt>
      <trkpt lat="45.79818" lon="4.65764">
        <ele>441</ele>
        <time>2012-12-08T14:13:14Z</time>
      </trkpt>
      <trkpt lat="45.79781" lon="4.65765">
        <ele>439</ele>
        <time>2012-12-08T14:13:23Z</time>
      </trkpt>
      <trkpt lat="45.79754" lon="4.65774">
        <ele>439</ele>
        <time>2012-12-08T14:13:31Z</time>
      </trkpt>
      <trkpt lat="45.79727" lon="4.65789">
        <ele>439</ele>
        <time>2012-12-08T14:13:40Z</time>
      </trkpt>
      <trkpt lat="45.79716" lon="4.65793">
        <ele>439</ele>
        <time>2012-12-08T14:13:44Z</time>
      </trkpt>
      <trkpt lat="45.79714" lon="4.65795">
        <ele>440</ele>
        <time>2012-12-08T14:13:45Z</time>
      </trkpt>
      <trkpt lat="45.79711" lon="4.65796">
        <ele>440</ele>
        <time>2012-12-08T14:13:46Z</time>
      </trkpt>
      <trkpt lat="45.79709" lon="4.65797">
        <ele>440</ele>
        <time>2012-12-08T14:13:47Z</time>
      </trkpt>
      <trkpt lat="45.79706" lon="4.65798">
        <ele>439</ele>
        <time>2012-12-08T14:13:48Z</time>
      </trkpt>
      <trkpt lat="45.79704" lon="4.65799">
        <ele>440</ele>
        <time>2012-12-08T14:13:49Z</time>
      </trkpt>
      <trkpt lat="45.79702" lon="4.658">
        <ele>440</ele>
        <time>2012-12-08T14:13:50Z</time>
      </trkpt>
      <trkpt lat="45.79699" lon="4.65801">
        <ele>440</ele>
        <time>2012-12-08T14:13:51Z</time>
      </trkpt>
      <trkpt lat="45.79697" lon="4.65802">
        <ele>440</ele>
        <time>2012-12-08T14:13:52Z</time>
      </trkpt>
      <trkpt lat="45.79695" lon="4.65803">
        <ele>440</ele>
        <time>2012-12-08T14:13:53Z</time>
      </trkpt>
      <trkpt lat="45.7968" lon="4.65813">
        <ele>441</ele>
        <time>2012-12-08T14:14:00Z</time>
      </trkpt>
      <trkpt lat="45.79659" lon="4.65821">
        <ele>441</ele>
        <time>2012-12-08T14:14:10Z</time>
      </trkpt>
      <trkpt lat="45.7964" lon="4.65828">
        <ele>442</ele>
        <time>2012-12-08T14:14:19Z</time>
      </trkpt>
      <trkpt lat="45.79627" lon="4.65831">
        <ele>443</ele>
        <time>2012-12-08T14:14:26Z</time>
      </trkpt>
      <trkpt lat="45.79614" lon="4.65831">
        <ele>443</ele>
        <time>2012-12-08T14:14:34Z</time>
      </trkpt>
      <trkpt lat="45.79603" lon="4.65835">
        <ele>444</ele>
        <time>2012-12-08T14:14:41Z</time>
      </trkpt>
      <trkpt lat="45.79589" lon="4.65837">
        <ele>445</ele>
        <time>2012-12-08T14:14:48Z</time>
      </trkpt>
      <trkpt lat="45.79586" lon="4.65837">
        <ele>445</ele>
        <time>2012-12-08T14:14:50Z</time>
      </trkpt>
      <trkpt lat="45.79585" lon="4.65836">
        <ele>445</ele>
        <time>2012-12-08T14:14:51Z</time>
      </trkpt>
      <trkpt lat="45.79584" lon="4.65835">
        <ele>445</ele>
        <time>2012-12-08T14:14:52Z</time>
      </trkpt>
      <trkpt lat="45.79572" lon="4.6583">
        <ele>446</ele>
        <time>2012-12-08T14:15:00Z</time>
      </trkpt>
      <trkpt lat="45.79561" lon="4.65826">
        <ele>447</ele>
        <time>2012-12-08T14:15:07Z</time>
      </trkpt>
      <trkpt lat="45.79552" lon="4.65822">
        <ele>448</ele>
        <time>2012-12-08T14:15:13Z</time>
      </trkpt>
      <trkpt lat="45.79549" lon="4.6582">
        <ele>448</ele>
        <time>2012-12-08T14:15:15Z</time>
      </trkpt>
      <trkpt lat="45.79548" lon="4.65819">
        <ele>448</ele>
        <time>2012-12-08T14:15:16Z</time>
      </trkpt>
      <trkpt lat="45.79546" lon="4.65818">
        <ele>449</ele>
        <time>2012-12-08T14:15:17Z</time>
      </trkpt>
      <trkpt lat="45.79545" lon="4.65817">
        <ele>448</ele>
        <time>2012-12-08T14:15:18Z</time>
      </trkpt>
      <trkpt lat="45.79544" lon="4.65817">
        <ele>448</ele>
        <time>2012-12-08T14:15:19Z</time>
      </trkpt>
      <trkpt lat="45.7954" lon="4.65813">
        <ele>449</ele>
        <time>2012-12-08T14:15:22Z</time>
      </trkpt>
      <trkpt lat="45.79538" lon="4.65812">
        <ele>449</ele>
        <time>2012-12-08T14:15:23Z</time>
      </trkpt>
      <trkpt lat="45.79537" lon="4.65811">
        <ele>449</ele>
        <time>2012-12-08T14:15:24Z</time>
      </trkpt>
      <trkpt lat="45.79535" lon="4.6581">
        <ele>449</ele>
        <time>2012-12-08T14:15:25Z</time>
      </trkpt>
      <trkpt lat="45.79533" lon="4.65809">
        <ele>450</ele>
        <time>2012-12-08T14:15:26Z</time>
      </trkpt>
      <trkpt lat="45.79531" lon="4.65808">
        <ele>449</ele>
        <time>2012-12-08T14:15:27Z</time>
      </trkpt>
      <trkpt lat="45.79529" lon="4.65807">
        <ele>450</ele>
        <time>2012-12-08T14:15:28Z</time>
      </trkpt>
      <trkpt lat="45.79528" lon="4.65806">
        <ele>450</ele>
        <time>2012-12-08T14:15:29Z</time>
      </trkpt>
      <trkpt lat="45.79526" lon="4.65805">
        <ele>450</ele>
        <time>2012-12-08T14:15:30Z</time>
      </trkpt>
      <trkpt lat="45.79515" lon="4.65798">
        <ele>451</ele>
        <time>2012-12-08T14:15:37Z</time>
      </trkpt>
      <trkpt lat="45.79506" lon="4.65792">
        <ele>451</ele>
        <time>2012-12-08T14:15:44Z</time>
      </trkpt>
      <trkpt lat="45.79495" lon="4.65785">
        <ele>452</ele>
        <time>2012-12-08T14:15:51Z</time>
      </trkpt>
      <trkpt lat="45.7948" lon="4.65776">
        <ele>454</ele>
        <time>2012-12-08T14:16:01Z</time>
      </trkpt>
      <trkpt lat="45.79479" lon="4.65776">
        <ele>454</ele>
        <time>2012-12-08T14:16:02Z</time>
      </trkpt>
      <trkpt lat="45.79475" lon="4.65775">
        <ele>454</ele>
        <time>2012-12-08T14:16:04Z</time>
      </trkpt>
      <trkpt lat="45.79474" lon="4.65774">
        <ele>454</ele>
        <time>2012-12-08T14:16:05Z</time>
      </trkpt>
      <trkpt lat="45.79462" lon="4.65769">
        <ele>456</ele>
        <time>2012-12-08T14:16:13Z</time>
      </trkpt>
      <trkpt lat="45.79453" lon="4.65767">
        <ele>457</ele>
        <time>2012-12-08T14:16:20Z</time>
      </trkpt>
      <trkpt lat="45.79441" lon="4.65765">
        <ele>459</ele>
        <time>2012-12-08T14:16:27Z</time>
      </trkpt>
      <trkpt lat="45.79431" lon="4.65763">
        <ele>460</ele>
        <time>2012-12-08T14:16:34Z</time>
      </trkpt>
      <trkpt lat="45.7942" lon="4.65761">
        <ele>462</ele>
        <time>2012-12-08T14:16:41Z</time>
      </trkpt>
      <trkpt lat="45.7941" lon="4.65758">
        <ele>463</ele>
        <time>2012-12-08T14:16:48Z</time>
      </trkpt>
      <trkpt lat="45.79396" lon="4.65755">
        <ele>465</ele>
        <time>2012-12-08T14:16:57Z</time>
      </trkpt>
      <trkpt lat="45.79387" lon="4.65753">
        <ele>465</ele>
        <time>2012-12-08T14:17:03Z</time>
      </trkpt>
      <trkpt lat="45.79386" lon="4.65752">
        <ele>466</ele>
        <time>2012-12-08T14:17:11Z</time>
      </trkpt>
      <trkpt lat="45.79386" lon="4.65754">
        <ele>465</ele>
        <time>2012-12-08T14:17:25Z</time>
      </trkpt>
      <trkpt lat="45.79385" lon="4.65753">
        <ele>465</ele>
        <time>2012-12-08T14:17:35Z</time>
      </trkpt>
      <trkpt lat="45.79378" lon="4.65752">
        <ele>466</ele>
        <time>2012-12-08T14:17:42Z</time>
      </trkpt>
      <trkpt lat="45.79364" lon="4.65749">
        <ele>467</ele>
        <time>2012-12-08T14:17:51Z</time>
      </trkpt>
      <trkpt lat="45.79353" lon="4.65748">
        <ele>468</ele>
        <time>2012-12-08T14:17:59Z</time>
      </trkpt>
      <trkpt lat="45.79348" lon="4.65747">
        <ele>470</ele>
        <time>2012-12-08T14:18:02Z</time>
      </trkpt>
      <trkpt lat="45.79334" lon="4.6575">
        <ele>471</ele>
        <time>2012-12-08T14:18:11Z</time>
      </trkpt>
      <trkpt lat="45.79322" lon="4.65751">
        <ele>473</ele>
        <time>2012-12-08T14:18:19Z</time>
      </trkpt>
      <trkpt lat="45.79309" lon="4.65752">
        <ele>475</ele>
        <time>2012-12-08T14:18:27Z</time>
      </trkpt>
      <trkpt lat="45.79305" lon="4.65752">
        <ele>475</ele>
        <time>2012-12-08T14:18:30Z</time>
      </trkpt>
      <trkpt lat="45.79294" lon="4.65754">
        <ele>477</ele>
        <time>2012-12-08T14:18:37Z</time>
      </trkpt>
      <trkpt lat="45.79289" lon="4.65754">
        <ele>477</ele>
        <time>2012-12-08T14:18:41Z</time>
      </trkpt>
      <trkpt lat="45.79288" lon="4.65755">
        <ele>478</ele>
        <time>2012-12-08T14:18:42Z</time>
      </trkpt>
      <trkpt lat="45.79286" lon="4.65755">
        <ele>478</ele>
        <time>2012-12-08T14:18:43Z</time>
      </trkpt>
      <trkpt lat="45.79285" lon="4.65755">
        <ele>478</ele>
        <time>2012-12-08T14:18:44Z</time>
      </trkpt>
      <trkpt lat="45.79282" lon="4.65755">
        <ele>478</ele>
        <time>2012-12-08T14:18:46Z</time>
      </trkpt>
      <trkpt lat="45.79281" lon="4.65755">
        <ele>478</ele>
        <time>2012-12-08T14:18:47Z</time>
      </trkpt>
      <trkpt lat="45.7927" lon="4.65758">
        <ele>480</ele>
        <time>2012-12-08T14:18:54Z</time>
      </trkpt>
      <trkpt lat="45.79268" lon="4.65758">
        <ele>480</ele>
        <time>2012-12-08T14:18:55Z</time>
      </trkpt>
      <trkpt lat="45.79267" lon="4.65758">
        <ele>480</ele>
        <time>2012-12-08T14:18:56Z</time>
      </trkpt>
      <trkpt lat="45.79265" lon="4.65758">
        <ele>481</ele>
        <time>2012-12-08T14:18:57Z</time>
      </trkpt>
      <trkpt lat="45.79259" lon="4.65759">
        <ele>482</ele>
        <time>2012-12-08T14:19:02Z</time>
      </trkpt>
      <trkpt lat="45.7925" lon="4.65756">
        <ele>484</ele>
        <time>2012-12-08T14:19:09Z</time>
      </trkpt>
      <trkpt lat="45.79243" lon="4.65757">
        <ele>485</ele>
        <time>2012-12-08T14:19:16Z</time>
      </trkpt>
      <trkpt lat="45.79232" lon="4.65754">
        <ele>485</ele>
        <time>2012-12-08T14:19:24Z</time>
      </trkpt>
      <trkpt lat="45.79221" lon="4.6575">
        <ele>486</ele>
        <time>2012-12-08T14:19:30Z</time>
      </trkpt>
      <trkpt lat="45.79209" lon="4.65748">
        <ele>488</ele>
        <time>2012-12-08T14:19:38Z</time>
      </trkpt>
      <trkpt lat="45.79208" lon="4.65748">
        <ele>488</ele>
        <time>2012-12-08T14:19:39Z</time>
      </trkpt>
      <trkpt lat="45.79198" lon="4.65747">
        <ele>489</ele>
        <time>2012-12-08T14:19:46Z</time>
      </trkpt>
      <trkpt lat="45.79189" lon="4.65744">
        <ele>491</ele>
        <time>2012-12-08T14:19:53Z</time>
      </trkpt>
      <trkpt lat="45.79175" lon="4.65744">
        <ele>492</ele>
        <time>2012-12-08T14:20:03Z</time>
      </trkpt>
      <trkpt lat="45.79166" lon="4.65744">
        <ele>495</ele>
        <time>2012-12-08T14:20:10Z</time>
      </trkpt>
      <trkpt lat="45.79165" lon="4.65744">
        <ele>495</ele>
        <time>2012-12-08T14:20:11Z</time>
      </trkpt>
      <trkpt lat="45.79157" lon="4.65741">
        <ele>497</ele>
        <time>2012-12-08T14:20:19Z</time>
      </trkpt>
      <trkpt lat="45.79152" lon="4.65736">
        <ele>499</ele>
        <time>2012-12-08T14:20:25Z</time>
      </trkpt>
      <trkpt lat="45.79142" lon="4.65734">
        <ele>500</ele>
        <time>2012-12-08T14:20:34Z</time>
      </trkpt>
      <trkpt lat="45.79135" lon="4.65733">
        <ele>500</ele>
        <time>2012-12-08T14:20:41Z</time>
      </trkpt>
      <trkpt lat="45.79125" lon="4.65729">
        <ele>501</ele>
        <time>2012-12-08T14:20:49Z</time>
      </trkpt>
      <trkpt lat="45.79114" lon="4.65729">
        <ele>502</ele>
        <time>2012-12-08T14:20:57Z</time>
      </trkpt>
      <trkpt lat="45.79112" lon="4.65729">
        <ele>502</ele>
        <time>2012-12-08T14:20:58Z</time>
      </trkpt>
      <trkpt lat="45.79106" lon="4.65725">
        <ele>503</ele>
        <time>2012-12-08T14:21:04Z</time>
      </trkpt>
      <trkpt lat="45.79105" lon="4.65726">
        <ele>503</ele>
        <time>2012-12-08T14:21:10Z</time>
      </trkpt>
      <trkpt lat="45.79103" lon="4.65725">
        <ele>503</ele>
        <time>2012-12-08T14:21:18Z</time>
      </trkpt>
      <trkpt lat="45.79102" lon="4.65727">
        <ele>503</ele>
        <time>2012-12-08T14:21:26Z</time>
      </trkpt>
      <trkpt lat="45.79101" lon="4.6573">
        <ele>503</ele>
        <time>2012-12-08T14:21:39Z</time>
      </trkpt>
      <trkpt lat="45.791" lon="4.65729">
        <ele>502</ele>
        <time>2012-12-08T14:21:54Z</time>
      </trkpt>
      <trkpt lat="45.791" lon="4.65728">
        <ele>502</ele>
        <time>2012-12-08T14:22:14Z</time>
      </trkpt>
      <trkpt lat="45.791" lon="4.65728">
        <ele>502</ele>
        <time>2012-12-08T14:22:28Z</time>
      </trkpt>
      <trkpt lat="45.79097" lon="4.65721">
        <ele>503</ele>
        <time>2012-12-08T14:22:45Z</time>
      </trkpt>
      <trkpt lat="45.79096" lon="4.65723">
        <ele>502</ele>
        <time>2012-12-08T14:23:04Z</time>
      </trkpt>
      <trkpt lat="45.79097" lon="4.65722">
        <ele>503</ele>
        <time>2012-12-08T14:23:26Z</time>
      </trkpt>
      <trkpt lat="45.79096" lon="4.65726">
        <ele>503</ele>
        <time>2012-12-08T14:23:42Z</time>
      </trkpt>
      <trkpt lat="45.79096" lon="4.65734">
        <ele>503</ele>
        <time>2012-12-08T14:24:04Z</time>
      </trkpt>
      <trkpt lat="45.79098" lon="4.65738">
        <ele>503</ele>
        <time>2012-12-08T14:24:24Z</time>
      </trkpt>
      <trkpt lat="45.79095" lon="4.65738">
        <ele>503</ele>
        <time>2012-12-08T14:24:41Z</time>
      </trkpt>
      <trkpt lat="45.79097" lon="4.65735">
        <ele>503</ele>
        <time>2012-12-08T14:24:59Z</time>
      </trkpt>
      <trkpt lat="45.79099" lon="4.65732">
        <ele>503</ele>
        <time>2012-12-08T14:25:12Z</time>
      </trkpt>
      <trkpt lat="45.79099" lon="4.65734">
        <ele>504</ele>
        <time>2012-12-08T14:25:26Z</time>
      </trkpt>
      <trkpt lat="45.791" lon="4.65727">
        <ele>504</ele>
        <time>2012-12-08T14:25:44Z</time>
      </trkpt>
      <trkpt lat="45.791" lon="4.65724">
        <ele>504</ele>
        <time>2012-12-08T14:26:02Z</time>
      </trkpt>
      <trkpt lat="45.79098" lon="4.65722">
        <ele>504</ele>
        <time>2012-12-08T14:26:26Z</time>
      </trkpt>
      <trkpt lat="45.79098" lon="4.65726">
        <ele>504</ele>
        <time>2012-12-08T14:26:42Z</time>
      </trkpt>
      <trkpt lat="45.79096" lon="4.65724">
        <ele>504</ele>
        <time>2012-12-08T14:26:57Z</time>
      </trkpt>
      <trkpt lat="45.79098" lon="4.65723">
        <ele>504</ele>
        <time>2012-12-08T14:27:14Z</time>
      </trkpt>
      <trkpt lat="45.79099" lon="4.65723">
        <ele>504</ele>
        <time>2012-12-08T14:27:33Z</time>
      </trkpt>
      <trkpt lat="45.79099" lon="4.65726">
        <ele>504</ele>
        <time>2012-12-08T14:27:51Z</time>
      </trkpt>
      <trkpt lat="45.79099" lon="4.65726">
        <ele>504</ele>
        <time>2012-12-08T14:28:10Z</time>
      </trkpt>
      <trkpt lat="45.79098" lon="4.65724">
        <ele>504</ele>
        <time>2012-12-08T14:28:27Z</time>
      </trkpt>
      <trkpt lat="45.79095" lon="4.65725">
        <ele>504</ele>
        <time>2012-12-08T14:28:45Z</time>
      </trkpt>
      <trkpt lat="45.79094" lon="4.65721">
        <ele>505</ele>
        <time>2012-12-08T14:29:10Z</time>
      </trkpt>
      <trkpt lat="45.79097" lon="4.65722">
        <ele>505</ele>
        <time>2012-12-08T14:29:22Z</time>
      </trkpt>
      <trkpt lat="45.79099" lon="4.65727">
        <ele>505</ele>
        <time>2012-12-08T14:29:37Z</time>
      </trkpt>
      <trkpt lat="45.79099" lon="4.65729">
        <ele>505</ele>
        <time>2012-12-08T14:29:55Z</time>
      </trkpt>
      <trkpt lat="45.79099" lon="4.65726">
        <ele>505</ele>
        <time>2012-12-08T14:30:13Z</time>
      </trkpt>
      <trkpt lat="45.791" lon="4.65724">
        <ele>505</ele>
        <time>2012-12-08T14:30:28Z</time>
      </trkpt>
      <trkpt lat="45.79101" lon="4.65724">
        <ele>505</ele>
        <time>2012-12-08T14:30:47Z</time>
      </trkpt>
      <trkpt lat="45.79102" lon="4.65723">
        <ele>505</ele>
        <time>2012-12-08T14:31:08Z</time>
      </trkpt>
      <trkpt lat="45.791" lon="4.65724">
        <ele>505</ele>
        <time>2012-12-08T14:31:24Z</time>
      </trkpt>
      <trkpt lat="45.79099" lon="4.65726">
        <ele>505</ele>
        <time>2012-12-08T14:31:26Z</time>
      </trkpt>
      <trkpt lat="45.79097" lon="4.65728">
        <ele>505</ele>
        <time>2012-12-08T14:31:27Z</time>
      </trkpt>
      <trkpt lat="45.79095" lon="4.65728">
        <ele>504</ele>
        <time>2012-12-08T14:31:28Z</time>
      </trkpt>
      <trkpt lat="45.79093" lon="4.65729">
        <ele>506</ele>
        <time>2012-12-08T14:31:29Z</time>
      </trkpt>
      <trkpt lat="45.79091" lon="4.65729">
        <ele>505</ele>
        <time>2012-12-08T14:31:30Z</time>
      </trkpt>
      <trkpt lat="45.79078" lon="4.65735">
        <ele>505</ele>
        <time>2012-12-08T14:31:36Z</time>
      </trkpt>
      <trkpt lat="45.79062" lon="4.65739">
        <ele>505</ele>
        <time>2012-12-08T14:31:43Z</time>
      </trkpt>
      <trkpt lat="45.79045" lon="4.65745">
        <ele>503</ele>
        <time>2012-12-08T14:31:50Z</time>
      </trkpt>
      <trkpt lat="45.79014" lon="4.65763">
        <ele>501</ele>
        <time>2012-12-08T14:31:57Z</time>
      </trkpt>
      <trkpt lat="45.79009" lon="4.65765">
        <ele>500</ele>
        <time>2012-12-08T14:31:58Z</time>
      </trkpt>
      <trkpt lat="45.78994" lon="4.6577">
        <ele>498</ele>
        <time>2012-12-08T14:32:01Z</time>
      </trkpt>
      <trkpt lat="45.7899" lon="4.65773">
        <ele>498</ele>
        <time>2012-12-08T14:32:02Z</time>
      </trkpt>
      <trkpt lat="45.78985" lon="4.65777">
        <ele>497</ele>
        <time>2012-12-08T14:32:03Z</time>
      </trkpt>
      <trkpt lat="45.7898" lon="4.65781">
        <ele>496</ele>
        <time>2012-12-08T14:32:04Z</time>
      </trkpt>
      <trkpt lat="45.78975" lon="4.65785">
        <ele>495</ele>
        <time>2012-12-08T14:32:05Z</time>
      </trkpt>
      <trkpt lat="45.78957" lon="4.65793">
        <ele>492</ele>
        <time>2012-12-08T14:32:09Z</time>
      </trkpt>
      <trkpt lat="45.78942" lon="4.658">
        <ele>489</ele>
        <time>2012-12-08T14:32:13Z</time>
      </trkpt>
      <trkpt lat="45.78938" lon="4.65803">
        <ele>488</ele>
        <time>2012-12-08T14:32:14Z</time>
      </trkpt>
      <trkpt lat="45.78934" lon="4.65807">
        <ele>488</ele>
        <time>2012-12-08T14:32:15Z</time>
      </trkpt>
      <trkpt lat="45.78921" lon="4.65825">
        <ele>484</ele>
        <time>2012-12-08T14:32:19Z</time>
      </trkpt>
      <trkpt lat="45.7891" lon="4.65843">
        <ele>483</ele>
        <time>2012-12-08T14:32:23Z</time>
      </trkpt>
      <trkpt lat="45.78894" lon="4.65875">
        <ele>480</ele>
        <time>2012-12-08T14:32:30Z</time>
      </trkpt>
      <trkpt lat="45.7889" lon="4.65887">
        <ele>479</ele>
        <time>2012-12-08T14:32:32Z</time>
      </trkpt>
      <trkpt lat="45.78888" lon="4.65892">
        <ele>478</ele>
        <time>2012-12-08T14:32:33Z</time>
      </trkpt>
      <trkpt lat="45.78887" lon="4.65897">
        <ele>478</ele>
        <time>2012-12-08T14:32:34Z</time>
      </trkpt>
      <trkpt lat="45.78887" lon="4.65901">
        <ele>477</ele>
        <time>2012-12-08T14:32:35Z</time>
      </trkpt>
      <trkpt lat="45.78887" lon="4.65904">
        <ele>477</ele>
        <time>2012-12-08T14:32:36Z</time>
      </trkpt>
      <trkpt lat="45.78886" lon="4.65907">
        <ele>476</ele>
        <time>2012-12-08T14:32:37Z</time>
      </trkpt>
      <trkpt lat="45.78884" lon="4.65912">
        <ele>476</ele>
        <time>2012-12-08T14:32:38Z</time>
      </trkpt>
      <trkpt lat="45.78883" lon="4.65916">
        <ele>475</ele>
        <time>2012-12-08T14:32:39Z</time>
      </trkpt>
      <trkpt lat="45.7888" lon="4.6592">
        <ele>474</ele>
        <time>2012-12-08T14:32:40Z</time>
      </trkpt>
      <trkpt lat="45.78877" lon="4.65927">
        <ele>474</ele>
        <time>2012-12-08T14:32:41Z</time>
      </trkpt>
      <trkpt lat="45.78868" lon="4.65953">
        <ele>471</ele>
        <time>2012-12-08T14:32:45Z</time>
      </trkpt>
      <trkpt lat="45.78862" lon="4.65962">
        <ele>470</ele>
        <time>2012-12-08T14:32:47Z</time>
      </trkpt>
      <trkpt lat="45.7886" lon="4.65976">
        <ele>468</ele>
        <time>2012-12-08T14:32:52Z</time>
      </trkpt>
      <trkpt lat="45.78855" lon="4.65992">
        <ele>467</ele>
        <time>2012-12-08T14:32:57Z</time>
      </trkpt>
      <trkpt lat="45.78846" lon="4.6602">
        <ele>465</ele>
        <time>2012-12-08T14:33:05Z</time>
      </trkpt>
      <trkpt lat="45.78845" lon="4.66023">
        <ele>465</ele>
        <time>2012-12-08T14:33:06Z</time>
      </trkpt>
      <trkpt lat="45.78839" lon="4.66029">
        <ele>462</ele>
        <time>2012-12-08T14:33:10Z</time>
      </trkpt>
      <trkpt lat="45.78837" lon="4.6603">
        <ele>462</ele>
        <time>2012-12-08T14:33:11Z</time>
      </trkpt>
      <trkpt lat="45.78822" lon="4.66041">
        <ele>458</ele>
        <time>2012-12-08T14:33:17Z</time>
      </trkpt>
      <trkpt lat="45.7882" lon="4.66043">
        <ele>457</ele>
        <time>2012-12-08T14:33:18Z</time>
      </trkpt>
      <trkpt lat="45.78807" lon="4.66055">
        <ele>454</ele>
        <time>2012-12-08T14:33:23Z</time>
      </trkpt>
      <trkpt lat="45.78797" lon="4.66062">
        <ele>451</ele>
        <time>2012-12-08T14:33:28Z</time>
      </trkpt>
      <trkpt lat="45.78794" lon="4.66066">
        <ele>451</ele>
        <time>2012-12-08T14:33:30Z</time>
      </trkpt>
      <trkpt lat="45.78777" lon="4.66078">
        <ele>448</ele>
        <time>2012-12-08T14:33:37Z</time>
      </trkpt>
      <trkpt lat="45.78772" lon="4.6609">
        <ele>447</ele>
        <time>2012-12-08T14:33:40Z</time>
      </trkpt>
      <trkpt lat="45.78772" lon="4.66111">
        <ele>445</ele>
        <time>2012-12-08T14:33:45Z</time>
      </trkpt>
      <trkpt lat="45.78766" lon="4.66125">
        <ele>442</ele>
        <time>2012-12-08T14:33:49Z</time>
      </trkpt>
      <trkpt lat="45.78754" lon="4.66143">
        <ele>440</ele>
        <time>2012-12-08T14:33:55Z</time>
      </trkpt>
      <trkpt lat="45.78735" lon="4.66152">
        <ele>438</ele>
        <time>2012-12-08T14:34:00Z</time>
      </trkpt>
      <trkpt lat="45.78717" lon="4.66156">
        <ele>436</ele>
        <time>2012-12-08T14:34:06Z</time>
      </trkpt>
      <trkpt lat="45.78715" lon="4.66157">
        <ele>436</ele>
        <time>2012-12-08T14:34:13Z</time>
      </trkpt>
      <trkpt lat="45.78715" lon="4.66158">
        <ele>436</ele>
        <time>2012-12-08T14:34:24Z</time>
      </trkpt>
      <trkpt lat="45.78718" lon="4.66156">
        <ele>436</ele>
        <time>2012-12-08T14:34:32Z</time>
      </trkpt>
      <trkpt lat="45.7872" lon="4.66157">
        <ele>437</ele>
        <time>2012-12-08T14:34:40Z</time>
      </trkpt>
      <trkpt lat="45.78719" lon="4.6616">
        <ele>437</ele>
        <time>2012-12-08T14:34:49Z</time>
      </trkpt>
      <trkpt lat="45.78715" lon="4.66161">
        <ele>436</ele>
        <time>2012-12-08T14:34:53Z</time>
      </trkpt>
      <trkpt lat="45.78711" lon="4.66163">
        <ele>436</ele>
        <time>2012-12-08T14:34:59Z</time>
      </trkpt>
      <trkpt lat="45.78704" lon="4.66166">
        <ele>434</ele>
        <time>2012-12-08T14:35:07Z</time>
      </trkpt>
      <trkpt lat="45.78704" lon="4.66167">
        <ele>433</ele>
        <time>2012-12-08T14:35:16Z</time>
      </trkpt>
      <trkpt lat="45.78695" lon="4.66167">
        <ele>432</ele>
        <time>2012-12-08T14:35:22Z</time>
      </trkpt>
      <trkpt lat="45.78691" lon="4.66164">
        <ele>431</ele>
        <time>2012-12-08T14:35:25Z</time>
      </trkpt>
      <trkpt lat="45.78679" lon="4.6617">
        <ele>429</ele>
        <time>2012-12-08T14:35:32Z</time>
      </trkpt>
      <trkpt lat="45.78665" lon="4.66178">
        <ele>427</ele>
        <time>2012-12-08T14:35:39Z</time>
      </trkpt>
      <trkpt lat="45.78653" lon="4.66188">
        <ele>425</ele>
        <time>2012-12-08T14:35:45Z</time>
      </trkpt>
      <trkpt lat="45.78638" lon="4.662">
        <ele>424</ele>
        <time>2012-12-08T14:35:52Z</time>
      </trkpt>
      <trkpt lat="45.78629" lon="4.66205">
        <ele>423</ele>
        <time>2012-12-08T14:35:56Z</time>
      </trkpt>
      <trkpt lat="45.78627" lon="4.66207">
        <ele>423</ele>
        <time>2012-12-08T14:35:57Z</time>
      </trkpt>
      <trkpt lat="45.78625" lon="4.66209">
        <ele>423</ele>
        <time>2012-12-08T14:35:58Z</time>
      </trkpt>
      <trkpt lat="45.78624" lon="4.66211">
        <ele>422</ele>
        <time>2012-12-08T14:35:59Z</time>
      </trkpt>
      <trkpt lat="45.78621" lon="4.66214">
        <ele>421</ele>
        <time>2012-12-08T14:36:00Z</time>
      </trkpt>
      <trkpt lat="45.7862" lon="4.66217">
        <ele>421</ele>
        <time>2012-12-08T14:36:01Z</time>
      </trkpt>
      <trkpt lat="45.78619" lon="4.6622">
        <ele>421</ele>
        <time>2012-12-08T14:36:02Z</time>
      </trkpt>
      <trkpt lat="45.78617" lon="4.66224">
        <ele>421</ele>
        <time>2012-12-08T14:36:03Z</time>
      </trkpt>
      <trkpt lat="45.78609" lon="4.6624">
        <ele>419</ele>
        <time>2012-12-08T14:36:08Z</time>
      </trkpt>
      <trkpt lat="45.78604" lon="4.66256">
        <ele>417</ele>
        <time>2012-12-08T14:36:13Z</time>
      </trkpt>
      <trkpt lat="45.78594" lon="4.66281">
        <ele>414</ele>
        <time>2012-12-08T14:36:20Z</time>
      </trkpt>
      <trkpt lat="45.78588" lon="4.66294">
        <ele>413</ele>
        <time>2012-12-08T14:36:25Z</time>
      </trkpt>
      <trkpt lat="45.78582" lon="4.66315">
        <ele>410</ele>
        <time>2012-12-08T14:36:30Z</time>
      </trkpt>
      <trkpt lat="45.78576" lon="4.66333">
        <ele>408</ele>
        <time>2012-12-08T14:36:34Z</time>
      </trkpt>
      <trkpt lat="45.78573" lon="4.66342">
        <ele>406</ele>
        <time>2012-12-08T14:36:36Z</time>
      </trkpt>
      <trkpt lat="45.78568" lon="4.66364">
        <ele>403</ele>
        <time>2012-12-08T14:36:41Z</time>
      </trkpt>
      <trkpt lat="45.78567" lon="4.66387">
        <ele>401</ele>
        <time>2012-12-08T14:36:46Z</time>
      </trkpt>
      <trkpt lat="45.78565" lon="4.6639">
        <ele>401</ele>
        <time>2012-12-08T14:36:47Z</time>
      </trkpt>
      <trkpt lat="45.78563" lon="4.66392">
        <ele>401</ele>
        <time>2012-12-08T14:36:48Z</time>
      </trkpt>
      <trkpt lat="45.78548" lon="4.66402">
        <ele>400</ele>
        <time>2012-12-08T14:36:55Z</time>
      </trkpt>
      <trkpt lat="45.78531" lon="4.66406">
        <ele>399</ele>
        <time>2012-12-08T14:37:02Z</time>
      </trkpt>
      <trkpt lat="45.78514" lon="4.66421">
        <ele>398</ele>
        <time>2012-12-08T14:37:09Z</time>
      </trkpt>
      <trkpt lat="45.78496" lon="4.66437">
        <ele>399</ele>
        <time>2012-12-08T14:37:17Z</time>
      </trkpt>
      <trkpt lat="45.78468" lon="4.66465">
        <ele>399</ele>
        <time>2012-12-08T14:37:27Z</time>
      </trkpt>
      <trkpt lat="45.78437" lon="4.66495">
        <ele>401</ele>
        <time>2012-12-08T14:37:38Z</time>
      </trkpt>
      <trkpt lat="45.78412" lon="4.66517">
        <ele>401</ele>
        <time>2012-12-08T14:37:47Z</time>
      </trkpt>
      <trkpt lat="45.7839" lon="4.66543">
        <ele>403</ele>
        <time>2012-12-08T14:37:56Z</time>
      </trkpt>
      <trkpt lat="45.78375" lon="4.66566">
        <ele>405</ele>
        <time>2012-12-08T14:38:04Z</time>
      </trkpt>
      <trkpt lat="45.78362" lon="4.6659">
        <ele>406</ele>
        <time>2012-12-08T14:38:12Z</time>
      </trkpt>
      <trkpt lat="45.78346" lon="4.66619">
        <ele>407</ele>
        <time>2012-12-08T14:38:22Z</time>
      </trkpt>
      <trkpt lat="45.78332" lon="4.66648">
        <ele>408</ele>
        <time>2012-12-08T14:38:31Z</time>
      </trkpt>
      <trkpt lat="45.78332" lon="4.66656">
        <ele>408</ele>
        <time>2012-12-08T14:38:35Z</time>
      </trkpt>
      <trkpt lat="45.78333" lon="4.6666">
        <ele>408</ele>
        <time>2012-12-08T14:38:36Z</time>
      </trkpt>
      <trkpt lat="45.78334" lon="4.66664">
        <ele>408</ele>
        <time>2012-12-08T14:38:37Z</time>
      </trkpt>
      <trkpt lat="45.78336" lon="4.66668">
        <ele>407</ele>
        <time>2012-12-08T14:38:38Z</time>
      </trkpt>
      <trkpt lat="45.78338" lon="4.66672">
        <ele>406</ele>
        <time>2012-12-08T14:38:39Z</time>
      </trkpt>
      <trkpt lat="45.7834" lon="4.66676">
        <ele>405</ele>
        <time>2012-12-08T14:38:40Z</time>
      </trkpt>
      <trkpt lat="45.78345" lon="4.66686">
        <ele>403</ele>
        <time>2012-12-08T14:38:42Z</time>
      </trkpt>
      <trkpt lat="45.78346" lon="4.66691">
        <ele>402</ele>
        <time>2012-12-08T14:38:43Z</time>
      </trkpt>
      <trkpt lat="45.78352" lon="4.66715">
        <ele>399</ele>
        <time>2012-12-08T14:38:48Z</time>
      </trkpt>
      <trkpt lat="45.78353" lon="4.66723">
        <ele>398</ele>
        <time>2012-12-08T14:38:50Z</time>
      </trkpt>
      <trkpt lat="45.78358" lon="4.6675">
        <ele>395</ele>
        <time>2012-12-08T14:38:55Z</time>
      </trkpt>
      <trkpt lat="45.78362" lon="4.66777">
        <ele>393</ele>
        <time>2012-12-08T14:39:01Z</time>
      </trkpt>
      <trkpt lat="45.78364" lon="4.66798">
        <ele>390</ele>
        <time>2012-12-08T14:39:07Z</time>
      </trkpt>
      <trkpt lat="45.78368" lon="4.66826">
        <ele>388</ele>
        <time>2012-12-08T14:39:13Z</time>
      </trkpt>
      <trkpt lat="45.78371" lon="4.66847">
        <ele>387</ele>
        <time>2012-12-08T14:39:19Z</time>
      </trkpt>
      <trkpt lat="45.78373" lon="4.66875">
        <ele>385</ele>
        <time>2012-12-08T14:39:25Z</time>
      </trkpt>
      <trkpt lat="45.78373" lon="4.66901">
        <ele>382</ele>
        <time>2012-12-08T14:39:31Z</time>
      </trkpt>
      <trkpt lat="45.78375" lon="4.66922">
        <ele>378</ele>
        <time>2012-12-08T14:39:36Z</time>
      </trkpt>
      <trkpt lat="45.78377" lon="4.66934">
        <ele>376</ele>
        <time>2012-12-08T14:39:39Z</time>
      </trkpt>
      <trkpt lat="45.78382" lon="4.66958">
        <ele>374</ele>
        <time>2012-12-08T14:39:45Z</time>
      </trkpt>
      <trkpt lat="45.78386" lon="4.66975">
        <ele>371</ele>
        <time>2012-12-08T14:39:49Z</time>
      </trkpt>
      <trkpt lat="45.7839" lon="4.66987">
        <ele>369</ele>
        <time>2012-12-08T14:39:52Z</time>
      </trkpt>
      <trkpt lat="45.78391" lon="4.66994">
        <ele>368</ele>
        <time>2012-12-08T14:39:54Z</time>
      </trkpt>
      <trkpt lat="45.78394" lon="4.67007">
        <ele>366</ele>
        <time>2012-12-08T14:39:58Z</time>
      </trkpt>
      <trkpt lat="45.78393" lon="4.67011">
        <ele>366</ele>
        <time>2012-12-08T14:39:59Z</time>
      </trkpt>
      <trkpt lat="45.78393" lon="4.67013">
        <ele>365</ele>
        <time>2012-12-08T14:40:00Z</time>
      </trkpt>
      <trkpt lat="45.78393" lon="4.67016">
        <ele>365</ele>
        <time>2012-12-08T14:40:01Z</time>
      </trkpt>
      <trkpt lat="45.78394" lon="4.67019">
        <ele>364</ele>
        <time>2012-12-08T14:40:02Z</time>
      </trkpt>
      <trkpt lat="45.78393" lon="4.67023">
        <ele>364</ele>
        <time>2012-12-08T14:40:03Z</time>
      </trkpt>
      <trkpt lat="45.78393" lon="4.67027">
        <ele>363</ele>
        <time>2012-12-08T14:40:04Z</time>
      </trkpt>
      <trkpt lat="45.78392" lon="4.67031">
        <ele>363</ele>
        <time>2012-12-08T14:40:05Z</time>
      </trkpt>
      <trkpt lat="45.7839" lon="4.67052">
        <ele>360</ele>
        <time>2012-12-08T14:40:11Z</time>
      </trkpt>
      <trkpt lat="45.78394" lon="4.67072">
        <ele>358</ele>
        <time>2012-12-08T14:40:18Z</time>
      </trkpt>
      <trkpt lat="45.78395" lon="4.67074">
        <ele>358</ele>
        <time>2012-12-08T14:40:19Z</time>
      </trkpt>
      <trkpt lat="45.78396" lon="4.67075">
        <ele>358</ele>
        <time>2012-12-08T14:40:20Z</time>
      </trkpt>
      <trkpt lat="45.78398" lon="4.67078">
        <ele>358</ele>
        <time>2012-12-08T14:40:21Z</time>
      </trkpt>
      <trkpt lat="45.78398" lon="4.6708">
        <ele>358</ele>
        <time>2012-12-08T14:40:22Z</time>
      </trkpt>
      <trkpt lat="45.78402" lon="4.67089">
        <ele>358</ele>
        <time>2012-12-08T14:40:29Z</time>
      </trkpt>
      <trkpt lat="45.78403" lon="4.67091">
        <ele>358</ele>
        <time>2012-12-08T14:40:37Z</time>
      </trkpt>
      <trkpt lat="45.78404" lon="4.67092">
        <ele>358</ele>
        <time>2012-12-08T14:40:38Z</time>
      </trkpt>
      <trkpt lat="45.78404" lon="4.67094">
        <ele>358</ele>
        <time>2012-12-08T14:40:39Z</time>
      </trkpt>
      <trkpt lat="45.78404" lon="4.67096">
        <ele>358</ele>
        <time>2012-12-08T14:40:40Z</time>
      </trkpt>
      <trkpt lat="45.78405" lon="4.67099">
        <ele>358</ele>
        <time>2012-12-08T14:40:41Z</time>
      </trkpt>
      <trkpt lat="45.78406" lon="4.67101">
        <ele>358</ele>
        <time>2012-12-08T14:40:42Z</time>
      </trkpt>
      <trkpt lat="45.78408" lon="4.67108">
        <ele>358</ele>
        <time>2012-12-08T14:40:45Z</time>
      </trkpt>
      <trkpt lat="45.78409" lon="4.67111">
        <ele>358</ele>
        <time>2012-12-08T14:40:46Z</time>
      </trkpt>
      <trkpt lat="45.78409" lon="4.67114">
        <ele>358</ele>
        <time>2012-12-08T14:40:47Z</time>
      </trkpt>
      <trkpt lat="45.78416" lon="4.67136">
        <ele>357</ele>
        <time>2012-12-08T14:40:55Z</time>
      </trkpt>
      <trkpt lat="45.78424" lon="4.6716">
        <ele>357</ele>
        <time>2012-12-08T14:41:04Z</time>
      </trkpt>
      <trkpt lat="45.7843" lon="4.67176">
        <ele>357</ele>
        <time>2012-12-08T14:41:11Z</time>
      </trkpt>
      <trkpt lat="45.7843" lon="4.67185">
        <ele>357</ele>
        <time>2012-12-08T14:41:14Z</time>
      </trkpt>
      <trkpt lat="45.7843" lon="4.67189">
        <ele>357</ele>
        <time>2012-12-08T14:41:15Z</time>
      </trkpt>
      <trkpt lat="45.78426" lon="4.67204">
        <ele>356</ele>
        <time>2012-12-08T14:41:21Z</time>
      </trkpt>
      <trkpt lat="45.78427" lon="4.67206">
        <ele>357</ele>
        <time>2012-12-08T14:41:22Z</time>
      </trkpt>
      <trkpt lat="45.78427" lon="4.67208">
        <ele>356</ele>
        <time>2012-12-08T14:41:23Z</time>
      </trkpt>
      <trkpt lat="45.78429" lon="4.6721">
        <ele>357</ele>
        <time>2012-12-08T14:41:24Z</time>
      </trkpt>
      <trkpt lat="45.7843" lon="4.67212">
        <ele>357</ele>
        <time>2012-12-08T14:41:25Z</time>
      </trkpt>
      <trkpt lat="45.78432" lon="4.67215">
        <ele>357</ele>
        <time>2012-12-08T14:41:26Z</time>
      </trkpt>
      <trkpt lat="45.78432" lon="4.67218">
        <ele>357</ele>
        <time>2012-12-08T14:41:27Z</time>
      </trkpt>
      <trkpt lat="45.78433" lon="4.67221">
        <ele>357</ele>
        <time>2012-12-08T14:41:28Z</time>
      </trkpt>
      <trkpt lat="45.78435" lon="4.67224">
        <ele>357</ele>
        <time>2012-12-08T14:41:29Z</time>
      </trkpt>
      <trkpt lat="45.78442" lon="4.67249">
        <ele>358</ele>
        <time>2012-12-08T14:41:36Z</time>
      </trkpt>
      <trkpt lat="45.78445" lon="4.67267">
        <ele>357</ele>
        <time>2012-12-08T14:41:42Z</time>
      </trkpt>
      <trkpt lat="45.78447" lon="4.67289">
        <ele>357</ele>
        <time>2012-12-08T14:41:48Z</time>
      </trkpt>
      <trkpt lat="45.78447" lon="4.67293">
        <ele>356</ele>
        <time>2012-12-08T14:41:49Z</time>
      </trkpt>
      <trkpt lat="45.78446" lon="4.67298">
        <ele>356</ele>
        <time>2012-12-08T14:41:50Z</time>
      </trkpt>
      <trkpt lat="45.78448" lon="4.67319">
        <ele>356</ele>
        <time>2012-12-08T14:41:55Z</time>
      </trkpt>
      <trkpt lat="45.78452" lon="4.67336">
        <ele>355</ele>
        <time>2012-12-08T14:42:00Z</time>
      </trkpt>
      <trkpt lat="45.78459" lon="4.67363">
        <ele>354</ele>
        <time>2012-12-08T14:42:08Z</time>
      </trkpt>
      <trkpt lat="45.78466" lon="4.67391">
        <ele>353</ele>
        <time>2012-12-08T14:42:14Z</time>
      </trkpt>
      <trkpt lat="45.78477" lon="4.67422">
        <ele>352</ele>
        <time>2012-12-08T14:42:22Z</time>
      </trkpt>
      <trkpt lat="45.78485" lon="4.67446">
        <ele>351</ele>
        <time>2012-12-08T14:42:28Z</time>
      </trkpt>
      <trkpt lat="45.78495" lon="4.67473">
        <ele>351</ele>
        <time>2012-12-08T14:42:35Z</time>
      </trkpt>
      <trkpt lat="45.7851" lon="4.67512">
        <ele>351</ele>
        <time>2012-12-08T14:42:44Z</time>
      </trkpt>
      <trkpt lat="45.78528" lon="4.67544">
        <ele>349</ele>
        <time>2012-12-08T14:42:51Z</time>
      </trkpt>
      <trkpt lat="45.78546" lon="4.6758">
        <ele>348</ele>
        <time>2012-12-08T14:42:58Z</time>
      </trkpt>
      <trkpt lat="45.78557" lon="4.67607">
        <ele>347</ele>
        <time>2012-12-08T14:43:04Z</time>
      </trkpt>
      <trkpt lat="45.7857" lon="4.67635">
        <ele>345</ele>
        <time>2012-12-08T14:43:09Z</time>
      </trkpt>
      <trkpt lat="45.78592" lon="4.67677">
        <ele>344</ele>
        <time>2012-12-08T14:43:17Z</time>
      </trkpt>
      <trkpt lat="45.78606" lon="4.67703">
        <ele>343</ele>
        <time>2012-12-08T14:43:21Z</time>
      </trkpt>
      <trkpt lat="45.78624" lon="4.67731">
        <ele>342</ele>
        <time>2012-12-08T14:43:27Z</time>
      </trkpt>
      <trkpt lat="45.78636" lon="4.6775">
        <ele>341</ele>
        <time>2012-12-08T14:43:32Z</time>
      </trkpt>
      <trkpt lat="45.78639" lon="4.67755">
        <ele>340</ele>
        <time>2012-12-08T14:43:33Z</time>
      </trkpt>
      <trkpt lat="45.78642" lon="4.67761">
        <ele>340</ele>
        <time>2012-12-08T14:43:34Z</time>
      </trkpt>
      <trkpt lat="45.78648" lon="4.67776">
        <ele>339</ele>
        <time>2012-12-08T14:43:36Z</time>
      </trkpt>
      <trkpt lat="45.78657" lon="4.67794">
        <ele>338</ele>
        <time>2012-12-08T14:43:38Z</time>
      </trkpt>
      <trkpt lat="45.78658" lon="4.67802">
        <ele>338</ele>
        <time>2012-12-08T14:43:39Z</time>
      </trkpt>
      <trkpt lat="45.78656" lon="4.67808">
        <ele>338</ele>
        <time>2012-12-08T14:43:40Z</time>
      </trkpt>
      <trkpt lat="45.78654" lon="4.67812">
        <ele>338</ele>
        <time>2012-12-08T14:43:41Z</time>
      </trkpt>
      <trkpt lat="45.78653" lon="4.67816">
        <ele>339</ele>
        <time>2012-12-08T14:43:42Z</time>
      </trkpt>
      <trkpt lat="45.78651" lon="4.6782">
        <ele>338</ele>
        <time>2012-12-08T14:43:43Z</time>
      </trkpt>
      <trkpt lat="45.7865" lon="4.67822">
        <ele>338</ele>
        <time>2012-12-08T14:43:44Z</time>
      </trkpt>
      <trkpt lat="45.7865" lon="4.67834">
        <ele>339</ele>
        <time>2012-12-08T14:43:50Z</time>
      </trkpt>
      <trkpt lat="45.78651" lon="4.67837">
        <ele>339</ele>
        <time>2012-12-08T14:43:52Z</time>
      </trkpt>
      <trkpt lat="45.78656" lon="4.67848">
        <ele>340</ele>
        <time>2012-12-08T14:44:01Z</time>
      </trkpt>
      <trkpt lat="45.78663" lon="4.67858">
        <ele>342</ele>
        <time>2012-12-08T14:44:10Z</time>
      </trkpt>
      <trkpt lat="45.78667" lon="4.67865">
        <ele>343</ele>
        <time>2012-12-08T14:44:16Z</time>
      </trkpt>
      <trkpt lat="45.78666" lon="4.67868">
        <ele>343</ele>
        <time>2012-12-08T14:44:32Z</time>
      </trkpt>
      <trkpt lat="45.78669" lon="4.67868">
        <ele>343</ele>
        <time>2012-12-08T14:44:39Z</time>
      </trkpt>
      <trkpt lat="45.78671" lon="4.67869">
        <ele>343</ele>
        <time>2012-12-08T14:44:40Z</time>
      </trkpt>
      <trkpt lat="45.78672" lon="4.6787">
        <ele>343</ele>
        <time>2012-12-08T14:44:41Z</time>
      </trkpt>
      <trkpt lat="45.78673" lon="4.67871">
        <ele>344</ele>
        <time>2012-12-08T14:44:42Z</time>
      </trkpt>
      <trkpt lat="45.78674" lon="4.67873">
        <ele>344</ele>
        <time>2012-12-08T14:44:43Z</time>
      </trkpt>
      <trkpt lat="45.78675" lon="4.67874">
        <ele>344</ele>
        <time>2012-12-08T14:44:44Z</time>
      </trkpt>
      <trkpt lat="45.78676" lon="4.67876">
        <ele>345</ele>
        <time>2012-12-08T14:44:45Z</time>
      </trkpt>
      <trkpt lat="45.78677" lon="4.67877">
        <ele>345</ele>
        <time>2012-12-08T14:44:46Z</time>
      </trkpt>
      <trkpt lat="45.78678" lon="4.67878">
        <ele>345</ele>
        <time>2012-12-08T14:44:47Z</time>
      </trkpt>
      <trkpt lat="45.78689" lon="4.67894">
        <ele>348</ele>
        <time>2012-12-08T14:44:57Z</time>
      </trkpt>
      <trkpt lat="45.78697" lon="4.67911">
        <ele>350</ele>
        <time>2012-12-08T14:45:08Z</time>
      </trkpt>
      <trkpt lat="45.78702" lon="4.67919">
        <ele>351</ele>
        <time>2012-12-08T14:45:13Z</time>
      </trkpt>
      <trkpt lat="45.78703" lon="4.6792">
        <ele>351</ele>
        <time>2012-12-08T14:45:14Z</time>
      </trkpt>
      <trkpt lat="45.78704" lon="4.67922">
        <ele>351</ele>
        <time>2012-12-08T14:45:15Z</time>
      </trkpt>
      <trkpt lat="45.78705" lon="4.67923">
        <ele>351</ele>
        <time>2012-12-08T14:45:16Z</time>
      </trkpt>
      <trkpt lat="45.78707" lon="4.67924">
        <ele>351</ele>
        <time>2012-12-08T14:45:17Z</time>
      </trkpt>
      <trkpt lat="45.78716" lon="4.67936">
        <ele>353</ele>
        <time>2012-12-08T14:45:26Z</time>
      </trkpt>
      <trkpt lat="45.78724" lon="4.6795">
        <ele>355</ele>
        <time>2012-12-08T14:45:36Z</time>
      </trkpt>
      <trkpt lat="45.78729" lon="4.67956">
        <ele>357</ele>
        <time>2012-12-08T14:45:41Z</time>
      </trkpt>
      <trkpt lat="45.78731" lon="4.67957">
        <ele>356</ele>
        <time>2012-12-08T14:45:42Z</time>
      </trkpt>
      <trkpt lat="45.78732" lon="4.67958">
        <ele>357</ele>
        <time>2012-12-08T14:45:43Z</time>
      </trkpt>
      <trkpt lat="45.78742" lon="4.67969">
        <ele>358</ele>
        <time>2012-12-08T14:45:52Z</time>
      </trkpt>
      <trkpt lat="45.78752" lon="4.67981">
        <ele>360</ele>
        <time>2012-12-08T14:46:02Z</time>
      </trkpt>
      <trkpt lat="45.78764" lon="4.67994">
        <ele>362</ele>
        <time>2012-12-08T14:46:13Z</time>
      </trkpt>
      <trkpt lat="45.78771" lon="4.68002">
        <ele>363</ele>
        <time>2012-12-08T14:46:20Z</time>
      </trkpt>
      <trkpt lat="45.78782" lon="4.68013">
        <ele>364</ele>
        <time>2012-12-08T14:46:29Z</time>
      </trkpt>
      <trkpt lat="45.78794" lon="4.68027">
        <ele>366</ele>
        <time>2012-12-08T14:46:39Z</time>
      </trkpt>
      <trkpt lat="45.78804" lon="4.68038">
        <ele>367</ele>
        <time>2012-12-08T14:46:47Z</time>
      </trkpt>
      <trkpt lat="45.78815" lon="4.68048">
        <ele>368</ele>
        <time>2012-12-08T14:46:56Z</time>
      </trkpt>
      <trkpt lat="45.78824" lon="4.6806">
        <ele>370</ele>
        <time>2012-12-08T14:47:04Z</time>
      </trkpt>
      <trkpt lat="45.78834" lon="4.68071">
        <ele>371</ele>
        <time>2012-12-08T14:47:13Z</time>
      </trkpt>
      <trkpt lat="45.78842" lon="4.6808">
        <ele>371</ele>
        <time>2012-12-08T14:47:20Z</time>
      </trkpt>
      <trkpt lat="45.78843" lon="4.68081">
        <ele>371</ele>
        <time>2012-12-08T14:47:21Z</time>
      </trkpt>
      <trkpt lat="45.78844" lon="4.68083">
        <ele>371</ele>
        <time>2012-12-08T14:47:22Z</time>
      </trkpt>
      <trkpt lat="45.78851" lon="4.68092">
        <ele>371</ele>
        <time>2012-12-08T14:47:31Z</time>
      </trkpt>
      <trkpt lat="45.78855" lon="4.68097">
        <ele>371</ele>
        <time>2012-12-08T14:47:34Z</time>
      </trkpt>
      <trkpt lat="45.78855" lon="4.68099">
        <ele>371</ele>
        <time>2012-12-08T14:47:35Z</time>
      </trkpt>
      <trkpt lat="45.78854" lon="4.68102">
        <ele>371</ele>
        <time>2012-12-08T14:47:36Z</time>
      </trkpt>
      <trkpt lat="45.78853" lon="4.68106">
        <ele>370</ele>
        <time>2012-12-08T14:47:37Z</time>
      </trkpt>
      <trkpt lat="45.78853" lon="4.68111">
        <ele>369</ele>
        <time>2012-12-08T14:47:38Z</time>
      </trkpt>
      <trkpt lat="45.78854" lon="4.68115">
        <ele>368</ele>
        <time>2012-12-08T14:47:39Z</time>
      </trkpt>
      <trkpt lat="45.78856" lon="4.68118">
        <ele>368</ele>
        <time>2012-12-08T14:47:40Z</time>
      </trkpt>
      <trkpt lat="45.78858" lon="4.68121">
        <ele>368</ele>
        <time>2012-12-08T14:47:41Z</time>
      </trkpt>
      <trkpt lat="45.78859" lon="4.68125">
        <ele>367</ele>
        <time>2012-12-08T14:47:42Z</time>
      </trkpt>
      <trkpt lat="45.78861" lon="4.68146">
        <ele>365</ele>
        <time>2012-12-08T14:47:47Z</time>
      </trkpt>
      <trkpt lat="45.78857" lon="4.68168">
        <ele>364</ele>
        <time>2012-12-08T14:47:51Z</time>
      </trkpt>
      <trkpt lat="45.78856" lon="4.68179">
        <ele>363</ele>
        <time>2012-12-08T14:47:53Z</time>
      </trkpt>
      <trkpt lat="45.78854" lon="4.68182">
        <ele>362</ele>
        <time>2012-12-08T14:47:54Z</time>
      </trkpt>
      <trkpt lat="45.78852" lon="4.68185">
        <ele>361</ele>
        <time>2012-12-08T14:47:55Z</time>
      </trkpt>
      <trkpt lat="45.78849" lon="4.68185">
        <ele>361</ele>
        <time>2012-12-08T14:47:56Z</time>
      </trkpt>
      <trkpt lat="45.78845" lon="4.68186">
        <ele>360</ele>
        <time>2012-12-08T14:47:57Z</time>
      </trkpt>
      <trkpt lat="45.78842" lon="4.68186">
        <ele>359</ele>
        <time>2012-12-08T14:47:58Z</time>
      </trkpt>
      <trkpt lat="45.78834" lon="4.68187">
        <ele>357</ele>
        <time>2012-12-08T14:48:01Z</time>
      </trkpt>
      <trkpt lat="45.78822" lon="4.68188">
        <ele>354</ele>
        <time>2012-12-08T14:48:07Z</time>
      </trkpt>
      <trkpt lat="45.78817" lon="4.68193">
        <ele>353</ele>
        <time>2012-12-08T14:48:10Z</time>
      </trkpt>
      <trkpt lat="45.78812" lon="4.68201">
        <ele>352</ele>
        <time>2012-12-08T14:48:13Z</time>
      </trkpt>
      <trkpt lat="45.7881" lon="4.68203">
        <ele>351</ele>
        <time>2012-12-08T14:48:14Z</time>
      </trkpt>
      <trkpt lat="45.78807" lon="4.68204">
        <ele>350</ele>
        <time>2012-12-08T14:48:15Z</time>
      </trkpt>
      <trkpt lat="45.78804" lon="4.68204">
        <ele>349</ele>
        <time>2012-12-08T14:48:16Z</time>
      </trkpt>
      <trkpt lat="45.78802" lon="4.68204">
        <ele>349</ele>
        <time>2012-12-08T14:48:17Z</time>
      </trkpt>
      <trkpt lat="45.78799" lon="4.68205">
        <ele>349</ele>
        <time>2012-12-08T14:48:18Z</time>
      </trkpt>
      <trkpt lat="45.78798" lon="4.68207">
        <ele>348</ele>
        <time>2012-12-08T14:48:19Z</time>
      </trkpt>
      <trkpt lat="45.78797" lon="4.6821">
        <ele>347</ele>
        <time>2012-12-08T14:48:20Z</time>
      </trkpt>
      <trkpt lat="45.78795" lon="4.68213">
        <ele>345</ele>
        <time>2012-12-08T14:48:22Z</time>
      </trkpt>
      <trkpt lat="45.78793" lon="4.68214">
        <ele>345</ele>
        <time>2012-12-08T14:48:23Z</time>
      </trkpt>
      <trkpt lat="45.7879" lon="4.68214">
        <ele>344</ele>
        <time>2012-12-08T14:48:24Z</time>
      </trkpt>
      <trkpt lat="45.78788" lon="4.68211">
        <ele>343</ele>
        <time>2012-12-08T14:48:25Z</time>
      </trkpt>
      <trkpt lat="45.78787" lon="4.68207">
        <ele>343</ele>
        <time>2012-12-08T14:48:26Z</time>
      </trkpt>
      <trkpt lat="45.78785" lon="4.68203">
        <ele>343</ele>
        <time>2012-12-08T14:48:27Z</time>
      </trkpt>
      <trkpt lat="45.78784" lon="4.68199">
        <ele>342</ele>
        <time>2012-12-08T14:48:28Z</time>
      </trkpt>
      <trkpt lat="45.78782" lon="4.68196">
        <ele>342</ele>
        <time>2012-12-08T14:48:29Z</time>
      </trkpt>
      <trkpt lat="45.78781" lon="4.68192">
        <ele>341</ele>
        <time>2012-12-08T14:48:30Z</time>
      </trkpt>
      <trkpt lat="45.7878" lon="4.68188">
        <ele>341</ele>
        <time>2012-12-08T14:48:31Z</time>
      </trkpt>
      <trkpt lat="45.7878" lon="4.68184">
        <ele>340</ele>
        <time>2012-12-08T14:48:32Z</time>
      </trkpt>
      <trkpt lat="45.7878" lon="4.68179">
        <ele>339</ele>
        <time>2012-12-08T14:48:33Z</time>
      </trkpt>
      <trkpt lat="45.7878" lon="4.68173">
        <ele>339</ele>
        <time>2012-12-08T14:48:34Z</time>
      </trkpt>
      <trkpt lat="45.78779" lon="4.68168">
        <ele>339</ele>
        <time>2012-12-08T14:48:35Z</time>
      </trkpt>
      <trkpt lat="45.78777" lon="4.68164">
        <ele>339</ele>
        <time>2012-12-08T14:48:36Z</time>
      </trkpt>
      <trkpt lat="45.78774" lon="4.68161">
        <ele>338</ele>
        <time>2012-12-08T14:48:37Z</time>
      </trkpt>
      <trkpt lat="45.78771" lon="4.68158">
        <ele>337</ele>
        <time>2012-12-08T14:48:38Z</time>
      </trkpt>
      <trkpt lat="45.78749" lon="4.68143">
        <ele>337</ele>
        <time>2012-12-08T14:48:44Z</time>
      </trkpt>
      <trkpt lat="45.7874" lon="4.68138">
        <ele>335</ele>
        <time>2012-12-08T14:48:46Z</time>
      </trkpt>
      <trkpt lat="45.78735" lon="4.68135">
        <ele>335</ele>
        <time>2012-12-08T14:48:47Z</time>
      </trkpt>
      <trkpt lat="45.78706" lon="4.68119">
        <ele>332</ele>
        <time>2012-12-08T14:48:54Z</time>
      </trkpt>
      <trkpt lat="45.78686" lon="4.68108">
        <ele>329</ele>
        <time>2012-12-08T14:49:00Z</time>
      </trkpt>
      <trkpt lat="45.7868" lon="4.68103">
        <ele>327</ele>
        <time>2012-12-08T14:49:02Z</time>
      </trkpt>
      <trkpt lat="45.7867" lon="4.68094">
        <ele>325</ele>
        <time>2012-12-08T14:49:05Z</time>
      </trkpt>
      <trkpt lat="45.78666" lon="4.68091">
        <ele>324</ele>
        <time>2012-12-08T14:49:06Z</time>
      </trkpt>
      <trkpt lat="45.78647" lon="4.68086">
        <ele>322</ele>
        <time>2012-12-08T14:49:12Z</time>
      </trkpt>
      <trkpt lat="45.78646" lon="4.68087">
        <ele>321</ele>
        <time>2012-12-08T14:49:13Z</time>
      </trkpt>
      <trkpt lat="45.78645" lon="4.68089">
        <ele>321</ele>
        <time>2012-12-08T14:49:14Z</time>
      </trkpt>
      <trkpt lat="45.78644" lon="4.68091">
        <ele>321</ele>
        <time>2012-12-08T14:49:15Z</time>
      </trkpt>
      <trkpt lat="45.78645" lon="4.68095">
        <ele>321</ele>
        <time>2012-12-08T14:49:18Z</time>
      </trkpt>
      <trkpt lat="45.78645" lon="4.68097">
        <ele>322</ele>
        <time>2012-12-08T14:49:19Z</time>
      </trkpt>
      <trkpt lat="45.78648" lon="4.68107">
        <ele>323</ele>
        <time>2012-12-08T14:49:25Z</time>
      </trkpt>
      <trkpt lat="45.78649" lon="4.68108">
        <ele>323</ele>
        <time>2012-12-08T14:49:26Z</time>
      </trkpt>
      <trkpt lat="45.7865" lon="4.6811">
        <ele>323</ele>
        <time>2012-12-08T14:49:27Z</time>
      </trkpt>
      <trkpt lat="45.78653" lon="4.68118">
        <ele>323</ele>
        <time>2012-12-08T14:49:34Z</time>
      </trkpt>
      <trkpt lat="45.78654" lon="4.68123">
        <ele>324</ele>
        <time>2012-12-08T14:49:37Z</time>
      </trkpt>
      <trkpt lat="45.78655" lon="4.68124">
        <ele>323</ele>
        <time>2012-12-08T14:49:38Z</time>
      </trkpt>
      <trkpt lat="45.78656" lon="4.68126">
        <ele>323</ele>
        <time>2012-12-08T14:49:39Z</time>
      </trkpt>
      <trkpt lat="45.78657" lon="4.68128">
        <ele>324</ele>
        <time>2012-12-08T14:49:40Z</time>
      </trkpt>
      <trkpt lat="45.78657" lon="4.68129">
        <ele>323</ele>
        <time>2012-12-08T14:49:41Z</time>
      </trkpt>
      <trkpt lat="45.78658" lon="4.68131">
        <ele>323</ele>
        <time>2012-12-08T14:49:42Z</time>
      </trkpt>
      <trkpt lat="45.7866" lon="4.68137">
        <ele>323</ele>
        <time>2012-12-08T14:49:46Z</time>
      </trkpt>
      <trkpt lat="45.7866" lon="4.68139">
        <ele>323</ele>
        <time>2012-12-08T14:49:47Z</time>
      </trkpt>
      <trkpt lat="45.78665" lon="4.68153">
        <ele>323</ele>
        <time>2012-12-08T14:49:55Z</time>
      </trkpt>
      <trkpt lat="45.78668" lon="4.68173">
        <ele>324</ele>
        <time>2012-12-08T14:50:04Z</time>
      </trkpt>
      <trkpt lat="45.78673" lon="4.68184">
        <ele>325</ele>
        <time>2012-12-08T14:50:12Z</time>
      </trkpt>
      <trkpt lat="45.78675" lon="4.68188">
        <ele>325</ele>
        <time>2012-12-08T14:50:15Z</time>
      </trkpt>
      <trkpt lat="45.78676" lon="4.68189">
        <ele>325</ele>
        <time>2012-12-08T14:50:16Z</time>
      </trkpt>
      <trkpt lat="45.78676" lon="4.68192">
        <ele>326</ele>
        <time>2012-12-08T14:50:18Z</time>
      </trkpt>
      <trkpt lat="45.7868" lon="4.68206">
        <ele>326</ele>
        <time>2012-12-08T14:50:25Z</time>
      </trkpt>
      <trkpt lat="45.78683" lon="4.68219">
        <ele>325</ele>
        <time>2012-12-08T14:50:29Z</time>
      </trkpt>
      <trkpt lat="45.78683" lon="4.68221">
        <ele>326</ele>
        <time>2012-12-08T14:50:30Z</time>
      </trkpt>
      <trkpt lat="45.78683" lon="4.68224">
        <ele>325</ele>
        <time>2012-12-08T14:50:31Z</time>
      </trkpt>
      <trkpt lat="45.78682" lon="4.68235">
        <ele>326</ele>
        <time>2012-12-08T14:50:37Z</time>
      </trkpt>
      <trkpt lat="45.7868" lon="4.68245">
        <ele>326</ele>
        <time>2012-12-08T14:50:42Z</time>
      </trkpt>
      <trkpt lat="45.78678" lon="4.68251">
        <ele>326</ele>
        <time>2012-12-08T14:50:45Z</time>
      </trkpt>
      <trkpt lat="45.78677" lon="4.68263">
        <ele>327</ele>
        <time>2012-12-08T14:50:51Z</time>
      </trkpt>
      <trkpt lat="45.78675" lon="4.68271">
        <ele>326</ele>
        <time>2012-12-08T14:50:57Z</time>
      </trkpt>
      <trkpt lat="45.78673" lon="4.68275">
        <ele>327</ele>
        <time>2012-12-08T14:51:00Z</time>
      </trkpt>
      <trkpt lat="45.78667" lon="4.68281">
        <ele>328</ele>
        <time>2012-12-08T14:51:07Z</time>
      </trkpt>
      <trkpt lat="45.7866" lon="4.68292">
        <ele>330</ele>
        <time>2012-12-08T14:51:15Z</time>
      </trkpt>
      <trkpt lat="45.78655" lon="4.68298">
        <ele>330</ele>
        <time>2012-12-08T14:51:22Z</time>
      </trkpt>
      <trkpt lat="45.78653" lon="4.68295">
        <ele>331</ele>
        <time>2012-12-08T14:51:30Z</time>
      </trkpt>
      <trkpt lat="45.7865" lon="4.68295">
        <ele>331</ele>
        <time>2012-12-08T14:51:37Z</time>
      </trkpt>
      <trkpt lat="45.78645" lon="4.68298">
        <ele>332</ele>
        <time>2012-12-08T14:51:45Z</time>
      </trkpt>
      <trkpt lat="45.78634" lon="4.68298">
        <ele>333</ele>
        <time>2012-12-08T14:51:54Z</time>
      </trkpt>
      <trkpt lat="45.78628" lon="4.683">
        <ele>334</ele>
        <time>2012-12-08T14:52:03Z</time>
      </trkpt>
      <trkpt lat="45.78623" lon="4.68303">
        <ele>335</ele>
        <time>2012-12-08T14:52:11Z</time>
      </trkpt>
      <trkpt lat="45.78616" lon="4.68305">
        <ele>337</ele>
        <time>2012-12-08T14:52:20Z</time>
      </trkpt>
      <trkpt lat="45.78611" lon="4.68303">
        <ele>338</ele>
        <time>2012-12-08T14:52:28Z</time>
      </trkpt>
      <trkpt lat="45.78604" lon="4.68303">
        <ele>339</ele>
        <time>2012-12-08T14:52:35Z</time>
      </trkpt>
      <trkpt lat="45.78598" lon="4.68305">
        <ele>339</ele>
        <time>2012-12-08T14:52:45Z</time>
      </trkpt>
      <trkpt lat="45.78597" lon="4.68305">
        <ele>340</ele>
        <time>2012-12-08T14:52:53Z</time>
      </trkpt>
      <trkpt lat="45.78596" lon="4.68305">
        <ele>340</ele>
        <time>2012-12-08T14:52:59Z</time>
      </trkpt>
      <trkpt lat="45.78591" lon="4.68304">
        <ele>340</ele>
        <time>2012-12-08T14:53:08Z</time>
      </trkpt>
      <trkpt lat="45.78583" lon="4.68304">
        <ele>341</ele>
        <time>2012-12-08T14:53:16Z</time>
      </trkpt>
      <trkpt lat="45.78572" lon="4.68304">
        <ele>343</ele>
        <time>2012-12-08T14:53:25Z</time>
      </trkpt>
      <trkpt lat="45.7857" lon="4.68305">
        <ele>343</ele>
        <time>2012-12-08T14:53:26Z</time>
      </trkpt>
      <trkpt lat="45.78569" lon="4.68305">
        <ele>343</ele>
        <time>2012-12-08T14:53:27Z</time>
      </trkpt>
      <trkpt lat="45.78566" lon="4.68305">
        <ele>343</ele>
        <time>2012-12-08T14:53:30Z</time>
      </trkpt>
      <trkpt lat="45.78553" lon="4.68307">
        <ele>346</ele>
        <time>2012-12-08T14:53:40Z</time>
      </trkpt>
      <trkpt lat="45.78541" lon="4.68308">
        <ele>347</ele>
        <time>2012-12-08T14:53:50Z</time>
      </trkpt>
      <trkpt lat="45.78529" lon="4.68309">
        <ele>349</ele>
        <time>2012-12-08T14:53:59Z</time>
      </trkpt>
      <trkpt lat="45.78518" lon="4.68311">
        <ele>350</ele>
        <time>2012-12-08T14:54:08Z</time>
      </trkpt>
      <trkpt lat="45.78506" lon="4.68312">
        <ele>351</ele>
        <time>2012-12-08T14:54:18Z</time>
      </trkpt>
      <trkpt lat="45.78495" lon="4.68313">
        <ele>353</ele>
        <time>2012-12-08T14:54:28Z</time>
      </trkpt>
      <trkpt lat="45.78494" lon="4.68314">
        <ele>353</ele>
        <time>2012-12-08T14:54:29Z</time>
      </trkpt>
      <trkpt lat="45.78484" lon="4.68315">
        <ele>354</ele>
        <time>2012-12-08T14:54:37Z</time>
      </trkpt>
      <trkpt lat="45.78483" lon="4.68316">
        <ele>355</ele>
        <time>2012-12-08T14:54:38Z</time>
      </trkpt>
      <trkpt lat="45.78482" lon="4.68315">
        <ele>355</ele>
        <time>2012-12-08T14:54:39Z</time>
      </trkpt>
      <trkpt lat="45.78481" lon="4.68316">
        <ele>355</ele>
        <time>2012-12-08T14:54:40Z</time>
      </trkpt>
      <trkpt lat="45.78479" lon="4.68316">
        <ele>355</ele>
        <time>2012-12-08T14:54:41Z</time>
      </trkpt>
      <trkpt lat="45.78478" lon="4.68316">
        <ele>356</ele>
        <time>2012-12-08T14:54:42Z</time>
      </trkpt>
      <trkpt lat="45.78477" lon="4.68316">
        <ele>356</ele>
        <time>2012-12-08T14:54:43Z</time>
      </trkpt>
      <trkpt lat="45.7847" lon="4.68318">
        <ele>357</ele>
        <time>2012-12-08T14:54:51Z</time>
      </trkpt>
      <trkpt lat="45.78469" lon="4.68317">
        <ele>356</ele>
        <time>2012-12-08T14:55:02Z</time>
      </trkpt>
      <trkpt lat="45.78468" lon="4.68318">
        <ele>357</ele>
        <time>2012-12-08T14:55:16Z</time>
      </trkpt>
      <trkpt lat="45.78468" lon="4.68318">
        <ele>357</ele>
        <time>2012-12-08T14:55:34Z</time>
      </trkpt>
      <trkpt lat="45.78469" lon="4.68314">
        <ele>357</ele>
        <time>2012-12-08T14:55:56Z</time>
      </trkpt>
      <trkpt lat="45.78467" lon="4.68313">
        <ele>357</ele>
        <time>2012-12-08T14:56:10Z</time>
      </trkpt>
      <trkpt lat="45.78468" lon="4.68317">
        <ele>357</ele>
        <time>2012-12-08T14:56:25Z</time>
      </trkpt>
      <trkpt lat="45.78466" lon="4.68316">
        <ele>357</ele>
        <time>2012-12-08T14:56:27Z</time>
      </trkpt>
      <trkpt lat="45.78465" lon="4.68313">
        <ele>357</ele>
        <time>2012-12-08T14:56:30Z</time>
      </trkpt>
      <trkpt lat="45.78467" lon="4.68314">
        <ele>358</ele>
        <time>2012-12-08T14:56:32Z</time>
      </trkpt>
      <trkpt lat="45.78467" lon="4.68316">
        <ele>357</ele>
        <time>2012-12-08T14:56:33Z</time>
      </trkpt>
      <trkpt lat="45.78467" lon="4.68319">
        <ele>357</ele>
        <time>2012-12-08T14:56:34Z</time>
      </trkpt>
      <trkpt lat="45.78467" lon="4.68321">
        <ele>357</ele>
        <time>2012-12-08T14:56:35Z</time>
      </trkpt>
      <trkpt lat="45.78467" lon="4.68324">
        <ele>357</ele>
        <time>2012-12-08T14:56:36Z</time>
      </trkpt>
      <trkpt lat="45.78467" lon="4.68328">
        <ele>357</ele>
        <time>2012-12-08T14:56:37Z</time>
      </trkpt>
      <trkpt lat="45.78468" lon="4.68332">
        <ele>357</ele>
        <time>2012-12-08T14:56:38Z</time>
      </trkpt>
      <trkpt lat="45.78468" lon="4.68337">
        <ele>357</ele>
        <time>2012-12-08T14:56:39Z</time>
      </trkpt>
      <trkpt lat="45.78473" lon="4.68355">
        <ele>355</ele>
        <time>2012-12-08T14:56:43Z</time>
      </trkpt>
      <trkpt lat="45.78488" lon="4.68376">
        <ele>353</ele>
        <time>2012-12-08T14:56:50Z</time>
      </trkpt>
      <trkpt lat="45.78505" lon="4.68396">
        <ele>350</ele>
        <time>2012-12-08T14:56:55Z</time>
      </trkpt>
      <trkpt lat="45.78515" lon="4.68409">
        <ele>348</ele>
        <time>2012-12-08T14:56:59Z</time>
      </trkpt>
      <trkpt lat="45.78524" lon="4.68419">
        <ele>347</ele>
        <time>2012-12-08T14:57:02Z</time>
      </trkpt>
      <trkpt lat="45.78533" lon="4.68426">
        <ele>345</ele>
        <time>2012-12-08T14:57:06Z</time>
      </trkpt>
      <trkpt lat="45.78532" lon="4.68432">
        <ele>343</ele>
        <time>2012-12-08T14:57:09Z</time>
      </trkpt>
      <trkpt lat="45.78531" lon="4.68434">
        <ele>342</ele>
        <time>2012-12-08T14:57:10Z</time>
      </trkpt>
      <trkpt lat="45.78529" lon="4.68437">
        <ele>342</ele>
        <time>2012-12-08T14:57:11Z</time>
      </trkpt>
      <trkpt lat="45.78527" lon="4.68439">
        <ele>341</ele>
        <time>2012-12-08T14:57:12Z</time>
      </trkpt>
      <trkpt lat="45.78525" lon="4.68442">
        <ele>341</ele>
        <time>2012-12-08T14:57:13Z</time>
      </trkpt>
      <trkpt lat="45.78523" lon="4.68444">
        <ele>341</ele>
        <time>2012-12-08T14:57:14Z</time>
      </trkpt>
      <trkpt lat="45.78506" lon="4.68468">
        <ele>338</ele>
        <time>2012-12-08T14:57:22Z</time>
      </trkpt>
      <trkpt lat="45.78506" lon="4.68486">
        <ele>338</ele>
        <time>2012-12-08T14:57:28Z</time>
      </trkpt>
      <trkpt lat="45.78513" lon="4.68503">
        <ele>339</ele>
        <time>2012-12-08T14:57:36Z</time>
      </trkpt>
      <trkpt lat="45.78519" lon="4.68515">
        <ele>340</ele>
        <time>2012-12-08T14:57:42Z</time>
      </trkpt>
      <trkpt lat="45.7852" lon="4.68517">
        <ele>340</ele>
        <time>2012-12-08T14:57:43Z</time>
      </trkpt>
      <trkpt lat="45.7852" lon="4.6852">
        <ele>340</ele>
        <time>2012-12-08T14:57:44Z</time>
      </trkpt>
      <trkpt lat="45.78521" lon="4.68522">
        <ele>340</ele>
        <time>2012-12-08T14:57:45Z</time>
      </trkpt>
      <trkpt lat="45.78521" lon="4.68525">
        <ele>341</ele>
        <time>2012-12-08T14:57:46Z</time>
      </trkpt>
      <trkpt lat="45.78522" lon="4.68528">
        <ele>341</ele>
        <time>2012-12-08T14:57:47Z</time>
      </trkpt>
      <trkpt lat="45.78525" lon="4.68536">
        <ele>342</ele>
        <time>2012-12-08T14:57:50Z</time>
      </trkpt>
      <trkpt lat="45.78532" lon="4.68554">
        <ele>342</ele>
        <time>2012-12-08T14:57:57Z</time>
      </trkpt>
      <trkpt lat="45.78536" lon="4.6857">
        <ele>343</ele>
        <time>2012-12-08T14:58:05Z</time>
      </trkpt>
      <trkpt lat="45.78536" lon="4.68574">
        <ele>343</ele>
        <time>2012-12-08T14:58:24Z</time>
      </trkpt>
      <trkpt lat="45.78537" lon="4.68574">
        <ele>340</ele>
        <time>2012-12-08T14:58:44Z</time>
      </trkpt>
      <trkpt lat="45.78537" lon="4.68574">
        <ele>344</ele>
        <time>2012-12-08T14:58:45Z</time>
      </trkpt>
      <trkpt lat="45.78536" lon="4.68572">
        <ele>343</ele>
        <time>2012-12-08T14:58:53Z</time>
      </trkpt>
      <trkpt lat="45.78535" lon="4.6857">
        <ele>343</ele>
        <time>2012-12-08T14:59:04Z</time>
      </trkpt>
      <trkpt lat="45.78536" lon="4.68574">
        <ele>343</ele>
        <time>2012-12-08T14:59:18Z</time>
      </trkpt>
      <trkpt lat="45.78538" lon="4.68586">
        <ele>343</ele>
        <time>2012-12-08T14:59:24Z</time>
      </trkpt>
      <trkpt lat="45.78541" lon="4.68603">
        <ele>343</ele>
        <time>2012-12-08T14:59:31Z</time>
      </trkpt>
      <trkpt lat="45.7854" lon="4.6862">
        <ele>343</ele>
        <time>2012-12-08T14:59:37Z</time>
      </trkpt>
      <trkpt lat="45.7854" lon="4.68648">
        <ele>343</ele>
        <time>2012-12-08T14:59:44Z</time>
      </trkpt>
      <trkpt lat="45.7854" lon="4.68683">
        <ele>342</ele>
        <time>2012-12-08T14:59:52Z</time>
      </trkpt>
      <trkpt lat="45.7854" lon="4.68722">
        <ele>340</ele>
        <time>2012-12-08T14:59:59Z</time>
      </trkpt>
      <trkpt lat="45.7854" lon="4.68727">
        <ele>339</ele>
        <time>2012-12-08T15:00:00Z</time>
      </trkpt>
      <trkpt lat="45.78539" lon="4.68733">
        <ele>339</ele>
        <time>2012-12-08T15:00:01Z</time>
      </trkpt>
      <trkpt lat="45.78538" lon="4.68738">
        <ele>339</ele>
        <time>2012-12-08T15:00:02Z</time>
      </trkpt>
      <trkpt lat="45.78537" lon="4.68744">
        <ele>338</ele>
        <time>2012-12-08T15:00:03Z</time>
      </trkpt>
      <trkpt lat="45.78536" lon="4.6875">
        <ele>338</ele>
        <time>2012-12-08T15:00:04Z</time>
      </trkpt>
      <trkpt lat="45.78536" lon="4.68755">
        <ele>338</ele>
        <time>2012-12-08T15:00:05Z</time>
      </trkpt>
      <trkpt lat="45.78533" lon="4.68772">
        <ele>334</ele>
        <time>2012-12-08T15:00:10Z</time>
      </trkpt>
      <trkpt lat="45.78533" lon="4.68783">
        <ele>332</ele>
        <time>2012-12-08T15:00:14Z</time>
      </trkpt>
      <trkpt lat="45.78535" lon="4.68785">
        <ele>331</ele>
        <time>2012-12-08T15:00:18Z</time>
      </trkpt>
      <trkpt lat="45.78538" lon="4.68783">
        <ele>331</ele>
        <time>2012-12-08T15:00:19Z</time>
      </trkpt>
      <trkpt lat="45.7854" lon="4.68781">
        <ele>332</ele>
        <time>2012-12-08T15:00:20Z</time>
      </trkpt>
      <trkpt lat="45.78563" lon="4.68773">
        <ele>334</ele>
        <time>2012-12-08T15:00:28Z</time>
      </trkpt>
      <trkpt lat="45.78583" lon="4.6876">
        <ele>334</ele>
        <time>2012-12-08T15:00:35Z</time>
      </trkpt>
      <trkpt lat="45.78607" lon="4.68746">
        <ele>334</ele>
        <time>2012-12-08T15:00:43Z</time>
      </trkpt>
      <trkpt lat="45.78637" lon="4.68729">
        <ele>333</ele>
        <time>2012-12-08T15:00:52Z</time>
      </trkpt>
      <trkpt lat="45.78657" lon="4.68715">
        <ele>331</ele>
        <time>2012-12-08T15:00:57Z</time>
      </trkpt>
      <trkpt lat="45.78685" lon="4.6868">
        <ele>329</ele>
        <time>2012-12-08T15:01:04Z</time>
      </trkpt>
      <trkpt lat="45.78695" lon="4.68667">
        <ele>328</ele>
        <time>2012-12-08T15:01:06Z</time>
      </trkpt>
      <trkpt lat="45.78716" lon="4.68639">
        <ele>324</ele>
        <time>2012-12-08T15:01:10Z</time>
      </trkpt>
      <trkpt lat="45.78731" lon="4.68623">
        <ele>320</ele>
        <time>2012-12-08T15:01:13Z</time>
      </trkpt>
      <trkpt lat="45.78734" lon="4.6862">
        <ele>319</ele>
        <time>2012-12-08T15:01:14Z</time>
      </trkpt>
      <trkpt lat="45.78737" lon="4.68615">
        <ele>318</ele>
        <time>2012-12-08T15:01:15Z</time>
      </trkpt>
      <trkpt lat="45.78739" lon="4.6861">
        <ele>317</ele>
        <time>2012-12-08T15:01:16Z</time>
      </trkpt>
      <trkpt lat="45.78738" lon="4.68605">
        <ele>317</ele>
        <time>2012-12-08T15:01:17Z</time>
      </trkpt>
      <trkpt lat="45.78735" lon="4.686">
        <ele>316</ele>
        <time>2012-12-08T15:01:18Z</time>
      </trkpt>
      <trkpt lat="45.78731" lon="4.68597">
        <ele>315</ele>
        <time>2012-12-08T15:01:19Z</time>
      </trkpt>
      <trkpt lat="45.78726" lon="4.68595">
        <ele>314</ele>
        <time>2012-12-08T15:01:20Z</time>
      </trkpt>
      <trkpt lat="45.78722" lon="4.68592">
        <ele>314</ele>
        <time>2012-12-08T15:01:21Z</time>
      </trkpt>
      <trkpt lat="45.78721" lon="4.68587">
        <ele>313</ele>
        <time>2012-12-08T15:01:22Z</time>
      </trkpt>
      <trkpt lat="45.78721" lon="4.68582">
        <ele>312</ele>
        <time>2012-12-08T15:01:23Z</time>
      </trkpt>
      <trkpt lat="45.78724" lon="4.68578">
        <ele>312</ele>
        <time>2012-12-08T15:01:24Z</time>
      </trkpt>
      <trkpt lat="45.78728" lon="4.68575">
        <ele>311</ele>
        <time>2012-12-08T15:01:25Z</time>
      </trkpt>
      <trkpt lat="45.78733" lon="4.68573">
        <ele>311</ele>
        <time>2012-12-08T15:01:26Z</time>
      </trkpt>
      <trkpt lat="45.78738" lon="4.68572">
        <ele>311</ele>
        <time>2012-12-08T15:01:27Z</time>
      </trkpt>
      <trkpt lat="45.78769" lon="4.68567">
        <ele>308</ele>
        <time>2012-12-08T15:01:32Z</time>
      </trkpt>
      <trkpt lat="45.78775" lon="4.6857">
        <ele>308</ele>
        <time>2012-12-08T15:01:33Z</time>
      </trkpt>
      <trkpt lat="45.7878" lon="4.68573">
        <ele>309</ele>
        <time>2012-12-08T15:01:34Z</time>
      </trkpt>
      <trkpt lat="45.78783" lon="4.68576">
        <ele>309</ele>
        <time>2012-12-08T15:01:35Z</time>
      </trkpt>
      <trkpt lat="45.78785" lon="4.6858">
        <ele>309</ele>
        <time>2012-12-08T15:01:36Z</time>
      </trkpt>
      <trkpt lat="45.78787" lon="4.68583">
        <ele>310</ele>
        <time>2012-12-08T15:01:37Z</time>
      </trkpt>
      <trkpt lat="45.7879" lon="4.68586">
        <ele>311</ele>
        <time>2012-12-08T15:01:38Z</time>
      </trkpt>
      <trkpt lat="45.78792" lon="4.68589">
        <ele>311</ele>
        <time>2012-12-08T15:01:39Z</time>
      </trkpt>
      <trkpt lat="45.78804" lon="4.68604">
        <ele>312</ele>
        <time>2012-12-08T15:01:46Z</time>
      </trkpt>
      <trkpt lat="45.78818" lon="4.68623">
        <ele>314</ele>
        <time>2012-12-08T15:01:57Z</time>
      </trkpt>
      <trkpt lat="45.78825" lon="4.68633">
        <ele>317</ele>
        <time>2012-12-08T15:02:05Z</time>
      </trkpt>
      <trkpt lat="45.78835" lon="4.68644">
        <ele>319</ele>
        <time>2012-12-08T15:02:14Z</time>
      </trkpt>
      <trkpt lat="45.78848" lon="4.68652">
        <ele>321</ele>
        <time>2012-12-08T15:02:24Z</time>
      </trkpt>
      <trkpt lat="45.78859" lon="4.6866">
        <ele>323</ele>
        <time>2012-12-08T15:02:33Z</time>
      </trkpt>
      <trkpt lat="45.78867" lon="4.68669">
        <ele>325</ele>
        <time>2012-12-08T15:02:41Z</time>
      </trkpt>
      <trkpt lat="45.78877" lon="4.68682">
        <ele>327</ele>
        <time>2012-12-08T15:02:51Z</time>
      </trkpt>
      <trkpt lat="45.78885" lon="4.68694">
        <ele>327</ele>
        <time>2012-12-08T15:02:59Z</time>
      </trkpt>
      <trkpt lat="45.78896" lon="4.6871">
        <ele>328</ele>
        <time>2012-12-08T15:03:08Z</time>
      </trkpt>
      <trkpt lat="45.78909" lon="4.68722">
        <ele>330</ele>
        <time>2012-12-08T15:03:18Z</time>
      </trkpt>
      <trkpt lat="45.7892" lon="4.68736">
        <ele>332</ele>
        <time>2012-12-08T15:03:27Z</time>
      </trkpt>
      <trkpt lat="45.78931" lon="4.68754">
        <ele>332</ele>
        <time>2012-12-08T15:03:36Z</time>
      </trkpt>
      <trkpt lat="45.78946" lon="4.68766">
        <ele>334</ele>
        <time>2012-12-08T15:03:46Z</time>
      </trkpt>
      <trkpt lat="45.78962" lon="4.6877">
        <ele>336</ele>
        <time>2012-12-08T15:03:55Z</time>
      </trkpt>
      <trkpt lat="45.78982" lon="4.68778">
        <ele>337</ele>
        <time>2012-12-08T15:04:06Z</time>
      </trkpt>
      <trkpt lat="45.78996" lon="4.68785">
        <ele>338</ele>
        <time>2012-12-08T15:04:14Z</time>
      </trkpt>
      <trkpt lat="45.79013" lon="4.68792">
        <ele>338</ele>
        <time>2012-12-08T15:04:22Z</time>
      </trkpt>
      <trkpt lat="45.79031" lon="4.68798">
        <ele>337</ele>
        <time>2012-12-08T15:04:28Z</time>
      </trkpt>
      <trkpt lat="45.79049" lon="4.68795">
        <ele>338</ele>
        <time>2012-12-08T15:04:35Z</time>
      </trkpt>
      <trkpt lat="45.79057" lon="4.68778">
        <ele>338</ele>
        <time>2012-12-08T15:04:40Z</time>
      </trkpt>
      <trkpt lat="45.79066" lon="4.68748">
        <ele>339</ele>
        <time>2012-12-08T15:04:49Z</time>
      </trkpt>
      <trkpt lat="45.79076" lon="4.68737">
        <ele>339</ele>
        <time>2012-12-08T15:04:55Z</time>
      </trkpt>
      <trkpt lat="45.79095" lon="4.68721">
        <ele>338</ele>
        <time>2012-12-08T15:05:01Z</time>
      </trkpt>
      <trkpt lat="45.79117" lon="4.68697">
        <ele>336</ele>
        <time>2012-12-08T15:05:07Z</time>
      </trkpt>
      <trkpt lat="45.79122" lon="4.68693">
        <ele>336</ele>
        <time>2012-12-08T15:05:08Z</time>
      </trkpt>
      <trkpt lat="45.79135" lon="4.68678">
        <ele>333</ele>
        <time>2012-12-08T15:05:11Z</time>
      </trkpt>
      <trkpt lat="45.7914" lon="4.68662">
        <ele>329</ele>
        <time>2012-12-08T15:05:16Z</time>
      </trkpt>
      <trkpt lat="45.79148" lon="4.68648">
        <ele>328</ele>
        <time>2012-12-08T15:05:21Z</time>
      </trkpt>
      <trkpt lat="45.79157" lon="4.68622">
        <ele>325</ele>
        <time>2012-12-08T15:05:26Z</time>
      </trkpt>
      <trkpt lat="45.79166" lon="4.68591">
        <ele>324</ele>
        <time>2012-12-08T15:05:32Z</time>
      </trkpt>
      <trkpt lat="45.79165" lon="4.68573">
        <ele>323</ele>
        <time>2012-12-08T15:05:37Z</time>
      </trkpt>
      <trkpt lat="45.79166" lon="4.68555">
        <ele>323</ele>
        <time>2012-12-08T15:05:43Z</time>
      </trkpt>
      <trkpt lat="45.79167" lon="4.68539">
        <ele>324</ele>
        <time>2012-12-08T15:05:50Z</time>
      </trkpt>
      <trkpt lat="45.79166" lon="4.68531">
        <ele>324</ele>
        <time>2012-12-08T15:05:53Z</time>
      </trkpt>
      <trkpt lat="45.79166" lon="4.68528">
        <ele>324</ele>
        <time>2012-12-08T15:05:54Z</time>
      </trkpt>
      <trkpt lat="45.79167" lon="4.68526">
        <ele>324</ele>
        <time>2012-12-08T15:05:55Z</time>
      </trkpt>
      <trkpt lat="45.79168" lon="4.68517">
        <ele>325</ele>
        <time>2012-12-08T15:06:00Z</time>
      </trkpt>
      <trkpt lat="45.79167" lon="4.68508">
        <ele>325</ele>
        <time>2012-12-08T15:06:06Z</time>
      </trkpt>
      <trkpt lat="45.79168" lon="4.68503">
        <ele>325</ele>
        <time>2012-12-08T15:06:09Z</time>
      </trkpt>
      <trkpt lat="45.79171" lon="4.68495">
        <ele>325</ele>
        <time>2012-12-08T15:06:12Z</time>
      </trkpt>
      <trkpt lat="45.79175" lon="4.68481">
        <ele>325</ele>
        <time>2012-12-08T15:06:17Z</time>
      </trkpt>
      <trkpt lat="45.79176" lon="4.68479">
        <ele>325</ele>
        <time>2012-12-08T15:06:18Z</time>
      </trkpt>
      <trkpt lat="45.79183" lon="4.68462">
        <ele>325</ele>
        <time>2012-12-08T15:06:25Z</time>
      </trkpt>
      <trkpt lat="45.79184" lon="4.68451">
        <ele>325</ele>
        <time>2012-12-08T15:06:33Z</time>
      </trkpt>
      <trkpt lat="45.79187" lon="4.6844">
        <ele>323</ele>
        <time>2012-12-08T15:06:39Z</time>
      </trkpt>
      <trkpt lat="45.79188" lon="4.68438">
        <ele>323</ele>
        <time>2012-12-08T15:06:40Z</time>
      </trkpt>
      <trkpt lat="45.79193" lon="4.68424">
        <ele>322</ele>
        <time>2012-12-08T15:06:47Z</time>
      </trkpt>
      <trkpt lat="45.79198" lon="4.68415">
        <ele>321</ele>
        <time>2012-12-08T15:06:53Z</time>
      </trkpt>
      <trkpt lat="45.79203" lon="4.68407">
        <ele>321</ele>
        <time>2012-12-08T15:06:57Z</time>
      </trkpt>
      <trkpt lat="45.7921" lon="4.68394">
        <ele>319</ele>
        <time>2012-12-08T15:07:03Z</time>
      </trkpt>
      <trkpt lat="45.79211" lon="4.68391">
        <ele>319</ele>
        <time>2012-12-08T15:07:04Z</time>
      </trkpt>
      <trkpt lat="45.79215" lon="4.68384">
        <ele>319</ele>
        <time>2012-12-08T15:07:12Z</time>
      </trkpt>
      <trkpt lat="45.79218" lon="4.6838">
        <ele>319</ele>
        <time>2012-12-08T15:07:21Z</time>
      </trkpt>
      <trkpt lat="45.79221" lon="4.68375">
        <ele>320</ele>
        <time>2012-12-08T15:07:27Z</time>
      </trkpt>
      <trkpt lat="45.79225" lon="4.68372">
        <ele>319</ele>
        <time>2012-12-08T15:07:35Z</time>
      </trkpt>
      <trkpt lat="45.79229" lon="4.68371">
        <ele>319</ele>
        <time>2012-12-08T15:07:44Z</time>
      </trkpt>
      <trkpt lat="45.79232" lon="4.68369">
        <ele>319</ele>
        <time>2012-12-08T15:07:52Z</time>
      </trkpt>
      <trkpt lat="45.79234" lon="4.68369">
        <ele>319</ele>
        <time>2012-12-08T15:07:55Z</time>
      </trkpt>
      <trkpt lat="45.79237" lon="4.68368">
        <ele>319</ele>
        <time>2012-12-08T15:07:57Z</time>
      </trkpt>
      <trkpt lat="45.79245" lon="4.68363">
        <ele>319</ele>
        <time>2012-12-08T15:08:02Z</time>
      </trkpt>
      <trkpt lat="45.79255" lon="4.68363">
        <ele>318</ele>
        <time>2012-12-08T15:08:08Z</time>
      </trkpt>
      <trkpt lat="45.79264" lon="4.68363">
        <ele>319</ele>
        <time>2012-12-08T15:08:13Z</time>
      </trkpt>
      <trkpt lat="45.79265" lon="4.68363">
        <ele>318</ele>
        <time>2012-12-08T15:08:14Z</time>
      </trkpt>
      <trkpt lat="45.79266" lon="4.68362">
        <ele>319</ele>
        <time>2012-12-08T15:08:15Z</time>
      </trkpt>
      <trkpt lat="45.79268" lon="4.68363">
        <ele>319</ele>
        <time>2012-12-08T15:08:16Z</time>
      </trkpt>
      <trkpt lat="45.79269" lon="4.68363">
        <ele>319</ele>
        <time>2012-12-08T15:08:17Z</time>
      </trkpt>
      <trkpt lat="45.79271" lon="4.68364">
        <ele>319</ele>
        <time>2012-12-08T15:08:18Z</time>
      </trkpt>
      <trkpt lat="45.79273" lon="4.68364">
        <ele>319</ele>
        <time>2012-12-08T15:08:19Z</time>
      </trkpt>
      <trkpt lat="45.79274" lon="4.68365">
        <ele>319</ele>
        <time>2012-12-08T15:08:20Z</time>
      </trkpt>
      <trkpt lat="45.79279" lon="4.68366">
        <ele>319</ele>
        <time>2012-12-08T15:08:23Z</time>
      </trkpt>
      <trkpt lat="45.79281" lon="4.68365">
        <ele>319</ele>
        <time>2012-12-08T15:08:24Z</time>
      </trkpt>
      <trkpt lat="45.79284" lon="4.68366">
        <ele>320</ele>
        <time>2012-12-08T15:08:27Z</time>
      </trkpt>
      <trkpt lat="45.79291" lon="4.68373">
        <ele>322</ele>
        <time>2012-12-08T15:08:34Z</time>
      </trkpt>
      <trkpt lat="45.79293" lon="4.68374">
        <ele>323</ele>
        <time>2012-12-08T15:08:36Z</time>
      </trkpt>
      <trkpt lat="45.79294" lon="4.68376">
        <ele>323</ele>
        <time>2012-12-08T15:08:37Z</time>
      </trkpt>
      <trkpt lat="45.79299" lon="4.68391">
        <ele>326</ele>
        <time>2012-12-08T15:08:46Z</time>
      </trkpt>
      <trkpt lat="45.79298" lon="4.68397">
        <ele>326</ele>
        <time>2012-12-08T15:08:54Z</time>
      </trkpt>
      <trkpt lat="45.79299" lon="4.68408">
        <ele>328</ele>
        <time>2012-12-08T15:09:02Z</time>
      </trkpt>
      <trkpt lat="45.79301" lon="4.68411">
        <ele>327</ele>
        <time>2012-12-08T15:09:09Z</time>
      </trkpt>
      <trkpt lat="45.793" lon="4.68411">
        <ele>328</ele>
        <time>2012-12-08T15:09:19Z</time>
      </trkpt>
      <trkpt lat="45.793" lon="4.68416">
        <ele>328</ele>
        <time>2012-12-08T15:09:26Z</time>
      </trkpt>
      <trkpt lat="45.79301" lon="4.68414">
        <ele>328</ele>
        <time>2012-12-08T15:09:32Z</time>
      </trkpt>
      <trkpt lat="45.79302" lon="4.68415">
        <ele>328</ele>
        <time>2012-12-08T15:09:34Z</time>
      </trkpt>
      <trkpt lat="45.79304" lon="4.68424">
        <ele>329</ele>
        <time>2012-12-08T15:09:40Z</time>
      </trkpt>
      <trkpt lat="45.79312" lon="4.68443">
        <ele>331</ele>
        <time>2012-12-08T15:09:50Z</time>
      </trkpt>
      <trkpt lat="45.7932" lon="4.68456">
        <ele>333</ele>
        <time>2012-12-08T15:10:00Z</time>
      </trkpt>
      <trkpt lat="45.79328" lon="4.6847">
        <ele>336</ele>
        <time>2012-12-08T15:10:10Z</time>
      </trkpt>
      <trkpt lat="45.79336" lon="4.6848">
        <ele>337</ele>
        <time>2012-12-08T15:10:18Z</time>
      </trkpt>
      <trkpt lat="45.79346" lon="4.68496">
        <ele>339</ele>
        <time>2012-12-08T15:10:28Z</time>
      </trkpt>
      <trkpt lat="45.79353" lon="4.68505">
        <ele>340</ele>
        <time>2012-12-08T15:10:37Z</time>
      </trkpt>
      <trkpt lat="45.79363" lon="4.68516">
        <ele>342</ele>
        <time>2012-12-08T15:10:48Z</time>
      </trkpt>
      <trkpt lat="45.79375" lon="4.68527">
        <ele>343</ele>
        <time>2012-12-08T15:10:57Z</time>
      </trkpt>
      <trkpt lat="45.79388" lon="4.68539">
        <ele>343</ele>
        <time>2012-12-08T15:11:05Z</time>
      </trkpt>
      <trkpt lat="45.79401" lon="4.68549">
        <ele>343</ele>
        <time>2012-12-08T15:11:12Z</time>
      </trkpt>
      <trkpt lat="45.79417" lon="4.68564">
        <ele>344</ele>
        <time>2012-12-08T15:11:21Z</time>
      </trkpt>
      <trkpt lat="45.79436" lon="4.68575">
        <ele>344</ele>
        <time>2012-12-08T15:11:30Z</time>
      </trkpt>
      <trkpt lat="45.79455" lon="4.68583">
        <ele>345</ele>
        <time>2012-12-08T15:11:39Z</time>
      </trkpt>
      <trkpt lat="45.79475" lon="4.68594">
        <ele>346</ele>
        <time>2012-12-08T15:11:49Z</time>
      </trkpt>
      <trkpt lat="45.79493" lon="4.68605">
        <ele>347</ele>
        <time>2012-12-08T15:11:58Z</time>
      </trkpt>
      <trkpt lat="45.79512" lon="4.68615">
        <ele>347</ele>
        <time>2012-12-08T15:12:06Z</time>
      </trkpt>
      <trkpt lat="45.79532" lon="4.68626">
        <ele>347</ele>
        <time>2012-12-08T15:12:15Z</time>
      </trkpt>
      <trkpt lat="45.79541" lon="4.68637">
        <ele>346</ele>
        <time>2012-12-08T15:12:19Z</time>
      </trkpt>
      <trkpt lat="45.79542" lon="4.68642">
        <ele>346</ele>
        <time>2012-12-08T15:12:20Z</time>
      </trkpt>
      <trkpt lat="45.79541" lon="4.68647">
        <ele>346</ele>
        <time>2012-12-08T15:12:21Z</time>
      </trkpt>
      <trkpt lat="45.79538" lon="4.68652">
        <ele>345</ele>
        <time>2012-12-08T15:12:22Z</time>
      </trkpt>
      <trkpt lat="45.79535" lon="4.68658">
        <ele>345</ele>
        <time>2012-12-08T15:12:23Z</time>
      </trkpt>
      <trkpt lat="45.79533" lon="4.68663">
        <ele>345</ele>
        <time>2012-12-08T15:12:24Z</time>
      </trkpt>
      <trkpt lat="45.79508" lon="4.68711">
        <ele>344</ele>
        <time>2012-12-08T15:12:32Z</time>
      </trkpt>
      <trkpt lat="45.79482" lon="4.68778">
        <ele>341</ele>
        <time>2012-12-08T15:12:41Z</time>
      </trkpt>
      <trkpt lat="45.79481" lon="4.68786">
        <ele>341</ele>
        <time>2012-12-08T15:12:42Z</time>
      </trkpt>
      <trkpt lat="45.79478" lon="4.68842">
        <ele>340</ele>
        <time>2012-12-08T15:12:50Z</time>
      </trkpt>
      <trkpt lat="45.79477" lon="4.68858">
        <ele>339</ele>
        <time>2012-12-08T15:12:55Z</time>
      </trkpt>
      <trkpt lat="45.79474" lon="4.68871">
        <ele>339</ele>
        <time>2012-12-08T15:13:00Z</time>
      </trkpt>
      <trkpt lat="45.79472" lon="4.68914">
        <ele>338</ele>
        <time>2012-12-08T15:13:07Z</time>
      </trkpt>
      <trkpt lat="45.7947" lon="4.68958">
        <ele>337</ele>
        <time>2012-12-08T15:13:15Z</time>
      </trkpt>
      <trkpt lat="45.79471" lon="4.6896">
        <ele>337</ele>
        <time>2012-12-08T15:13:21Z</time>
      </trkpt>
      <trkpt lat="45.79471" lon="4.68961">
        <ele>337</ele>
        <time>2012-12-08T15:13:39Z</time>
      </trkpt>
      <trkpt lat="45.79472" lon="4.68962">
        <ele>337</ele>
        <time>2012-12-08T15:13:40Z</time>
      </trkpt>
      <trkpt lat="45.79472" lon="4.68964">
        <ele>337</ele>
        <time>2012-12-08T15:13:41Z</time>
      </trkpt>
      <trkpt lat="45.79472" lon="4.68967">
        <ele>337</ele>
        <time>2012-12-08T15:13:42Z</time>
      </trkpt>
      <trkpt lat="45.79472" lon="4.6899">
        <ele>336</ele>
        <time>2012-12-08T15:13:50Z</time>
      </trkpt>
      <trkpt lat="45.7947" lon="4.69021">
        <ele>335</ele>
        <time>2012-12-08T15:13:59Z</time>
      </trkpt>
      <trkpt lat="45.79469" lon="4.69073">
        <ele>334</ele>
        <time>2012-12-08T15:14:08Z</time>
      </trkpt>
      <trkpt lat="45.79468" lon="4.69114">
        <ele>333</ele>
        <time>2012-12-08T15:14:14Z</time>
      </trkpt>
      <trkpt lat="45.79457" lon="4.6919">
        <ele>331</ele>
        <time>2012-12-08T15:14:25Z</time>
      </trkpt>
      <trkpt lat="45.79445" lon="4.69259">
        <ele>327</ele>
        <time>2012-12-08T15:14:33Z</time>
      </trkpt>
      <trkpt lat="45.79434" lon="4.69337">
        <ele>325</ele>
        <time>2012-12-08T15:14:42Z</time>
      </trkpt>
      <trkpt lat="45.79431" lon="4.69349">
        <ele>325</ele>
        <time>2012-12-08T15:14:46Z</time>
      </trkpt>
      <trkpt lat="45.79431" lon="4.69351">
        <ele>325</ele>
        <time>2012-12-08T15:14:47Z</time>
      </trkpt>
      <trkpt lat="45.79433" lon="4.69376">
        <ele>324</ele>
        <time>2012-12-08T15:14:52Z</time>
      </trkpt>
      <trkpt lat="45.79427" lon="4.69429">
        <ele>322</ele>
        <time>2012-12-08T15:14:59Z</time>
      </trkpt>
      <trkpt lat="45.79413" lon="4.69501">
        <ele>318</ele>
        <time>2012-12-08T15:15:07Z</time>
      </trkpt>
      <trkpt lat="45.79398" lon="4.69579">
        <ele>316</ele>
        <time>2012-12-08T15:15:15Z</time>
      </trkpt>
      <trkpt lat="45.7939" lon="4.69635">
        <ele>314</ele>
        <time>2012-12-08T15:15:22Z</time>
      </trkpt>
      <trkpt lat="45.79388" lon="4.6965">
        <ele>313</ele>
        <time>2012-12-08T15:15:24Z</time>
      </trkpt>
      <trkpt lat="45.79386" lon="4.69671">
        <ele>313</ele>
        <time>2012-12-08T15:15:27Z</time>
      </trkpt>
      <trkpt lat="45.79385" lon="4.69678">
        <ele>312</ele>
        <time>2012-12-08T15:15:28Z</time>
      </trkpt>
      <trkpt lat="45.79385" lon="4.69685">
        <ele>312</ele>
        <time>2012-12-08T15:15:29Z</time>
      </trkpt>
      <trkpt lat="45.79385" lon="4.69692">
        <ele>312</ele>
        <time>2012-12-08T15:15:30Z</time>
      </trkpt>
      <trkpt lat="45.79386" lon="4.69698">
        <ele>312</ele>
        <time>2012-12-08T15:15:31Z</time>
      </trkpt>
      <trkpt lat="45.79387" lon="4.69704">
        <ele>311</ele>
        <time>2012-12-08T15:15:32Z</time>
      </trkpt>
      <trkpt lat="45.79386" lon="4.6971">
        <ele>311</ele>
        <time>2012-12-08T15:15:33Z</time>
      </trkpt>
      <trkpt lat="45.79384" lon="4.69723">
        <ele>310</ele>
        <time>2012-12-08T15:15:35Z</time>
      </trkpt>
      <trkpt lat="45.79379" lon="4.69743">
        <ele>308</ele>
        <time>2012-12-08T15:15:38Z</time>
      </trkpt>
      <trkpt lat="45.7937" lon="4.69778">
        <ele>306</ele>
        <time>2012-12-08T15:15:44Z</time>
      </trkpt>
      <trkpt lat="45.79366" lon="4.698">
        <ele>304</ele>
        <time>2012-12-08T15:15:49Z</time>
      </trkpt>
      <trkpt lat="45.79362" lon="4.69827">
        <ele>304</ele>
        <time>2012-12-08T15:15:55Z</time>
      </trkpt>
      <trkpt lat="45.79358" lon="4.69856">
        <ele>303</ele>
        <time>2012-12-08T15:16:01Z</time>
      </trkpt>
      <trkpt lat="45.79356" lon="4.69887">
        <ele>303</ele>
        <time>2012-12-08T15:16:08Z</time>
      </trkpt>
      <trkpt lat="45.79355" lon="4.69912">
        <ele>301</ele>
        <time>2012-12-08T15:16:14Z</time>
      </trkpt>
      <trkpt lat="45.79356" lon="4.69936">
        <ele>302</ele>
        <time>2012-12-08T15:16:21Z</time>
      </trkpt>
      <trkpt lat="45.79356" lon="4.69969">
        <ele>301</ele>
        <time>2012-12-08T15:16:27Z</time>
      </trkpt>
      <trkpt lat="45.79351" lon="4.70008">
        <ele>300</ele>
        <time>2012-12-08T15:16:34Z</time>
      </trkpt>
      <trkpt lat="45.79351" lon="4.70036">
        <ele>299</ele>
        <time>2012-12-08T15:16:40Z</time>
      </trkpt>
      <trkpt lat="45.79353" lon="4.70039">
        <ele>300</ele>
        <time>2012-12-08T15:16:41Z</time>
      </trkpt>
      <trkpt lat="45.79364" lon="4.70047">
        <ele>299</ele>
        <time>2012-12-08T15:16:46Z</time>
      </trkpt>
      <trkpt lat="45.79366" lon="4.70049">
        <ele>300</ele>
        <time>2012-12-08T15:16:47Z</time>
      </trkpt>
      <trkpt lat="45.79369" lon="4.70066">
        <ele>299</ele>
        <time>2012-12-08T15:16:52Z</time>
      </trkpt>
      <trkpt lat="45.79364" lon="4.70085">
        <ele>298</ele>
        <time>2012-12-08T15:16:56Z</time>
      </trkpt>
      <trkpt lat="45.79357" lon="4.70103">
        <ele>297</ele>
        <time>2012-12-08T15:16:59Z</time>
      </trkpt>
      <trkpt lat="45.79353" lon="4.70116">
        <ele>297</ele>
        <time>2012-12-08T15:17:01Z</time>
      </trkpt>
      <trkpt lat="45.79352" lon="4.70123">
        <ele>296</ele>
        <time>2012-12-08T15:17:02Z</time>
      </trkpt>
      <trkpt lat="45.79351" lon="4.70145">
        <ele>295</ele>
        <time>2012-12-08T15:17:05Z</time>
      </trkpt>
      <trkpt lat="45.79353" lon="4.70152">
        <ele>295</ele>
        <time>2012-12-08T15:17:06Z</time>
      </trkpt>
      <trkpt lat="45.79356" lon="4.70156">
        <ele>295</ele>
        <time>2012-12-08T15:17:07Z</time>
      </trkpt>
      <trkpt lat="45.79359" lon="4.70161">
        <ele>295</ele>
        <time>2012-12-08T15:17:08Z</time>
      </trkpt>
      <trkpt lat="45.79361" lon="4.70165">
        <ele>295</ele>
        <time>2012-12-08T15:17:09Z</time>
      </trkpt>
      <trkpt lat="45.79363" lon="4.70169">
        <ele>294</ele>
        <time>2012-12-08T15:17:10Z</time>
      </trkpt>
      <trkpt lat="45.79372" lon="4.70177">
        <ele>294</ele>
        <time>2012-12-08T15:17:15Z</time>
      </trkpt>
      <trkpt lat="45.79384" lon="4.70189">
        <ele>294</ele>
        <time>2012-12-08T15:17:22Z</time>
      </trkpt>
      <trkpt lat="45.7939" lon="4.702">
        <ele>293</ele>
        <time>2012-12-08T15:17:27Z</time>
      </trkpt>
      <trkpt lat="45.79403" lon="4.70227">
        <ele>293</ele>
        <time>2012-12-08T15:17:34Z</time>
      </trkpt>
      <trkpt lat="45.79412" lon="4.70254">
        <ele>291</ele>
        <time>2012-12-08T15:17:40Z</time>
      </trkpt>
      <trkpt lat="45.79412" lon="4.70289">
        <ele>289</ele>
        <time>2012-12-08T15:17:46Z</time>
      </trkpt>
      <trkpt lat="45.79411" lon="4.70295">
        <ele>289</ele>
        <time>2012-12-08T15:17:47Z</time>
      </trkpt>
      <trkpt lat="45.79409" lon="4.70314">
        <ele>288</ele>
        <time>2012-12-08T15:17:50Z</time>
      </trkpt>
      <trkpt lat="45.79409" lon="4.7032">
        <ele>288</ele>
        <time>2012-12-08T15:17:51Z</time>
      </trkpt>
      <trkpt lat="45.79409" lon="4.70326">
        <ele>287</ele>
        <time>2012-12-08T15:17:52Z</time>
      </trkpt>
      <trkpt lat="45.79408" lon="4.70332">
        <ele>286</ele>
        <time>2012-12-08T15:17:53Z</time>
      </trkpt>
      <trkpt lat="45.79405" lon="4.70338">
        <ele>286</ele>
        <time>2012-12-08T15:17:54Z</time>
      </trkpt>
      <trkpt lat="45.79401" lon="4.70344">
        <ele>286</ele>
        <time>2012-12-08T15:17:55Z</time>
      </trkpt>
      <trkpt lat="45.79398" lon="4.70348">
        <ele>285</ele>
        <time>2012-12-08T15:17:56Z</time>
      </trkpt>
      <trkpt lat="45.79394" lon="4.70352">
        <ele>285</ele>
        <time>2012-12-08T15:17:57Z</time>
      </trkpt>
      <trkpt lat="45.7939" lon="4.70355">
        <ele>284</ele>
        <time>2012-12-08T15:17:58Z</time>
      </trkpt>
      <trkpt lat="45.79385" lon="4.70357">
        <ele>284</ele>
        <time>2012-12-08T15:17:59Z</time>
      </trkpt>
      <trkpt lat="45.79381" lon="4.70357">
        <ele>284</ele>
        <time>2012-12-08T15:18:00Z</time>
      </trkpt>
      <trkpt lat="45.79364" lon="4.70365">
        <ele>283</ele>
        <time>2012-12-08T15:18:05Z</time>
      </trkpt>
      <trkpt lat="45.79338" lon="4.70369">
        <ele>281</ele>
        <time>2012-12-08T15:18:11Z</time>
      </trkpt>
      <trkpt lat="45.79335" lon="4.70371">
        <ele>280</ele>
        <time>2012-12-08T15:18:12Z</time>
      </trkpt>
      <trkpt lat="45.79331" lon="4.70374">
        <ele>279</ele>
        <time>2012-12-08T15:18:13Z</time>
      </trkpt>
      <trkpt lat="45.79328" lon="4.70378">
        <ele>279</ele>
        <time>2012-12-08T15:18:14Z</time>
      </trkpt>
      <trkpt lat="45.79326" lon="4.70382">
        <ele>277</ele>
        <time>2012-12-08T15:18:15Z</time>
      </trkpt>
      <trkpt lat="45.79325" lon="4.70385">
        <ele>277</ele>
        <time>2012-12-08T15:18:16Z</time>
      </trkpt>
      <trkpt lat="45.79324" lon="4.7039">
        <ele>276</ele>
        <time>2012-12-08T15:18:17Z</time>
      </trkpt>
      <trkpt lat="45.79323" lon="4.70394">
        <ele>276</ele>
        <time>2012-12-08T15:18:18Z</time>
      </trkpt>
      <trkpt lat="45.79323" lon="4.70397">
        <ele>275</ele>
        <time>2012-12-08T15:18:19Z</time>
      </trkpt>
      <trkpt lat="45.79323" lon="4.704">
        <ele>274</ele>
        <time>2012-12-08T15:18:20Z</time>
      </trkpt>
      <trkpt lat="45.79321" lon="4.70403">
        <ele>273</ele>
        <time>2012-12-08T15:18:21Z</time>
      </trkpt>
      <trkpt lat="45.79318" lon="4.70405">
        <ele>273</ele>
        <time>2012-12-08T15:18:22Z</time>
      </trkpt>
      <trkpt lat="45.79315" lon="4.70406">
        <ele>272</ele>
        <time>2012-12-08T15:18:23Z</time>
      </trkpt>
      <trkpt lat="45.79311" lon="4.70406">
        <ele>272</ele>
        <time>2012-12-08T15:18:24Z</time>
      </trkpt>
      <trkpt lat="45.79306" lon="4.70406">
        <ele>271</ele>
        <time>2012-12-08T15:18:25Z</time>
      </trkpt>
      <trkpt lat="45.79302" lon="4.70407">
        <ele>271</ele>
        <time>2012-12-08T15:18:26Z</time>
      </trkpt>
      <trkpt lat="45.79291" lon="4.70413">
        <ele>270</ele>
        <time>2012-12-08T15:18:31Z</time>
      </trkpt>
      <trkpt lat="45.79287" lon="4.70417">
        <ele>270</ele>
        <time>2012-12-08T15:18:35Z</time>
      </trkpt>
      <trkpt lat="45.79285" lon="4.70422">
        <ele>269</ele>
        <time>2012-12-08T15:18:41Z</time>
      </trkpt>
      <trkpt lat="45.79281" lon="4.70423">
        <ele>269</ele>
        <time>2012-12-08T15:18:51Z</time>
      </trkpt>
      <trkpt lat="45.79279" lon="4.70423">
        <ele>269</ele>
        <time>2012-12-08T15:19:03Z</time>
      </trkpt>
      <trkpt lat="45.79277" lon="4.70421">
        <ele>269</ele>
        <time>2012-12-08T15:19:14Z</time>
      </trkpt>
      <trkpt lat="45.79273" lon="4.70424">
        <ele>269</ele>
        <time>2012-12-08T15:19:21Z</time>
      </trkpt>
      <trkpt lat="45.79271" lon="4.70425">
        <ele>270</ele>
        <time>2012-12-08T15:19:28Z</time>
      </trkpt>
      <trkpt lat="45.79269" lon="4.7043">
        <ele>270</ele>
        <time>2012-12-08T15:19:35Z</time>
      </trkpt>
      <trkpt lat="45.79269" lon="4.70436">
        <ele>271</ele>
        <time>2012-12-08T15:19:41Z</time>
      </trkpt>
      <trkpt lat="45.79273" lon="4.70442">
        <ele>271</ele>
        <time>2012-12-08T15:19:48Z</time>
      </trkpt>
      <trkpt lat="45.79278" lon="4.70454">
        <ele>271</ele>
        <time>2012-12-08T15:19:54Z</time>
      </trkpt>
      <trkpt lat="45.79286" lon="4.70471">
        <ele>271</ele>
        <time>2012-12-08T15:20:01Z</time>
      </trkpt>
      <trkpt lat="45.79301" lon="4.70492">
        <ele>271</ele>
        <time>2012-12-08T15:20:09Z</time>
      </trkpt>
      <trkpt lat="45.79312" lon="4.70507">
        <ele>271</ele>
        <time>2012-12-08T15:20:15Z</time>
      </trkpt>
      <trkpt lat="45.79325" lon="4.70523">
        <ele>270</ele>
        <time>2012-12-08T15:20:21Z</time>
      </trkpt>
      <trkpt lat="45.79343" lon="4.70539">
        <ele>269</ele>
        <time>2012-12-08T15:20:27Z</time>
      </trkpt>
      <trkpt lat="45.79352" lon="4.70541">
        <ele>268</ele>
        <time>2012-12-08T15:20:30Z</time>
      </trkpt>
      <trkpt lat="45.79367" lon="4.70549">
        <ele>268</ele>
        <time>2012-12-08T15:20:37Z</time>
      </trkpt>
      <trkpt lat="45.79369" lon="4.70551">
        <ele>268</ele>
        <time>2012-12-08T15:20:38Z</time>
      </trkpt>
      <trkpt lat="45.79371" lon="4.70554">
        <ele>268</ele>
        <time>2012-12-08T15:20:39Z</time>
      </trkpt>
      <trkpt lat="45.79374" lon="4.70557">
        <ele>268</ele>
        <time>2012-12-08T15:20:40Z</time>
      </trkpt>
      <trkpt lat="45.79376" lon="4.7056">
        <ele>267</ele>
        <time>2012-12-08T15:20:41Z</time>
      </trkpt>
      <trkpt lat="45.79378" lon="4.70562">
        <ele>267</ele>
        <time>2012-12-08T15:20:42Z</time>
      </trkpt>
      <trkpt lat="45.79395" lon="4.70584">
        <ele>268</ele>
        <time>2012-12-08T15:20:49Z</time>
      </trkpt>
      <trkpt lat="45.79405" lon="4.70605">
        <ele>267</ele>
        <time>2012-12-08T15:20:55Z</time>
      </trkpt>
      <trkpt lat="45.79406" lon="4.70609">
        <ele>268</ele>
        <time>2012-12-08T15:20:56Z</time>
      </trkpt>
      <trkpt lat="45.79407" lon="4.70612">
        <ele>267</ele>
        <time>2012-12-08T15:20:57Z</time>
      </trkpt>
      <trkpt lat="45.79409" lon="4.70622">
        <ele>268</ele>
        <time>2012-12-08T15:21:00Z</time>
      </trkpt>
      <trkpt lat="45.7941" lon="4.70625">
        <ele>268</ele>
        <time>2012-12-08T15:21:01Z</time>
      </trkpt>
      <trkpt lat="45.79411" lon="4.70628">
        <ele>268</ele>
        <time>2012-12-08T15:21:02Z</time>
      </trkpt>
      <trkpt lat="45.79412" lon="4.70631">
        <ele>268</ele>
        <time>2012-12-08T15:21:03Z</time>
      </trkpt>
      <trkpt lat="45.79414" lon="4.70633">
        <ele>268</ele>
        <time>2012-12-08T15:21:04Z</time>
      </trkpt>
      <trkpt lat="45.79415" lon="4.70634">
        <ele>268</ele>
        <time>2012-12-08T15:21:05Z</time>
      </trkpt>
      <trkpt lat="45.79418" lon="4.7064">
        <ele>268</ele>
        <time>2012-12-08T15:21:06Z</time>
      </trkpt>
      <trkpt lat="45.79419" lon="4.70644">
        <ele>268</ele>
        <time>2012-12-08T15:21:07Z</time>
      </trkpt>
      <trkpt lat="45.7942" lon="4.70647">
        <ele>269</ele>
        <time>2012-12-08T15:21:08Z</time>
      </trkpt>
      <trkpt lat="45.79423" lon="4.70657">
        <ele>269</ele>
        <time>2012-12-08T15:21:13Z</time>
      </trkpt>
      <trkpt lat="45.79426" lon="4.70663">
        <ele>269</ele>
        <time>2012-12-08T15:21:21Z</time>
      </trkpt>
      <trkpt lat="45.79428" lon="4.70668">
        <ele>270</ele>
        <time>2012-12-08T15:21:26Z</time>
      </trkpt>
      <trkpt lat="45.79429" lon="4.70676">
        <ele>270</ele>
        <time>2012-12-08T15:21:32Z</time>
      </trkpt>
      <trkpt lat="45.79433" lon="4.70685">
        <ele>272</ele>
        <time>2012-12-08T15:21:38Z</time>
      </trkpt>
      <trkpt lat="45.79434" lon="4.70692">
        <ele>272</ele>
        <time>2012-12-08T15:21:45Z</time>
      </trkpt>
      <trkpt lat="45.79436" lon="4.70699">
        <ele>274</ele>
        <time>2012-12-08T15:21:52Z</time>
      </trkpt>
      <trkpt lat="45.79444" lon="4.70717">
        <ele>274</ele>
        <time>2012-12-08T15:22:01Z</time>
      </trkpt>
      <trkpt lat="45.79447" lon="4.7073">
        <ele>275</ele>
        <time>2012-12-08T15:22:07Z</time>
      </trkpt>
      <trkpt lat="45.79454" lon="4.70743">
        <ele>276</ele>
        <time>2012-12-08T15:22:15Z</time>
      </trkpt>
      <trkpt lat="45.79457" lon="4.70747">
        <ele>276</ele>
        <time>2012-12-08T15:22:21Z</time>
      </trkpt>
      <trkpt lat="45.79461" lon="4.70761">
        <ele>276</ele>
        <time>2012-12-08T15:22:28Z</time>
      </trkpt>
      <trkpt lat="45.79465" lon="4.70771">
        <ele>277</ele>
        <time>2012-12-08T15:22:35Z</time>
      </trkpt>
      <trkpt lat="45.79467" lon="4.70779">
        <ele>278</ele>
        <time>2012-12-08T15:22:43Z</time>
      </trkpt>
      <trkpt lat="45.79466" lon="4.7079">
        <ele>279</ele>
        <time>2012-12-08T15:22:50Z</time>
      </trkpt>
      <trkpt lat="45.79465" lon="4.70799">
        <ele>281</ele>
        <time>2012-12-08T15:22:56Z</time>
      </trkpt>
      <trkpt lat="45.79463" lon="4.70807">
        <ele>281</ele>
        <time>2012-12-08T15:23:04Z</time>
      </trkpt>
      <trkpt lat="45.79463" lon="4.70813">
        <ele>283</ele>
        <time>2012-12-08T15:23:11Z</time>
      </trkpt>
      <trkpt lat="45.79459" lon="4.70817">
        <ele>284</ele>
        <time>2012-12-08T15:23:18Z</time>
      </trkpt>
      <trkpt lat="45.79456" lon="4.70829">
        <ele>286</ele>
        <time>2012-12-08T15:23:27Z</time>
      </trkpt>
      <trkpt lat="45.79452" lon="4.7084">
        <ele>288</ele>
        <time>2012-12-08T15:23:36Z</time>
      </trkpt>
      <trkpt lat="45.79452" lon="4.70842">
        <ele>288</ele>
        <time>2012-12-08T15:23:44Z</time>
      </trkpt>
      <trkpt lat="45.79448" lon="4.70847">
        <ele>289</ele>
        <time>2012-12-08T15:23:52Z</time>
      </trkpt>
      <trkpt lat="45.79446" lon="4.70858">
        <ele>289</ele>
        <time>2012-12-08T15:23:58Z</time>
      </trkpt>
      <trkpt lat="45.79445" lon="4.7086">
        <ele>289</ele>
        <time>2012-12-08T15:23:59Z</time>
      </trkpt>
      <trkpt lat="45.79438" lon="4.70871">
        <ele>290</ele>
        <time>2012-12-08T15:24:07Z</time>
      </trkpt>
      <trkpt lat="45.79432" lon="4.70872">
        <ele>290</ele>
        <time>2012-12-08T15:24:12Z</time>
      </trkpt>
      <trkpt lat="45.7943" lon="4.70872">
        <ele>290</ele>
        <time>2012-12-08T15:24:13Z</time>
      </trkpt>
      <trkpt lat="45.79429" lon="4.70872">
        <ele>291</ele>
        <time>2012-12-08T15:24:14Z</time>
      </trkpt>
      <trkpt lat="45.79428" lon="4.70872">
        <ele>291</ele>
        <time>2012-12-08T15:24:15Z</time>
      </trkpt>
      <trkpt lat="45.79427" lon="4.70871">
        <ele>291</ele>
        <time>2012-12-08T15:24:16Z</time>
      </trkpt>
      <trkpt lat="45.79425" lon="4.7087">
        <ele>291</ele>
        <time>2012-12-08T15:24:17Z</time>
      </trkpt>
      <trkpt lat="45.79424" lon="4.70869">
        <ele>291</ele>
        <time>2012-12-08T15:24:18Z</time>
      </trkpt>
      <trkpt lat="45.79422" lon="4.70868">
        <ele>292</ele>
        <time>2012-12-08T15:24:19Z</time>
      </trkpt>
      <trkpt lat="45.7942" lon="4.70868">
        <ele>292</ele>
        <time>2012-12-08T15:24:20Z</time>
      </trkpt>
      <trkpt lat="45.79412" lon="4.70867">
        <ele>293</ele>
        <time>2012-12-08T15:24:26Z</time>
      </trkpt>
      <trkpt lat="45.79411" lon="4.70868">
        <ele>294</ele>
        <time>2012-12-08T15:24:27Z</time>
      </trkpt>
      <trkpt lat="45.7941" lon="4.70868">
        <ele>293</ele>
        <time>2012-12-08T15:24:28Z</time>
      </trkpt>
      <trkpt lat="45.79408" lon="4.70869">
        <ele>293</ele>
        <time>2012-12-08T15:24:29Z</time>
      </trkpt>
      <trkpt lat="45.79407" lon="4.70869">
        <ele>293</ele>
        <time>2012-12-08T15:24:30Z</time>
      </trkpt>
      <trkpt lat="45.79406" lon="4.70868">
        <ele>293</ele>
        <time>2012-12-08T15:24:31Z</time>
      </trkpt>
      <trkpt lat="45.79405" lon="4.70867">
        <ele>293</ele>
        <time>2012-12-08T15:24:32Z</time>
      </trkpt>
      <trkpt lat="45.79395" lon="4.70863">
        <ele>293</ele>
        <time>2012-12-08T15:24:39Z</time>
      </trkpt>
      <trkpt lat="45.79381" lon="4.70863">
        <ele>292</ele>
        <time>2012-12-08T15:24:48Z</time>
      </trkpt>
      <trkpt lat="45.79378" lon="4.70863">
        <ele>295</ele>
        <time>2012-12-08T15:24:50Z</time>
      </trkpt>
      <trkpt lat="45.79362" lon="4.70871">
        <ele>294</ele>
        <time>2012-12-08T15:25:00Z</time>
      </trkpt>
      <trkpt lat="45.79359" lon="4.70895">
        <ele>293</ele>
        <time>2012-12-08T15:25:07Z</time>
      </trkpt>
      <trkpt lat="45.79358" lon="4.70917">
        <ele>293</ele>
        <time>2012-12-08T15:25:13Z</time>
      </trkpt>
      <trkpt lat="45.79352" lon="4.70953">
        <ele>292</ele>
        <time>2012-12-08T15:25:21Z</time>
      </trkpt>
      <trkpt lat="45.79337" lon="4.70979">
        <ele>292</ele>
        <time>2012-12-08T15:25:28Z</time>
      </trkpt>
      <trkpt lat="45.79311" lon="4.70985">
        <ele>292</ele>
        <time>2012-12-08T15:25:36Z</time>
      </trkpt>
      <trkpt lat="45.79282" lon="4.70982">
        <ele>293</ele>
        <time>2012-12-08T15:25:45Z</time>
      </trkpt>
      <trkpt lat="45.79251" lon="4.70982">
        <ele>293</ele>
        <time>2012-12-08T15:25:53Z</time>
      </trkpt>
      <trkpt lat="45.79216" lon="4.70979">
        <ele>291</ele>
        <time>2012-12-08T15:26:02Z</time>
      </trkpt>
      <trkpt lat="45.79211" lon="4.70978">
        <ele>292</ele>
        <time>2012-12-08T15:26:03Z</time>
      </trkpt>
      <trkpt lat="45.79179" lon="4.70971">
        <ele>291</ele>
        <time>2012-12-08T15:26:11Z</time>
      </trkpt>
      <trkpt lat="45.79175" lon="4.70969">
        <ele>291</ele>
        <time>2012-12-08T15:26:12Z</time>
      </trkpt>
      <trkpt lat="45.79171" lon="4.70965">
        <ele>291</ele>
        <time>2012-12-08T15:26:13Z</time>
      </trkpt>
      <trkpt lat="45.79169" lon="4.70961">
        <ele>291</ele>
        <time>2012-12-08T15:26:14Z</time>
      </trkpt>
      <trkpt lat="45.79166" lon="4.70957">
        <ele>291</ele>
        <time>2012-12-08T15:26:15Z</time>
      </trkpt>
      <trkpt lat="45.79164" lon="4.70952">
        <ele>291</ele>
        <time>2012-12-08T15:26:16Z</time>
      </trkpt>
      <trkpt lat="45.79162" lon="4.70948">
        <ele>291</ele>
        <time>2012-12-08T15:26:17Z</time>
      </trkpt>
      <trkpt lat="45.79144" lon="4.7091">
        <ele>290</ele>
        <time>2012-12-08T15:26:25Z</time>
      </trkpt>
      <trkpt lat="45.79142" lon="4.70904">
        <ele>290</ele>
        <time>2012-12-08T15:26:26Z</time>
      </trkpt>
      <trkpt lat="45.79141" lon="4.70898">
        <ele>290</ele>
        <time>2012-12-08T15:26:27Z</time>
      </trkpt>
      <trkpt lat="45.79139" lon="4.70893">
        <ele>290</ele>
        <time>2012-12-08T15:26:28Z</time>
      </trkpt>
      <trkpt lat="45.79138" lon="4.70888">
        <ele>290</ele>
        <time>2012-12-08T15:26:29Z</time>
      </trkpt>
      <trkpt lat="45.79134" lon="4.70873">
        <ele>290</ele>
        <time>2012-12-08T15:26:32Z</time>
      </trkpt>
      <trkpt lat="45.79132" lon="4.70871">
        <ele>290</ele>
        <time>2012-12-08T15:26:33Z</time>
      </trkpt>
      <trkpt lat="45.79128" lon="4.70871">
        <ele>290</ele>
        <time>2012-12-08T15:26:34Z</time>
      </trkpt>
      <trkpt lat="45.79126" lon="4.70871">
        <ele>290</ele>
        <time>2012-12-08T15:26:35Z</time>
      </trkpt>
      <trkpt lat="45.79123" lon="4.7087">
        <ele>290</ele>
        <time>2012-12-08T15:26:36Z</time>
      </trkpt>
      <trkpt lat="45.79121" lon="4.7087">
        <ele>290</ele>
        <time>2012-12-08T15:26:37Z</time>
      </trkpt>
      <trkpt lat="45.79118" lon="4.70869">
        <ele>290</ele>
        <time>2012-12-08T15:26:38Z</time>
      </trkpt>
      <trkpt lat="45.79116" lon="4.70867">
        <ele>290</ele>
        <time>2012-12-08T15:26:39Z</time>
      </trkpt>
      <trkpt lat="45.7911" lon="4.70859">
        <ele>290</ele>
        <time>2012-12-08T15:26:43Z</time>
      </trkpt>
      <trkpt lat="45.79108" lon="4.70859">
        <ele>290</ele>
        <time>2012-12-08T15:26:44Z</time>
      </trkpt>
      <trkpt lat="45.79105" lon="4.70861">
        <ele>290</ele>
        <time>2012-12-08T15:26:45Z</time>
      </trkpt>
      <trkpt lat="45.79102" lon="4.70865">
        <ele>290</ele>
        <time>2012-12-08T15:26:46Z</time>
      </trkpt>
      <trkpt lat="45.79099" lon="4.70868">
        <ele>290</ele>
        <time>2012-12-08T15:26:47Z</time>
      </trkpt>
      <trkpt lat="45.79081" lon="4.70888">
        <ele>290</ele>
        <time>2012-12-08T15:26:54Z</time>
      </trkpt>
      <trkpt lat="45.79078" lon="4.70888">
        <ele>289</ele>
        <time>2012-12-08T15:26:55Z</time>
      </trkpt>
      <trkpt lat="45.79074" lon="4.70886">
        <ele>289</ele>
        <time>2012-12-08T15:26:56Z</time>
      </trkpt>
      <trkpt lat="45.79071" lon="4.70883">
        <ele>289</ele>
        <time>2012-12-08T15:26:57Z</time>
      </trkpt>
      <trkpt lat="45.79068" lon="4.70879">
        <ele>290</ele>
        <time>2012-12-08T15:26:58Z</time>
      </trkpt>
      <trkpt lat="45.79048" lon="4.70873">
        <ele>290</ele>
        <time>2012-12-08T15:27:04Z</time>
      </trkpt>
      <trkpt lat="45.79041" lon="4.70877">
        <ele>290</ele>
        <time>2012-12-08T15:27:06Z</time>
      </trkpt>
      <trkpt lat="45.79038" lon="4.7088">
        <ele>290</ele>
        <time>2012-12-08T15:27:07Z</time>
      </trkpt>
      <trkpt lat="45.79034" lon="4.70885">
        <ele>290</ele>
        <time>2012-12-08T15:27:08Z</time>
      </trkpt>
      <trkpt lat="45.79032" lon="4.7089">
        <ele>290</ele>
        <time>2012-12-08T15:27:09Z</time>
      </trkpt>
      <trkpt lat="45.7903" lon="4.70896">
        <ele>289</ele>
        <time>2012-12-08T15:27:10Z</time>
      </trkpt>
      <trkpt lat="45.79029" lon="4.70903">
        <ele>289</ele>
        <time>2012-12-08T15:27:11Z</time>
      </trkpt>
      <trkpt lat="45.7903" lon="4.70911">
        <ele>289</ele>
        <time>2012-12-08T15:27:12Z</time>
      </trkpt>
      <trkpt lat="45.79031" lon="4.70919">
        <ele>289</ele>
        <time>2012-12-08T15:27:13Z</time>
      </trkpt>
      <trkpt lat="45.79033" lon="4.70927">
        <ele>289</ele>
        <time>2012-12-08T15:27:14Z</time>
      </trkpt>
      <trkpt lat="45.79034" lon="4.70935">
        <ele>289</ele>
        <time>2012-12-08T15:27:15Z</time>
      </trkpt>
      <trkpt lat="45.79034" lon="4.70943">
        <ele>288</ele>
        <time>2012-12-08T15:27:16Z</time>
      </trkpt>
      <trkpt lat="45.79034" lon="4.70952">
        <ele>288</ele>
        <time>2012-12-08T15:27:17Z</time>
      </trkpt>
      <trkpt lat="45.79032" lon="4.70961">
        <ele>288</ele>
        <time>2012-12-08T15:27:18Z</time>
      </trkpt>
      <trkpt lat="45.7903" lon="4.70969">
        <ele>288</ele>
        <time>2012-12-08T15:27:19Z</time>
      </trkpt>
      <trkpt lat="45.79007" lon="4.7105">
        <ele>284</ele>
        <time>2012-12-08T15:27:28Z</time>
      </trkpt>
      <trkpt lat="45.78985" lon="4.71106">
        <ele>284</ele>
        <time>2012-12-08T15:27:35Z</time>
      </trkpt>
      <trkpt lat="45.78968" lon="4.7114">
        <ele>286</ele>
        <time>2012-12-08T15:27:42Z</time>
      </trkpt>
      <trkpt lat="45.78947" lon="4.71173">
        <ele>288</ele>
        <time>2012-12-08T15:27:50Z</time>
      </trkpt>
      <trkpt lat="45.7892" lon="4.71208">
        <ele>289</ele>
        <time>2012-12-08T15:28:00Z</time>
      </trkpt>
      <trkpt lat="45.78896" lon="4.71237">
        <ele>291</ele>
        <time>2012-12-08T15:28:09Z</time>
      </trkpt>
      <trkpt lat="45.78871" lon="4.7126">
        <ele>293</ele>
        <time>2012-12-08T15:28:19Z</time>
      </trkpt>
      <trkpt lat="45.78847" lon="4.71278">
        <ele>294</ele>
        <time>2012-12-08T15:28:29Z</time>
      </trkpt>
      <trkpt lat="45.78821" lon="4.71296">
        <ele>296</ele>
        <time>2012-12-08T15:28:39Z</time>
      </trkpt>
      <trkpt lat="45.78791" lon="4.71319">
        <ele>297</ele>
        <time>2012-12-08T15:28:50Z</time>
      </trkpt>
      <trkpt lat="45.78773" lon="4.71336">
        <ele>296</ele>
        <time>2012-12-08T15:28:57Z</time>
      </trkpt>
      <trkpt lat="45.78751" lon="4.71355">
        <ele>297</ele>
        <time>2012-12-08T15:29:05Z</time>
      </trkpt>
      <trkpt lat="45.78709" lon="4.71392">
        <ele>297</ele>
        <time>2012-12-08T15:29:18Z</time>
      </trkpt>
      <trkpt lat="45.78677" lon="4.71421">
        <ele>296</ele>
        <time>2012-12-08T15:29:27Z</time>
      </trkpt>
      <trkpt lat="45.78638" lon="4.71456">
        <ele>296</ele>
        <time>2012-12-08T15:29:38Z</time>
      </trkpt>
      <trkpt lat="45.78605" lon="4.71489">
        <ele>296</ele>
        <time>2012-12-08T15:29:47Z</time>
      </trkpt>
      <trkpt lat="45.78572" lon="4.71529">
        <ele>295</ele>
        <time>2012-12-08T15:29:56Z</time>
      </trkpt>
      <trkpt lat="45.7854" lon="4.7158">
        <ele>295</ele>
        <time>2012-12-08T15:30:06Z</time>
      </trkpt>
      <trkpt lat="45.78511" lon="4.71626">
        <ele>295</ele>
        <time>2012-12-08T15:30:15Z</time>
      </trkpt>
      <trkpt lat="45.78486" lon="4.71665">
        <ele>295</ele>
        <time>2012-12-08T15:30:23Z</time>
      </trkpt>
      <trkpt lat="45.78484" lon="4.7167">
        <ele>294</ele>
        <time>2012-12-08T15:30:24Z</time>
      </trkpt>
      <trkpt lat="45.78481" lon="4.71674">
        <ele>294</ele>
        <time>2012-12-08T15:30:25Z</time>
      </trkpt>
      <trkpt lat="45.78466" lon="4.71701">
        <ele>294</ele>
        <time>2012-12-08T15:30:30Z</time>
      </trkpt>
      <trkpt lat="45.78464" lon="4.71706">
        <ele>294</ele>
        <time>2012-12-08T15:30:31Z</time>
      </trkpt>
      <trkpt lat="45.78445" lon="4.71745">
        <ele>294</ele>
        <time>2012-12-08T15:30:38Z</time>
      </trkpt>
      <trkpt lat="45.78441" lon="4.7175">
        <ele>294</ele>
        <time>2012-12-08T15:30:39Z</time>
      </trkpt>
      <trkpt lat="45.78433" lon="4.71758">
        <ele>294</ele>
        <time>2012-12-08T15:30:41Z</time>
      </trkpt>
      <trkpt lat="45.7843" lon="4.71764">
        <ele>294</ele>
        <time>2012-12-08T15:30:42Z</time>
      </trkpt>
      <trkpt lat="45.78428" lon="4.7177">
        <ele>294</ele>
        <time>2012-12-08T15:30:43Z</time>
      </trkpt>
      <trkpt lat="45.78427" lon="4.71777">
        <ele>294</ele>
        <time>2012-12-08T15:30:44Z</time>
      </trkpt>
      <trkpt lat="45.78428" lon="4.71784">
        <ele>294</ele>
        <time>2012-12-08T15:30:45Z</time>
      </trkpt>
      <trkpt lat="45.7843" lon="4.71791">
        <ele>294</ele>
        <time>2012-12-08T15:30:46Z</time>
      </trkpt>
      <trkpt lat="45.78433" lon="4.71797">
        <ele>294</ele>
        <time>2012-12-08T15:30:47Z</time>
      </trkpt>
      <trkpt lat="45.78437" lon="4.71802">
        <ele>294</ele>
        <time>2012-12-08T15:30:48Z</time>
      </trkpt>
      <trkpt lat="45.7844" lon="4.71807">
        <ele>293</ele>
        <time>2012-12-08T15:30:49Z</time>
      </trkpt>
      <trkpt lat="45.78443" lon="4.71814">
        <ele>293</ele>
        <time>2012-12-08T15:30:50Z</time>
      </trkpt>
      <trkpt lat="45.78445" lon="4.7182">
        <ele>293</ele>
        <time>2012-12-08T15:30:51Z</time>
      </trkpt>
      <trkpt lat="45.78447" lon="4.71827">
        <ele>293</ele>
        <time>2012-12-08T15:30:52Z</time>
      </trkpt>
      <trkpt lat="45.78455" lon="4.71898">
        <ele>291</ele>
        <time>2012-12-08T15:31:01Z</time>
      </trkpt>
      <trkpt lat="45.78462" lon="4.71969">
        <ele>291</ele>
        <time>2012-12-08T15:31:09Z</time>
      </trkpt>
      <trkpt lat="45.78469" lon="4.7205">
        <ele>290</ele>
        <time>2012-12-08T15:31:18Z</time>
      </trkpt>
      <trkpt lat="45.78478" lon="4.72144">
        <ele>289</ele>
        <time>2012-12-08T15:31:29Z</time>
      </trkpt>
      <trkpt lat="45.78485" lon="4.72221">
        <ele>289</ele>
        <time>2012-12-08T15:31:38Z</time>
      </trkpt>
      <trkpt lat="45.78487" lon="4.72276">
        <ele>290</ele>
        <time>2012-12-08T15:31:45Z</time>
      </trkpt>
      <trkpt lat="45.78484" lon="4.7229">
        <ele>290</ele>
        <time>2012-12-08T15:31:47Z</time>
      </trkpt>
      <trkpt lat="45.78482" lon="4.72296">
        <ele>290</ele>
        <time>2012-12-08T15:31:48Z</time>
      </trkpt>
      <trkpt lat="45.78479" lon="4.72303">
        <ele>290</ele>
        <time>2012-12-08T15:31:49Z</time>
      </trkpt>
      <trkpt lat="45.78476" lon="4.72309">
        <ele>289</ele>
        <time>2012-12-08T15:31:50Z</time>
      </trkpt>
      <trkpt lat="45.78473" lon="4.72315">
        <ele>289</ele>
        <time>2012-12-08T15:31:51Z</time>
      </trkpt>
      <trkpt lat="45.78452" lon="4.72361">
        <ele>289</ele>
        <time>2012-12-08T15:31:59Z</time>
      </trkpt>
      <trkpt lat="45.78433" lon="4.72398">
        <ele>289</ele>
        <time>2012-12-08T15:32:05Z</time>
      </trkpt>
      <trkpt lat="45.78412" lon="4.72455">
        <ele>287</ele>
        <time>2012-12-08T15:32:13Z</time>
      </trkpt>
      <trkpt lat="45.78408" lon="4.72471">
        <ele>287</ele>
        <time>2012-12-08T15:32:15Z</time>
      </trkpt>
      <trkpt lat="45.78405" lon="4.72491">
        <ele>283</ele>
        <time>2012-12-08T15:32:17Z</time>
      </trkpt>
      <trkpt lat="45.78404" lon="4.72502">
        <ele>284</ele>
        <time>2012-12-08T15:32:18Z</time>
      </trkpt>
      <trkpt lat="45.78398" lon="4.72584">
        <ele>281</ele>
        <time>2012-12-08T15:32:25Z</time>
      </trkpt>
      <trkpt lat="45.78389" lon="4.72651">
        <ele>277</ele>
        <time>2012-12-08T15:32:30Z</time>
      </trkpt>
      <trkpt lat="45.78387" lon="4.72664">
        <ele>277</ele>
        <time>2012-12-08T15:32:31Z</time>
      </trkpt>
      <trkpt lat="45.78383" lon="4.72705">
        <ele>274</ele>
        <time>2012-12-08T15:32:34Z</time>
      </trkpt>
      <trkpt lat="45.78379" lon="4.72779">
        <ele>271</ele>
        <time>2012-12-08T15:32:39Z</time>
      </trkpt>
      <trkpt lat="45.78375" lon="4.72863">
        <ele>268</ele>
        <time>2012-12-08T15:32:45Z</time>
      </trkpt>
      <trkpt lat="45.78374" lon="4.72904">
        <ele>266</ele>
        <time>2012-12-08T15:32:48Z</time>
      </trkpt>
      <trkpt lat="45.78371" lon="4.72997">
        <ele>263</ele>
        <time>2012-12-08T15:32:55Z</time>
      </trkpt>
      <trkpt lat="45.78369" lon="4.73067">
        <ele>259</ele>
        <time>2012-12-08T15:33:00Z</time>
      </trkpt>
      <trkpt lat="45.78373" lon="4.73111">
        <ele>257</ele>
        <time>2012-12-08T15:33:03Z</time>
      </trkpt>
      <trkpt lat="45.78377" lon="4.73125">
        <ele>255</ele>
        <time>2012-12-08T15:33:04Z</time>
      </trkpt>
      <trkpt lat="45.7838" lon="4.73139">
        <ele>254</ele>
        <time>2012-12-08T15:33:05Z</time>
      </trkpt>
      <trkpt lat="45.78386" lon="4.73153">
        <ele>254</ele>
        <time>2012-12-08T15:33:06Z</time>
      </trkpt>
      <trkpt lat="45.78392" lon="4.73166">
        <ele>253</ele>
        <time>2012-12-08T15:33:07Z</time>
      </trkpt>
      <trkpt lat="45.784" lon="4.73178">
        <ele>252</ele>
        <time>2012-12-08T15:33:08Z</time>
      </trkpt>
      <trkpt lat="45.78408" lon="4.7319">
        <ele>252</ele>
        <time>2012-12-08T15:33:09Z</time>
      </trkpt>
      <trkpt lat="45.78417" lon="4.732">
        <ele>250</ele>
        <time>2012-12-08T15:33:10Z</time>
      </trkpt>
      <trkpt lat="45.78426" lon="4.73211">
        <ele>249</ele>
        <time>2012-12-08T15:33:11Z</time>
      </trkpt>
      <trkpt lat="45.78443" lon="4.73234">
        <ele>247</ele>
        <time>2012-12-08T15:33:13Z</time>
      </trkpt>
      <trkpt lat="45.7845" lon="4.73247">
        <ele>247</ele>
        <time>2012-12-08T15:33:14Z</time>
      </trkpt>
      <trkpt lat="45.78463" lon="4.73275">
        <ele>243</ele>
        <time>2012-12-08T15:33:16Z</time>
      </trkpt>
      <trkpt lat="45.7848" lon="4.7332">
        <ele>240</ele>
        <time>2012-12-08T15:33:19Z</time>
      </trkpt>
      <trkpt lat="45.78494" lon="4.73367">
        <ele>237</ele>
        <time>2012-12-08T15:33:22Z</time>
      </trkpt>
      <trkpt lat="45.785" lon="4.73381">
        <ele>236</ele>
        <time>2012-12-08T15:33:23Z</time>
      </trkpt>
      <trkpt lat="45.78516" lon="4.73412">
        <ele>233</ele>
        <time>2012-12-08T15:33:26Z</time>
      </trkpt>
      <trkpt lat="45.7852" lon="4.73418">
        <ele>232</ele>
        <time>2012-12-08T15:33:27Z</time>
      </trkpt>
      <trkpt lat="45.78528" lon="4.73426">
        <ele>230</ele>
        <time>2012-12-08T15:33:30Z</time>
      </trkpt>
      <trkpt lat="45.78528" lon="4.73428">
        <ele>230</ele>
        <time>2012-12-08T15:33:31Z</time>
      </trkpt>
      <trkpt lat="45.78527" lon="4.73431">
        <ele>231</ele>
        <time>2012-12-08T15:33:36Z</time>
      </trkpt>
      <trkpt lat="45.78524" lon="4.73432">
        <ele>227</ele>
        <time>2012-12-08T15:33:51Z</time>
      </trkpt>
    </trkseg>
  </trk>
</gpx>